Graceful Lady — 00 — position and weather

sailwx.info

Track history (hours):
 
Tides and Currents Weather Stations Pressure Air Temp Water Temp Dewpoint Dewpoint Depression Visibility Wind Speed Wind Dir Waves Ship Positions

Graceful Lady

Last reported at 2017-Nov-17 19:31 UTC. Time now 2017-Nov-17 19:36 UTC.
Position N 24°23' E 118°07'.

Type: Towing. MMSI: 200009587.

Date/timePositionNaut miles runAvg speedWind from/ knotsBaromVisibWave heightAir tempDewpointWater temp
2017-Nov-17 19:31N 24°23' E 118°07'266239240.9
2017-Nov-17 19:30N 23°02' E 113°31'6273979.7
2017-Nov-17 19:30N 22°01' E 113°41'10181831943.1
2017-Nov-17 19:30N 37°36' E 121°25'365328767.1
2017-Nov-17 19:30N 31°30' E 121°23'6771219058.9
2017-Nov-17 19:30N 22°33' E 113°40'28248348.4
2017-Nov-17 19:30N 24°32' E 118°19'27531883.8
2017-Nov-17 19:29N 22°20' E 113°56'604912.3
2017-Nov-17 19:29N 21°43' E 113°06'815026.7
2017-Nov-17 19:28N 22°59' E 113°34'22295.1
2017-Nov-17 19:23N 22°41' E 113°21'68017113.1
2017-Nov-17 19:21N 31°31' E 121°19'6752383.8
2017-Nov-17 19:04N 22°22' E 113°58'2604648.0
2017-Nov-17 19:01N 24°21' E 118°10'268240938.7
2017-Nov-17 19:00N 23°02' E 113°31'658474024.9
2017-Nov-17 19:00N 31°31' E 121°19'364262179.6
2017-Nov-17 19:00N 37°36' E 121°25'1018915971.6
2017-Nov-17 19:00N 22°01' E 113°41'29762805.1
2017-Nov-17 19:00N 24°32' E 118°19'448403249.7
2017-Nov-17 19:00N 31°31' E 121°19'736441820.0
2017-Nov-17 19:00N 21°42' E 113°04'618385.8
2017-Nov-17 18:59N 22°35' E 113°37'24898.5
2017-Nov-17 18:58N 22°59' E 113°34'444305.3
2017-Nov-17 18:57N 22°20' E 113°56'392772.3
2017-Nov-17 18:56N 22°41' E 113°21'40926.9
2017-Nov-17 18:54N 22°22' E 113°58'6751751.5
2017-Nov-17 18:31N 31°31' E 121°19'36487393.2
2017-Nov-17 18:30N 37°36' E 121°25'799151450.6
2017-Nov-17 18:30N 24°32' E 118°19'448403249.7
2017-Nov-17 18:30N 31°31' E 121°19'65887704.3
2017-Nov-17 18:29N 23°02' E 113°31'62110985.9
2017-Nov-17 18:29N 22°01' E 113°41'24881.5
2017-Nov-17 18:28N 22°20' E 113°56'4431859.2
2017-Nov-17 18:28N 22°59' E 113°34'834519.7
2017-Nov-17 18:27N 21°42' E 113°02'6210574.0
2017-Nov-17 18:26N 22°41' E 113°21'38101.5
2017-Nov-17 18:04N 22°21' E 113°56'2584720.6
2017-Nov-17 18:01N 24°12' E 118°10'259310261.7
2017-Nov-17 18:00N 22°22' E 113°55'27576076.0
2017-Nov-17 18:00N 24°32' E 118°19'799575512.2
2017-Nov-17 18:00N 37°36' E 121°25'994511455.9
2017-Nov-17 18:00N 22°20' E 113°56'2428757.3
2017-Nov-17 18:00N 22°01' E 113°41'7022527870.7
2017-Nov-17 18:00N 31°31' E 121°19'6581185062.2
2017-Nov-17 18:00N 23°02' E 113°31'658338290.5
2017-Nov-17 18:00N 31°31' E 121°19'68062748.0
2017-Nov-17 17:59N 22°41' E 113°21'22296.2
2017-Nov-17 17:55N 22°59' E 113°34'3894.2
2017-Nov-17 17:31N 22°26' E 113°53'256102511.9
2017-Nov-17 17:30N 24°08' E 118°09'825185536.5
2017-Nov-17 17:30N 37°36' E 121°25'79995918.7
2017-Nov-17 17:30N 24°32' E 118°19'29732354.2
2017-Nov-17 17:29N 22°01' E 113°41'6214798.8
2017-Nov-17 17:29N 23°02' E 113°31'4857411.4
2017-Nov-17 17:29N 22°20' E 113°56'67614229.4
2017-Nov-17 17:26N 31°21' E 121°30'14167.7
2017-Nov-17 17:21N 31°31' E 121°19'68061179.3
2017-Nov-17 17:20N 22°41' E 113°21'22933.8
2017-Nov-17 17:19N 22°59' E 113°34'61411.3
2017-Nov-17 17:10N 22°15' E 114°19'6714257.3
2017-Nov-17 17:01N 31°31' E 121°19'702842774.6
2017-Nov-17 17:00N 22°01' E 113°40'3054560.6
2017-Nov-17 17:00N 22°30' E 113°52'274109582.0
2017-Nov-17 17:00N 24°32' E 118°19'275494204.3
2017-Nov-17 17:00N 22°20' E 113°56'994275399.3
2017-Nov-17 17:00N 37°36' E 121°25'96557902.3
2017-Nov-17 16:59N 23°02' E 113°31'4181.2
2017-Nov-17 16:58N 22°59' E 113°34'65846425.7
2017-Nov-17 16:57N 31°31' E 121°19'4803665.4
2017-Nov-17 16:49N 24°02' E 118°08'2336762.4
2017-Nov-17 16:47N 22°18' E 114°22'6672436.3
2017-Nov-17 16:31N 31°32' E 121°19'699628660.9
2017-Nov-17 16:30N 22°05' E 113°41'2812572.5
2017-Nov-17 16:30N 22°32' E 113°49'275329895.5
2017-Nov-17 16:30N 24°32' E 118°19'799143878.1
2017-Nov-17 16:30N 37°36' E 121°25'364262290.0
2017-Nov-17 16:30N 31°31' E 121°19'67890351.8
2017-Nov-17 16:29N 22°20' E 113°56'487490.1
2017-Nov-17 16:29N 23°02' E 113°31'659742.6
2017-Nov-17 16:29N 22°19' E 114°24'61950.5
2017-Nov-17 16:25N 22°59' E 113°34'4 9.8
2017-Nov-17 16:01N 23°02' E 113°31'5347968.6
2017-Nov-17 16:00N 22°09' E 113°42'4415829.8
2017-Nov-17 16:00N 22°22' E 114°28'9823536617.9
2017-Nov-17 16:00N 37°36' E 121°25'985443474.7
2017-Nov-17 16:00N 22°34' E 113°46'672151223.8
2017-Nov-17 16:00N 31°31' E 121°19'67815440.0
2017-Nov-17 15:57N 22°20' E 113°56'441062.0
2017-Nov-17 15:55N 22°59' E 113°34'657131358.4
2017-Nov-17 15:54N 31°21' E 121°30'6795643.9
2017-Nov-17 15:47N 22°41' E 113°21'6802444.5
2017-Nov-17 15:31N 31°32' E 121°19'691207202.5
2017-Nov-17 15:30N 22°12' E 113°45'237688.0
2017-Nov-17 15:30N 22°36' E 113°43'2814425.2
2017-Nov-17 15:30N 23°02' E 113°31'965347415.7
2017-Nov-17 15:30N 37°36' E 121°25'3641311298.8
2017-Nov-17 15:30N 31°31' E 121°19'148459.5
2017-Nov-17 15:30N 31°21' E 121°30'67660830.7
2017-Nov-17 15:29N 22°20' E 113°56'441942.6
2017-Nov-17 15:28N 22°59' E 113°34'22176.8
2017-Nov-17 15:20N 22°41' E 113°21'6802072.2
2017-Nov-17 15:01N 31°32' E 121°19'68766817.8
2017-Nov-17 15:00N 22°16' E 113°47'1034583.0
2017-Nov-17 15:00N 22°20' E 113°56'2313603.9
2017-Nov-17 15:00N 22°38' E 113°41'9833540555.1
2017-Nov-17 15:00N 37°36' E 121°25'37453891.3
2017-Nov-17 14:59N 31°21' E 121°30'679349118.7
2017-Nov-17 14:59N 22°41' E 113°21'22881.9
2017-Nov-17 14:58N 22°59' E 113°34'65844676.2
2017-Nov-17 14:57N 31°31' E 121°19'8116.2
2017-Nov-17 14:53N 31°39' E 121°14'661113255.8
2017-Nov-17 14:52N 23°02' E 113°31'0 0.0
2017-Nov-17 14:30N 23°02' E 113°31'9653474157.3
2017-Nov-17 14:30N 37°36' E 121°25'998598994.0
2017-Nov-17 14:30N 22°18' E 113°50'214417.2
2017-Nov-17 14:30N 22°38' E 113°41'671219740.2
2017-Nov-17 14:30N 31°31' E 121°19'12485.5
2017-Nov-17 14:30N 31°32' E 121°19'65818660.8
2017-Nov-17 14:28N 22°59' E 113°34'65765679.2
2017-Nov-17 14:27N 31°21' E 121°30'676486641.8
2017-Nov-17 14:27N 22°20' E 113°56'392718.7
2017-Nov-17 14:26N 22°41' E 113°21'6801590.5
2017-Nov-17 14:01N 31°32' E 121°19'364145624.4
2017-Nov-17 14:00N 37°36' E 121°25'9831180185.0
2017-Nov-17 14:00N 22°38' E 113°41'1933480.3
2017-Nov-17 14:00N 22°22' E 113°51'4414461.6
2017-Nov-17 14:00N 23°02' E 113°31'658169150.9
2017-Nov-17 14:00N 31°31' E 121°19'67831683.4
2017-Nov-17 13:59N 22°20' E 113°56'443063.0
2017-Nov-17 13:58N 22°59' E 113°34'657788150.6
2017-Nov-17 13:58N 31°21' E 121°30'6793897.7
2017-Nov-17 13:47N 22°41' E 113°21'34123.1
2017-Nov-17 13:30N 22°24' E 113°53'54787.8
2017-Nov-17 13:30N 22°20' E 113°56'678488306.4
2017-Nov-17 13:30N 31°31' E 121°19'658592530.3
2017-Nov-17 13:30N 23°02' E 113°31'65894723.8
2017-Nov-17 13:30N 31°31' E 121°19'68069923.0
2017-Nov-17 13:29N 22°41' E 113°21'194594.2
2017-Nov-17 13:29N 22°38' E 113°41'6776789.3
2017-Nov-17 13:23N 31°18' E 121°47'14391.6
2017-Nov-17 13:21N 31°21' E 121°30'65718329.1
2017-Nov-17 13:19N 22°59' E 113°34'6582170.2
2017-Nov-17 13:01N 31°31' E 121°19'674606322.0
2017-Nov-17 13:00N 22°27' E 113°55'989356018.1
2017-Nov-17 13:00N 37°36' E 121°25'37474849.1
2017-Nov-17 13:00N 31°21' E 121°30'1410151.4
2017-Nov-17 13:00N 31°31' E 121°19'68059690.4
2017-Nov-17 12:59N 22°41' E 113°21'3917671.9
2017-Nov-17 12:59N 22°20' E 113°56'2327202.1
2017-Nov-17 12:59N 22°38' E 113°41'221012.1
2017-Nov-17 12:58N 22°59' E 113°34'42386.5
2017-Nov-17 12:58N 23°02' E 113°31'1126.5
2017-Nov-17 12:33N 23°02' E 113°42'65215238.0
2017-Nov-17 12:31N 31°31' E 121°19'658395017.3
2017-Nov-17 12:30N 23°02' E 113°31'965248155.5
2017-Nov-17 12:30N 37°36' E 121°25'987592313.5
2017-Nov-17 12:30N 22°29' E 113°55'151294.0
2017-Nov-17 12:29N 22°38' E 113°41'670482461.0
2017-Nov-17 12:29N 31°21' E 121°30'679814615.6
2017-Nov-17 12:29N 22°41' E 113°21'22891.8
2017-Nov-17 12:28N 22°59' E 113°34'65843051.6
2017-Nov-17 12:27N 31°31' E 121°19'65297752.9
2017-Nov-17 12:26N 23°01' E 113°42'4352175.4
2017-Nov-17 12:26N 22°20' E 113°56'138340.2
2017-Nov-17 12:02N 21°03' E 111°54'80830286.8
2017-Nov-17 12:01N 31°31' E 121°19'678406919.0
2017-Nov-17 12:00N 22°20' E 113°56'4317167.8
2017-Nov-17 12:00N 23°00' E 113°40'3430890.5
2017-Nov-17 12:00N 22°29' E 113°55'987592306.8
2017-Nov-17 12:00N 37°36' E 121°25'364100869.1
2017-Nov-17 12:00N 31°31' E 121°19'1412689.3
2017-Nov-17 12:00N 31°21' E 121°30'67967884.6
2017-Nov-17 11:59N 22°41' E 113°21'231209.7
2017-Nov-17 11:58N 23°02' E 113°31'4572.8
2017-Nov-17 11:58N 22°59' E 113°34'1485563.2
2017-Nov-17 11:56N 21°03' E 111°55'137164006.2
2017-Nov-17 11:56N 22°38' E 113°41'6721580.0
2017-Nov-17 11:31N 31°31' E 121°19'658395023.0
2017-Nov-17 11:30N 23°02' E 113°31'4047564.9
2017-Nov-17 11:30N 22°29' E 113°55'6702411825.9
2017-Nov-17 11:30N 31°21' E 121°30'37467364.2
2017-Nov-17 11:30N 37°36' E 121°25'9831180178.4
2017-Nov-17 11:30N 22°38' E 113°41'2316321.3
2017-Nov-17 11:30N 22°20' E 113°56'678813200.4
2017-Nov-17 11:30N 31°31' E 121°19'65498168.8
2017-Nov-17 11:29N 22°60' E 113°40'257057.6
2017-Nov-17 11:29N 22°41' E 113°21'22933.8
2017-Nov-17 11:28N 22°59' E 113°34'1455668.0
2017-Nov-17 11:26N 21°05' E 111°58'137318.2
2017-Nov-17 11:01N 22°29' E 113°55'672268841.8
2017-Nov-17 11:00N 31°31' E 121°19'65894806.2
2017-Nov-17 11:00N 23°02' E 113°31'231975.9
2017-Nov-17 10:59N 22°41' E 113°21'192022.0
2017-Nov-17 10:59N 22°38' E 113°41'13031088.0
2017-Nov-17 10:58N 21°07' E 112°02'130233236.3
2017-Nov-17 10:58N 22°20' E 113°56'676347598.8
2017-Nov-17 10:58N 31°21' E 121°30'65765679.2
2017-Nov-17 10:58N 22°59' E 113°34'65846428.2
2017-Nov-17 10:57N 31°31' E 121°19'65411493.0
2017-Nov-17 10:53N 22°60' E 113°40'142369.3
2017-Nov-17 10:30N 21°09' E 112°05'795572637.4
2017-Nov-17 10:30N 31°21' E 121°30'374336820.8
2017-Nov-17 10:30N 37°36' E 121°25'9943580130.7
2017-Nov-17 10:30N 22°20' E 113°56'678110890.1
2017-Nov-17 10:30N 31°31' E 121°19'68058269.2
2017-Nov-17 10:29N 22°41' E 113°21'191041.3
2017-Nov-17 10:28N 22°38' E 113°41'22143.5
2017-Nov-17 10:19N 22°59' E 113°34'2771149.5
2017-Nov-17 10:04N 24°32' E 118°19'3966204.4
2017-Nov-17 10:00N 21°11' E 112°08'119107549.8
2017-Nov-17 10:00N 22°22' E 113°52'192705.2
2017-Nov-17 10:00N 22°38' E 113°41'984708146.3
2017-Nov-17 10:00N 37°36' E 121°25'3641311277.2
2017-Nov-17 10:00N 31°31' E 121°19'65527749.2
2017-Nov-17 09:58N 22°59' E 113°39'272108917.1
2017-Nov-17 09:58N 24°32' E 118°19'27582364.7
2017-Nov-17 09:58N 22°20' E 113°56'447582.8
2017-Nov-17 09:58N 22°59' E 113°34'47134.0
2017-Nov-17 09:58N 23°02' E 113°31'22181.1
2017-Nov-17 09:50N 22°41' E 113°21'6807952.3
2017-Nov-17 09:45N 31°31' E 121°19'3641498.1
2017-Nov-17 09:31N 37°36' E 121°25'9991797314.2
2017-Nov-17 09:30N 22°18' E 113°50'28172227.0
2017-Nov-17 09:30N 24°32' E 118°19'27966891.4
2017-Nov-17 09:30N 23°02' E 113°31'658263129.3
2017-Nov-17 09:30N 31°31' E 121°19'671402885.2
2017-Nov-17 09:30N 22°38' E 113°41'21769.5
2017-Nov-17 09:28N 22°59' E 113°39'5697.6
2017-Nov-17 09:28N 22°59' E 113°34'441007.8
2017-Nov-17 09:25N 22°20' E 113°56'1171286.2
2017-Nov-17 09:20N 21°13' E 112°13'1082694.9
2017-Nov-17 09:17N 22°41' E 113°21'68019594.6
2017-Nov-17 09:15N 31°31' E 121°19'141173.6
2017-Nov-17 09:14N 31°21' E 121°30'6734701.2
2017-Nov-17 09:06N 22°23' E 113°59'99111013.8
2017-Nov-17 09:00N 37°36' E 121°25'965579042.8
2017-Nov-17 09:00N 23°02' E 113°31'4943888.0
2017-Nov-17 09:00N 22°15' E 113°48'687247152.4
2017-Nov-17 09:00N 31°31' E 121°19'1412323.1
2017-Nov-17 09:00N 31°21' E 121°30'443227633.2
2017-Nov-17 09:00N 24°32' E 118°19'448322627.9
2017-Nov-17 09:00N 31°31' E 121°19'671185945.7
2017-Nov-17 09:00N 22°38' E 113°41'193124.6
2017-Nov-17 08:59N 22°41' E 113°21'251514.7
2017-Nov-17 08:58N 22°59' E 113°39'4212599.3
2017-Nov-17 08:58N 22°20' E 113°56'447238.1
2017-Nov-17 08:58N 22°59' E 113°34'1272581.4
2017-Nov-17 08:55N 21°15' E 112°16'117771.2
2017-Nov-17 08:46N 22°23' E 113°58'47183.7
2017-Nov-17 08:30N 23°02' E 113°31'965868564.2
2017-Nov-17 08:30N 37°36' E 121°25'799575512.2
2017-Nov-17 08:30N 24°32' E 118°19'275988376.4
2017-Nov-17 08:30N 22°20' E 113°56'2327454.0
2017-Nov-17 08:30N 22°38' E 113°41'672483499.5
2017-Nov-17 08:30N 31°31' E 121°19'690414160.3
2017-Nov-17 08:30N 22°13' E 113°45'690275892.9
2017-Nov-17 08:30N 31°31' E 121°19'65327034.8
2017-Nov-17 08:28N 23°00' E 113°41'6522.4
2017-Nov-17 08:28N 22°59' E 113°34'22881.9
2017-Nov-17 08:26N 22°41' E 113°21'1011466.6
2017-Nov-17 08:22N 21°17' E 112°20'112679.9
2017-Nov-17 08:12N 22°23' E 113°58'23116.6
2017-Nov-17 08:01N 22°39' E 113°41'2912908.7
2017-Nov-17 08:00N 22°10' E 113°43'5331714.9
2017-Nov-17 08:00N 23°02' E 113°31'9653474256.7
2017-Nov-17 08:00N 37°36' E 121°25'994275396.2
2017-Nov-17 08:00N 22°20' E 113°56'275141198.2
2017-Nov-17 08:00N 24°32' E 118°19'448403289.9
2017-Nov-17 08:00N 31°31' E 121°19'65818498.8
2017-Nov-17 07:58N 22°59' E 113°34'65860765.5
2017-Nov-17 07:57N 31°31' E 121°19'6805930.5
2017-Nov-17 07:50N 22°41' E 113°21'972796.2
2017-Nov-17 07:48N 21°19' E 112°24'119406.6
2017-Nov-17 07:31N 23°02' E 113°31'5620076.8
2017-Nov-17 07:30N 22°07' E 113°41'1012910914.8
2017-Nov-17 07:30N 37°36' E 121°25'7992877540.0
2017-Nov-17 07:30N 24°32' E 118°19'448201811.1
2017-Nov-17 07:30N 31°31' E 121°19'7751395483.6
2017-Nov-17 07:30N 21°21' E 112°26'1172946.2
2017-Nov-17 07:28N 22°59' E 113°34'65847356.8
2017-Nov-17 07:27N 31°31' E 121°19'68062751.4
2017-Nov-17 07:26N 22°41' E 113°21'4299.0
2017-Nov-17 07:01N 22°03' E 113°41'5911220.8
2017-Nov-17 07:00N 23°02' E 113°31'27966891.4
2017-Nov-17 07:00N 24°32' E 118°19'448268856.5
2017-Nov-17 07:00N 31°31' E 121°19'771213517.5
2017-Nov-17 07:00N 21°23' E 112°30'1133553.0
2017-Nov-17 06:58N 22°59' E 113°34'65860763.3
2017-Nov-17 06:57N 31°32' E 121°19'68049984.3
2017-Nov-17 06:56N 22°41' E 113°21'67918237.7
2017-Nov-17 06:54N 31°21' E 121°30'6571678.6
2017-Nov-17 06:31N 23°02' E 113°31'6220182.9
2017-Nov-17 06:30N 22°01' E 113°40'1019261905.3
2017-Nov-17 06:30N 37°36' E 121°25'364436909.2
2017-Nov-17 06:30N 31°32' E 121°19'1204.1
2017-Nov-17 06:30N 31°31' E 121°19'448115225.7
2017-Nov-17 06:30N 24°32' E 118°19'36818424.1
2017-Nov-17 06:28N 21°25' E 112°34'11010114.6
2017-Nov-17 06:28N 22°59' E 113°34'511293.9
2017-Nov-17 06:25N 22°32' E 114°21'56414.9
2017-Nov-17 06:17N 22°41' E 113°21'9883544.8
2017-Nov-17 06:01N 37°36' E 121°25'975233915.1
2017-Nov-17 06:00N 22°34' E 114°18'4921931.7
2017-Nov-17 06:00N 22°00' E 113°40'29889397.5
2017-Nov-17 06:00N 24°32' E 118°19'279200671.3
2017-Nov-17 06:00N 23°02' E 113°31'222188.5
2017-Nov-17 05:59N 22°41' E 113°21'8410410.3
2017-Nov-17 05:59N 21°27' E 112°38'1065950.7
2017-Nov-17 05:58N 22°59' E 113°34'65865830.1
2017-Nov-17 05:57N 31°32' E 121°19'6677507.9
2017-Nov-17 05:52N 22°17' E 114°22'66710303.2
2017-Nov-17 05:48N 31°31' E 121°19'3641258.4
2017-Nov-17 05:31N 37°36' E 121°25'799191836.0
2017-Nov-17 05:30N 24°32' E 118°19'449161468.2
2017-Nov-17 05:30N 31°32' E 121°19'6562360298.8
2017-Nov-17 05:30N 22°35' E 114°17'4929108.7
2017-Nov-17 05:30N 22°01' E 113°40'703505954.9
2017-Nov-17 05:30N 31°31' E 121°19'759390461.0
2017-Nov-17 05:30N 21°29' E 112°42'1038617.7
2017-Nov-17 05:29N 23°02' E 113°31'4176.5
2017-Nov-17 05:28N 22°59' E 113°34'22177.1
2017-Nov-17 05:20N 22°41' E 113°21'9883002.9
2017-Nov-17 05:01N 37°36' E 121°25'975702241.3
2017-Nov-17 05:00N 22°34' E 114°15'4916159.3
2017-Nov-17 05:00N 23°02' E 113°31'10044875.4
2017-Nov-17 05:00N 21°31' E 112°45'5811027.8
2017-Nov-17 05:00N 22°00' E 113°40'29834605.8
2017-Nov-17 04:59N 24°32' E 118°19'295353915.0
2017-Nov-17 04:59N 22°41' E 113°21'22862.7
2017-Nov-17 04:58N 22°59' E 113°34'6584258.6
2017-Nov-17 04:48N 31°31' E 121°19'3641218.7
2017-Nov-17 04:30N 37°36' E 121°25'975877746.3
2017-Nov-17 04:30N 22°34' E 114°15'4756257.2
2017-Nov-17 04:30N 22°01' E 113°40'5412140.1
2017-Nov-17 04:30N 21°33' E 112°49'96115542.9
2017-Nov-17 04:30N 23°02' E 113°31'27914754.9
2017-Nov-17 04:29N 24°32' E 118°19'44832917.3
2017-Nov-17 04:28N 31°31' E 121°19'65898663.0
2017-Nov-17 04:28N 22°59' E 113°34'65864053.1
2017-Nov-17 04:27N 31°32' E 121°19'6805974.3
2017-Nov-17 04:20N 22°41' E 113°21'42127.2
2017-Nov-17 04:00N 22°04' E 113°41'10153654626.1
2017-Nov-17 04:00N 37°36' E 121°25'9751755492.5
2017-Nov-17 04:00N 22°34' E 114°15'253101133.1
2017-Nov-17 04:00N 24°32' E 118°19'348113892.3
2017-Nov-17 04:00N 21°35' E 112°53'74822632.6
2017-Nov-17 03:58N 31°31' E 121°19'658102951.0
2017-Nov-17 03:58N 22°59' E 113°34'65862367.5
2017-Nov-17 03:57N 31°32' E 121°19'6805988.8
2017-Nov-17 03:50N 22°41' E 113°21'39119.3
2017-Nov-17 03:31N 22°07' E 113°42'1012728514.3
2017-Nov-17 03:30N 37°36' E 121°25'9753510965.3
2017-Nov-17 03:30N 22°34' E 114°15'9241462.5
2017-Nov-17 03:30N 21°37' E 112°56'3441239052.2
2017-Nov-17 03:30N 24°32' E 118°19'279143333.5
2017-Nov-17 03:30N 23°02' E 113°31'658790075.9
2017-Nov-17 03:30N 31°32' E 121°19'118.1
2017-Nov-17 03:28N 31°31' E 121°19'65811722.2
2017-Nov-17 03:25N 22°59' E 113°34'22882.1
2017-Nov-17 03:23N 22°41' E 113°21'3798.2
2017-Nov-17 03:00N 22°10' E 113°43'10091210210.6
2017-Nov-17 03:00N 37°36' E 121°25'9753510965.3
2017-Nov-17 03:00N 22°34' E 114°15'253113774.7
2017-Nov-17 03:00N 24°32' E 118°19'449146792.9
2017-Nov-17 03:00N 31°32' E 121°19'658131679.3
2017-Nov-17 03:00N 23°02' E 113°31'232190.6
2017-Nov-17 02:59N 22°41' E 113°21'22892.0
2017-Nov-17 02:58N 22°59' E 113°34'856685.4
2017-Nov-17 02:57N 21°40' E 113°01'74024456.8
2017-Nov-17 02:55N 31°31' E 121°19'67814102.0
2017-Nov-17 02:52N 22°20' E 113°56'6762855.9
2017-Nov-17 02:38N 31°21' E 121°30'3742948.1
2017-Nov-17 02:30N 37°36' E 121°25'9751755482.7
2017-Nov-17 02:30N 22°34' E 114°15'4935440.7
2017-Nov-17 02:30N 23°02' E 113°31'279501667.2
2017-Nov-17 02:30N 24°32' E 118°19'27919670.6
2017-Nov-17 02:29N 22°09' E 113°59'684351806.7
2017-Nov-17 02:29N 31°21' E 121°30'14716.0
2017-Nov-17 02:28N 31°31' E 121°19'736120492.7
2017-Nov-17 02:28N 21°42' E 113°04'82147236.7
2017-Nov-17 02:28N 22°59' E 113°34'65865832.3
2017-Nov-17 02:27N 31°32' E 121°19'68043740.1
2017-Nov-17 02:26N 22°41' E 113°21'9882298.3
2017-Nov-17 02:00N 37°36' E 121°25'975351096.5
2017-Nov-17 02:00N 22°34' E 114°15'657394257.9
2017-Nov-17 02:00N 31°32' E 121°19'44948931.0
2017-Nov-17 02:00N 24°32' E 118°19'443265572.1
2017-Nov-17 02:00N 31°21' E 121°30'657788338.1
2017-Nov-17 01:59N 23°02' E 113°31'236754.3
2017-Nov-17 01:59N 22°41' E 113°21'29315301.7
2017-Nov-17 01:58N 24°15' E 118°23'27639692.6
2017-Nov-17 01:58N 22°59' E 113°34'7817505.6
2017-Nov-17 01:57N 21°46' E 113°07'48228.1
2017-Nov-17 01:45N 22°07' E 113°54'1285.3
2017-Nov-17 01:36N 22°17' E 113°48'45454.0
2017-Nov-17 01:30N 21°48' E 113°10'75271289.4
2017-Nov-17 01:30N 22°34' E 114°15'4929533.9
2017-Nov-17 01:30N 23°02' E 113°31'658197519.0
2017-Nov-17 01:30N 31°32' E 121°19'684246379.1
2017-Nov-17 01:30N 22°18' E 113°49'2821015679.8
2017-Nov-17 01:30N 24°32' E 118°19'28554044.4
2017-Nov-17 01:30N 22°06' E 113°52'457770.5
2017-Nov-17 01:29N 22°41' E 113°21'68035990.5
2017-Nov-17 01:28N 31°31' E 121°19'14589.3
2017-Nov-17 01:27N 31°21' E 121°30'46246161.5
2017-Nov-17 01:26N 24°12' E 118°19'27111620.5
2017-Nov-17 01:25N 22°59' E 113°34'54134.1
2017-Nov-17 01:00N 22°07' E 113°48'37132713.5
2017-Nov-17 01:00N 22°34' E 114°15'657124496.1
2017-Nov-17 01:00N 31°32' E 121°19'47277209.7
2017-Nov-17 01:00N 24°08' E 118°16'26734338.5
2017-Nov-17 00:59N 22°20' E 113°51'68135521.3
2017-Nov-17 00:58N 31°31' E 121°19'14686.2
2017-Nov-17 00:57N 31°21' E 121°30'65717912.4
2017-Nov-17 00:55N 22°59' E 113°34'45112.8
2017-Nov-17 00:31N 22°34' E 114°15'4035585.3
2017-Nov-17 00:30N 22°06' E 113°45'10111213763.1
2017-Nov-17 00:30N 37°36' E 121°25'36448543.9
2017-Nov-17 00:30N 31°32' E 121°19'119.5
2017-Nov-17 00:28N 31°31' E 121°19'658112769.0
2017-Nov-17 00:28N 23°02' E 113°31'42386.5
2017-Nov-17 00:28N 22°59' E 113°34'22944.9
2017-Nov-17 00:26N 22°41' E 113°21'68218449.1
2017-Nov-17 00:24N 31°25' E 121°31'6571666.0
2017-Nov-17 00:00N 22°34' E 114°16'42151723.2
2017-Nov-17 00:00N 22°07' E 113°42'10121214368.8
2017-Nov-17 00:00N 37°36' E 121°25'965694835.4
2017-Nov-17 00:00N 23°02' E 113°31'2791003334.5
2017-Nov-17 00:00N 24°32' E 118°19'446535707.4
2017-Nov-17 00:00N 31°26' E 121°29'68241586.3
2017-Nov-16 23:59N 22°41' E 113°21'68017371.0
2017-Nov-16 23:57N 31°32' E 121°19'6587644.7
2017-Nov-16 23:52N 22°59' E 113°34'65815276.7
2017-Nov-16 23:49N 31°31' E 121°19'7122284.4
2017-Nov-16 23:30N 21°57' E 113°27'59211201.9
2017-Nov-16 23:30N 22°34' E 114°16'975877248.5
2017-Nov-16 23:30N 37°36' E 121°25'799575512.2
2017-Nov-16 23:30N 24°32' E 118°19'44870199.2
2017-Nov-16 23:30N 31°32' E 121°19'658182319.1
2017-Nov-16 23:30N 23°02' E 113°31'4122.2
2017-Nov-16 23:28N 22°59' E 113°34'22872.2
2017-Nov-16 23:26N 22°41' E 113°21'68038846.9
2017-Nov-16 23:25N 31°31' E 121°19'6731931.9
2017-Nov-16 23:04N 22°29' E 113°52'38611.2
2017-Nov-16 23:01N 23°02' E 113°31'5246787.3
2017-Nov-16 23:00N 22°10' E 113°37'1241860.3
2017-Nov-16 23:00N 21°60' E 113°31'1022736034.5
2017-Nov-16 23:00N 37°36' E 121°25'799125112.3
2017-Nov-16 23:00N 24°32' E 118°19'4481614581.7
2017-Nov-16 23:00N 31°32' E 121°19'119.4
2017-Nov-16 22:58N 31°31' E 121°19'65894715.6
2017-Nov-16 22:58N 22°59' E 113°34'6575117.9
2017-Nov-16 22:50N 31°21' E 121°30'6792294.7
2017-Nov-16 22:32N 22°41' E 113°21'98833861.5
2017-Nov-16 22:31N 37°36' E 121°25'1011727862.7
2017-Nov-16 22:30N 22°11' E 113°34'45163434.9
2017-Nov-16 22:30N 22°34' E 114°16'5036079.3
2017-Nov-16 22:30N 23°02' E 113°31'5970690.1
2017-Nov-16 22:30N 22°03' E 113°31'706121013.7
2017-Nov-16 22:30N 31°32' E 121°19'4481614581.7
2017-Nov-16 22:30N 24°32' E 118°19'5889415701.9
2017-Nov-16 22:29N 49°18' W 122°54'5397334974.0
2017-Nov-16 22:28N 31°31' E 121°19'65894715.6
2017-Nov-16 22:28N 22°59' E 113°34'22126.4
2017-Nov-16 22:17N 22°41' E 113°21'6832452.3
2017-Nov-16 22:01N 31°25' E 121°32'658473508.2
2017-Nov-16 22:00N 22°34' E 114°16'5036079.3
2017-Nov-16 22:00N 23°02' E 113°31'27938583.7
2017-Nov-16 22:00N 24°32' E 118°19'5890261756.8
2017-Nov-16 21:59N 49°18' W 122°53'5397777197.8
2017-Nov-16 21:58N 31°31' E 121°19'65884567.5
2017-Nov-16 21:58N 22°59' E 113°34'65850422.3
2017-Nov-16 21:57N 31°32' E 121°19'68056960.8
2017-Nov-16 21:56N 22°41' E 113°21'6793658.4
2017-Nov-16 21:45N 31°21' E 121°30'7042892.9
2017-Nov-16 21:30N 22°03' E 113°30'623078.9
2017-Nov-16 21:30N 22°09' E 113°29'5247216.6
2017-Nov-16 21:30N 23°02' E 113°31'9651737098.4
2017-Nov-16 21:30N 37°36' E 121°25'3741347304.7
2017-Nov-16 21:30N 31°21' E 121°30'142064.3
2017-Nov-16 21:30N 31°32' E 121°19'44884978.0
2017-Nov-16 21:30N 24°32' E 118°19'44818123.4
2017-Nov-16 21:28N 31°31' E 121°19'68021851.4
2017-Nov-16 21:26N 22°41' E 113°21'22844.4
2017-Nov-16 21:25N 22°59' E 113°34'618773261.5
2017-Nov-16 21:20N 49°18' W 122°58'623819512.2
2017-Nov-16 21:00N 22°03' E 113°31'53189348.1
2017-Nov-16 21:00N 22°34' E 114°16'5022655.2
2017-Nov-16 21:00N 23°02' E 113°31'2791003177.1
2017-Nov-16 21:00N 24°32' E 118°19'799137027.7
2017-Nov-16 21:00N 37°36' E 121°25'364655342.2
2017-Nov-16 21:00N 31°32' E 121°19'68061232.8
2017-Nov-16 20:59N 22°41' E 113°21'62133727785.0
2017-Nov-16 20:59N 49°18' W 122°58'539380894.9
2017-Nov-16 20:55N 31°31' E 121°19'658102951.8
2017-Nov-16 20:55N 22°59' E 113°34'65747289.4
2017-Nov-16 20:54N 31°21' E 121°30'7041799.9
2017-Nov-16 20:30N 22°03' E 113°31'5395875.3
2017-Nov-16 20:30N 22°35' E 114°17'251113027.0
2017-Nov-16 20:30N 24°32' E 118°19'3041095144.8
2017-Nov-16 20:30N 22°13' E 113°24'4919767.4
2017-Nov-16 20:30N 23°02' E 113°31'658263340.1
2017-Nov-16 20:30N 31°32' E 121°19'68055666.2
2017-Nov-16 20:29N 22°41' E 113°21'62153196305.9
2017-Nov-16 20:29N 49°18' W 122°56'5395451651.7
2017-Nov-16 20:28N 31°21' E 121°30'142946.6
2017-Nov-16 20:28N 31°31' E 121°19'658112756.7
2017-Nov-16 20:28N 22°59' E 113°34'46101.0
2017-Nov-16 20:00N 22°35' E 114°17'53191591.1
2017-Nov-16 20:00N 22°03' E 113°31'1020244680.4
2017-Nov-16 20:00N 37°36' E 121°25'965694835.5
2017-Nov-16 20:00N 23°02' E 113°31'279100317.7
2017-Nov-16 20:00N 24°32' E 118°19'44326557.2
2017-Nov-16 19:59N 31°21' E 121°30'65733302.1
2017-Nov-16 19:58N 22°59' E 113°34'65850422.3
2017-Nov-16 19:57N 31°32' E 121°19'68055666.2
2017-Nov-16 19:56N 22°41' E 113°21'68038239.9
2017-Nov-16 19:55N 31°31' E 121°19'539571930.7
2017-Nov-16 19:51N 49°18' W 122°56'623736037.6
2017-Nov-16 19:40N 22°17' E 113°20'17106.4
2017-Nov-16 19:30N 22°03' E 113°31'53191591.1
2017-Nov-16 19:30N 22°35' E 114°17'25190421.6
2017-Nov-16 19:30N 24°32' E 118°19'279111464.1
2017-Nov-16 19:30N 23°02' E 113°31'9653474177.6
2017-Nov-16 19:30N 37°36' E 121°25'364131066.3
2017-Nov-16 19:30N 31°32' E 121°19'119.2
2017-Nov-16 19:28N 31°31' E 121°19'658102951.8
2017-Nov-16 19:28N 22°59' E 113°34'6189655277.1
2017-Nov-16 19:27N 49°18' W 122°56'6237510282.0
2017-Nov-16 19:26N 22°17' E 113°20'24157.7
2017-Nov-16 19:17N 22°41' E 113°21'67916401.5
2017-Nov-16 19:15N 31°21' E 121°30'6572759.6
2017-Nov-16 19:00N 23°02' E 113°31'59211745.6
2017-Nov-16 19:00N 22°03' E 113°31'1020141161.8
2017-Nov-16 19:00N 37°36' E 121°25'364262132.6
2017-Nov-16 19:00N 31°32' E 121°19'143303.0
2017-Nov-16 19:00N 31°21' E 121°30'443531144.2
2017-Nov-16 19:00N 24°32' E 118°19'25129168.3
2017-Nov-16 18:59N 22°35' E 114°17'461948.4
2017-Nov-16 18:58N 22°59' E 113°34'6189365229.2
2017-Nov-16 18:57N 49°18' W 122°56'6215107052.9
2017-Nov-16 18:53N 22°41' E 113°21'68038846.9
2017-Nov-16 18:52N 31°31' E 121°19'70039984.2
2017-Nov-16 18:51N 22°17' E 113°20'1750.5
2017-Nov-16 18:30N 22°03' E 113°31'304109422.9
2017-Nov-16 18:30N 24°32' E 118°19'3061101160.7
2017-Nov-16 18:30N 22°17' E 113°20'698628616.3
2017-Nov-16 18:30N 31°21' E 121°30'143097.5
2017-Nov-16 18:30N 31°32' E 121°19'3641310641.2
2017-Nov-16 18:30N 37°36' E 121°25'50871308016.7
2017-Nov-16 18:30N 49°18' W 122°56'61891392579.5
2017-Nov-16 18:29N 23°02' E 113°31'502997.5
2017-Nov-16 18:28N 22°35' E 114°17'655138715.4
2017-Nov-16 18:28N 31°31' E 121°19'65811664.5
2017-Nov-16 18:25N 22°59' E 113°34'22853.5
2017-Nov-16 18:23N 22°41' E 113°21'39104.0
2017-Nov-16 18:00N 22°03' E 113°31'5942357.7
2017-Nov-16 18:00N 23°02' E 113°31'965579039.5
2017-Nov-16 18:00N 37°36' E 121°25'79936424.8
2017-Nov-16 17:59N 24°32' E 118°19'44832918.4
2017-Nov-16 17:58N 31°31' E 121°19'65891073.3
2017-Nov-16 17:58N 22°59' E 113°34'65852664.8
2017-Nov-16 17:57N 31°32' E 121°19'65632778.3
2017-Nov-16 17:56N 22°35' E 114°17'6177717295.6
2017-Nov-16 17:55N 49°18' W 122°56'621546515.8
2017-Nov-16 17:47N 22°41' E 113°21'39141.2
2017-Nov-16 17:30N 22°03' E 113°30'304121621.8
2017-Nov-16 17:30N 24°32' E 118°19'27938590.4
2017-Nov-16 17:30N 23°02' E 113°31'9653474216.9
2017-Nov-16 17:30N 37°36' E 121°25'36412986.9
2017-Nov-16 17:28N 31°31' E 121°19'5395809244.0
2017-Nov-16 17:28N 49°18' W 122°56'5394396313.0
2017-Nov-16 17:27N 31°32' E 121°19'68059741.0
2017-Nov-16 17:26N 22°41' E 113°21'22862.7
2017-Nov-16 17:25N 22°59' E 113°34'65784444.7
2017-Nov-16 17:24N 31°21' E 121°30'65313745.8
2017-Nov-16 17:21N 22°33' E 114°19'9752797.8
2017-Nov-16 17:01N 37°36' E 121°25'10191222945.6
2017-Nov-16 17:00N 22°04' E 113°29'70677038.0
2017-Nov-16 17:00N 31°32' E 121°19'53942157733.8
2017-Nov-16 17:00N 49°18' W 122°56'53951618437.6
2017-Nov-16 17:00N 31°21' E 121°30'44393731.3
2017-Nov-16 16:59N 24°32' E 118°19'2796044.3
2017-Nov-16 16:57N 23°02' E 113°31'234500.7
2017-Nov-16 16:56N 22°41' E 113°21'22891.8
2017-Nov-16 16:55N 22°59' E 113°34'65815276.6
2017-Nov-16 16:52N 31°31' E 121°19'7031944.4
2017-Nov-16 16:30N 22°08' E 113°26'10163657156.5
2017-Nov-16 16:30N 37°36' E 121°25'965231613.1
2017-Nov-16 16:30N 23°02' E 113°31'27971667.3
2017-Nov-16 16:30N 24°32' E 118°19'44814663.5
2017-Nov-16 16:28N 31°31' E 121°19'658102951.8
2017-Nov-16 16:28N 22°59' E 113°34'65849373.9
2017-Nov-16 16:27N 31°32' E 121°19'6445201.6
2017-Nov-16 16:19N 22°31' E 114°46'802107.8
2017-Nov-16 16:17N 22°41' E 113°21'9883509.8
2017-Nov-16 16:00N 37°36' E 121°25'1013729312.9
2017-Nov-16 16:00N 22°12' E 113°25'30454761.6
2017-Nov-16 16:00N 24°32' E 118°19'4491614702.3
2017-Nov-16 16:00N 31°32' E 121°19'68061235.3
2017-Nov-16 15:59N 22°41' E 113°21'68035990.5
2017-Nov-16 15:58N 31°31' E 121°19'65867661.4
2017-Nov-16 15:58N 23°02' E 113°31'484.2
2017-Nov-16 15:55N 22°59' E 113°34'46114.4
2017-Nov-16 15:30N 22°15' E 113°22'4857432.0
2017-Nov-16 15:30N 23°02' E 113°31'965496305.4
2017-Nov-16 15:30N 37°36' E 121°25'36462405.3
2017-Nov-16 15:30N 31°32' E 121°19'120.3
2017-Nov-16 15:28N 31°31' E 121°19'65811439.2
2017-Nov-16 15:25N 22°59' E 113°34'675024.3
2017-Nov-16 15:24N 22°29' E 114°39'736292.8
2017-Nov-16 15:23N 22°41' E 113°21'2669.1
2017-Nov-16 15:00N 22°15' E 113°21'1012303516.9
2017-Nov-16 15:00N 37°36' E 121°25'974318729.7
2017-Nov-16 15:00N 22°28' E 114°36'6910836.9
2017-Nov-16 15:00N 23°02' E 113°31'65824927.3
2017-Nov-16 14:58N 31°31' E 121°19'658102953.2
2017-Nov-16 14:58N 22°59' E 113°34'65850425.1
2017-Nov-16 14:57N 31°32' E 121°19'68061236.1
2017-Nov-16 14:56N 22°41' E 113°21'29553086.9
2017-Nov-16 14:56N 24°32' E 118°19'306848.3
2017-Nov-16 14:34N 22°17' E 113°20'101014723.8
2017-Nov-16 14:30N 37°36' E 121°25'98861300.6
2017-Nov-16 14:29N 22°41' E 113°21'68038847.7
2017-Nov-16 14:28N 31°31' E 121°19'129.8
2017-Nov-16 14:27N 31°32' E 121°19'70178910.4
2017-Nov-16 14:26N 22°15' E 113°21'486117.6
2017-Nov-16 14:26N 23°02' E 113°31'2795511.9
2017-Nov-16 14:23N 24°32' E 118°19'27713636.3
2017-Nov-16 14:22N 22°59' E 113°34'9662681.1
2017-Nov-16 14:00N 37°36' E 121°25'364145610.0
2017-Nov-16 14:00N 31°32' E 121°19'65869710.0
2017-Nov-16 13:59N 23°02' E 113°31'238111.5
2017-Nov-16 13:59N 22°41' E 113°21'265895.6
2017-Nov-16 13:59N 22°15' E 113°21'70151492.3
2017-Nov-16 13:58N 31°31' E 121°19'65894718.2
2017-Nov-16 13:58N 22°59' E 113°34'642668.5
2017-Nov-16 13:56N 22°25' E 114°32'244877148.3
2017-Nov-16 13:56N 24°32' E 118°19'3051045.1
2017-Nov-16 13:39N 22°14' E 113°23'62440.7
2017-Nov-16 13:30N 22°23' E 114°30'981207699.5
2017-Nov-16 13:30N 37°36' E 121°25'364262106.6
2017-Nov-16 13:30N 31°32' E 121°19'701132899.9
2017-Nov-16 13:30N 22°15' E 113°21'4834262.8
2017-Nov-16 13:30N 23°02' E 113°31'235069.7
2017-Nov-16 13:29N 22°41' E 113°21'68036528.7
2017-Nov-16 13:28N 31°31' E 121°19'65894718.2
2017-Nov-16 13:28N 22°59' E 113°34'49135.8
2017-Nov-16 13:06N 22°11' E 113°25'7026850.1
2017-Nov-16 13:00N 31°32' E 121°19'7022528208.4
2017-Nov-16 13:00N 22°11' E 113°26'5720648.3
2017-Nov-16 13:00N 22°21' E 114°27'669859.7
2017-Nov-16 12:59N 23°02' E 113°31'65832001.5
2017-Nov-16 12:58N 31°31' E 121°19'65894717.6
2017-Nov-16 12:58N 22°59' E 113°34'22912.5
2017-Nov-16 12:56N 22°41' E 113°21'26377.2
2017-Nov-16 12:52N 22°15' E 113°21'3062164.4
2017-Nov-16 12:44N 24°32' E 118°19'2703344.9
2017-Nov-16 12:39N 23°06' E 113°38'1 6.4
2017-Nov-16 12:30N 23°06' E 113°37'65112874.0
2017-Nov-16 12:27N 31°32' E 121°19'70132793.5
2017-Nov-16 12:26N 22°15' E 113°21'1012607050.0
2017-Nov-16 12:26N 37°36' E 121°25'36462457.9
2017-Nov-16 12:25N 31°31' E 121°19'448115218.6
2017-Nov-16 12:25N 24°32' E 118°19'27776573.1
2017-Nov-16 12:25N 22°59' E 113°34'41284.9
2017-Nov-16 12:25N 23°02' E 113°31'23101.6
2017-Nov-16 12:11N 22°41' E 113°21'33178.2
2017-Nov-16 12:00N 22°10' E 113°31'5137041.4
2017-Nov-16 12:00N 23°02' E 113°31'52920.9
2017-Nov-16 12:00N 23°05' E 113°34'653213863.8
2017-Nov-16 12:00N 31°32' E 121°19'364327671.1
2017-Nov-16 12:00N 37°36' E 121°25'98898762.6
2017-Nov-16 11:59N 22°41' E 113°21'68037652.6
2017-Nov-16 11:58N 31°31' E 121°19'65811551.0
2017-Nov-16 11:55N 22°59' E 113°34'46346.2
2017-Nov-16 11:47N 22°15' E 113°21'30622487.4
2017-Nov-16 11:46N 24°32' E 118°19'7993107.5
2017-Nov-16 11:31N 37°36' E 121°25'799191837.4
2017-Nov-16 11:30N 24°32' E 118°19'29753462.2
2017-Nov-16 11:30N 22°11' E 113°34'332836.4
2017-Nov-16 11:29N 22°41' E 113°21'2712023.1
2017-Nov-16 11:29N 23°05' E 113°34'4274.7
2017-Nov-16 11:28N 23°02' E 113°31'4589.4
2017-Nov-16 11:28N 22°59' E 113°34'65815179.2
2017-Nov-16 11:25N 31°31' E 121°19'70114670.2
2017-Nov-16 11:22N 22°15' E 113°21'1644.5
2017-Nov-16 11:00N 22°10' E 113°37'10103636965.3
2017-Nov-16 11:00N 37°36' E 121°25'799287756.1
2017-Nov-16 11:00N 24°32' E 118°19'27959010.0
2017-Nov-16 11:00N 23°02' E 113°31'658474008.7
2017-Nov-16 11:00N 31°32' E 121°19'70170143.1
2017-Nov-16 10:59N 22°15' E 113°21'2618874.2
2017-Nov-16 10:59N 22°41' E 113°21'68038847.9
2017-Nov-16 10:58N 31°31' E 121°19'65887702.1
2017-Nov-16 10:58N 22°59' E 113°34'645.5
2017-Nov-16 10:50N 23°05' E 113°34'413.0
2017-Nov-16 10:30N 23°02' E 113°31'5145988.5
2017-Nov-16 10:30N 22°11' E 113°40'1008726048.1
2017-Nov-16 10:30N 37°36' E 121°25'799959187.1
2017-Nov-16 10:30N 24°32' E 118°19'44873390.1
2017-Nov-16 10:30N 31°32' E 121°19'70125767.0
2017-Nov-16 10:28N 22°15' E 113°21'701252329.3
2017-Nov-16 10:28N 31°31' E 121°19'67322432.3
2017-Nov-16 10:26N 22°17' E 114°10'542007.2
2017-Nov-16 10:25N 22°59' E 113°34'66135506.4
2017-Nov-16 10:24N 31°43' E 121°07'683117068.9
2017-Nov-16 10:23N 22°41' E 113°21'2713743.4
2017-Nov-16 10:23N 23°05' E 113°34'53139.0
2017-Nov-16 10:00N 22°13' E 113°42'1006329305.4
2017-Nov-16 10:00N 37°36' E 121°25'965496296.9
2017-Nov-16 10:00N 23°02' E 113°31'4813184.0
2017-Nov-16 10:00N 22°15' E 113°21'7012525150.2
2017-Nov-16 10:00N 31°32' E 121°19'119.4
2017-Nov-16 09:58N 31°31' E 121°19'65894718.2
2017-Nov-16 09:58N 22°59' E 113°34'6213.6
2017-Nov-16 09:56N 23°05' E 113°34'65721300.3
2017-Nov-16 09:54N 31°43' E 121°09'68310162.6
2017-Nov-16 09:50N 22°41' E 113°21'6815497.3
2017-Nov-16 09:43N 31°24' E 121°31'6824343.9
2017-Nov-16 09:33N 22°20' E 113°51'6126.6
2017-Nov-16 09:31N 22°20' E 113°56'4810116.5
2017-Nov-16 09:30N 23°02' E 113°31'4633152.8
2017-Nov-16 09:30N 22°19' E 113°50'683491669.2
2017-Nov-16 09:30N 31°25' E 121°31'446802584.5
2017-Nov-16 09:30N 24°32' E 118°19'7992877561.2
2017-Nov-16 09:30N 37°36' E 121°25'3531271541.9
2017-Nov-16 09:30N 31°43' E 121°09'6822454417.9
2017-Nov-16 09:30N 22°20' E 113°56'678143617.9
2017-Nov-16 09:30N 31°32' E 121°19'701252515.0
2017-Nov-16 09:30N 22°15' E 113°21'21924.6
2017-Nov-16 09:28N 22°15' E 113°43'689137807.0
2017-Nov-16 09:28N 31°31' E 121°19'65898664.8
2017-Nov-16 09:28N 22°59' E 113°34'22872.2
2017-Nov-16 09:26N 22°41' E 113°21'27697.8
2017-Nov-16 09:24N 23°05' E 113°34'49125.2
2017-Nov-16 09:00N 22°17' E 113°44'42751.9
2017-Nov-16 09:00N 22°16' E 113°48'6871236698.2
2017-Nov-16 09:00N 31°27' E 121°28'447804421.3
2017-Nov-16 09:00N 24°32' E 118°19'799479593.5
2017-Nov-16 09:00N 37°36' E 121°25'1012910585.2
2017-Nov-16 09:00N 22°15' E 113°21'701194242.3
2017-Nov-16 09:00N 31°32' E 121°19'67865986.6
2017-Nov-16 08:59N 22°20' E 113°56'67836412.9
2017-Nov-16 08:58N 31°31' E 121°19'658215274.9
2017-Nov-16 08:58N 23°02' E 113°31'471.2
2017-Nov-16 08:55N 22°59' E 113°34'22295.1
2017-Nov-16 08:50N 22°41' E 113°21'27277.6
2017-Nov-16 08:44N 23°05' E 113°34'65718046.8
2017-Nov-16 08:42N 31°43' E 121°09'7053577.3
2017-Nov-16 08:30N 22°15' E 113°21'2279058.6
2017-Nov-16 08:30N 22°19' E 113°44'285128280.0
2017-Nov-16 08:30N 24°32' E 118°19'456546870.7
2017-Nov-16 08:30N 31°43' E 121°09'353141284.8
2017-Nov-16 08:30N 37°36' E 121°25'367329869.8
2017-Nov-16 08:30N 31°29' E 121°25'53135.4
2017-Nov-16 08:30N 31°32' E 121°19'678305188.1
2017-Nov-16 08:30N 22°20' E 113°56'4814333.3
2017-Nov-16 08:30N 23°02' E 113°31'4193.0
2017-Nov-16 08:28N 23°05' E 113°34'653261393.1
2017-Nov-16 08:28N 31°31' E 121°19'658102954.6
2017-Nov-16 08:28N 22°59' E 113°34'2298.1
2017-Nov-16 08:14N 22°41' E 113°21'29127.5
2017-Nov-16 08:00N 22°21' E 113°44'237398.6
2017-Nov-16 08:00N 22°15' E 113°21'7041268093.8
2017-Nov-16 08:00N 31°43' E 121°09'697627269.3
2017-Nov-16 08:00N 22°10' E 113°43'53189782.1
2017-Nov-16 08:00N 23°02' E 113°31'965434269.6
2017-Nov-16 08:00N 37°36' E 121°25'799719395.6
2017-Nov-16 08:00N 24°32' E 118°19'449201825.2
2017-Nov-16 08:00N 31°32' E 121°19'120.8
2017-Nov-16 07:58N 31°31' E 121°19'65891075.2
2017-Nov-16 07:58N 22°59' E 113°34'4419907.2
2017-Nov-16 07:58N 22°20' E 113°56'67930549.0
2017-Nov-16 07:56N 31°31' E 121°21'681817343.7
2017-Nov-16 07:56N 22°41' E 113°21'29236.4
2017-Nov-16 07:49N 23°06' E 113°36'53174.7
2017-Nov-16 07:30N 22°15' E 113°21'2174545.8
2017-Nov-16 07:30N 22°07' E 113°41'293131859.4
2017-Nov-16 07:30N 24°32' E 118°19'282507954.0
2017-Nov-16 07:30N 22°24' E 113°45'6841231945.8
2017-Nov-16 07:30N 31°43' E 121°09'661475925.2
2017-Nov-16 07:30N 23°02' E 113°31'488196.0
2017-Nov-16 07:30N 22°20' E 113°56'6792445298.4
2017-Nov-16 07:30N 31°33' E 121°19'363118684.5
2017-Nov-16 07:30N 37°36' E 121°25'988197525.2
2017-Nov-16 07:29N 22°41' E 113°21'68035497.3
2017-Nov-16 07:28N 31°32' E 121°19'65887772.2
2017-Nov-16 07:28N 22°59' E 113°34'46101.4
2017-Nov-16 07:00N 22°15' E 113°21'1012331123.6
2017-Nov-16 07:00N 37°36' E 121°25'1015332135.8
2017-Nov-16 07:00N 22°04' E 113°41'588402.9
2017-Nov-16 07:00N 23°02' E 113°31'233119.8
2017-Nov-16 06:59N 22°41' E 113°21'68038240.9
2017-Nov-16 06:58N 31°31' E 121°19'12092.2
2017-Nov-16 06:58N 31°32' E 121°19'65811448.9
2017-Nov-16 06:55N 22°59' E 113°34'4426542.9
2017-Nov-16 06:55N 22°20' E 113°56'3382.6
2017-Nov-16 06:30N 22°15' E 113°21'4819043.9
2017-Nov-16 06:30N 23°02' E 113°31'965204359.9
2017-Nov-16 06:30N 37°36' E 121°25'79954293.6
2017-Nov-16 06:29N 24°32' E 118°19'44831628.6
2017-Nov-16 06:28N 31°31' E 121°19'111.7
2017-Nov-16 06:25N 31°32' E 121°19'658103039.8
2017-Nov-16 06:25N 22°59' E 113°34'22176.0
2017-Nov-16 06:17N 22°41' E 113°21'431700.2
2017-Nov-16 06:16N 22°02' E 113°40'2499.3
2017-Nov-16 06:01N 22°20' E 113°56'99477828.9
2017-Nov-16 06:01N 37°36' E 121°25'1012910585.2
2017-Nov-16 06:00N 22°15' E 113°21'704317019.8
2017-Nov-16 06:00N 31°43' E 121°09'456546862.8
2017-Nov-16 06:00N 24°32' E 118°19'27959009.1
2017-Nov-16 06:00N 23°02' E 113°31'617523.0
2017-Nov-16 05:59N 22°02' E 113°40'246605.7
2017-Nov-16 05:59N 22°20' E 113°56'3947121.0
2017-Nov-16 05:59N 22°41' E 113°21'68037683.2
2017-Nov-16 05:58N 31°32' E 121°19'65891152.5
2017-Nov-16 05:58N 22°59' E 113°34'6587047.4
2017-Nov-16 05:52N 31°31' E 121°19'6581823.0
2017-Nov-16 05:30N 23°02' E 113°31'48172135.4
2017-Nov-16 05:30N 22°20' E 113°56'33120554.0
2017-Nov-16 05:30N 22°15' E 113°21'704362303.5
2017-Nov-16 05:30N 31°43' E 121°09'35333460.3
2017-Nov-16 05:30N 37°36' E 121°25'799719390.3
2017-Nov-16 05:30N 24°32' E 118°19'29762884.3
2017-Nov-16 05:29N 22°02' E 113°40'4339113.8
2017-Nov-16 05:29N 22°41' E 113°21'68036527.9
2017-Nov-16 05:28N 31°31' E 121°19'65894716.9
2017-Nov-16 05:28N 22°59' E 113°34'6584601.8
2017-Nov-16 05:19N 31°32' E 121°19'7012250.7
2017-Nov-16 05:00N 22°15' E 113°21'4813184.3
2017-Nov-16 05:00N 23°02' E 113°31'661475911.4
2017-Nov-16 05:00N 31°43' E 121°09'706282207.9
2017-Nov-16 05:00N 22°02' E 113°40'297534527.5
2017-Nov-16 05:00N 24°32' E 118°19'799130798.2
2017-Nov-16 05:00N 37°36' E 121°25'99451145.3
2017-Nov-16 04:58N 22°20' E 113°56'678152478.9
2017-Nov-16 04:58N 31°31' E 121°19'12145.6
2017-Nov-16 04:58N 31°32' E 121°19'65811560.7
2017-Nov-16 04:55N 22°59' E 113°34'22125.6
2017-Nov-16 04:44N 22°41' E 113°21'2399.0
2017-Nov-16 04:31N 23°02' E 113°31'61220380.4
2017-Nov-16 04:31N 22°01' E 113°40'2316243.0
2017-Nov-16 04:30N 22°15' E 113°21'1012331123.6
2017-Nov-16 04:30N 37°36' E 121°25'994397799.0
2017-Nov-16 04:30N 22°20' E 113°56'27519768.0
2017-Nov-16 04:29N 24°32' E 118°19'295212347.5
2017-Nov-16 04:29N 22°41' E 113°21'68039507.2
2017-Nov-16 04:28N 31°32' E 121°19'1425597.2
2017-Nov-16 04:28N 31°43' E 121°09'661103463.8
2017-Nov-16 04:28N 22°59' E 113°34'2453.5
2017-Nov-16 04:01N 22°35' E 113°35'244612.7
2017-Nov-16 04:00N 22°15' E 113°21'2138469.9
2017-Nov-16 04:00N 22°04' E 113°41'295132741.6
2017-Nov-16 04:00N 24°32' E 118°19'7991438733.2
2017-Nov-16 04:00N 37°36' E 121°25'994119332.8
2017-Nov-16 04:00N 22°20' E 113°56'4817215.4
2017-Nov-16 04:00N 23°02' E 113°31'661148722.3
2017-Nov-16 03:59N 31°43' E 121°09'683153700.8
2017-Nov-16 03:59N 22°41' E 113°21'68045320.4
2017-Nov-16 03:58N 31°31' E 121°19'11101.5
2017-Nov-16 03:58N 31°32' E 121°19'658103041.9
2017-Nov-16 03:58N 22°59' E 113°34'2468.9
2017-Nov-16 03:37N 22°35' E 113°35'24230.5
2017-Nov-16 03:30N 22°15' E 113°21'33120557.4
2017-Nov-16 03:30N 22°20' E 113°56'186585.6
2017-Nov-16 03:30N 22°08' E 113°42'1011606469.2
2017-Nov-16 03:30N 37°36' E 121°25'353635706.2
2017-Nov-16 03:30N 31°43' E 121°09'45651268.4
2017-Nov-16 03:30N 24°32' E 118°19'29540836.0
2017-Nov-16 03:29N 22°41' E 113°21'2310144.3
2017-Nov-16 03:29N 23°02' E 113°31'65844719.3
2017-Nov-16 03:28N 31°32' E 121°19'1734.3
2017-Nov-16 03:28N 31°31' E 121°19'658102951.1
2017-Nov-16 03:28N 22°59' E 113°34'24162.4
2017-Nov-16 03:19N 22°35' E 113°35'2479.4
2017-Nov-16 03:00N 22°15' E 113°21'2138316.8
2017-Nov-16 03:00N 22°11' E 113°43'5293797.3
2017-Nov-16 03:00N 23°02' E 113°31'661475907.8
2017-Nov-16 03:00N 31°43' E 121°09'4561640628.9
2017-Nov-16 03:00N 24°32' E 118°19'799239788.9
2017-Nov-16 03:00N 37°36' E 121°25'98868370.3
2017-Nov-16 02:59N 22°41' E 113°21'3917670.4
2017-Nov-16 02:59N 22°20' E 113°56'67844394.4
2017-Nov-16 02:58N 31°32' E 121°19'65894799.9
2017-Nov-16 02:58N 22°59' E 113°34'65814986.3
2017-Nov-16 02:55N 31°31' E 121°19'677128194.0
2017-Nov-16 02:55N 22°35' E 113°35'2458.2
2017-Nov-16 02:30N 22°14' E 113°45'287128985.4
2017-Nov-16 02:30N 24°32' E 118°19'30652470.7
2017-Nov-16 02:30N 22°15' E 113°21'704422693.1
2017-Nov-16 02:30N 31°43' E 121°09'682102263.5
2017-Nov-16 02:29N 22°20' E 113°56'4886095.8
2017-Nov-16 02:29N 23°02' E 113°31'965434237.6
2017-Nov-16 02:29N 37°36' E 121°25'36417971.4
2017-Nov-16 02:28N 31°31' E 121°19'677162373.5
2017-Nov-16 02:28N 22°35' E 113°35'2414449.4
2017-Nov-16 02:28N 22°59' E 113°34'22881.9
2017-Nov-16 02:26N 22°41' E 113°21'68010163.8
2017-Nov-16 02:22N 31°32' E 121°19'6581823.2
2017-Nov-16 02:01N 23°02' E 113°31'6612379472.4
2017-Nov-16 02:00N 31°43' E 121°09'1450362.4
2017-Nov-16 02:00N 31°32' E 121°20'6791221850.0
2017-Nov-16 02:00N 22°20' E 113°56'932201.7
2017-Nov-16 02:00N 22°16' E 113°48'2510050.0
2017-Nov-16 02:00N 22°15' E 113°21'1012173436.5
2017-Nov-16 02:00N 37°36' E 121°25'799151445.6
2017-Nov-16 02:00N 24°32' E 118°19'2778656.2
2017-Nov-16 01:58N 22°59' E 113°34'22881.9
2017-Nov-16 01:56N 22°41' E 113°21'68038880.6
2017-Nov-16 01:55N 31°32' E 121°19'6772646.9
2017-Nov-16 01:40N 22°35' E 113°35'24155.9
2017-Nov-16 01:30N 22°15' E 113°21'2748544.0
2017-Nov-16 01:30N 22°19' E 113°50'281126359.4
2017-Nov-16 01:30N 24°32' E 118°19'7992877466.3
2017-Nov-16 01:30N 37°36' E 121°25'994357998.5
2017-Nov-16 01:30N 22°20' E 113°56'68294393.2
2017-Nov-16 01:30N 31°43' E 121°09'68398365.2
2017-Nov-16 01:29N 22°41' E 113°21'231531.2
2017-Nov-16 01:28N 23°02' E 113°31'658169295.6
2017-Nov-16 01:28N 31°32' E 121°19'1 9.2
2017-Nov-16 01:24N 31°32' E 121°20'65914203.5
2017-Nov-16 01:22N 22°59' E 113°34'24244.8
2017-Nov-16 01:16N 22°35' E 113°35'2495.0
2017-Nov-16 01:00N 22°15' E 113°21'299545.3
2017-Nov-16 01:00N 22°21' E 113°51'27852676.2
2017-Nov-16 01:00N 24°32' E 118°19'27589854.3
2017-Nov-16 01:00N 22°20' E 113°56'394560.1
2017-Nov-16 00:59N 22°41' E 113°21'988355525.6
2017-Nov-16 00:59N 37°36' E 121°25'96599254.9
2017-Nov-16 00:59N 23°02' E 113°31'4289.0
2017-Nov-16 00:58N 22°59' E 113°34'24377.3
2017-Nov-16 00:54N 22°35' E 113°36'67717166.5
2017-Nov-16 00:52N 31°32' E 121°20'14275.2
2017-Nov-16 00:48N 31°43' E 121°09'1459.6
2017-Nov-16 00:34N 31°32' E 121°19'65810922.0
2017-Nov-16 00:31N 23°02' E 113°31'6592372173.1
2017-Nov-16 00:31N 31°32' E 121°20'3641308766.5
2017-Nov-16 00:30N 37°36' E 121°25'10121214062.0
2017-Nov-16 00:30N 22°15' E 113°21'306100173.1
2017-Nov-16 00:30N 24°32' E 118°19'456102524.2
2017-Nov-16 00:30N 31°43' E 121°09'68353459.0
2017-Nov-16 00:29N 22°41' E 113°21'3917670.4
2017-Nov-16 00:29N 22°20' E 113°56'225229.1
2017-Nov-16 00:29N 22°34' E 113°38'67756684.3
2017-Nov-16 00:28N 31°32' E 121°19'65898744.7
2017-Nov-16 00:28N 22°59' E 113°34'6591451.6
2017-Nov-16 00:00N 31°32' E 121°20'702842419.8
2017-Nov-16 00:00N 22°15' E 113°21'10121821093.0
2017-Nov-16 00:00N 37°36' E 121°25'9651158493.3
2017-Nov-16 00:00N 23°01' E 113°32'278166895.9
2017-Nov-16 00:00N 24°32' E 118°19'45644334.8
2017-Nov-16 00:00N 31°43' E 121°09'682204517.1
2017-Nov-15 23:59N 22°20' E 113°56'398835.2
2017-Nov-15 23:59N 22°41' E 113°21'203974.3
2017-Nov-15 23:59N 22°33' E 113°40'271387.8
2017-Nov-15 23:58N 22°59' E 113°34'36123.0
2017-Nov-15 23:40N 22°28' E 113°55'544.3
2017-Nov-15 23:33N 22°26' E 113°50'67818069.2
2017-Nov-15 23:30N 31°32' E 121°20'1450516.2
2017-Nov-15 23:30N 31°43' E 121°09'6761216039.4
2017-Nov-15 23:30N 22°28' E 113°55'34123440.8
2017-Nov-15 23:30N 22°15' E 113°21'2747987.9
2017-Nov-15 23:30N 22°33' E 113°42'1035052.7
2017-Nov-15 23:30N 22°26' E 113°50'9911189685.0
2017-Nov-15 23:30N 37°36' E 121°25'967580462.9
2017-Nov-15 23:30N 22°59' E 113°31'454261.4
2017-Nov-15 23:30N 22°20' E 113°56'395654.5
2017-Nov-15 23:29N 22°41' E 113°21'29531227.8
2017-Nov-15 23:29N 24°32' E 118°19'27718782.4
2017-Nov-15 23:28N 22°59' E 113°34'4 9.3
2017-Nov-15 23:00N 22°55' E 113°33'2518294.5
2017-Nov-15 23:00N 22°32' E 113°45'104421.1
2017-Nov-15 23:00N 22°28' E 113°55'9871777011.4
2017-Nov-15 23:00N 37°36' E 121°25'799151445.6
2017-Nov-15 23:00N 24°32' E 118°19'27525343.3
2017-Nov-15 22:59N 22°20' E 113°56'67923053.4
2017-Nov-15 22:58N 31°32' E 121°20'14711.7
2017-Nov-15 22:56N 31°43' E 121°09'683307387.2
2017-Nov-15 22:56N 22°41' E 113°21'22298.4
2017-Nov-15 22:52N 22°59' E 113°34'924.1
2017-Nov-15 22:31N 22°51' E 113°35'6661197929.6
2017-Nov-15 22:30N 31°32' E 121°20'674809323.1
2017-Nov-15 22:30N 22°31' E 113°48'66777.3
2017-Nov-15 22:30N 22°26' E 113°50'53844.3
2017-Nov-15 22:30N 22°28' E 113°55'987888544.0
2017-Nov-15 22:30N 37°36' E 121°25'994298341.5
2017-Nov-15 22:30N 22°20' E 113°56'682818133.7
2017-Nov-15 22:30N 31°43' E 121°09'456410142.9
2017-Nov-15 22:30N 24°32' E 118°19'29524691.6
2017-Nov-15 22:29N 22°41' E 113°21'22891.8
2017-Nov-15 22:28N 22°59' E 113°34'1227.4
2017-Nov-15 22:01N 22°47' E 113°38'2174066.0
2017-Nov-15 22:00N 22°31' E 113°50'3228445.6
2017-Nov-15 22:00N 22°15' E 113°21'2952167.2
2017-Nov-15 22:00N 22°26' E 113°50'82535.7
2017-Nov-15 22:00N 22°20' E 113°56'9941790059.1
2017-Nov-15 22:00N 37°36' E 121°25'9871777007.8
2017-Nov-15 22:00N 22°29' E 113°55'67650670.2
2017-Nov-15 21:59N 31°43' E 121°09'456546857.2
2017-Nov-15 21:59N 24°32' E 118°19'2951061737.3
2017-Nov-15 21:59N 22°41' E 113°21'22853.5
2017-Nov-15 21:58N 22°59' E 113°34'65912164.1
2017-Nov-15 21:54N 31°32' E 121°20'4744023.6
2017-Nov-15 21:47N 24°09' E 118°10'4811706.1
2017-Nov-15 21:30N 31°43' E 121°09'456136714.3
2017-Nov-15 21:30N 24°32' E 118°19'3061101894.9
2017-Nov-15 21:30N 22°15' E 113°21'2934780.8
2017-Nov-15 21:30N 22°26' E 113°50'2023885.9
2017-Nov-15 21:30N 22°44' E 113°40'978586858.8
2017-Nov-15 21:30N 37°36' E 121°25'994115486.4
2017-Nov-15 21:30N 22°20' E 113°56'9682.0
2017-Nov-15 21:29N 22°29' E 113°55'3595.8
2017-Nov-15 21:28N 22°30' E 113°52'67339717.1
2017-Nov-15 21:27N 31°32' E 121°20'6819428.7
2017-Nov-15 21:23N 22°41' E 113°21'22178.8
2017-Nov-15 21:16N 22°59' E 113°34'264949079.6
2017-Nov-15 21:16N 24°13' E 118°11'4771874.0
2017-Nov-15 21:00N 31°43' E 121°09'7052536285.4
2017-Nov-15 21:00N 22°15' E 113°21'306110189.5
2017-Nov-15 21:00N 24°32' E 118°19'799169266.1
2017-Nov-15 21:00N 37°36' E 121°25'81830673.4
2017-Nov-15 20:58N 24°15' E 118°10'26423757.8
2017-Nov-15 20:58N 22°59' E 113°34'659158133.7
2017-Nov-15 20:57N 31°32' E 121°20'511429.6
2017-Nov-15 20:55N 31°01' E 122°07'680163305.5
2017-Nov-15 20:55N 22°26' E 113°50'31382.0
2017-Nov-15 20:50N 22°41' E 113°21'6812072.3
2017-Nov-15 20:30N 31°32' E 121°20'702842447.7
2017-Nov-15 20:30N 22°15' E 113°21'707317931.5
2017-Nov-15 20:30N 30°59' E 122°11'43868517.1
2017-Nov-15 20:30N 24°32' E 118°19'7992877524.3
2017-Nov-15 20:30N 37°36' E 121°25'353211929.8
2017-Nov-15 20:30N 31°43' E 121°09'68387832.7
2017-Nov-15 20:29N 22°41' E 113°21'22818.3
2017-Nov-15 20:28N 22°59' E 113°34'6591452.6
2017-Nov-15 20:01N 31°32' E 121°20'58207050.9
2017-Nov-15 20:00N 30°55' E 122°11'71256952.1
2017-Nov-15 20:00N 31°43' E 121°09'7051268142.7
2017-Nov-15 20:00N 22°15' E 113°21'293526982.5
2017-Nov-15 20:00N 24°22' E 118°08'145639.3
2017-Nov-15 20:00N 24°32' E 118°19'7992877524.3
2017-Nov-15 20:00N 37°36' E 121°25'96623028.8
2017-Nov-15 19:58N 22°59' E 113°34'22891.8
2017-Nov-15 19:56N 22°41' E 113°21'6821589.0
2017-Nov-15 19:30N 30°52' E 122°12'60217443.7
2017-Nov-15 19:30N 31°32' E 121°20'7022527376.6
2017-Nov-15 19:30N 22°15' E 113°21'291348872.2
2017-Nov-15 19:30N 24°26' E 118°04'157894.1
2017-Nov-15 19:30N 24°32' E 118°19'45660761.9
2017-Nov-15 19:30N 31°43' E 121°09'35328257.3
2017-Nov-15 19:29N 37°36' E 121°25'96643466.8
2017-Nov-15 19:28N 22°59' E 113°34'22826.8
2017-Nov-15 19:26N 22°41' E 113°21'9882310.2
2017-Nov-15 19:00N 37°36' E 121°25'3641309194.4
2017-Nov-15 19:00N 31°32' E 121°20'7021263671.8
2017-Nov-15 19:00N 22°15' E 113°21'306110189.5
2017-Nov-15 19:00N 24°32' E 118°19'2776506.3
2017-Nov-15 18:58N 22°59' E 113°34'22176.0
2017-Nov-15 18:50N 22°41' E 113°21'6812065.4
2017-Nov-15 18:30N 31°32' E 121°20'3641309683.4
2017-Nov-15 18:30N 37°36' E 121°25'353211927.3
2017-Nov-15 18:30N 31°43' E 121°09'7041268094.2
2017-Nov-15 18:30N 22°15' E 113°21'3061101894.9
2017-Nov-15 18:30N 24°32' E 118°19'2776592.4
2017-Nov-15 18:28N 22°59' E 113°34'22287.6
2017-Nov-15 18:23N 22°41' E 113°21'6811807.3
2017-Nov-15 18:01N 31°31' E 121°22'1619668.6
2017-Nov-15 18:00N 31°43' E 121°09'353141280.0
2017-Nov-15 18:00N 37°36' E 121°25'7991438762.2
2017-Nov-15 18:00N 24°32' E 118°19'306100172.3
2017-Nov-15 18:00N 22°15' E 113°21'261815.2
2017-Nov-15 17:59N 22°41' E 113°21'22881.9
2017-Nov-15 17:58N 22°59' E 113°34'6611454.6
2017-Nov-15 17:30N 31°43' E 121°09'199778.6
2017-Nov-15 17:30N 31°29' E 121°25'366188410.6
2017-Nov-15 17:30N 37°36' E 121°25'799169266.1
2017-Nov-15 17:30N 24°32' E 118°19'29522590.2
2017-Nov-15 17:29N 22°41' E 113°21'22902.0
2017-Nov-15 17:28N 22°59' E 113°34'17114.5
2017-Nov-15 17:19N 22°44' E 113°40'6692179.8
2017-Nov-15 17:01N 31°28' E 121°28'703632758.9
2017-Nov-15 17:00N 22°15' E 113°21'34122410.3
2017-Nov-15 17:00N 22°44' E 113°40'978293446.9
2017-Nov-15 17:00N 37°36' E 121°25'35384766.6
2017-Nov-15 17:00N 31°43' E 121°09'456820295.1
2017-Nov-15 17:00N 24°32' E 118°19'29522590.0
2017-Nov-15 16:59N 22°41' E 113°21'22295.0
2017-Nov-15 16:55N 22°59' E 113°34'6601640.3
2017-Nov-15 16:31N 31°25' E 121°31'37057978.2
2017-Nov-15 16:30N 37°36' E 121°25'10121214094.3
2017-Nov-15 16:30N 22°15' E 113°21'306110189.5
2017-Nov-15 16:30N 24°32' E 118°19'29525279.5
2017-Nov-15 16:29N 22°41' E 113°21'22294.0
2017-Nov-15 16:25N 22°59' E 113°34'1788.3
2017-Nov-15 16:13N 22°44' E 113°41'67022985.3
2017-Nov-15 16:12N 31°43' E 121°09'7053768.6
2017-Nov-15 16:00N 22°15' E 113°21'704633599.6
2017-Nov-15 16:00N 31°23' E 121°36'37383864.0
2017-Nov-15 16:00N 37°36' E 121°25'35316512.4
2017-Nov-15 15:59N 31°43' E 121°09'67037128.0
2017-Nov-15 15:58N 22°44' E 113°40'19249.3
2017-Nov-15 15:53N 22°41' E 113°21'2668.9
2017-Nov-15 15:30N 22°15' E 113°21'705507471.4
2017-Nov-15 15:30N 31°21' E 121°41'353068.6
2017-Nov-15 15:30N 31°43' E 121°09'670482686.3
2017-Nov-15 15:30N 22°44' E 113°40'978176050.0
2017-Nov-15 15:29N 37°36' E 121°25'9881777677.1
2017-Nov-15 15:29N 22°41' E 113°21'22292.9
2017-Nov-15 15:25N 22°59' E 113°34'46114.0
2017-Nov-15 15:00N 22°15' E 113°21'704169055.3
2017-Nov-15 15:00N 31°17' E 121°44'4011906.7
2017-Nov-15 15:00N 31°43' E 121°09'353254291.1
2017-Nov-15 15:00N 37°36' E 121°25'96190996.7
2017-Nov-15 14:59N 23°02' E 113°43'181520.0
2017-Nov-15 14:59N 22°44' E 113°40'171216.4
2017-Nov-15 14:58N 22°59' E 113°34'22853.5
2017-Nov-15 14:56N 22°41' E 113°21'6831597.7
2017-Nov-15 14:31N 31°13' E 121°49'704506736.3
2017-Nov-15 14:30N 22°15' E 113°21'705281808.2
2017-Nov-15 14:30N 31°43' E 121°09'353423818.5
2017-Nov-15 14:30N 37°36' E 121°25'96622877.3
2017-Nov-15 14:28N 22°59' E 113°34'6560.0
2017-Nov-15 14:27N 23°00' E 113°40'16641.4
2017-Nov-15 14:26N 22°44' E 113°40'18207.6
2017-Nov-15 14:20N 22°41' E 113°21'2678.8
2017-Nov-15 14:00N 22°15' E 113°21'705149189.5
2017-Nov-15 14:00N 31°43' E 121°09'353141277.6
2017-Nov-15 14:00N 37°36' E 121°25'96480740.5
2017-Nov-15 13:59N 22°59' E 113°39'15583.1
2017-Nov-15 13:58N 22°44' E 113°40'6702411866.3
2017-Nov-15 13:58N 31°09' E 121°54'68431966.4
2017-Nov-15 13:56N 22°41' E 113°21'22294.0
2017-Nov-15 13:52N 22°59' E 113°34'52197.3
2017-Nov-15 13:36N 22°19' E 114°09'99210752.5
2017-Nov-15 13:30N 37°36' E 121°25'1012910575.6
2017-Nov-15 13:30N 22°15' E 113°21'705158515.0
2017-Nov-15 13:30N 31°43' E 121°09'67754139.0
2017-Nov-15 13:29N 22°19' E 114°09'5017978.4
2017-Nov-15 13:29N 22°41' E 113°21'192664.9
2017-Nov-15 13:29N 22°44' E 113°40'1518271.4
2017-Nov-15 13:29N 22°59' E 113°39'5261.6
2017-Nov-15 13:28N 22°59' E 113°34'6639943.1
2017-Nov-15 13:24N 31°06' E 121°60'7051819.1
2017-Nov-15 13:00N 22°15' E 113°21'10121214100.8
2017-Nov-15 13:00N 37°36' E 121°25'35350863.1
2017-Nov-15 13:00N 31°43' E 121°09'67077849.6
2017-Nov-15 12:59N 22°44' E 113°40'196056.6
2017-Nov-15 12:59N 22°41' E 113°21'22853.5
2017-Nov-15 12:58N 22°59' E 113°34'66513841.1
2017-Nov-15 12:55N 31°04' E 122°05'4 9.9
2017-Nov-15 12:31N 31°02' E 122°09'708637230.9
2017-Nov-15 12:30N 22°15' E 113°21'70590582.2
2017-Nov-15 12:30N 31°43' E 121°09'670120666.8
2017-Nov-15 12:30N 22°44' E 113°40'9781173626.2
2017-Nov-15 12:30N 37°36' E 121°25'96631612.4
2017-Nov-15 12:28N 22°59' E 113°34'22853.5
2017-Nov-15 12:26N 22°41' E 113°21'6871605.6
2017-Nov-15 12:01N 30°58' E 122°12'707149630.8
2017-Nov-15 12:00N 22°15' E 113°21'10123642282.4
2017-Nov-15 12:00N 37°36' E 121°25'35328257.3
2017-Nov-15 11:59N 31°43' E 121°09'6702413319.0
2017-Nov-15 11:59N 22°44' E 113°40'1527422.3
2017-Nov-15 11:59N 22°59' E 113°39'5160.3
2017-Nov-15 11:58N 22°59' E 113°34'22862.7
2017-Nov-15 11:56N 22°41' E 113°21'61188.8
2017-Nov-15 11:37N 22°18' E 114°22'46430.3
2017-Nov-15 11:30N 22°44' E 113°40'9781173652.9
2017-Nov-15 11:30N 37°36' E 121°25'1012202350.1
2017-Nov-15 11:30N 22°15' E 113°21'4715444.6
2017-Nov-15 11:30N 22°59' E 113°39'659296398.3
2017-Nov-15 11:30N 31°43' E 121°09'68398373.3
2017-Nov-15 11:29N 22°41' E 113°21'68414484.3
2017-Nov-15 11:26N 30°53' E 122°13'6628512.4
2017-Nov-15 11:22N 22°59' E 113°34'61318.0
2017-Nov-15 11:10N 22°20' E 114°25'59364.1
2017-Nov-15 11:00N 22°15' E 113°21'3411145.0
2017-Nov-15 11:00N 22°44' E 113°40'978586849.9
2017-Nov-15 11:00N 37°36' E 121°25'984104154.0
2017-Nov-15 11:00N 22°21' E 114°26'23647181.6
2017-Nov-15 10:59N 24°19' E 118°09'472188631.2
2017-Nov-15 10:59N 31°43' E 121°09'65928914.0
2017-Nov-15 10:58N 22°59' E 113°39'25935.2
2017-Nov-15 10:56N 22°41' E 113°21'22902.0
2017-Nov-15 10:55N 22°59' E 113°34'2771073.8
2017-Nov-15 10:39N 24°32' E 118°19'2471691.2
2017-Nov-15 10:31N 22°24' E 114°29'6438402.3
2017-Nov-15 10:30N 22°15' E 113°21'1012173441.1
2017-Nov-15 10:30N 37°36' E 121°25'96624838.2
2017-Nov-15 10:28N 22°59' E 113°34'22844.4
2017-Nov-15 10:26N 22°41' E 113°21'18646.6
2017-Nov-15 10:24N 22°44' E 113°40'670268097.6
2017-Nov-15 10:24N 31°41' E 121°11'65974083.7
2017-Nov-15 10:24N 22°59' E 113°39'27214008.8
2017-Nov-15 10:23N 24°32' E 118°19'306828.5
2017-Nov-15 10:00N 22°15' E 113°21'6810602.3
2017-Nov-15 10:00N 22°26' E 114°33'977878971.5
2017-Nov-15 10:00N 37°36' E 121°25'799130796.6
2017-Nov-15 10:00N 24°32' E 118°19'29540836.0
2017-Nov-15 09:59N 22°41' E 113°21'68320151.0
2017-Nov-15 09:57N 31°39' E 121°13'65843892.1
2017-Nov-15 09:56N 22°59' E 113°39'151418.6
2017-Nov-15 09:56N 22°44' E 113°40'171130.7
2017-Nov-15 09:55N 22°59' E 113°34'42174.1
2017-Nov-15 09:40N 22°20' E 113°51'43263.2
2017-Nov-15 09:30N 22°29' E 114°37'72257753.7
2017-Nov-15 09:30N 22°15' E 113°21'3061101884.8
2017-Nov-15 09:30N 24°32' E 118°19'281504938.3
2017-Nov-15 09:30N 22°19' E 113°50'685154200.5
2017-Nov-15 09:30N 31°39' E 121°13'357321133.1
2017-Nov-15 09:30N 37°36' E 121°25'96443949.3
2017-Nov-15 09:29N 22°59' E 113°39'5326.9
2017-Nov-15 09:28N 22°59' E 113°34'22826.8
2017-Nov-15 09:26N 22°41' E 113°21'1855.9
2017-Nov-15 09:06N 22°44' E 113°40'34344.2
2017-Nov-15 09:00N 22°15' E 113°21'704281509.0
2017-Nov-15 09:00N 31°39' E 121°13'357321133.1
2017-Nov-15 09:00N 37°36' E 121°25'10023605898.7
2017-Nov-15 09:00N 22°16' E 113°47'524898.5
2017-Nov-15 09:00N 22°30' E 114°41'59105768.7
2017-Nov-15 09:00N 22°44' E 113°40'15417.2
2017-Nov-15 08:57N 22°59' E 113°39'599.7
2017-Nov-15 08:55N 22°59' E 113°34'27715082.7
2017-Nov-15 08:54N 24°32' E 118°19'29544238.7
2017-Nov-15 08:53N 22°41' E 113°21'31147.0
2017-Nov-15 08:41N 22°26' E 113°50'52310.3
2017-Nov-15 08:31N 22°31' E 114°46'8057671.7
2017-Nov-15 08:30N 22°15' E 113°21'306100171.3
2017-Nov-15 08:30N 24°32' E 118°19'2871034107.2
2017-Nov-15 08:30N 22°13' E 113°45'3665001.4
2017-Nov-15 08:30N 22°48' E 113°37'66844543.6
2017-Nov-15 08:29N 31°39' E 121°13'683307126.4
2017-Nov-15 08:29N 22°41' E 113°21'988592568.9
2017-Nov-15 08:29N 37°36' E 121°25'99116150.6
2017-Nov-15 08:25N 22°26' E 113°50'82759.6
2017-Nov-15 08:25N 22°20' E 113°56'445491.6
2017-Nov-15 08:25N 22°59' E 113°34'9662396.6
2017-Nov-15 08:01N 37°36' E 121°25'357321434.4
2017-Nov-15 08:00N 31°39' E 121°14'6452321440.8
2017-Nov-15 08:00N 22°32' E 114°50'84303875.0
2017-Nov-15 08:00N 22°15' E 113°21'2934761.9
2017-Nov-15 08:00N 22°26' E 113°50'2951689.0
2017-Nov-15 08:00N 22°51' E 113°35'4121255.8
2017-Nov-15 08:00N 22°10' E 113°43'29158108.2
2017-Nov-15 08:00N 24°32' E 118°19'275247096.8
2017-Nov-15 08:00N 22°20' E 113°56'441215.7
2017-Nov-15 07:58N 22°59' E 113°34'22175.6
2017-Nov-15 07:50N 22°41' E 113°21'252018.9
2017-Nov-15 07:49N 22°59' E 113°39'2194.5
2017-Nov-15 07:36N 22°38' E 113°41'6757568.5
2017-Nov-15 07:30N 31°38' E 121°15'6801223849.7
2017-Nov-15 07:30N 22°26' E 113°50'29104277.8
2017-Nov-15 07:30N 22°15' E 113°21'10121821170.4
2017-Nov-15 07:30N 37°36' E 121°25'9743504793.5
2017-Nov-15 07:30N 22°51' E 113°35'449960.4
2017-Nov-15 07:30N 22°07' E 113°41'29335200.5
2017-Nov-15 07:30N 24°32' E 118°19'29540836.0
2017-Nov-15 07:29N 22°41' E 113°21'22902.0
2017-Nov-15 07:28N 22°59' E 113°34'794030.2
2017-Nov-15 07:27N 22°33' E 114°55'751832.5
2017-Nov-15 07:24N 23°00' E 113°40'225778.3
2017-Nov-15 07:24N 22°38' E 113°41'9842529.4
2017-Nov-15 07:01N 37°36' E 121°25'799719390.3
2017-Nov-15 07:00N 24°32' E 118°19'306550942.4
2017-Nov-15 07:00N 22°15' E 113°21'2219456.2
2017-Nov-15 07:00N 22°04' E 113°41'703843240.7
2017-Nov-15 07:00N 31°36' E 121°17'666479590.4
2017-Nov-15 07:00N 22°53' E 113°34'394496.3
2017-Nov-15 07:00N 22°20' E 113°56'231005.6
2017-Nov-15 06:58N 22°38' E 113°41'222187.5
2017-Nov-15 06:58N 22°59' E 113°34'22844.4
2017-Nov-15 06:56N 22°41' E 113°21'9882310.2
2017-Nov-15 06:31N 37°36' E 121°25'362651239.6
2017-Nov-15 06:30N 31°34' E 121°19'703194722.7
2017-Nov-15 06:30N 22°15' E 113°21'3061101894.9
2017-Nov-15 06:30N 24°32' E 118°19'2791003689.7
2017-Nov-15 06:30N 22°56' E 113°33'567141.3
2017-Nov-15 06:30N 22°01' E 113°40'257361.8
2017-Nov-15 06:30N 22°20' E 113°56'397854.2
2017-Nov-15 06:29N 22°41' E 113°21'191283.1
2017-Nov-15 06:28N 22°38' E 113°41'222075.3
2017-Nov-15 06:28N 22°59' E 113°34'9662130.8
2017-Nov-15 06:01N 37°36' E 121°25'364436557.8
2017-Nov-15 06:00N 31°32' E 121°22'7031265871.1
2017-Nov-15 06:00N 22°15' E 113°21'3340184.7
2017-Nov-15 06:00N 22°20' E 113°56'2544195.7
2017-Nov-15 06:00N 22°01' E 113°40'29871416.8
2017-Nov-15 06:00N 24°32' E 118°19'27923916.7
2017-Nov-15 05:59N 22°60' E 113°31'217482.5
2017-Nov-15 05:59N 22°41' E 113°21'22891.6
2017-Nov-15 05:58N 22°59' E 113°34'22574.2
2017-Nov-15 05:55N 22°38' E 113°41'2261.8
2017-Nov-15 05:34N 22°23' E 113°58'99216838.5
2017-Nov-15 05:31N 37°36' E 121°25'366658304.7
2017-Nov-15 05:30N 31°30' E 121°26'449134707.3
2017-Nov-15 05:30N 24°32' E 118°19'298133908.0
2017-Nov-15 05:30N 22°01' E 113°40'232455.5
2017-Nov-15 05:30N 22°15' E 113°21'263496.0
2017-Nov-15 05:29N 22°41' E 113°21'393073.6
2017-Nov-15 05:28N 22°20' E 113°56'2327140.8
2017-Nov-15 05:28N 22°38' E 113°41'2512870.3
2017-Nov-15 05:28N 23°01' E 113°32'351.9
2017-Nov-15 05:25N 22°59' E 113°34'43145.4
2017-Nov-15 05:07N 22°22' E 113°58'9929297.8
2017-Nov-15 05:00N 37°36' E 121°25'7992877561.2
2017-Nov-15 05:00N 24°32' E 118°19'4471610650.8
2017-Nov-15 05:00N 31°27' E 121°29'703230124.3
2017-Nov-15 05:00N 22°15' E 113°21'3330137.7
2017-Nov-15 05:00N 22°20' E 113°56'2522097.9
2017-Nov-15 05:00N 22°01' E 113°40'6115583.8
2017-Nov-15 05:00N 23°01' E 113°32'222121.7
2017-Nov-15 04:59N 22°41' E 113°21'191233.7
2017-Nov-15 04:58N 22°38' E 113°41'222128.4
2017-Nov-15 04:58N 22°59' E 113°34'4317397.1
2017-Nov-15 04:58N 22°21' E 113°57'9932199.6
2017-Nov-15 04:30N 37°36' E 121°25'994596698.5
2017-Nov-15 04:30N 22°20' E 113°56'3320091.2
2017-Nov-15 04:30N 22°15' E 113°21'2381004.3
2017-Nov-15 04:30N 22°01' E 113°40'6154537.9
2017-Nov-15 04:30N 23°01' E 113°32'278250335.1
2017-Nov-15 04:30N 24°32' E 118°19'27329787.0
2017-Nov-15 04:30N 22°21' E 113°58'405489.3
2017-Nov-15 04:29N 22°41' E 113°21'191439.4
2017-Nov-15 04:28N 22°38' E 113°41'22369.4
2017-Nov-15 04:25N 22°59' E 113°34'9662394.9
2017-Nov-15 04:00N 37°36' E 121°25'3731342321.8
2017-Nov-15 04:00N 31°23' E 121°36'705362507.6
2017-Nov-15 04:00N 22°01' E 113°40'298267781.3
2017-Nov-15 04:00N 24°32' E 118°19'3061101884.8
2017-Nov-15 04:00N 22°15' E 113°21'474862.0
2017-Nov-15 04:00N 23°01' E 113°32'476047.1
2017-Nov-15 03:59N 22°20' E 113°56'231568.2
2017-Nov-15 03:58N 22°38' E 113°41'222129.5
2017-Nov-15 03:58N 22°59' E 113°34'9662128.1
2017-Nov-15 03:30N 37°36' E 121°25'3751350220.3
2017-Nov-15 03:30N 31°21' E 121°40'4461603905.3
2017-Nov-15 03:30N 24°32' E 118°19'295132783.3
2017-Nov-15 03:30N 22°04' E 113°41'2119315.2
2017-Nov-15 03:30N 22°15' E 113°21'475868.6
2017-Nov-15 03:30N 23°01' E 113°32'472319.5
2017-Nov-15 03:29N 22°20' E 113°56'236270.3
2017-Nov-15 03:28N 22°38' E 113°41'222248.4
2017-Nov-15 03:28N 22°59' E 113°34'22292.9
2017-Nov-15 03:23N 22°41' E 113°21'492244.8
2017-Nov-15 03:22N 22°19' E 114°08'9892769.2
2017-Nov-15 03:00N 37°33' E 121°24'7971434000.6
2017-Nov-15 03:00N 24°32' E 118°19'445228604.6
2017-Nov-15 03:00N 31°19' E 121°43'7051268458.9
2017-Nov-15 03:00N 22°15' E 113°21'47170189.5
2017-Nov-15 03:00N 23°01' E 113°32'543243.1
2017-Nov-15 02:59N 22°08' E 113°42'182643.4
2017-Nov-15 02:59N 22°20' E 113°56'232630.0
2017-Nov-15 02:58N 22°38' E 113°41'222076.9
2017-Nov-15 02:58N 22°59' E 113°34'22175.4
2017-Nov-15 02:50N 22°41' E 113°21'1012106.0
2017-Nov-15 02:47N 22°30' E 115°09'9593436.2
2017-Nov-15 02:31N 37°33' E 121°23'378680629.1
2017-Nov-15 02:30N 31°15' E 121°47'695250060.1
2017-Nov-15 02:30N 22°11' E 113°43'8096101.1
2017-Nov-15 02:30N 22°29' E 115°08'6647846.6
2017-Nov-15 02:30N 22°20' E 113°56'4756446.3
2017-Nov-15 02:30N 23°01' E 113°32'221344.1
2017-Nov-15 02:29N 22°41' E 113°21'191439.6
2017-Nov-15 02:28N 22°38' E 113°41'22376.5
2017-Nov-15 02:25N 22°59' E 113°34'9632383.7
2017-Nov-15 02:01N 37°33' E 121°23'1009726165.0
2017-Nov-15 02:00N 22°15' E 113°21'47170210.6
2017-Nov-15 02:00N 23°01' E 113°32'4935474.6
2017-Nov-15 02:00N 22°14' E 113°45'124897.1
2017-Nov-15 02:00N 22°20' E 113°56'633079.2
2017-Nov-15 01:59N 22°28' E 115°04'891259.2
2017-Nov-15 01:55N 22°59' E 113°34'22835.5
2017-Nov-15 01:53N 22°41' E 113°21'191414.1
2017-Nov-15 01:52N 22°38' E 113°41'6746740.3
2017-Nov-15 01:46N 31°10' E 121°53'3 9.8
2017-Nov-15 01:30N 31°08' E 121°55'7041267316.1
2017-Nov-15 01:30N 22°15' E 113°21'9433830.7
2017-Nov-15 01:30N 22°27' E 115°01'90161235.6
2017-Nov-15 01:30N 23°01' E 113°32'962128267.2
2017-Nov-15 01:30N 37°33' E 121°23'991101960.2
2017-Nov-15 01:29N 22°20' E 113°56'231538.0
2017-Nov-15 01:28N 22°38' E 113°41'222174.5
2017-Nov-15 01:28N 22°16' E 113°48'351381.1
2017-Nov-15 01:26N 22°41' E 113°21'22933.8
2017-Nov-15 01:25N 22°59' E 113°34'46113.6
2017-Nov-15 01:00N 22°15' E 113°21'47170189.5
2017-Nov-15 01:00N 23°01' E 113°32'4627595.9
2017-Nov-15 01:00N 22°18' E 113°50'2811011246.4
2017-Nov-15 01:00N 24°32' E 118°19'796955436.1
2017-Nov-15 01:00N 37°33' E 121°23'9911189548.9
2017-Nov-15 01:00N 22°20' E 113°56'585916.7
2017-Nov-15 01:00N 22°26' E 114°58'774153.3
2017-Nov-15 00:58N 22°32' E 113°35'272159.7
2017-Nov-15 00:58N 22°59' E 113°34'22881.9
2017-Nov-15 00:56N 22°41' E 113°21'19152.5
2017-Nov-15 00:49N 22°38' E 113°41'279917.9
2017-Nov-15 00:30N 24°32' E 118°19'306550942.4
2017-Nov-15 00:30N 22°15' E 113°21'1009330076.8
2017-Nov-15 00:30N 37°33' E 121°23'991115116.3
2017-Nov-15 00:30N 22°20' E 113°56'473454.7
2017-Nov-15 00:29N 23°01' E 113°32'3155.2
2017-Nov-15 00:28N 22°59' E 113°34'416178.9
2017-Nov-15 00:27N 22°21' E 113°51'351810.8
2017-Nov-15 00:26N 22°41' E 113°21'6869793.1
2017-Nov-15 00:22N 31°03' E 122°04'6565340.0
2017-Nov-15 00:15N 23°06' E 113°39'45190.1
2017-Nov-15 00:01N 22°24' E 113°53'5599457.3
2017-Nov-15 00:00N 22°24' E 114°52'229274241.5
2017-Nov-15 00:00N 24°32' E 118°19'275329458.8
2017-Nov-15 00:00N 22°20' E 113°56'3320092.9
2017-Nov-15 00:00N 22°15' E 113°21'1009518692.1
2017-Nov-15 00:00N 37°33' E 121°23'39315565.0
2017-Nov-14 23:59N 31°01' E 122°08'684351776.9
2017-Nov-14 23:59N 22°33' E 113°35'337532.0
2017-Nov-14 23:58N 23°06' E 113°39'8940.5
2017-Nov-14 23:58N 22°59' E 113°34'2240499.5
2017-Nov-14 23:58N 22°38' E 113°41'2590132.7
2017-Nov-14 23:58N 23°01' E 113°32'22926.9
2017-Nov-14 23:56N 22°41' E 113°21'6871599.9
2017-Nov-14 23:30N 30°59' E 122°12'6492337451.4
2017-Nov-14 23:30N 22°23' E 114°50'83297470.8
2017-Nov-14 23:30N 22°15' E 113°21'306122431.6
2017-Nov-14 23:30N 24°32' E 118°19'274328735.4
2017-Nov-14 23:30N 22°26' E 113°54'4048538.5
2017-Nov-14 23:30N 23°01' E 113°32'962494747.5
2017-Nov-14 23:30N 37°33' E 121°23'991274509.7
2017-Nov-14 23:30N 22°20' E 113°56'441253.8
2017-Nov-14 23:28N 22°59' E 113°34'2280999.1
2017-Nov-14 23:28N 22°38' E 113°41'82597.8
2017-Nov-14 23:28N 22°35' E 113°33'32618.0
2017-Nov-14 23:24N 23°06' E 113°39'30423.5
2017-Nov-14 23:20N 22°41' E 113°21'295898.3
2017-Nov-14 23:00N 24°32' E 118°19'234842409.9
2017-Nov-14 23:00N 22°22' E 114°47'6317323.6
2017-Nov-14 23:00N 22°38' E 113°41'675486256.5
2017-Nov-14 23:00N 30°55' E 122°13'400159946.2
2017-Nov-14 23:00N 37°33' E 121°23'99133351.5
2017-Nov-14 22:58N 22°20' E 113°56'445686.4
2017-Nov-14 22:58N 22°59' E 113°34'3440.7
2017-Nov-14 22:57N 23°01' E 113°32'8468.8
2017-Nov-14 22:56N 23°06' E 113°38'3112391.7
2017-Nov-14 22:56N 22°35' E 113°36'15309.0
2017-Nov-14 22:53N 22°41' E 113°21'6831802.3
2017-Nov-14 22:30N 30°52' E 122°12'6502338249.9
2017-Nov-14 22:30N 22°21' E 114°44'237852641.2
2017-Nov-14 22:30N 24°32' E 118°19'27971663.9
2017-Nov-14 22:30N 22°35' E 113°43'208779.0
2017-Nov-14 22:30N 22°20' E 113°56'991356864.6
2017-Nov-14 22:30N 37°33' E 121°23'98482417.8
2017-Nov-14 22:29N 22°41' E 113°21'222520.1
2017-Nov-14 22:29N 23°01' E 113°32'3189.9
2017-Nov-14 22:28N 22°59' E 113°34'261404.5
2017-Nov-14 22:27N 22°34' E 113°38'32181.9
2017-Nov-14 22:16N 23°06' E 113°35'76290.5
2017-Nov-14 22:00N 22°20' E 114°41'7426724.3
2017-Nov-14 22:00N 22°15' E 113°21'3061101884.8
2017-Nov-14 22:00N 24°32' E 118°19'7961433154.1
2017-Nov-14 22:00N 37°33' E 121°23'985443396.9
2017-Nov-14 22:00N 22°33' E 113°39'675347335.7
2017-Nov-14 22:00N 30°49' E 122°12'68150012.5
2017-Nov-14 21:59N 22°41' E 113°21'398835.2
2017-Nov-14 21:59N 22°20' E 113°56'175077.5
2017-Nov-14 21:59N 22°33' E 113°45'3136658.5
2017-Nov-14 21:59N 23°01' E 113°32'346.7
2017-Nov-14 21:55N 22°59' E 113°34'691.0
2017-Nov-14 21:51N 23°05' E 113°34'412.6
2017-Nov-14 21:30N 23°01' E 113°32'278500666.5
2017-Nov-14 21:30N 24°32' E 118°19'243874123.3
2017-Nov-14 21:30N 22°19' E 114°38'7526978.4
2017-Nov-14 21:30N 23°05' E 113°34'653293786.6
2017-Nov-14 21:30N 30°46' E 122°12'6981256574.2
2017-Nov-14 21:30N 22°15' E 113°21'1009213580.3
2017-Nov-14 21:30N 37°33' E 121°23'98486437.7
2017-Nov-14 21:29N 22°41' E 113°21'261690.2
2017-Nov-14 21:28N 22°32' E 113°47'151902.3
2017-Nov-14 21:28N 22°20' E 113°56'4479619.3
2017-Nov-14 21:28N 22°59' E 113°34'28465.1
2017-Nov-14 21:24N 22°33' E 113°42'17138.7
2017-Nov-14 21:17N 22°17' E 113°49'2821039.8
2017-Nov-14 21:00N 24°32' E 118°19'278143047.6
2017-Nov-14 21:00N 23°01' E 113°32'4756736.9
2017-Nov-14 21:00N 22°15' E 113°21'2747901.5
2017-Nov-14 21:00N 22°14' E 113°49'92876.7
2017-Nov-14 21:00N 22°20' E 113°56'991187822.5
2017-Nov-14 21:00N 37°33' E 121°23'9841771990.6
2017-Nov-14 21:00N 22°32' E 113°43'723500.5
2017-Nov-14 21:00N 22°32' E 113°50'4338883.8
2017-Nov-14 21:00N 22°18' E 114°34'692188.2
2017-Nov-14 20:58N 22°59' E 113°34'22853.5
2017-Nov-14 20:56N 22°41' E 113°21'271145.4
2017-Nov-14 20:55N 23°05' E 113°34'51126.9
2017-Nov-14 20:30N 22°15' E 113°21'3053986.5
2017-Nov-14 20:30N 22°12' E 113°53'5338267.4
2017-Nov-14 20:30N 23°01' E 113°32'278333777.6
2017-Nov-14 20:30N 24°32' E 118°19'274246574.4
2017-Nov-14 20:30N 22°30' E 113°52'10252.8
2017-Nov-14 20:28N 22°20' E 113°56'506611.4
2017-Nov-14 20:27N 23°05' E 113°34'343370.3
2017-Nov-14 20:27N 22°32' E 113°43'22383.5
2017-Nov-14 20:23N 22°41' E 113°21'2259.4
2017-Nov-14 20:01N 23°01' E 113°32'4734037.9
2017-Nov-14 20:00N 22°15' E 113°21'3061101884.8
2017-Nov-14 20:00N 24°32' E 118°19'796477718.0
2017-Nov-14 20:00N 37°33' E 121°23'9851182497.5
2017-Nov-14 20:00N 22°15' E 114°28'3461771.3
2017-Nov-14 20:00N 22°27' E 113°53'8383.4
2017-Nov-14 19:59N 22°20' E 113°56'441990.5
2017-Nov-14 19:58N 22°59' E 113°34'22294.0
2017-Nov-14 19:53N 22°41' E 113°21'348079.4
2017-Nov-14 19:53N 22°26' E 113°53'11292.9
2017-Nov-14 19:51N 22°32' E 113°43'34363.2
2017-Nov-14 19:45N 23°05' E 113°34'2751127.6
2017-Nov-14 19:30N 24°32' E 118°19'255919782.6
2017-Nov-14 19:30N 22°14' E 114°25'69249177.3
2017-Nov-14 19:30N 23°05' E 113°34'42238.4
2017-Nov-14 19:30N 23°01' E 113°32'962865808.2
2017-Nov-14 19:30N 37°33' E 121°23'9881778894.5
2017-Nov-14 19:30N 22°24' E 113°54'351998.0
2017-Nov-14 19:29N 22°41' E 113°21'394038.3
2017-Nov-14 19:29N 22°20' E 113°56'443063.7
2017-Nov-14 19:28N 22°59' E 113°34'28418.7
2017-Nov-14 19:24N 22°32' E 113°43'6602301.1
2017-Nov-14 19:06N 30°37' E 122°03'65711059.6
2017-Nov-14 19:03N 22°27' E 113°54'33800.9
2017-Nov-14 19:00N 22°15' E 113°21'3340186.9
2017-Nov-14 19:00N 22°20' E 113°56'275123547.1
2017-Nov-14 19:00N 24°32' E 118°19'7962866308.2
2017-Nov-14 19:00N 37°33' E 121°23'9901782153.2
2017-Nov-14 19:00N 22°22' E 113°55'4532288.7
2017-Nov-14 19:00N 23°01' E 113°32'41302.5
2017-Nov-14 19:00N 23°05' E 113°34'348689.5
2017-Nov-14 19:00N 22°32' E 113°43'232899.5
2017-Nov-14 18:59N 22°41' E 113°21'22881.9
2017-Nov-14 18:58N 22°59' E 113°34'645464557.4
2017-Nov-14 18:58N 30°38' E 122°03'6871515.5
2017-Nov-14 18:30N 22°15' E 113°21'306100172.3
2017-Nov-14 18:30N 24°32' E 118°19'275329458.8
2017-Nov-14 18:30N 22°20' E 113°56'506608.3
2017-Nov-14 18:30N 23°05' E 113°34'958861891.2
2017-Nov-14 18:30N 37°33' E 121°23'98635494.8
2017-Nov-14 18:28N 22°27' E 113°54'341113.2
2017-Nov-14 18:26N 22°41' E 113°21'23908.5
2017-Nov-14 18:25N 22°32' E 113°43'28570.2
2017-Nov-14 18:22N 22°59' E 113°34'6452951.6
2017-Nov-14 18:09N 30°38' E 122°03'4163050.9
2017-Nov-14 18:00N 24°32' E 118°19'278125166.6
2017-Nov-14 18:00N 23°01' E 113°32'4785094.7
2017-Nov-14 18:00N 22°15' E 113°21'52185410.5
2017-Nov-14 18:00N 23°05' E 113°34'35124562.4
2017-Nov-14 18:00N 22°32' E 113°45'984354314.3
2017-Nov-14 18:00N 37°33' E 121°23'984885651.6
2017-Nov-14 18:00N 22°28' E 113°55'36412.3
2017-Nov-14 17:55N 22°59' E 113°34'22289.7
2017-Nov-14 17:50N 22°41' E 113°21'295898.3
2017-Nov-14 17:30N 24°32' E 118°19'306550942.4
2017-Nov-14 17:30N 22°15' E 113°21'4721273.7
2017-Nov-14 17:30N 23°01' E 113°32'3339564.4
2017-Nov-14 17:30N 22°31' E 113°47'984221385.4
2017-Nov-14 17:30N 37°33' E 121°23'41614970.7
2017-Nov-14 17:28N 30°38' E 122°03'641164919.5
2017-Nov-14 17:28N 23°05' E 113°34'6521257.3
2017-Nov-14 17:28N 22°17' E 114°21'6118153.2
2017-Nov-14 17:28N 22°59' E 113°34'444084.0
2017-Nov-14 17:27N 22°20' E 113°56'392570.5
2017-Nov-14 17:26N 22°41' E 113°21'2661.2
2017-Nov-14 17:00N 22°15' E 113°21'4721276.3
2017-Nov-14 17:00N 23°01' E 113°32'3462005.6
2017-Nov-14 17:00N 22°31' E 113°49'37133522.5
2017-Nov-14 17:00N 23°05' E 113°34'275141409.6
2017-Nov-14 17:00N 24°32' E 118°19'416136181.1
2017-Nov-14 17:00N 30°38' E 122°03'416499029.1
2017-Nov-14 17:00N 37°33' E 121°23'98475403.5
2017-Nov-14 16:59N 22°41' E 113°21'39634.0
2017-Nov-14 16:55N 22°20' E 113°56'264963.4
2017-Nov-14 16:55N 22°20' E 114°25'611097.8
2017-Nov-14 16:52N 22°59' E 113°34'3 8.6
2017-Nov-14 16:30N 23°01' E 113°32'65116391.0
2017-Nov-14 16:30N 22°22' E 114°28'3520740.3
2017-Nov-14 16:30N 22°30' E 113°51'984708325.9
2017-Nov-14 16:30N 37°33' E 121°23'958123125.9
2017-Nov-14 16:30N 23°05' E 113°34'501733.2
2017-Nov-14 16:28N 22°20' E 113°56'447585.5
2017-Nov-14 16:28N 22°59' E 113°34'22176.8
2017-Nov-14 16:20N 22°41' E 113°21'6674112.5
2017-Nov-14 16:10N 30°38' E 122°03'6463847.7
2017-Nov-14 16:00N 23°01' E 113°32'66118555.6
2017-Nov-14 16:00N 22°25' E 114°31'6634067.6
2017-Nov-14 16:00N 22°15' E 113°21'339273.1
2017-Nov-14 16:00N 22°20' E 113°56'991254907.6
2017-Nov-14 16:00N 37°33' E 121°23'9843540905.2
2017-Nov-14 16:00N 22°30' E 113°52'313008.2
2017-Nov-14 15:59N 22°41' E 113°21'22902.0
2017-Nov-14 15:58N 22°59' E 113°34'548.5
2017-Nov-14 15:51N 23°04' E 113°32'6435407.3
2017-Nov-14 15:44N 30°38' E 122°03'4161805.9
2017-Nov-14 15:30N 37°33' E 121°23'10091815441.9
2017-Nov-14 15:30N 22°15' E 113°21'3330138.5
2017-Nov-14 15:30N 22°20' E 113°56'4925021.3
2017-Nov-14 15:30N 23°03' E 113°31'278999520.5
2017-Nov-14 15:30N 24°32' E 118°19'27437874.3
2017-Nov-14 15:30N 22°30' E 113°52'33955.1
2017-Nov-14 15:28N 22°59' E 113°34'22881.9
2017-Nov-14 15:26N 22°41' E 113°21'222780.8
2017-Nov-14 15:26N 23°01' E 113°32'6467150.7
2017-Nov-14 15:20N 30°38' E 122°03'6872072.1
2017-Nov-14 15:00N 22°15' E 113°21'10091815441.9
2017-Nov-14 15:00N 37°33' E 121°23'963192650.2
2017-Nov-14 15:00N 22°60' E 113°31'4683005.5
2017-Nov-14 15:00N 22°20' E 113°56'275109822.0
2017-Nov-14 15:00N 24°32' E 118°19'274164122.0
2017-Nov-14 15:00N 22°30' E 113°52'33393.3
2017-Nov-14 14:55N 22°59' E 113°34'22289.7
2017-Nov-14 14:50N 22°41' E 113°21'22645.2
2017-Nov-14 14:48N 23°01' E 113°32'646387332.1
2017-Nov-14 14:48N 30°38' E 122°03'0 0.0
2017-Nov-14 14:30N 30°38' E 122°03'650779465.9
2017-Nov-14 14:30N 22°57' E 113°30'966496995.3
2017-Nov-14 14:30N 37°33' E 121°23'1009907721.0
2017-Nov-14 14:30N 22°15' E 113°21'33120554.1
2017-Nov-14 14:30N 22°20' E 113°56'27552020.9
2017-Nov-14 14:30N 24°32' E 118°19'2748098.0
2017-Nov-14 14:28N 22°30' E 113°51'3313333.8
2017-Nov-14 14:28N 22°59' E 113°34'3580.5
2017-Nov-14 14:27N 23°01' E 113°32'59341.3
2017-Nov-14 14:17N 22°08' E 113°59'2791010.7
2017-Nov-14 14:00N 24°32' E 118°19'306100171.3
2017-Nov-14 14:00N 22°15' E 113°21'10093630863.9
2017-Nov-14 14:00N 37°33' E 121°23'962346323.2
2017-Nov-14 14:00N 23°01' E 113°32'4715396.1
2017-Nov-14 14:00N 22°20' E 113°56'11316.9
2017-Nov-14 13:58N 22°30' E 113°51'3329996.4
2017-Nov-14 13:58N 22°59' E 113°34'22286.5
2017-Nov-14 13:53N 22°41' E 113°21'47610.9
2017-Nov-14 13:49N 22°07' E 113°55'6733825.0
2017-Nov-14 13:38N 30°38' E 122°03'4163314.1
2017-Nov-14 13:30N 24°32' E 118°19'285256114.9
2017-Nov-14 13:30N 22°06' E 113°53'1006452483.0
2017-Nov-14 13:30N 37°33' E 121°23'1009403429.3
2017-Nov-14 13:30N 22°15' E 113°21'4715471.8
2017-Nov-14 13:30N 23°01' E 113°32'361049.3
2017-Nov-14 13:28N 22°30' E 113°51'11852.1
2017-Nov-14 13:27N 22°20' E 113°56'661396763.6
2017-Nov-14 13:27N 30°38' E 122°03'64517080.3
2017-Nov-14 13:25N 22°59' E 113°34'22291.8
2017-Nov-14 13:20N 22°41' E 113°21'44134.7
2017-Nov-14 13:01N 22°06' E 113°49'2820071.5
2017-Nov-14 13:00N 22°15' E 113°21'4756729.8
2017-Nov-14 13:00N 23°01' E 113°32'962247375.1
2017-Nov-14 13:00N 37°33' E 121°23'98459066.1
2017-Nov-14 12:59N 22°41' E 113°21'301379.1
2017-Nov-14 12:58N 22°30' E 113°51'3313331.7
2017-Nov-14 12:58N 22°59' E 113°34'37375.5
2017-Nov-14 12:52N 22°28' E 113°55'6575778.6
2017-Nov-14 12:45N 30°38' E 122°03'6872834.8
2017-Nov-14 12:30N 22°15' E 113°21'3970426.5
2017-Nov-14 12:30N 22°53' E 113°31'814818.4
2017-Nov-14 12:30N 23°01' E 113°32'57102669.7
2017-Nov-14 12:30N 22°06' E 113°45'2522108.5
2017-Nov-14 12:30N 22°29' E 113°55'272979184.1
2017-Nov-14 12:30N 24°32' E 118°19'796238860.8
2017-Nov-14 12:30N 37°33' E 121°23'99135333.1
2017-Nov-14 12:28N 22°20' E 113°56'111226.1
2017-Nov-14 12:28N 22°30' E 113°51'301078.8
2017-Nov-14 12:26N 22°41' E 113°21'22922.9
2017-Nov-14 12:25N 22°59' E 113°34'54134.9
2017-Nov-14 12:01N 22°05' E 113°42'2213116.8
2017-Nov-14 12:00N 22°15' E 113°21'306122432.8
2017-Nov-14 12:00N 24°32' E 118°19'796168607.6
2017-Nov-14 12:00N 37°33' E 121°23'962577202.1
2017-Nov-14 12:00N 23°01' E 113°32'399313.4
2017-Nov-14 12:00N 22°29' E 113°55'344674.4
2017-Nov-14 11:59N 22°41' E 113°21'392048.4
2017-Nov-14 11:58N 22°20' E 113°56'113019.5
2017-Nov-14 11:58N 22°30' E 113°51'33645.0
2017-Nov-14 11:55N 22°59' E 113°34'3 7.6
2017-Nov-14 11:31N 23°01' E 113°32'3946566.9
2017-Nov-14 11:30N 22°29' E 113°55'33117984.8
2017-Nov-14 11:30N 22°53' E 113°31'39140853.0
2017-Nov-14 11:30N 22°15' E 113°21'306122431.6
2017-Nov-14 11:30N 24°32' E 118°19'29575781.5
2017-Nov-14 11:30N 22°07' E 113°39'1009454054.2
2017-Nov-14 11:30N 37°33' E 121°23'98478754.8
2017-Nov-14 11:29N 22°41' E 113°21'394038.3
2017-Nov-14 11:29N 22°20' E 113°56'11912.9
2017-Nov-14 11:28N 22°30' E 113°51'3313329.6
2017-Nov-14 11:28N 22°59' E 113°34'277608.5
2017-Nov-14 11:00N 24°32' E 118°19'2821014419.1
2017-Nov-14 11:00N 22°53' E 113°31'4452833.5
2017-Nov-14 11:00N 22°09' E 113°37'5293704.1
2017-Nov-14 11:00N 23°01' E 113°32'962288610.9
2017-Nov-14 11:00N 37°33' E 121°23'984107343.0
2017-Nov-14 11:00N 22°29' E 113°55'344861.1
2017-Nov-14 10:59N 22°41' E 113°21'393007.2
2017-Nov-14 10:58N 22°20' E 113°56'111227.3
2017-Nov-14 10:58N 22°30' E 113°51'33634.7
2017-Nov-14 10:55N 22°59' E 113°34'66120681.0
2017-Nov-14 10:53N 31°29' E 121°27'6611779.0
2017-Nov-14 10:31N 23°02' E 113°31'4842859.4
2017-Nov-14 10:30N 22°15' E 113°21'39141078.9
2017-Nov-14 10:30N 22°53' E 113°31'4351171.8
2017-Nov-14 10:30N 22°11' E 113°35'2530558.3
2017-Nov-14 10:30N 22°28' E 113°55'985322232.6
2017-Nov-14 10:30N 37°33' E 121°23'796220483.6
2017-Nov-14 10:30N 24°32' E 118°19'448230297.2
2017-Nov-14 10:30N 31°28' E 121°28'68097893.4
2017-Nov-14 10:29N 22°20' E 113°56'398834.5
2017-Nov-14 10:29N 22°41' E 113°21'301452.5
2017-Nov-14 10:28N 22°30' E 113°51'3317135.3
2017-Nov-14 10:28N 22°59' E 113°34'6601454.5
2017-Nov-14 10:01N 31°26' E 121°30'367659778.5
2017-Nov-14 10:00N 37°33' E 121°23'9701163771.0
2017-Nov-14 10:00N 22°53' E 113°31'2926272.0
2017-Nov-14 10:00N 22°30' E 113°51'274164668.1
2017-Nov-14 10:00N 24°32' E 118°19'2791003140.2
2017-Nov-14 10:00N 23°02' E 113°31'4819048.6
2017-Nov-14 10:00N 22°15' E 113°21'261715.8
2017-Nov-14 09:59N 22°41' E 113°21'392436.9
2017-Nov-14 09:58N 22°20' E 113°56'445687.1
2017-Nov-14 09:58N 22°59' E 113°34'50109.9
2017-Nov-14 09:31N 22°10' E 113°30'5262447.3
2017-Nov-14 09:30N 23°02' E 113°31'910281.8
2017-Nov-14 09:30N 22°53' E 113°31'9701745577.4
2017-Nov-14 09:30N 37°33' E 121°23'9913568626.6
2017-Nov-14 09:30N 22°20' E 113°56'275141196.6
2017-Nov-14 09:30N 24°32' E 118°19'30635544.7
2017-Nov-14 09:30N 22°15' E 113°21'292079.0
2017-Nov-14 09:29N 22°21' E 113°51'111310.5
2017-Nov-14 09:28N 22°32' E 113°47'30487.9
2017-Nov-14 09:25N 22°59' E 113°34'22862.7
2017-Nov-14 09:23N 22°41' E 113°21'1539.9
2017-Nov-14 09:00N 22°53' E 113°31'2443224.6
2017-Nov-14 09:00N 22°32' E 113°44'2724726.5
2017-Nov-14 09:00N 22°09' E 113°28'10111820378.1
2017-Nov-14 09:00N 37°33' E 121°23'796204736.3
2017-Nov-14 09:00N 24°32' E 118°19'275494188.2
2017-Nov-14 09:00N 22°20' E 113°56'71193.8
2017-Nov-14 09:00N 22°18' E 113°49'276013.8
2017-Nov-14 08:59N 22°15' E 113°21'266291.4
2017-Nov-14 08:59N 22°41' E 113°21'22296.2
2017-Nov-14 08:55N 22°59' E 113°34'6591885.6
2017-Nov-14 08:34N 31°26' E 121°29'551075.8
2017-Nov-14 08:31N 30°38' E 122°03'661198318.1
2017-Nov-14 08:30N 22°33' E 113°41'2176777.9
2017-Nov-14 08:30N 22°53' E 113°32'652293221.0
2017-Nov-14 08:30N 30°38' E 122°03'416374266.4
2017-Nov-14 08:30N 37°33' E 121°23'10003599956.0
2017-Nov-14 08:30N 22°14' E 113°47'2125058.4
2017-Nov-14 08:30N 22°12' E 113°25'53808.4
2017-Nov-14 08:30N 22°15' E 113°21'7022528449.1
2017-Nov-14 08:30N 31°26' E 121°29'68246291.4
2017-Nov-14 08:29N 22°41' E 113°21'3917667.5
2017-Nov-14 08:29N 22°20' E 113°56'441965.7
2017-Nov-14 08:28N 22°59' E 113°34'277608.8
2017-Nov-14 08:00N 24°32' E 118°19'2791003177.1
2017-Nov-14 08:00N 23°02' E 113°31'48171331.8
2017-Nov-14 08:00N 22°15' E 113°21'3360280.3
2017-Nov-14 08:00N 22°20' E 113°56'3257059.7
2017-Nov-14 08:00N 22°15' E 113°23'226000.4
2017-Nov-14 08:00N 22°11' E 113°46'10041204434.8
2017-Nov-14 08:00N 37°33' E 121°23'969183611.4
2017-Nov-14 08:00N 22°53' E 113°34'19887.8
2017-Nov-14 07:59N 22°34' E 113°38'17444.0
2017-Nov-14 07:56N 22°41' E 113°21'22902.0
2017-Nov-14 07:55N 22°59' E 113°34'46113.9
2017-Nov-14 07:31N 22°15' E 113°22'4230595.9
2017-Nov-14 07:30N 22°55' E 113°36'4828994.4
2017-Nov-14 07:30N 22°08' E 113°44'2316663.1
2017-Nov-14 07:30N 22°15' E 113°21'1009605140.8
2017-Nov-14 07:30N 37°33' E 121°23'796238859.0
2017-Nov-14 07:30N 24°32' E 118°19'27554909.2
2017-Nov-14 07:30N 22°20' E 113°56'487480.9
2017-Nov-14 07:29N 23°02' E 113°31'239008.4
2017-Nov-14 07:29N 22°41' E 113°21'22944.9
2017-Nov-14 07:28N 22°59' E 113°34'6454185.4
2017-Nov-14 07:18N 30°38' E 122°03'6872286.7
2017-Nov-14 07:00N 22°15' E 113°21'4819036.9
2017-Nov-14 07:00N 23°02' E 113°31'2791003177.1
2017-Nov-14 07:00N 24°32' E 118°19'275991435.6
2017-Nov-14 07:00N 22°57' E 113°36'5246830.6
2017-Nov-14 07:00N 22°05' E 113°42'1010519416.1
2017-Nov-14 07:00N 37°33' E 121°23'10081209863.7
2017-Nov-14 07:00N 22°15' E 113°22'325008.5
2017-Nov-14 07:00N 22°20' E 113°56'394874.2
2017-Nov-14 06:59N 22°41' E 113°21'22295.7
2017-Nov-14 06:55N 22°59' E 113°34'6452106.1
2017-Nov-14 06:36N 30°38' E 122°03'6866916.0
2017-Nov-14 06:30N 22°15' E 113°22'305182896.8
2017-Nov-14 06:30N 24°32' E 118°19'296354965.9
2017-Nov-14 06:30N 22°03' E 113°41'2316280.1
2017-Nov-14 06:30N 22°20' E 113°56'4857353.5
2017-Nov-14 06:30N 23°02' E 113°31'9623462709.1
2017-Nov-14 06:30N 37°33' E 121°23'96488994.1
2017-Nov-14 06:29N 22°57' E 113°36'225168.6
2017-Nov-14 06:29N 22°41' E 113°21'263774.8
2017-Nov-14 06:29N 22°15' E 113°21'46690.9
2017-Nov-14 06:25N 22°59' E 113°34'46113.7
2017-Nov-14 06:01N 22°15' E 113°22'3238399.4
2017-Nov-14 06:00N 22°20' E 113°56'275988376.4
2017-Nov-14 06:00N 24°32' E 118°19'298268429.2
2017-Nov-14 06:00N 22°01' E 113°39'5625107.0
2017-Nov-14 06:00N 22°56' E 113°37'4417565.1
2017-Nov-14 06:00N 22°15' E 113°21'10091815422.3
2017-Nov-14 06:00N 37°33' E 121°23'962182246.8
2017-Nov-14 06:00N 23°02' E 113°31'4112.5
2017-Nov-14 05:58N 22°59' E 113°34'2297.9
2017-Nov-14 05:44N 22°41' E 113°21'2951288.5
2017-Nov-14 05:30N 24°32' E 118°19'277998420.2
2017-Nov-14 05:30N 22°54' E 113°35'4129789.6
2017-Nov-14 05:30N 22°15' E 113°22'1008518507.4
2017-Nov-14 05:30N 37°33' E 121°23'991713733.4
2017-Nov-14 05:30N 22°20' E 113°56'252111.5
2017-Nov-14 05:29N 22°01' E 113°39'222009.8
2017-Nov-14 05:29N 22°15' E 113°21'28923654.3
2017-Nov-14 05:28N 24°14' E 118°07'26144782.4
2017-Nov-14 05:28N 22°59' E 113°34'4166.1
2017-Nov-14 05:26N 23°02' E 113°31'23147.7
2017-Nov-14 05:17N 22°41' E 113°21'2951060.7
2017-Nov-14 05:00N 24°32' E 118°19'2791004746.9
2017-Nov-14 05:00N 22°52' E 113°34'266479381.7
2017-Nov-14 05:00N 24°17' E 118°10'291349065.1
2017-Nov-14 05:00N 22°15' E 113°22'21137.8
2017-Nov-14 05:00N 22°15' E 113°21'1009302570.4
2017-Nov-14 05:00N 37°33' E 121°23'962577115.0
2017-Nov-14 05:00N 23°02' E 113°31'6155349.5
2017-Nov-14 05:00N 22°01' E 113°39'252593.7
2017-Nov-14 04:59N 22°20' E 113°56'3914137.5
2017-Nov-14 04:59N 22°41' E 113°21'22912.3
2017-Nov-14 04:58N 22°59' E 113°34'9632123.7
2017-Nov-14 04:30N 37°33' E 121°23'9911784343.5
2017-Nov-14 04:30N 22°20' E 113°56'40144895.8
2017-Nov-14 04:30N 22°53' E 113°31'5394992.8
2017-Nov-14 04:30N 22°01' E 113°39'228930.9
2017-Nov-14 04:30N 22°15' E 113°21'293351994.9
2017-Nov-14 04:30N 24°21' E 118°09'2921051427.6
2017-Nov-14 04:30N 22°15' E 113°22'485191.8
2017-Nov-14 04:30N 23°02' E 113°31'232701.9
2017-Nov-14 04:29N 22°41' E 113°21'22933.8
2017-Nov-14 04:28N 22°59' E 113°34'46101.3
2017-Nov-14 04:01N 22°15' E 113°22'4857124.3
2017-Nov-14 04:00N 23°02' E 113°31'2791003169.7
2017-Nov-14 04:00N 24°32' E 118°19'282507217.5
2017-Nov-14 04:00N 22°53' E 113°31'9703491493.2
2017-Nov-14 04:00N 37°33' E 121°23'10153655234.0
2017-Nov-14 04:00N 22°01' E 113°39'4410577.7
2017-Nov-14 04:00N 22°41' E 113°21'2647196.4
2017-Nov-14 04:00N 22°15' E 113°21'337091.2
2017-Nov-14 04:00N 22°20' E 113°56'441274.2
2017-Nov-14 03:58N 22°59' E 113°34'4497.4
2017-Nov-14 03:30N 22°20' E 113°56'275988397.8
2017-Nov-14 03:30N 24°32' E 118°19'2821014435.0
2017-Nov-14 03:30N 22°53' E 113°31'970498784.7
2017-Nov-14 03:30N 37°33' E 121°23'1008453704.0
2017-Nov-14 03:30N 22°15' E 113°22'291174436.4
2017-Nov-14 03:30N 24°28' E 118°04'282101542.5
2017-Nov-14 03:30N 22°03' E 113°41'6011952.9
2017-Nov-14 03:30N 23°02' E 113°31'233002.1
2017-Nov-14 03:29N 22°41' E 113°21'22901.8
2017-Nov-14 03:28N 22°59' E 113°34'61162.4
2017-Nov-14 03:05N 22°24' E 114°28'62822.8
2017-Nov-14 03:01N 22°15' E 113°22'2023622.2
2017-Nov-14 03:00N 22°06' E 113°41'2071738.4
2017-Nov-14 03:00N 22°20' E 113°56'275988387.1
2017-Nov-14 03:00N 24°32' E 118°19'2821014435.0
2017-Nov-14 03:00N 22°53' E 113°31'6154489.5
2017-Nov-14 03:00N 22°23' E 114°28'978502959.7
2017-Nov-14 03:00N 37°33' E 121°23'962494664.3
2017-Nov-14 03:00N 23°02' E 113°31'4885687.1
2017-Nov-14 03:00N 22°15' E 113°21'261781.0
2017-Nov-14 02:59N 22°41' E 113°21'22900.5
2017-Nov-14 02:58N 22°59' E 113°34'6628110.1
2017-Nov-14 02:53N 31°23' E 121°37'7041893.6
2017-Nov-14 02:31N 22°15' E 113°22'3228798.7
2017-Nov-14 02:30N 22°20' E 113°56'41145972.9
2017-Nov-14 02:30N 22°53' E 113°31'4580971.2
2017-Nov-14 02:30N 22°09' E 113°42'697627477.9
2017-Nov-14 02:30N 31°22' E 121°38'371222487.6
2017-Nov-14 02:30N 37°33' E 121°23'98148392.9
2017-Nov-14 02:29N 22°21' E 114°25'6345588.6
2017-Nov-14 02:29N 23°00' E 113°31'3150.4
2017-Nov-14 02:28N 22°59' E 113°34'64589343.2
2017-Nov-14 02:27N 30°38' E 122°03'66734309.9
2017-Nov-14 02:26N 22°41' E 113°21'3685.2
2017-Nov-14 02:01N 22°12' E 113°44'6942499529.2
2017-Nov-14 02:01N 31°21' E 121°41'670602558.2
2017-Nov-14 02:00N 22°53' E 113°31'39140832.0
2017-Nov-14 02:00N 22°15' E 113°21'21896.4
2017-Nov-14 02:00N 22°15' E 113°22'305182900.1
2017-Nov-14 02:00N 24°32' E 118°19'796409472.6
2017-Nov-14 02:00N 37°33' E 121°23'9911784323.4
2017-Nov-14 02:00N 22°20' E 113°56'463266.3
2017-Nov-14 01:59N 23°00' E 113°31'64762926.6
2017-Nov-14 01:59N 30°38' E 122°03'64542235.0
2017-Nov-14 01:58N 22°59' E 113°34'611761.9
2017-Nov-14 01:56N 22°18' E 114°22'62671.0
2017-Nov-14 01:50N 22°41' E 113°21'2781.1
2017-Nov-14 01:31N 22°15' E 113°22'3238400.7
2017-Nov-14 01:30N 22°20' E 113°56'33120560.7
2017-Nov-14 01:30N 22°15' E 113°21'2421291.5
2017-Nov-14 01:30N 22°15' E 113°46'4118328.4
2017-Nov-14 01:30N 22°53' E 113°31'970387941.5
2017-Nov-14 01:30N 37°33' E 121°23'98463285.8
2017-Nov-14 01:29N 22°41' E 113°21'213808.5
2017-Nov-14 01:29N 23°00' E 113°31'3166.6
2017-Nov-14 01:28N 22°59' E 113°34'6452479.1
2017-Nov-14 01:12N 30°38' E 122°03'6873521.3
2017-Nov-14 01:00N 22°15' E 113°21'39140874.0
2017-Nov-14 01:00N 22°53' E 113°31'3935158.2
2017-Nov-14 01:00N 22°15' E 113°22'7042532866.5
2017-Nov-14 01:00N 31°16' E 121°46'443319027.3
2017-Nov-14 01:00N 24°32' E 118°19'282169351.1
2017-Nov-14 01:00N 22°17' E 113°49'827841.3
2017-Nov-14 01:00N 22°20' E 113°56'9911784313.3
2017-Nov-14 01:00N 37°33' E 121°23'41631189.3
2017-Nov-14 00:59N 30°38' E 122°03'667343092.5
2017-Nov-14 00:59N 22°41' E 113°21'67331464.0
2017-Nov-14 00:58N 31°14' E 121°30'6516333.6
2017-Nov-14 00:52N 22°59' E 113°34'46129.9
2017-Nov-14 00:31N 22°15' E 113°22'7032531433.1
2017-Nov-14 00:31N 31°13' E 121°48'6801223319.5
2017-Nov-14 00:30N 22°20' E 113°56'619837.9
2017-Nov-14 00:30N 22°20' E 113°51'2801006363.2
2017-Nov-14 00:30N 24°32' E 118°19'2821014434.3
2017-Nov-14 00:30N 22°53' E 113°31'3915652.7
2017-Nov-14 00:30N 22°15' E 113°21'1009330078.6
2017-Nov-14 00:30N 37°33' E 121°23'378104600.0
2017-Nov-14 00:30N 31°15' E 121°31'65375787.6
2017-Nov-14 00:29N 23°01' E 113°32'3112.2
2017-Nov-14 00:28N 22°59' E 113°34'22287.5
2017-Nov-14 00:23N 22°41' E 113°21'1539.8
2017-Nov-14 00:00N 22°53' E 113°31'3935152.2
2017-Nov-14 00:00N 22°15' E 113°22'4784926.2
2017-Nov-14 00:00N 23°01' E 113°32'962577238.6
2017-Nov-14 00:00N 37°33' E 121°23'1009213580.3
2017-Nov-14 00:00N 22°15' E 113°21'3021624.9
2017-Nov-14 00:00N 22°22' E 113°52'55545.3
2017-Nov-14 00:00N 22°20' E 113°56'67927471.1
2017-Nov-13 23:58N 31°11' E 121°51'66166130.3
2017-Nov-13 23:58N 22°59' E 113°34'22238.2
2017-Nov-13 23:52N 22°41' E 113°21'2811158.8
2017-Nov-13 23:38N 24°29' E 118°04'44911797.9
2017-Nov-13 23:35N 31°18' E 121°34'6638119.8
2017-Nov-13 23:30N 22°53' E 113°31'3542078.0
2017-Nov-13 23:30N 22°25' E 113°54'3155984.3
2017-Nov-13 23:30N 22°16' E 113°21'3329480.6
2017-Nov-13 23:30N 22°20' E 113°56'3360280.4
2017-Nov-13 23:30N 22°15' E 113°21'1009330078.6
2017-Nov-13 23:30N 37°33' E 121°23'962865862.9
2017-Nov-13 23:30N 23°01' E 113°32'26586568.4
2017-Nov-13 23:30N 24°29' E 118°04'28124701.8
2017-Nov-13 23:29N 22°41' E 113°21'22933.4
2017-Nov-13 23:28N 22°59' E 113°34'657139025.3
2017-Nov-13 23:27N 31°19' E 121°33'374833.2
2017-Nov-13 23:00N 37°33' E 121°23'9913568626.6
2017-Nov-13 23:00N 22°20' E 113°56'275988376.4
2017-Nov-13 23:00N 24°32' E 118°19'2821014427.0
2017-Nov-13 23:00N 22°53' E 113°31'3726930.4
2017-Nov-13 23:00N 22°17' E 113°20'45163612.3
2017-Nov-13 23:00N 23°01' E 113°32'4742499.9
2017-Nov-13 23:00N 22°15' E 113°21'3410127.5
2017-Nov-13 23:00N 22°27' E 113°55'671201441.6
2017-Nov-13 23:00N 31°20' E 121°33'68058245.6
2017-Nov-13 22:59N 22°41' E 113°21'22911.9
2017-Nov-13 22:58N 22°59' E 113°34'66219385.0
2017-Nov-13 22:56N 31°07' E 121°58'6871768.6
2017-Nov-13 22:32N 22°09' E 113°60'12376.8
2017-Nov-13 22:30N 22°20' E 113°56'261939739.1
2017-Nov-13 22:30N 24°23' E 118°07'2931053727.2
2017-Nov-13 22:30N 22°15' E 113°21'10093630883.8
2017-Nov-13 22:30N 37°33' E 121°23'10071208497.9
2017-Nov-13 22:30N 22°17' E 113°20'306220397.9
2017-Nov-13 22:30N 24°32' E 118°19'27275310.6
2017-Nov-13 22:30N 22°29' E 113°55'67018553.0
2017-Nov-13 22:28N 31°21' E 121°30'657236463.1
2017-Nov-13 22:28N 22°59' E 113°34'561636.0
2017-Nov-13 22:26N 22°08' E 113°59'481129.0
2017-Nov-13 22:23N 22°41' E 113°21'6858385.2
2017-Nov-13 22:18N 31°04' E 122°01'6702261.7
2017-Nov-13 22:00N 22°53' E 113°31'3733647.4
2017-Nov-13 22:00N 22°17' E 113°20'3441197.3
2017-Nov-13 22:00N 22°20' E 113°56'275329462.2
2017-Nov-13 22:00N 24°32' E 118°19'27883451.2
2017-Nov-13 22:00N 23°01' E 113°32'658789379.4
2017-Nov-13 22:00N 31°23' E 121°30'68046172.1
2017-Nov-13 21:59N 22°41' E 113°21'22911.9
2017-Nov-13 21:58N 22°59' E 113°34'6512052.0
2017-Nov-13 21:39N 31°58' E 120°25'70531.1
2017-Nov-13 21:31N 31°15' E 121°30'69435.6
2017-Nov-13 02:00N 22°15' E 113°21'3320058.3
2017-Nov-13 02:00N 22°20' E 113°56'1110051.5
2017-Nov-13 02:00N 22°22' E 113°45'9941788897.7
2017-Nov-13 02:00N 37°33' E 121°23'962138508.4
2017-Nov-13 02:00N 23°02' E 113°31'92597960.0
2017-Nov-13 01:59N 37°25' E 119°57'948284291.1
2017-Nov-13 01:59N 22°41' E 113°21'1917307.8
2017-Nov-13 01:59N 22°38' E 113°41'12781.4
2017-Nov-13 01:58N 22°30' E 113°51'336005.2
2017-Nov-13 01:58N 22°59' E 113°34'438146.8
2017-Nov-13 01:57N 22°19' E 113°49'68443192.5
2017-Nov-13 01:56N 31°32' E 121°20'6571522.1
2017-Nov-13 01:31N 22°34' E 114°15'253182029.2
2017-Nov-13 01:30N 24°32' E 118°19'3061101707.7
2017-Nov-13 01:30N 22°15' E 113°21'304845.2
2017-Nov-13 01:30N 22°38' E 113°41'980235235.2
2017-Nov-13 01:30N 37°33' E 121°23'36156470.9
2017-Nov-13 01:29N 31°32' E 121°20'679152694.7
2017-Nov-13 01:29N 22°20' E 113°56'11624.0
2017-Nov-13 01:28N 22°30' E 113°51'3718968.5
2017-Nov-13 01:28N 23°02' E 113°31'4829.1
2017-Nov-13 01:28N 22°59' E 113°34'22809.6
2017-Nov-13 01:26N 22°41' E 113°21'35254.6
2017-Nov-13 01:18N 22°19' E 113°49'6672478.8
2017-Nov-13 01:02N 30°38' E 122°02'66630757.4
2017-Nov-13 01:00N 22°19' E 113°49'2631749.1
2017-Nov-13 01:00N 22°15' E 113°21'5448258.9
2017-Nov-13 01:00N 22°34' E 114°15'2279470.2
2017-Nov-13 01:00N 22°20' E 113°56'239073.0
2017-Nov-13 01:00N 22°38' E 113°41'27966997.2
2017-Nov-13 01:00N 24°32' E 118°19'2758745.5
2017-Nov-13 00:58N 22°30' E 113°51'336006.2
2017-Nov-13 00:58N 22°59' E 113°34'65930402.8
2017-Nov-13 00:56N 31°32' E 121°20'65920270.5
2017-Nov-13 00:54N 23°02' E 113°31'22952.9
2017-Nov-13 00:53N 22°41' E 113°21'9483194.3
2017-Nov-13 00:35N 37°25' E 119°57'95711923.2
2017-Nov-13 00:30N 22°21' E 113°51'2781000966.9
2017-Nov-13 00:30N 24°32' E 118°19'253227536.4
2017-Nov-13 00:30N 22°34' E 114°15'325680.8
2017-Nov-13 00:30N 22°38' E 113°41'264023.9
2017-Nov-13 00:30N 23°02' E 113°31'659197635.8
2017-Nov-13 00:29N 31°32' E 121°20'681111403.0
2017-Nov-13 00:29N 22°41' E 113°21'392571.1
2017-Nov-13 00:28N 22°20' E 113°56'117831.4
2017-Nov-13 00:28N 22°30' E 113°51'335461.0
2017-Nov-13 00:28N 22°59' E 113°34'96316907.0
2017-Nov-13 00:24N 37°33' E 121°23'691631.0
2017-Nov-13 00:22N 37°25' E 119°57'9572701.8
2017-Nov-13 00:01N 22°20' E 113°56'275247099.5
2017-Nov-13 00:00N 24°32' E 118°19'253227536.4
2017-Nov-13 00:00N 22°34' E 114°15'5438607.2
2017-Nov-13 00:00N 22°15' E 113°21'4821416.9
2017-Nov-13 00:00N 23°02' E 113°31'4315310.0
2017-Nov-13 00:00N 22°24' E 113°53'988222392.4
2017-Nov-13 00:00N 37°33' E 121°23'980352890.1
2017-Nov-13 00:00N 22°38' E 113°41'672484092.5
2017-Nov-12 23:59N 31°32' E 121°20'67428871.5
2017-Nov-12 23:58N 22°30' E 113°51'335224.4
2017-Nov-12 23:58N 22°59' E 113°34'54200.3
2017-Nov-12 23:42N 22°17' E 114°11'52484.4
2017-Nov-12 23:35N 22°41' E 113°21'66717403.7
2017-Nov-12 23:33N 30°38' E 122°03'68717407.5
2017-Nov-12 23:30N 22°15' E 113°21'5640105.0
2017-Nov-12 23:30N 22°34' E 114°17'349334.2
2017-Nov-12 23:30N 22°38' E 113°41'980504131.5
2017-Nov-12 23:30N 37°33' E 121°23'98461101.8
2017-Nov-12 23:29N 22°41' E 113°21'231800.8
2017-Nov-12 23:28N 23°02' E 113°31'3713301.0
2017-Nov-12 23:28N 22°30' E 113°51'334450.4
2017-Nov-12 23:28N 22°59' E 113°34'65931203.1
2017-Nov-12 23:26N 31°32' E 121°20'651596.0
2017-Nov-12 23:24N 30°38' E 122°03'6587495.5
2017-Nov-12 23:19N 22°26' E 113°54'721.9
2017-Nov-12 23:01N 22°20' E 113°56'3324071.3
2017-Nov-12 23:00N 22°15' E 113°21'306110170.8
2017-Nov-12 23:00N 24°32' E 118°19'796159239.3
2017-Nov-12 23:00N 37°33' E 121°23'96275274.6
2017-Nov-12 22:59N 23°02' E 113°31'503750.0
2017-Nov-12 22:58N 22°35' E 114°17'339051.7
2017-Nov-12 22:58N 22°38' E 113°41'1210695.5
2017-Nov-12 22:58N 22°30' E 113°51'335223.6
2017-Nov-12 22:58N 22°59' E 113°34'22285.4
2017-Nov-12 22:53N 22°41' E 113°21'68115610.5
2017-Nov-12 22:50N 31°32' E 121°20'65981.5
2017-Nov-12 22:46N 30°38' E 122°03'983.4
2017-Nov-12 22:40N 30°45' E 122°08'66712764.2
2017-Nov-12 22:37N 22°21' E 114°02'38345.7
2017-Nov-12 22:30N 22°15' E 113°21'3310941.8
2017-Nov-12 22:30N 22°20' E 113°56'27549418.8
2017-Nov-12 22:30N 24°32' E 118°19'796955436.1
2017-Nov-12 22:30N 37°33' E 121°23'4081468962.0
2017-Nov-12 22:30N 30°46' E 122°08'629239.6
2017-Nov-12 22:29N 31°32' E 121°20'67429576.0
2017-Nov-12 22:28N 22°30' E 113°51'121036.2
2017-Nov-12 22:27N 22°21' E 113°60'213540.4
2017-Nov-12 22:27N 22°35' E 114°17'311378.9
2017-Nov-12 22:26N 22°35' E 113°43'22491.2
2017-Nov-12 22:23N 22°41' E 113°21'22302.8
2017-Nov-12 22:19N 22°59' E 113°34'4100.3
2017-Nov-12 22:16N 23°02' E 113°31'2791050.4
2017-Nov-12 22:00N 24°32' E 118°19'251226036.2
2017-Nov-12 22:00N 22°35' E 114°17'5017999.9
2017-Nov-12 22:00N 23°02' E 113°31'6561180761.4
2017-Nov-12 22:00N 30°49' E 122°07'697627387.9
2017-Nov-12 22:00N 22°15' E 113°21'3340120.0
2017-Nov-12 22:00N 22°20' E 113°56'392437.5
2017-Nov-12 21:59N 22°41' E 113°21'301814.7
2017-Nov-12 21:58N 22°30' E 113°51'72454.5
2017-Nov-12 21:58N 22°33' E 113°45'288308.4
2017-Nov-12 21:58N 22°59' E 113°34'65930798.7
2017-Nov-12 21:56N 31°32' E 121°20'6762604.5
2017-Nov-12 21:41N 22°22' E 113°58'6677574.2
2017-Nov-12 21:36N 31°14' E 121°29'6477688.1
2017-Nov-12 21:31N 22°35' E 114°17'5533168.9
2017-Nov-12 21:30N 22°15' E 113°21'306110169.8
2017-Nov-12 21:30N 24°32' E 118°19'429103065.3
2017-Nov-12 21:30N 30°52' E 122°06'673403981.6
2017-Nov-12 21:30N 22°20' E 113°56'4843033.9
2017-Nov-12 21:30N 23°02' E 113°31'962865657.6
2017-Nov-12 21:30N 37°33' E 121°23'36161859.3
2017-Nov-12 21:29N 31°32' E 121°20'681102121.9
2017-Nov-12 21:29N 22°41' E 113°21'263496.6
2017-Nov-12 21:29N 22°33' E 113°47'4618.1
2017-Nov-12 21:28N 22°30' E 113°51'334289.4
2017-Nov-12 21:28N 22°59' E 113°34'652586402.5
2017-Nov-12 21:28N 31°15' E 121°30'3781.5
2017-Nov-12 21:01N 30°54' E 122°05'400479750.5
2017-Nov-12 21:00N 37°33' E 121°23'10093630766.9
2017-Nov-12 21:00N 22°15' E 113°21'3360178.3
2017-Nov-12 21:00N 22°20' E 113°56'4886058.3
2017-Nov-12 21:00N 23°02' E 113°31'279200632.5
2017-Nov-12 21:00N 24°32' E 118°19'27475972.9
2017-Nov-12 21:00N 22°32' E 113°50'2544551.2
2017-Nov-12 21:00N 22°35' E 114°17'65665604.3
2017-Nov-12 20:59N 31°32' E 121°20'67429940.7
2017-Nov-12 20:58N 22°30' E 113°51'335004.3
2017-Nov-12 20:58N 22°59' E 113°34'22801.4
2017-Nov-12 20:56N 22°41' E 113°21'3172.5
2017-Nov-12 20:31N 22°30' E 113°52'6722418762.8
2017-Nov-12 20:31N 30°57' E 122°05'43444593.7
2017-Nov-12 20:30N 24°32' E 118°19'306122412.0
2017-Nov-12 20:30N 22°15' E 113°21'33120359.9
2017-Nov-12 20:30N 22°20' E 113°56'991713725.3
2017-Nov-12 20:30N 37°33' E 121°23'36192788.9
2017-Nov-12 20:29N 31°32' E 121°20'65944748.9
2017-Nov-12 20:29N 23°02' E 113°31'374748.4
2017-Nov-12 20:28N 22°30' E 113°51'335459.3
2017-Nov-12 20:28N 22°59' E 113°34'491456.3
2017-Nov-12 20:26N 22°33' E 114°19'541221.1
2017-Nov-12 20:23N 22°41' E 113°21'6673506.1
2017-Nov-12 20:12N 30°38' E 122°03'48537.7
2017-Nov-12 20:06N 31°19' E 121°33'6737059.9
2017-Nov-12 20:01N 22°27' E 113°53'274164640.9
2017-Nov-12 20:00N 24°32' E 118°19'275988387.1
2017-Nov-12 20:00N 22°20' E 113°56'676347846.5
2017-Nov-12 20:00N 31°20' E 121°33'3731342510.5
2017-Nov-12 20:00N 37°33' E 121°23'395236712.7
2017-Nov-12 20:00N 30°60' E 122°03'661297492.8
2017-Nov-12 20:00N 23°02' E 113°31'65965880.8
2017-Nov-12 19:59N 31°32' E 121°20'67431910.5
2017-Nov-12 19:58N 22°30' E 113°51'334003.5
2017-Nov-12 19:58N 22°59' E 113°34'22287.5
2017-Nov-12 19:53N 22°41' E 113°21'29113.7
2017-Nov-12 19:38N 22°27' E 113°49'38322.3
2017-Nov-12 19:30N 23°02' E 113°31'4885635.9
2017-Nov-12 19:30N 22°15' E 113°21'2850937.0
2017-Nov-12 19:30N 22°28' E 113°48'987323039.8
2017-Nov-12 19:30N 37°33' E 121°23'9893558829.4
2017-Nov-12 19:30N 22°24' E 113°54'6772438143.5
2017-Nov-12 19:30N 31°02' E 122°02'3359092.2
2017-Nov-12 19:30N 31°21' E 121°31'67671579.0
2017-Nov-12 19:30N 22°20' E 113°56'394875.4
2017-Nov-12 19:29N 22°41' E 113°21'301814.4
2017-Nov-12 19:28N 22°30' E 113°51'335221.1
2017-Nov-12 19:28N 22°59' E 113°34'6599336.7
2017-Nov-12 19:23N 31°32' E 121°20'651018.4
2017-Nov-12 19:20N 30°38' E 122°03'6872145.7
2017-Nov-12 19:00N 22°15' E 113°21'7011261509.6
2017-Nov-12 19:00N 31°23' E 121°30'6781221187.5
2017-Nov-12 19:00N 22°26' E 113°45'6811226414.9
2017-Nov-12 19:00N 31°05' E 122°00'438394597.6
2017-Nov-12 19:00N 24°32' E 118°19'796716577.1
2017-Nov-12 19:00N 37°33' E 121°23'36128867.2
2017-Nov-12 18:59N 31°32' E 121°20'679814383.0
2017-Nov-12 18:59N 22°20' E 113°56'11538.0
2017-Nov-12 18:58N 22°30' E 113°51'333999.1
2017-Nov-12 18:58N 22°59' E 113°34'4169.8
2017-Nov-12 18:56N 23°02' E 113°31'227363.4
2017-Nov-12 18:56N 22°41' E 113°21'39679.7
2017-Nov-12 18:53N 22°21' E 113°56'5286.5
2017-Nov-12 18:52N 22°26' E 113°54'6582530.5
2017-Nov-12 18:36N 30°38' E 122°03'4164512.2
2017-Nov-12 18:30N 24°32' E 118°19'3061101707.7
2017-Nov-12 18:30N 22°15' E 113°21'33120356.6
2017-Nov-12 18:30N 22°20' E 113°56'679244373.2
2017-Nov-12 18:30N 31°25' E 121°30'6842461147.9
2017-Nov-12 18:30N 22°22' E 113°44'4229887.9
2017-Nov-12 18:30N 23°02' E 113°31'962111700.3
2017-Nov-12 18:30N 37°33' E 121°23'361118093.0
2017-Nov-12 18:29N 31°32' E 121°20'409085.0
2017-Nov-12 18:29N 31°07' E 121°57'294951.1
2017-Nov-12 18:29N 30°38' E 122°03'65756330.8
2017-Nov-12 18:28N 22°30' E 113°51'334801.9
2017-Nov-12 18:28N 22°59' E 113°34'22124.9
2017-Nov-12 18:17N 22°41' E 113°21'2694.3
2017-Nov-12 18:00N 22°15' E 113°21'3061101707.7
2017-Nov-12 18:00N 24°32' E 118°19'2861028999.1
2017-Nov-12 18:00N 22°18' E 113°44'45163516.0
2017-Nov-12 18:00N 23°02' E 113°31'6601187546.4
2017-Nov-12 18:00N 31°28' E 121°27'309713.5
2017-Nov-12 18:00N 31°09' E 121°53'679407130.5
2017-Nov-12 18:00N 22°20' E 113°56'9911784323.4
2017-Nov-12 18:00N 37°33' E 121°23'98431081.8
2017-Nov-12 17:58N 22°30' E 113°51'334617.2
2017-Nov-12 17:58N 22°59' E 113°34'22817.9
2017-Nov-12 17:56N 22°41' E 113°21'68115711.2
2017-Nov-12 17:53N 31°32' E 121°20'6752991.7
2017-Nov-12 17:40N 22°26' E 113°54'33206.8
2017-Nov-12 17:30N 22°15' E 113°21'3340118.9
2017-Nov-12 17:30N 22°20' E 113°56'1425780.6
2017-Nov-12 17:30N 22°14' E 113°42'1629341.8
2017-Nov-12 17:30N 22°26' E 113°54'6751214992.2
2017-Nov-12 17:30N 31°30' E 121°23'659339027.1
2017-Nov-12 17:30N 23°02' E 113°31'962247335.0
2017-Nov-12 17:30N 37°33' E 121°23'36141904.0
2017-Nov-12 17:29N 31°32' E 121°20'67431091.3
2017-Nov-12 17:28N 22°30' E 113°51'334615.7
2017-Nov-12 17:28N 22°59' E 113°34'66121243.6
2017-Nov-12 17:26N 31°12' E 121°49'6834691.7
2017-Nov-12 17:17N 22°41' E 113°21'6832472.6
2017-Nov-12 17:01N 31°15' E 121°46'442530886.3
2017-Nov-12 17:00N 24°32' E 118°19'306550848.8
2017-Nov-12 17:00N 22°15' E 113°21'1821321.1
2017-Nov-12 17:00N 22°11' E 113°39'225574.6
2017-Nov-12 17:00N 22°30' E 113°51'3718860.1
2017-Nov-12 17:00N 23°02' E 113°31'962346269.0
2017-Nov-12 17:00N 37°33' E 121°23'36151960.1
2017-Nov-12 16:59N 31°32' E 121°20'11387.9
2017-Nov-12 16:59N 31°33' E 121°19'67941455.2
2017-Nov-12 16:58N 22°20' E 113°56'443981.4
2017-Nov-12 16:58N 22°59' E 113°34'36802.0
2017-Nov-12 16:55N 22°29' E 113°55'34186.3
2017-Nov-12 16:44N 22°41' E 113°21'9844348.3
2017-Nov-12 16:31N 37°33' E 121°23'3751349400.8
2017-Nov-12 16:31N 31°18' E 121°43'6742427970.6
2017-Nov-12 16:31N 22°29' E 113°55'3424564.8
2017-Nov-12 16:30N 22°15' E 113°21'1526188.5
2017-Nov-12 16:30N 22°10' E 113°36'296177704.2
2017-Nov-12 16:30N 24°32' E 118°19'276124336.1
2017-Nov-12 16:30N 22°31' E 113°48'142058.5
2017-Nov-12 16:30N 22°20' E 113°56'4857353.5
2017-Nov-12 16:30N 23°02' E 113°31'660396167.3
2017-Nov-12 16:30N 31°36' E 121°17'68279236.4
2017-Nov-12 16:29N 22°41' E 113°21'68115512.5
2017-Nov-12 16:26N 31°32' E 121°20'65922373.1
2017-Nov-12 16:25N 22°59' E 113°34'6533397.4
2017-Nov-12 16:13N 30°41' E 122°11'48229.4
2017-Nov-12 16:01N 31°21' E 121°39'704507032.6
2017-Nov-12 16:00N 22°15' E 113°21'1110092.2
2017-Nov-12 16:00N 22°10' E 113°32'299269216.6
2017-Nov-12 16:00N 24°32' E 118°19'279143311.0
2017-Nov-12 16:00N 23°02' E 113°31'32114434.8
2017-Nov-12 16:00N 22°32' E 113°44'984154014.0
2017-Nov-12 16:00N 37°33' E 121°23'98486436.7
2017-Nov-12 15:59N 22°41' E 113°21'3970693.2
2017-Nov-12 15:59N 22°20' E 113°56'441990.7
2017-Nov-12 15:58N 22°59' E 113°34'65442831.1
2017-Nov-12 15:57N 30°43' E 122°11'66318.2
2017-Nov-12 15:44N 31°32' E 121°20'1668.2
2017-Nov-12 15:31N 31°23' E 121°35'48173969.6
2017-Nov-12 15:30N 30°46' E 122°12'408734979.9
2017-Nov-12 15:30N 37°33' E 121°23'10093630766.9
2017-Nov-12 15:30N 22°15' E 113°21'810190.7
2017-Nov-12 15:30N 22°09' E 113°28'303155903.7
2017-Nov-12 15:30N 24°32' E 118°19'275494188.2
2017-Nov-12 15:30N 22°20' E 113°56'2035638.2
2017-Nov-12 15:30N 22°34' E 113°42'295231.2
2017-Nov-12 15:30N 23°02' E 113°31'65998822.6
2017-Nov-12 15:29N 31°32' E 121°20'68190776.9
2017-Nov-12 15:29N 22°41' E 113°21'221057.8
2017-Nov-12 15:28N 22°59' E 113°34'36218.4
2017-Nov-12 15:18N 22°29' E 113°55'6722319.2
2017-Nov-12 15:01N 31°23' E 121°31'6592371881.3
2017-Nov-12 15:01N 23°02' E 113°31'279334392.4
2017-Nov-12 15:00N 24°32' E 118°19'3061101707.7
2017-Nov-12 15:00N 22°15' E 113°21'1009907696.5
2017-Nov-12 15:00N 37°33' E 121°23'405112151.1
2017-Nov-12 15:00N 30°50' E 122°13'70174180.2
2017-Nov-12 15:00N 22°13' E 113°24'312168.6
2017-Nov-12 14:59N 22°20' E 113°56'39867.5
2017-Nov-12 14:56N 22°41' E 113°21'17815.1
2017-Nov-12 14:55N 22°38' E 113°39'67431088.0
2017-Nov-12 14:53N 31°32' E 121°20'6735834.6
2017-Nov-12 14:47N 22°29' E 113°55'6692505.1
2017-Nov-12 14:31N 31°22' E 121°28'49174999.5
2017-Nov-12 14:30N 30°53' E 122°13'704844395.8
2017-Nov-12 14:30N 22°15' E 113°21'33120359.9
2017-Nov-12 14:30N 22°20' E 113°56'4843029.2
2017-Nov-12 14:30N 23°02' E 113°31'4028516.9
2017-Nov-12 14:30N 22°29' E 113°55'27232639.5
2017-Nov-12 14:30N 24°32' E 118°19'796260575.4
2017-Nov-12 14:30N 37°33' E 121°23'361162362.1
2017-Nov-12 14:29N 31°32' E 121°20'701504492.8
2017-Nov-12 14:29N 22°16' E 113°21'254749.5
2017-Nov-12 14:29N 22°41' E 113°21'22991.7
2017-Nov-12 14:28N 22°59' E 113°34'43112.3
2017-Nov-12 14:05N 22°22' E 113°58'6789571.7
2017-Nov-12 14:00N 30°56' E 122°14'7061270946.4
2017-Nov-12 14:00N 22°15' E 113°21'3330089.1
2017-Nov-12 14:00N 22°20' E 113°56'34123584.0
2017-Nov-12 14:00N 22°17' E 113°20'306220386.2
2017-Nov-12 14:00N 24°32' E 118°19'796573265.9
2017-Nov-12 14:00N 37°33' E 121°23'9621731324.7
2017-Nov-12 14:00N 23°02' E 113°31'65952702.5
2017-Nov-12 13:59N 31°32' E 121°20'673142441.8
2017-Nov-12 13:59N 22°28' E 113°55'361499.3
2017-Nov-12 13:58N 22°59' E 113°34'22174.0
2017-Nov-12 13:50N 22°41' E 113°21'401737.0
2017-Nov-12 13:49N 22°22' E 113°58'6802235.7
2017-Nov-12 13:30N 30°59' E 122°13'7081274455.1
2017-Nov-12 13:30N 22°15' E 113°21'4828563.0
2017-Nov-12 13:30N 23°02' E 113°31'4828695.5
2017-Nov-12 13:30N 22°20' E 113°56'9911784343.3
2017-Nov-12 13:30N 37°33' E 121°23'796114653.2
2017-Nov-12 13:30N 24°32' E 118°19'44976959.4
2017-Nov-12 13:29N 31°32' E 121°20'65922802.4
2017-Nov-12 13:28N 22°59' E 113°34'448401.8
2017-Nov-12 13:27N 22°17' E 113°20'241059.0
2017-Nov-12 13:26N 22°41' E 113°21'32624.3
2017-Nov-12 13:23N 23°07' E 113°41'65027545.6
2017-Nov-12 13:22N 31°46' E 121°03'72206.4
2017-Nov-12 13:00N 31°02' E 122°10'683491875.0
2017-Nov-12 13:00N 22°20' E 113°56'4922123.1
2017-Nov-12 13:00N 23°06' E 113°38'41149094.2
2017-Nov-12 13:00N 22°28' E 113°55'4036424.1
2017-Nov-12 13:00N 23°02' E 113°31'9621154209.9
2017-Nov-12 13:00N 37°33' E 121°23'7962866329.3
2017-Nov-12 13:00N 24°32' E 118°19'457137025.1
2017-Nov-12 13:00N 31°45' E 121°06'172449.2
2017-Nov-12 12:59N 31°32' E 121°20'65922802.4
2017-Nov-12 12:58N 22°59' E 113°34'443006.6
2017-Nov-12 12:57N 22°17' E 113°20'24112.8
2017-Nov-12 12:44N 22°41' E 113°21'674303107.2
2017-Nov-12 12:44N 31°59' E 120°26'4602050.4
2017-Nov-12 12:30N 24°32' E 118°19'272326502.1
2017-Nov-12 12:30N 22°28' E 113°55'676810810.0
2017-Nov-12 12:30N 31°41' E 121°10'6016697.4
2017-Nov-12 12:30N 31°04' E 122°05'391234360.2
2017-Nov-12 12:30N 37°33' E 121°23'99172829.9
2017-Nov-12 12:29N 22°20' E 113°56'333167.3
2017-Nov-12 12:29N 22°15' E 113°21'463187.6
2017-Nov-12 12:28N 22°59' E 113°34'65931203.5
2017-Nov-12 12:26N 31°32' E 121°20'65929279.1
2017-Nov-12 12:25N 23°02' E 113°31'65123445.6
2017-Nov-12 12:23N 31°59' E 120°26'69516350.9
2017-Nov-12 12:21N 22°15' E 113°22'261829.7
2017-Nov-12 12:20N 22°41' E 113°21'2680.4
2017-Nov-12 12:00N 22°15' E 113°21'30650077.6
2017-Nov-12 12:00N 24°32' E 118°19'275988387.1
2017-Nov-12 12:00N 22°20' E 113°56'991509809.5
2017-Nov-12 12:00N 37°33' E 121°23'985506378.9
2017-Nov-12 12:00N 22°28' E 113°55'67686858.8
2017-Nov-12 11:59N 31°38' E 121°15'704316736.9
2017-Nov-12 11:59N 22°13' E 113°24'2811155.1
2017-Nov-12 11:59N 22°41' E 113°21'22967.5
2017-Nov-12 11:58N 22°59' E 113°34'65931619.6
2017-Nov-12 11:56N 31°32' E 121°20'3 6.9
2017-Nov-12 11:31N 31°35' E 121°18'675269886.5
2017-Nov-12 11:30N 22°28' E 113°55'674808789.7
2017-Nov-12 11:30N 31°06' E 121°57'439789842.6
2017-Nov-12 11:30N 24°32' E 118°19'27991195.2
2017-Nov-12 11:30N 23°02' E 113°31'5191873.1
2017-Nov-12 11:30N 22°11' E 113°25'1011330764.9
2017-Nov-12 11:30N 37°33' E 121°23'991209919.2
2017-Nov-12 11:30N 22°20' E 113°56'679407188.5
2017-Nov-12 11:29N 31°32' E 121°20'70222559.4
2017-Nov-12 11:28N 22°15' E 113°21'261026.3
2017-Nov-12 11:26N 22°41' E 113°21'22979.5
2017-Nov-12 11:25N 22°59' E 113°34'6601635.8
2017-Nov-12 11:01N 31°32' E 121°23'3665178.9
2017-Nov-12 11:00N 31°08' E 121°55'7031265827.1
2017-Nov-12 11:00N 22°15' E 113°21'306110169.8
2017-Nov-12 11:00N 24°32' E 118°19'796573261.6
2017-Nov-12 11:00N 37°33' E 121°23'985506379.0
2017-Nov-12 11:00N 22°28' E 113°55'3155940.3
2017-Nov-12 11:00N 22°09' E 113°28'536537.7
2017-Nov-12 11:00N 23°02' E 113°31'659474322.0
2017-Nov-12 10:59N 31°32' E 121°20'67933015.3
2017-Nov-12 10:58N 22°20' E 113°56'445136.7
2017-Nov-12 10:58N 22°59' E 113°34'22777.8
2017-Nov-12 10:56N 22°41' E 113°21'6831603.2
2017-Nov-12 10:30N 31°09' E 121°52'703632627.0
2017-Nov-12 10:30N 22°15' E 113°21'1119495.5
2017-Nov-12 10:30N 22°10' E 113°31'255070.3
2017-Nov-12 10:30N 22°20' E 113°56'27558139.8
2017-Nov-12 10:30N 24°32' E 118°19'7962866308.2
2017-Nov-12 10:30N 37°33' E 121°23'36448569.1
2017-Nov-12 10:29N 31°28' E 121°27'66025025.2
2017-Nov-12 10:28N 22°59' E 113°34'4277.6
2017-Nov-12 10:27N 23°02' E 113°31'65981779.7
2017-Nov-12 10:26N 31°32' E 121°20'12245.1
2017-Nov-12 10:23N 31°21' E 121°26'6764347.3
2017-Nov-12 10:14N 22°41' E 113°21'9844348.3
2017-Nov-12 10:00N 37°33' E 121°23'796260573.5
2017-Nov-12 10:00N 24°32' E 118°19'275988365.7
2017-Nov-12 10:00N 22°20' E 113°56'233539.0
2017-Nov-12 10:00N 22°11' E 113°34'265776.1
2017-Nov-12 10:00N 22°28' E 113°55'34122770.2
2017-Nov-12 10:00N 22°15' E 113°21'702360946.0
2017-Nov-12 09:59N 31°32' E 121°20'681116708.7
2017-Nov-12 09:59N 22°41' E 113°21'682614059.8
2017-Nov-12 09:59N 31°25' E 121°31'214978.7
2017-Nov-12 09:59N 31°11' E 121°50'661594948.9
2017-Nov-12 09:59N 23°02' E 113°31'423.5
2017-Nov-12 09:49N 22°59' E 113°34'46151.4
2017-Nov-12 09:30N 22°15' E 113°21'1619212.8
2017-Nov-12 09:30N 22°10' E 113°37'295151744.0
2017-Nov-12 09:30N 24°32' E 118°19'272980069.4
2017-Nov-12 09:30N 22°28' E 113°55'674142639.4
2017-Nov-12 09:30N 31°12' E 121°48'661475854.8
2017-Nov-12 09:30N 23°01' E 113°32'6621190771.7
2017-Nov-12 09:30N 31°23' E 121°36'680306109.6
2017-Nov-12 09:30N 22°20' E 113°56'991594767.7
2017-Nov-12 09:30N 37°33' E 121°23'98416638.1
2017-Nov-12 09:26N 22°41' E 113°21'68115513.1
2017-Nov-12 09:23N 31°32' E 121°20'65922587.1
2017-Nov-12 09:22N 22°59' E 113°34'6611869.7
2017-Nov-12 09:00N 31°12' E 121°48'6771219018.3
2017-Nov-12 09:00N 22°24' E 113°53'31112621.0
2017-Nov-12 09:00N 22°15' E 113°21'705845638.6
2017-Nov-12 09:00N 31°21' E 121°40'372223429.8
2017-Nov-12 09:00N 37°33' E 121°23'7961433154.1
2017-Nov-12 09:00N 24°32' E 118°19'27589852.4
2017-Nov-12 09:00N 22°20' E 113°56'392244.0
2017-Nov-12 08:59N 22°41' E 113°21'221030.4
2017-Nov-12 08:58N 22°59' E 113°34'6595427.0
2017-Nov-12 08:50N 31°32' E 121°20'3193.0
2017-Nov-12 08:30N 31°12' E 121°48'7032530582.3
2017-Nov-12 08:30N 22°15' E 113°21'3061101697.7
2017-Nov-12 08:30N 24°32' E 118°19'444799444.8
2017-Nov-12 08:30N 31°18' E 121°44'6622384392.9
2017-Nov-12 08:30N 23°01' E 113°32'49176551.8
2017-Nov-12 08:30N 22°13' E 113°42'1003361152.0
2017-Nov-12 08:30N 37°33' E 121°23'9931786546.6
2017-Nov-12 08:30N 22°21' E 113°51'68158365.8
2017-Nov-12 08:29N 31°32' E 121°20'681122548.8
2017-Nov-12 08:29N 22°41' E 113°21'3910097.4
2017-Nov-12 08:29N 22°20' E 113°56'442242.5
2017-Nov-12 08:28N 22°59' E 113°34'4497.4
2017-Nov-12 08:00N 22°17' E 113°49'2821014910.1
2017-Nov-12 08:00N 24°32' E 118°19'275494182.9
2017-Nov-12 08:00N 22°20' E 113°56'1348388.6
2017-Nov-12 08:00N 22°15' E 113°43'47170583.9
2017-Nov-12 08:00N 23°01' E 113°32'661594766.4
2017-Nov-12 08:00N 31°12' E 121°48'381228473.0
2017-Nov-12 08:00N 37°33' E 121°23'96310566.9
2017-Nov-12 07:55N 22°59' E 113°34'22793.4
2017-Nov-12 07:53N 22°41' E 113°21'68327644.6
2017-Nov-12 07:52N 31°13' E 121°48'301586.2
2017-Nov-12 07:50N 31°32' E 121°20'6753066.0
2017-Nov-12 07:37N 22°23' E 113°59'24631.0
2017-Nov-12 07:35N 22°39' E 113°39'23311.6
2017-Nov-12 07:30N 23°01' E 113°32'47169408.6
2017-Nov-12 07:30N 22°15' E 113°21'3360179.9
2017-Nov-12 07:30N 22°20' E 113°56'1214488.1
2017-Nov-12 07:30N 22°17' E 113°44'44671.4
2017-Nov-12 07:30N 22°14' E 113°47'285342301.6
2017-Nov-12 07:30N 24°32' E 118°19'796318483.4
2017-Nov-12 07:30N 37°33' E 121°23'381152324.9
2017-Nov-12 07:30N 31°12' E 121°48'313584.1
2017-Nov-12 07:29N 31°32' E 121°20'65922588.3
2017-Nov-12 07:28N 22°59' E 113°34'43916.5
2017-Nov-12 07:25N 22°23' E 113°58'24406.6
2017-Nov-12 07:21N 22°38' E 113°39'17239.9
2017-Nov-12 07:17N 22°41' E 113°21'6849612.6
2017-Nov-12 07:13N 31°10' E 121°53'2 9.0
2017-Nov-12 07:00N 31°08' E 121°55'3861391269.0
2017-Nov-12 07:00N 37°34' E 121°25'10101818597.1
2017-Nov-12 07:00N 22°15' E 113°21'33120353.2
2017-Nov-12 07:00N 22°20' E 113°56'1241873.3
2017-Nov-12 07:00N 22°19' E 113°44'78951.8
2017-Nov-12 07:00N 22°12' E 113°44'5011357.6
2017-Nov-12 07:00N 23°01' E 113°32'221429.0
2017-Nov-12 06:59N 22°41' E 113°21'415902.6
2017-Nov-12 06:59N 22°22' E 113°60'442711.7
2017-Nov-12 06:58N 22°59' E 113°34'24227.2
2017-Nov-12 06:51N 22°36' E 113°40'2641205.2
2017-Nov-12 06:38N 24°26' E 118°01'4609747.0
2017-Nov-12 06:35N 31°32' E 121°20'6968487.5
2017-Nov-12 06:31N 22°09' E 113°42'5347352.1
2017-Nov-12 06:30N 23°01' E 113°32'2781002174.4
2017-Nov-12 06:30N 24°32' E 118°19'275988376.4
2017-Nov-12 06:30N 22°20' E 113°56'6802448034.3
2017-Nov-12 06:30N 31°06' E 121°59'6771219431.7
2017-Nov-12 06:30N 22°34' E 113°41'2716341.1
2017-Nov-12 06:30N 22°15' E 113°21'2340791.3
2017-Nov-12 06:30N 22°21' E 113°44'998211236.5
2017-Nov-12 06:30N 37°36' E 121°25'384172678.8
2017-Nov-12 06:30N 31°12' E 121°48'315565.2
2017-Nov-12 06:29N 31°32' E 121°20'65922167.1
2017-Nov-12 06:28N 22°59' E 113°34'22784.4
2017-Nov-12 06:26N 22°41' E 113°21'68237746.8
2017-Nov-12 06:25N 31°25' E 121°30'6621621.2
2017-Nov-12 06:00N 22°58' E 113°32'44157997.7
2017-Nov-12 06:00N 22°15' E 113°21'2442778.4
2017-Nov-12 06:00N 22°24' E 113°45'1933485.9
2017-Nov-12 06:00N 22°06' E 113°41'294211688.6
2017-Nov-12 06:00N 24°32' E 118°19'275494188.2
2017-Nov-12 06:00N 22°20' E 113°56'679122197.1
2017-Nov-12 06:00N 31°27' E 121°28'3691328625.4
2017-Nov-12 06:00N 37°36' E 121°25'36448511.3
2017-Nov-12 05:59N 31°32' E 121°20'65922589.3
2017-Nov-12 05:58N 22°59' E 113°34'511435.4
2017-Nov-12 05:56N 22°19' E 114°07'674142671.3
2017-Nov-12 05:55N 31°12' E 121°48'6769284.6
2017-Nov-12 05:51N 22°32' E 113°44'9872906.5
2017-Nov-12 05:31N 37°36' E 121°25'971699134.0
2017-Nov-12 05:30N 22°54' E 113°34'41147311.8
2017-Nov-12 05:30N 22°15' E 113°21'33120359.8
2017-Nov-12 05:30N 22°20' E 113°56'1347332.5
2017-Nov-12 05:30N 22°17' E 114°10'2545335.9
2017-Nov-12 05:30N 22°27' E 113°45'281168451.2
2017-Nov-12 05:30N 24°32' E 118°19'2961066522.3
2017-Nov-12 05:30N 22°02' E 113°40'70268270.1
2017-Nov-12 05:30N 31°12' E 121°48'319277.6
2017-Nov-12 05:29N 31°32' E 121°20'67478323.8
2017-Nov-12 05:29N 22°32' E 113°46'30173.6
2017-Nov-12 05:19N 22°59' E 113°34'22800.2
2017-Nov-12 05:17N 22°41' E 113°21'2951066.0
2017-Nov-12 05:00N 24°32' E 118°19'3061101707.7
2017-Nov-12 05:00N 22°15' E 113°21'335233.0
2017-Nov-12 05:00N 22°20' E 113°56'2512788.1
2017-Nov-12 05:00N 22°01' E 113°40'1018916614.8
2017-Nov-12 05:00N 37°36' E 121°25'987142132.2
2017-Nov-12 04:59N 22°31' E 113°48'311058.3
2017-Nov-12 04:58N 22°59' E 113°34'50287.6
2017-Nov-12 04:47N 22°33' E 114°20'5628720.0
2017-Nov-12 04:47N 22°41' E 113°21'29105.7
2017-Nov-12 04:30N 22°31' E 113°50'9873552846.3
2017-Nov-12 04:30N 37°36' E 121°25'10123642631.1
2017-Nov-12 04:30N 22°15' E 113°21'5650825.5
2017-Nov-12 04:30N 22°33' E 114°18'4124738.4
2017-Nov-12 04:30N 22°48' E 113°37'33120556.1
2017-Nov-12 04:30N 22°20' E 113°56'2522383.4
2017-Nov-12 04:30N 22°01' E 113°40'70570525.0
2017-Nov-12 04:30N 30°57' E 122°11'68677145.2
2017-Nov-12 04:29N 22°41' E 113°21'22966.1
2017-Nov-12 04:28N 22°59' E 113°34'65932052.4
2017-Nov-12 04:26N 31°32' E 121°20'7041623.6
2017-Nov-12 04:00N 22°01' E 113°40'47168369.4
2017-Nov-12 04:00N 22°34' E 114°15'54193683.3
2017-Nov-12 04:00N 22°15' E 113°21'10121214210.4
2017-Nov-12 04:00N 37°36' E 121°25'799479644.5
2017-Nov-12 04:00N 24°32' E 118°19'278250113.2
2017-Nov-12 04:00N 22°46' E 113°39'3015631.7
2017-Nov-12 04:00N 22°20' E 113°56'67964298.8
2017-Nov-12 03:59N 31°32' E 121°20'65922589.3
2017-Nov-12 03:58N 22°59' E 113°34'22825.2
2017-Nov-12 03:56N 22°41' E 113°21'6737648.5
2017-Nov-12 03:51N 31°59' E 120°26'66849069.4
2017-Nov-12 03:50N 22°30' E 113°52'3299.5
2017-Nov-12 03:30N 22°15' E 113°21'54193683.3
2017-Nov-12 03:30N 22°34' E 114°15'33119535.9
2017-Nov-12 03:30N 22°43' E 113°41'662595542.4
2017-Nov-12 03:30N 31°59' E 120°26'699503313.7
2017-Nov-12 03:30N 22°01' E 113°40'1018152770.8
2017-Nov-12 03:30N 37°36' E 121°25'995596748.8
2017-Nov-12 03:30N 22°20' E 113°56'275123547.1
2017-Nov-12 03:30N 24°32' E 118°19'449179577.4
2017-Nov-12 03:29N 31°32' E 121°20'67389720.7
2017-Nov-12 03:29N 22°30' E 113°52'331564.6
2017-Nov-12 03:28N 22°59' E 113°34'661475647.4
2017-Nov-12 03:28N 31°12' E 121°48'6571454.9
2017-Nov-12 03:01N 22°34' E 114°15'657591408.1
2017-Nov-12 03:00N 31°12' E 121°48'441793360.0
2017-Nov-12 03:00N 24°32' E 118°19'799205561.9
2017-Nov-12 03:00N 37°36' E 121°25'10161219598.5
2017-Nov-12 03:00N 22°03' E 113°40'69771688.4
2017-Nov-12 03:00N 31°59' E 120°26'5327307.0
2017-Nov-12 02:59N 31°32' E 121°20'7022526907.7
2017-Nov-12 02:59N 22°15' E 113°21'3461131.0
2017-Nov-12 02:59N 22°43' E 113°41'278996.1
2017-Nov-12 02:59N 22°20' E 113°56'113004.1
2017-Nov-12 02:59N 22°30' E 113°52'331605.8
2017-Nov-12 02:58N 22°59' E 113°34'22171.5
2017-Nov-12 02:50N 22°41' E 113°21'52813.6
2017-Nov-12 02:46N 22°18' E 114°11'30113.4
2017-Nov-12 02:31N 22°06' E 113°41'698838018.7
2017-Nov-12 02:30N 31°12' E 121°48'4411586758.9
2017-Nov-12 02:30N 24°32' E 118°19'306550853.8
2017-Nov-12 02:30N 22°15' E 113°21'5496841.6
2017-Nov-12 02:30N 22°34' E 114°15'975319200.1
2017-Nov-12 02:30N 37°36' E 121°25'995397837.0
2017-Nov-12 02:30N 22°20' E 113°56'1139072.9
2017-Nov-12 02:30N 22°30' E 113°52'67371251.1
2017-Nov-12 02:29N 31°32' E 121°20'66827961.0
2017-Nov-12 02:28N 22°43' E 113°41'17306.6
2017-Nov-12 02:25N 22°59' E 113°34'6723423.2
2017-Nov-12 02:13N 31°02' E 122°20'29141.6
2017-Nov-12 02:00N 31°12' E 121°48'4411586797.8
2017-Nov-12 02:00N 24°32' E 118°19'306550853.8
2017-Nov-12 02:00N 22°15' E 113°21'54193683.3
2017-Nov-12 02:00N 22°34' E 114°15'3946498.5
2017-Nov-12 02:00N 22°10' E 113°42'1009259453.8
2017-Nov-12 02:00N 37°36' E 121°25'99548385.6
2017-Nov-12 01:59N 22°20' E 113°56'11835.2
2017-Nov-12 01:58N 22°30' E 113°51'334804.6
2017-Nov-12 01:58N 22°59' E 113°34'171271.7
2017-Nov-12 01:57N 22°43' E 113°41'679814595.4
2017-Nov-12 01:57N 31°02' E 122°17'579385.1
2017-Nov-12 01:56N 31°32' E 121°20'6813285.7
2017-Nov-12 01:44N 22°41' E 113°21'6738028.1
2017-Nov-12 01:39N 31°59' E 120°26'107757.2
2017-Nov-12 01:31N 31°03' E 122°13'6642388859.9
2017-Nov-12 01:31N 22°34' E 114°15'6571182798.7
2017-Nov-12 01:30N 31°12' E 121°48'703843464.9
2017-Nov-12 01:30N 22°15' E 113°21'306137713.5
2017-Nov-12 01:30N 24°32' E 118°19'275329465.9
2017-Nov-12 01:30N 22°20' E 113°56'995298377.7
2017-Nov-12 01:30N 37°36' E 121°25'36439689.1
2017-Nov-12 01:29N 31°32' E 121°20'691207282.8
2017-Nov-12 01:29N 22°13' E 113°45'3112416.3
2017-Nov-12 01:29N 22°43' E 113°41'1911243.0
2017-Nov-12 01:29N 22°41' E 113°21'301817.8
2017-Nov-12 01:28N 22°30' E 113°51'336332.0
2017-Nov-12 01:28N 22°59' E 113°34'6516837.2
2017-Nov-12 01:22N 31°59' E 120°26'6722091.5
2017-Nov-12 01:03N 22°21' E 114°00'14367.7
2017-Nov-12 01:01N 22°15' E 113°47'688825236.7
2017-Nov-12 01:00N 31°12' E 121°48'1923164.3
2017-Nov-12 01:00N 31°03' E 122°08'6792446138.0
2017-Nov-12 01:00N 22°21' E 114°00'1933975.7
2017-Nov-12 01:00N 22°34' E 114°15'229989.2
2017-Nov-12 01:00N 22°20' E 113°56'995210619.6
2017-Nov-12 01:00N 37°36' E 121°25'7992877867.2
2017-Nov-12 01:00N 24°32' E 118°19'44959865.8
2017-Nov-12 00:59N 31°32' E 121°20'6682404659.6
2017-Nov-12 00:59N 22°43' E 113°41'17700.0
2017-Nov-12 00:58N 22°30' E 113°51'30924.5
2017-Nov-12 00:56N 22°41' E 113°21'221004.3
2017-Nov-12 00:55N 22°59' E 113°34'65132571.9
2017-Nov-12 00:54N 31°59' E 120°26'6541699.4
2017-Nov-12 00:30N 22°34' E 114°15'5496841.6
2017-Nov-12 00:30N 22°15' E 113°21'2710782.5
2017-Nov-12 00:30N 22°18' E 113°50'2811011458.5
2017-Nov-12 00:30N 24°32' E 118°19'275329465.9
2017-Nov-12 00:30N 22°20' E 113°56'679407175.3
2017-Nov-12 00:30N 31°12' E 121°48'38492089.0
2017-Nov-12 00:30N 37°36' E 121°25'36450368.8
2017-Nov-12 00:29N 31°32' E 121°20'4632924.3
2017-Nov-12 00:29N 31°04' E 122°03'685164509.0
2017-Nov-12 00:29N 22°41' E 113°21'673202048.7
2017-Nov-12 00:29N 31°59' E 120°26'66910604.3
2017-Nov-12 00:25N 22°30' E 113°51'335227.6
2017-Nov-12 00:25N 22°59' E 113°34'17316.5
2017-Nov-12 00:22N 22°44' E 113°41'23162.4
2017-Nov-12 00:13N 23°06' E 113°39'47222.7
2017-Nov-12 00:01N 22°21' E 113°52'2921028.7
2017-Nov-12 00:00N 22°15' E 113°21'54193683.3
2017-Nov-12 00:00N 22°34' E 114°15'2279927.2
2017-Nov-12 00:00N 22°20' E 113°56'679488620.4
2017-Nov-12 00:00N 31°12' E 121°48'384197327.5
2017-Nov-12 00:00N 37°36' E 121°25'799575573.4
2017-Nov-12 00:00N 24°32' E 118°19'439197539.0
2017-Nov-12 00:00N 31°06' E 121°58'670344822.4
2017-Nov-12 00:00N 22°43' E 113°41'66889072.1
2017-Nov-11 23:59N 31°32' E 121°20'681222849.8
2017-Nov-11 23:59N 22°41' E 113°21'301652.9
2017-Nov-11 23:58N 22°30' E 113°51'334629.4
2017-Nov-11 23:58N 22°59' E 113°34'48366.8
2017-Nov-11 23:50N 22°12' E 113°32'69319345.7
2017-Nov-11 23:48N 31°59' E 120°26'6435487.5
2017-Nov-11 23:41N 23°06' E 113°39'64311567.5
2017-Nov-11 23:37N 32°00' E 120°22'6715881.6
2017-Nov-11 23:31N 22°25' E 113°53'3218937.0
2017-Nov-11 23:30N 22°15' E 113°21'703506343.1
2017-Nov-11 23:30N 31°08' E 121°55'827217.3
2017-Nov-11 23:30N 31°12' E 121°48'6572365680.6
2017-Nov-11 23:30N 22°34' E 114°15'46165006.8
2017-Nov-11 23:30N 22°12' E 113°32'29997693.8
2017-Nov-11 23:30N 24°32' E 118°19'27519380.3
2017-Nov-11 23:29N 22°20' E 113°56'995275425.6
2017-Nov-11 23:29N 37°36' E 121°25'98860258.5
2017-Nov-11 23:28N 22°30' E 113°51'335727.3
2017-Nov-11 23:28N 22°59' E 113°34'65931625.2
2017-Nov-11 23:26N 31°32' E 121°20'681102138.3
2017-Nov-11 23:26N 22°41' E 113°21'30600.8
2017-Nov-11 23:23N 23°06' E 113°39'23377.8
2017-Nov-11 23:19N 22°44' E 113°41'66239702.0
2017-Nov-11 23:18N 31°59' E 120°26'337.7
2017-Nov-11 23:14N 32°01' E 120°24'6973160.4
2017-Nov-11 23:00N 22°15' E 113°21'306550853.8
2017-Nov-11 23:00N 24°32' E 118°19'298535799.8
2017-Nov-11 23:00N 22°11' E 113°33'6991257575.9
2017-Nov-11 23:00N 31°32' E 121°21'675347342.4
2017-Nov-11 23:00N 22°26' E 113°54'675405214.8
2017-Nov-11 23:00N 31°12' E 121°48'67974034.4
2017-Nov-11 23:00N 22°20' E 113°56'6791221458.6
2017-Nov-11 23:00N 31°10' E 121°51'68387784.0
2017-Nov-11 22:59N 22°41' E 113°21'67690103.3
2017-Nov-11 22:59N 32°02' E 120°26'67177926.7
2017-Nov-11 22:58N 22°30' E 113°51'1715173.8
2017-Nov-11 22:58N 22°44' E 113°41'173025.9
2017-Nov-11 22:58N 22°59' E 113°34'50109.6
2017-Nov-11 22:30N 22°10' E 113°37'6982513002.9
2017-Nov-11 22:30N 31°12' E 121°49'7032531125.7
2017-Nov-11 22:30N 22°15' E 113°21'5448420.8
2017-Nov-11 22:30N 22°34' E 114°15'9753511201.4
2017-Nov-11 22:30N 37°36' E 121°25'3661317131.2
2017-Nov-11 22:30N 31°30' E 121°24'448403411.3
2017-Nov-11 22:30N 24°32' E 118°19'274123187.5
2017-Nov-11 22:30N 22°26' E 113°54'341874.0
2017-Nov-11 22:29N 22°41' E 113°21'301818.1
2017-Nov-11 22:28N 22°30' E 113°51'336012.7
2017-Nov-11 22:28N 22°59' E 113°34'175501.7
2017-Nov-11 22:28N 22°44' E 113°41'2147.6
2017-Nov-11 22:00N 22°26' E 113°54'274492750.0
2017-Nov-11 22:00N 24°32' E 118°19'253909580.7
2017-Nov-11 22:00N 22°34' E 114°15'658473863.9
2017-Nov-11 22:00N 31°28' E 121°27'7001260264.6
2017-Nov-11 22:00N 22°06' E 113°39'10141824594.3
2017-Nov-11 22:00N 37°36' E 121°25'38476734.9
2017-Nov-11 22:00N 31°12' E 121°48'6792443116.9
2017-Nov-11 22:00N 22°20' E 113°56'392618.3
2017-Nov-11 21:59N 22°41' E 113°21'301848.9
2017-Nov-11 21:58N 22°30' E 113°51'335466.1
2017-Nov-11 21:58N 22°59' E 113°34'175501.7
2017-Nov-11 21:58N 22°44' E 113°41'6691482.3
2017-Nov-11 21:30N 31°12' E 121°48'441793417.3
2017-Nov-11 21:30N 24°32' E 118°19'253909580.7
2017-Nov-11 21:30N 22°34' E 114°15'6591185463.1
2017-Nov-11 21:30N 31°17' E 121°44'1451504.3
2017-Nov-11 21:30N 31°25' E 121°31'703421769.6
2017-Nov-11 21:30N 22°15' E 113°21'10121214210.4
2017-Nov-11 21:30N 37°36' E 121°25'10173662145.0
2017-Nov-11 21:30N 22°01' E 113°41'2428254.2
2017-Nov-11 21:30N 22°20' E 113°56'61628.8
2017-Nov-11 21:30N 22°26' E 113°54'211608.0
2017-Nov-11 21:29N 22°44' E 113°41'1916724.2
2017-Nov-11 21:29N 22°41' E 113°21'301880.6
2017-Nov-11 21:28N 22°30' E 113°51'335725.5
2017-Nov-11 21:28N 22°59' E 113°34'6621458.1
2017-Nov-11 21:00N 31°19' E 121°41'704633915.2
2017-Nov-11 21:00N 22°15' E 113°21'5496841.6
2017-Nov-11 21:00N 22°34' E 114°15'6591185645.6
2017-Nov-11 21:00N 31°24' E 121°35'680612060.6
2017-Nov-11 21:00N 22°20' E 113°56'995716106.6
2017-Nov-11 21:00N 37°36' E 121°25'384345306.9
2017-Nov-11 21:00N 31°12' E 121°48'703361388.6
2017-Nov-11 21:00N 22°01' E 113°41'28100663.9
2017-Nov-11 21:00N 22°26' E 113°54'5147.8
2017-Nov-11 20:58N 22°30' E 113°51'334452.4
2017-Nov-11 20:58N 22°59' E 113°34'65113101.3
2017-Nov-11 20:55N 31°59' E 120°26'6738690.2
2017-Nov-11 20:50N 22°41' E 113°21'19160.0
2017-Nov-11 20:43N 22°44' E 113°41'2095.3
2017-Nov-11 20:31N 22°29' E 113°55'673484439.7
2017-Nov-11 20:30N 31°12' E 121°48'7031265229.4
2017-Nov-11 20:30N 22°15' E 113°21'705634099.2
2017-Nov-11 20:30N 31°22' E 121°39'681612616.8
2017-Nov-11 20:30N 22°20' E 113°56'275988376.4
2017-Nov-11 20:30N 24°32' E 118°19'799319763.0
2017-Nov-11 20:30N 37°36' E 121°25'340111423.5
2017-Nov-11 20:30N 31°59' E 120°26'698628455.3
2017-Nov-11 20:30N 22°01' E 113°41'70437835.5
2017-Nov-11 20:29N 31°21' E 121°38'670241224.6
2017-Nov-11 20:29N 22°44' E 113°41'172017.0
2017-Nov-11 20:28N 22°30' E 113°51'335719.2
2017-Nov-11 20:28N 22°59' E 113°34'22793.4
2017-Nov-11 20:26N 22°41' E 113°21'6841606.6
2017-Nov-11 20:01N 31°19' E 121°42'814541.5
2017-Nov-11 20:00N 31°12' E 121°48'7032529538.5
2017-Nov-11 20:00N 22°01' E 113°41'4641235.8
2017-Nov-11 20:00N 22°34' E 114°15'6582369250.4
2017-Nov-11 20:00N 31°23' E 121°34'6742424842.7
2017-Nov-11 20:00N 22°29' E 113°55'96278.8
2017-Nov-11 20:00N 22°20' E 113°56'33120359.9
2017-Nov-11 20:00N 22°15' E 113°21'696250441.6
2017-Nov-11 20:00N 31°59' E 120°26'340306414.6
2017-Nov-11 20:00N 37°36' E 121°25'98830386.7
2017-Nov-11 19:58N 22°30' E 113°51'335004.3
2017-Nov-11 19:58N 22°59' E 113°34'22817.9
2017-Nov-11 19:56N 22°41' E 113°21'1945.3
2017-Nov-11 19:31N 22°44' E 113°41'66941525.8
2017-Nov-11 19:30N 31°12' E 121°48'4411586581.4
2017-Nov-11 19:30N 24°32' E 118°19'3061101707.7
2017-Nov-11 19:30N 22°15' E 113°21'2428296.0
2017-Nov-11 19:30N 22°01' E 113°41'46164943.3
2017-Nov-11 19:30N 22°34' E 114°15'6542353633.5
2017-Nov-11 19:30N 31°59' E 120°26'80289458.3
2017-Nov-11 19:30N 31°16' E 121°46'674404539.6
2017-Nov-11 19:30N 22°29' E 113°55'987209072.0
2017-Nov-11 19:30N 37°36' E 121°25'370444323.0
2017-Nov-11 19:30N 31°25' E 121°30'68246300.3
2017-Nov-11 19:29N 22°41' E 113°21'3947128.8
2017-Nov-11 19:29N 22°20' E 113°56'11739.2
2017-Nov-11 19:28N 22°30' E 113°51'335718.3
2017-Nov-11 19:28N 22°59' E 113°34'171026.1
2017-Nov-11 19:27N 22°44' E 113°41'277631.7
2017-Nov-11 19:00N 24°32' E 118°19'3061101707.7
2017-Nov-11 19:00N 22°15' E 113°21'704844409.2
2017-Nov-11 19:00N 31°13' E 121°49'11154.8
2017-Nov-11 19:00N 31°12' E 121°48'6792442884.7
2017-Nov-11 19:00N 22°20' E 113°56'995137711.3
2017-Nov-11 19:00N 37°36' E 121°25'1018305353.1
2017-Nov-11 19:00N 22°01' E 113°41'3121970.6
2017-Nov-11 19:00N 22°29' E 113°55'674485100.1
2017-Nov-11 19:00N 31°29' E 121°26'599280.2
2017-Nov-11 18:59N 31°59' E 120°26'673606141.7
2017-Nov-11 18:59N 22°41' E 113°21'191423.2
2017-Nov-11 18:58N 22°44' E 113°41'175496.1
2017-Nov-11 18:58N 22°30' E 113°51'335457.5
2017-Nov-11 18:58N 22°59' E 113°34'45100.2
2017-Nov-11 18:31N 22°34' E 114°15'5432189.2
2017-Nov-11 18:30N 22°15' E 113°21'7032530284.5
2017-Nov-11 18:30N 31°32' E 121°22'449179734.6
2017-Nov-11 18:30N 24°32' E 118°19'799959289.1
2017-Nov-11 18:30N 37°36' E 121°25'1018523468.1
2017-Nov-11 18:30N 22°01' E 113°41'703506277.3
2017-Nov-11 18:30N 31°10' E 121°52'679814922.9
2017-Nov-11 18:30N 22°20' E 113°56'674242784.5
2017-Nov-11 18:30N 31°59' E 120°26'668200361.0
2017-Nov-11 18:30N 22°29' E 113°55'343683.6
2017-Nov-11 18:29N 22°41' E 113°21'683819080.3
2017-Nov-11 18:29N 31°12' E 121°48'67444937.7
2017-Nov-11 18:28N 22°30' E 113°51'335002.7
2017-Nov-11 18:28N 22°59' E 113°34'1737.6
2017-Nov-11 18:01N 22°44' E 113°41'457720.5
2017-Nov-11 18:00N 21°59' E 113°39'7062539973.4
2017-Nov-11 18:00N 31°12' E 121°48'4411586622.6
2017-Nov-11 18:00N 24°32' E 118°19'253910169.5
2017-Nov-11 18:00N 22°34' E 114°15'2017694.6
2017-Nov-11 18:00N 22°29' E 113°55'3417543.8
2017-Nov-11 18:00N 22°15' E 113°21'3317194.3
2017-Nov-11 18:00N 22°20' E 113°56'2812436.7
2017-Nov-11 18:00N 22°44' E 113°41'978270922.2
2017-Nov-11 18:00N 37°36' E 121°25'98886725.9
2017-Nov-11 17:59N 22°41' E 113°21'68454722.3
2017-Nov-11 17:58N 31°08' E 121°56'675162041.6
2017-Nov-11 17:58N 22°30' E 113°51'334802.6
2017-Nov-11 17:58N 22°59' E 113°34'65143428.8
2017-Nov-11 17:57N 31°59' E 120°26'84191.1
2017-Nov-11 17:30N 31°12' E 121°48'7031265171.2
2017-Nov-11 17:30N 22°15' E 113°21'5464378.5
2017-Nov-11 17:30N 22°34' E 114°15'253151694.9
2017-Nov-11 17:30N 24°32' E 118°19'30383933.4
2017-Nov-11 17:30N 21°56' E 113°36'705181279.5
2017-Nov-11 17:30N 31°59' E 120°26'340175094.0
2017-Nov-11 17:30N 37°36' E 121°25'995238699.5
2017-Nov-11 17:29N 22°20' E 113°56'681817176.0
2017-Nov-11 17:29N 31°39' E 121°14'670482321.5
2017-Nov-11 17:29N 22°44' E 113°41'193946.7
2017-Nov-11 17:29N 22°41' E 113°21'68557323.7
2017-Nov-11 17:28N 31°06' E 121°59'676187119.1
2017-Nov-11 17:28N 22°30' E 113°51'335001.9
2017-Nov-11 17:28N 22°59' E 113°34'4497.3
2017-Nov-11 17:00N 22°20' E 113°56'3360178.2
2017-Nov-11 17:00N 22°15' E 113°21'34122245.2
2017-Nov-11 17:00N 22°44' E 113°41'33119587.2
2017-Nov-11 17:00N 22°34' E 114°15'9763511809.1
2017-Nov-11 17:00N 37°36' E 121°25'3921410705.5
2017-Nov-11 17:00N 31°05' E 122°02'1416712.5
2017-Nov-11 17:00N 31°12' E 121°48'441528867.7
2017-Nov-11 17:00N 24°32' E 118°19'306100139.8
2017-Nov-11 17:00N 21°52' E 113°35'4011189.6
2017-Nov-11 17:00N 22°28' E 113°55'66854652.5
2017-Nov-11 16:59N 31°59' E 120°26'66939461.5
2017-Nov-11 16:58N 22°30' E 113°51'334801.1
2017-Nov-11 16:58N 22°59' E 113°34'22801.4
2017-Nov-11 16:56N 22°41' E 113°21'6871615.0
2017-Nov-11 16:31N 31°04' E 122°05'1719958.2
2017-Nov-11 16:30N 31°12' E 121°48'6792442955.5
2017-Nov-11 16:30N 22°20' E 113°56'815011.4
2017-Nov-11 16:30N 22°28' E 113°55'1934978.2
2017-Nov-11 16:30N 22°34' E 114°15'5942217.4
2017-Nov-11 16:30N 21°50' E 113°33'10313711018.9
2017-Nov-11 16:30N 37°36' E 121°25'7992877867.2
2017-Nov-11 16:30N 24°32' E 118°19'460331335.8
2017-Nov-11 16:30N 31°59' E 120°26'662396996.6
2017-Nov-11 16:30N 22°44' E 113°41'17202.5
2017-Nov-11 16:25N 22°30' E 113°51'676105837.0
2017-Nov-11 16:25N 31°45' E 121°04'6602377748.6
2017-Nov-11 16:25N 22°59' E 113°34'22785.5
2017-Nov-11 16:23N 22°41' E 113°21'51135.3
2017-Nov-11 16:01N 22°34' E 114°15'2226426.1
2017-Nov-11 16:00N 22°20' E 113°56'33120353.2
2017-Nov-11 16:00N 22°15' E 113°21'3035859.4
2017-Nov-11 16:00N 21°47' E 113°32'719646923.5
2017-Nov-11 16:00N 31°12' E 121°48'384197373.7
2017-Nov-11 16:00N 37°36' E 121°25'340175091.0
2017-Nov-11 16:00N 31°59' E 120°26'46092038.9
2017-Nov-11 16:00N 24°32' E 118°19'29523593.8
2017-Nov-11 15:59N 22°41' E 113°21'199583.8
2017-Nov-11 15:59N 22°44' E 113°41'67569388.8
2017-Nov-11 15:58N 31°03' E 122°09'679188081.7
2017-Nov-11 15:58N 22°30' E 113°51'335218.6
2017-Nov-11 15:58N 22°59' E 113°34'45100.1
2017-Nov-11 15:31N 22°34' E 114°15'657788678.7
2017-Nov-11 15:30N 31°12' E 121°48'7032530169.0
2017-Nov-11 15:30N 22°15' E 113°21'1012260186.5
2017-Nov-11 15:30N 37°36' E 121°25'987710822.0
2017-Nov-11 15:30N 22°29' E 113°55'5017892.5
2017-Nov-11 15:30N 21°44' E 113°30'31435317.9
2017-Nov-11 15:29N 24°32' E 118°19'27536606.5
2017-Nov-11 15:29N 22°20' E 113°56'674173416.2
2017-Nov-11 15:29N 31°59' E 120°26'106127238.0
2017-Nov-11 15:29N 31°01' E 122°10'67974041.3
2017-Nov-11 15:28N 22°30' E 113°51'334802.6
2017-Nov-11 15:28N 22°59' E 113°34'22282.3
2017-Nov-11 15:23N 22°41' E 113°21'19104.0
2017-Nov-11 15:12N 22°44' E 113°41'33169.4
2017-Nov-11 15:00N 22°34' E 114°15'2239068.6
2017-Nov-11 15:00N 22°27' E 113°53'3257612.6
2017-Nov-11 15:00N 22°15' E 113°21'703421694.8
2017-Nov-11 15:00N 31°12' E 121°48'441793242.0
2017-Nov-11 15:00N 24°32' E 118°19'460331335.8
2017-Nov-11 15:00N 31°59' E 120°26'340245131.6
2017-Nov-11 15:00N 37°36' E 121°25'1040623864.4
2017-Nov-11 15:00N 21°42' E 113°29'4641503.6
2017-Nov-11 15:00N 22°20' E 113°56'2849650.3
2017-Nov-11 15:00N 22°44' E 113°41'67337872.5
2017-Nov-11 14:59N 30°59' E 122°12'67858097.4
2017-Nov-11 14:58N 22°30' E 113°51'334618.7
2017-Nov-11 14:58N 22°59' E 113°34'6522474.4
2017-Nov-11 14:42N 31°58' E 120°27'33322.4
2017-Nov-11 14:36N 31°46' E 121°03'68370246.0
2017-Nov-11 14:35N 22°41' E 113°21'6838838.8
2017-Nov-11 14:30N 31°12' E 121°48'703843436.5
2017-Nov-11 14:30N 22°15' E 113°21'306122410.9
2017-Nov-11 14:30N 24°32' E 118°19'460276113.2
2017-Nov-11 14:30N 31°59' E 120°26'340153207.3
2017-Nov-11 14:30N 37°36' E 121°25'978586979.3
2017-Nov-11 14:30N 22°44' E 113°41'67269154.1
2017-Nov-11 14:29N 30°57' E 122°13'67848811.1
2017-Nov-11 14:29N 22°27' E 113°52'255088.1
2017-Nov-11 14:28N 22°33' E 114°19'2623291.1
2017-Nov-11 14:28N 22°30' E 113°51'334286.7
2017-Nov-11 14:28N 22°59' E 113°34'441919.0
2017-Nov-11 14:26N 22°20' E 113°56'399426.5
2017-Nov-11 14:26N 22°41' E 113°21'6836831.4
2017-Nov-11 14:20N 31°45' E 121°05'35378.0
2017-Nov-11 14:15N 31°58' E 120°27'725113491.0
2017-Nov-11 14:14N 21°38' E 113°26'55241.5
2017-Nov-11 14:00N 22°27' E 113°52'3137563.2
2017-Nov-11 14:00N 22°15' E 113°21'3313372.2
2017-Nov-11 14:00N 22°20' E 113°56'27598839.8
2017-Nov-11 14:00N 24°32' E 118°19'799287786.7
2017-Nov-11 14:00N 37°36' E 121°25'40463160.6
2017-Nov-11 14:00N 30°54' E 122°14'671268416.4
2017-Nov-11 13:59N 22°43' E 113°41'193048.4
2017-Nov-11 13:59N 22°41' E 113°21'302015.9
2017-Nov-11 13:58N 22°30' E 113°51'334617.9
2017-Nov-11 13:58N 22°59' E 113°34'6519610.6
2017-Nov-11 13:54N 31°59' E 120°26'39415.2
2017-Nov-11 13:48N 31°43' E 121°08'40135.2
2017-Nov-11 13:30N 31°18' E 121°43'444799065.6
2017-Nov-11 13:30N 24°32' E 118°19'27570649.7
2017-Nov-11 13:30N 22°27' E 113°52'989169593.2
2017-Nov-11 13:30N 37°36' E 121°25'102941852981.7
2017-Nov-11 13:30N 26°06' W 080°07'105926355175.1
2017-Nov-11 13:29N 22°15' E 113°21'696119248.7
2017-Nov-11 13:29N 31°59' E 120°26'66942982.8
2017-Nov-11 13:28N 22°30' E 113°51'676101416.9
2017-Nov-11 13:28N 31°42' E 121°09'6612378218.7
2017-Nov-11 13:28N 22°59' E 113°34'174666.2
2017-Nov-11 13:28N 22°44' E 113°41'19246.8
2017-Nov-11 13:23N 22°41' E 113°21'1057328194.8
2017-Nov-11 13:01N 26°06' W 080°07'1062112745088.1
2017-Nov-11 13:00N 31°21' E 121°39'680272128.3
2017-Nov-11 13:00N 22°20' E 113°56'995596748.8
2017-Nov-11 13:00N 37°36' E 121°25'1012607101.9
2017-Nov-11 13:00N 22°15' E 113°21'7042535167.1
2017-Nov-11 13:00N 31°40' E 121°12'678243929.9
2017-Nov-11 13:00N 22°27' E 113°52'191636.5
2017-Nov-11 12:59N 22°44' E 113°41'195160.3
2017-Nov-11 12:59N 22°41' E 113°21'302137.6
2017-Nov-11 12:58N 22°30' E 113°51'67220670.4
2017-Nov-11 12:56N 30°49' E 122°14'6608765.8
2017-Nov-11 12:52N 22°59' E 113°34'46130.1
2017-Nov-11 12:30N 22°15' E 113°21'3137621.3
2017-Nov-11 12:30N 22°27' E 113°52'676486886.9
2017-Nov-11 12:30N 31°23' E 121°35'446133722.4
2017-Nov-11 12:30N 24°32' E 118°19'453543768.0
2017-Nov-11 12:30N 31°38' E 121°15'35875784.3
2017-Nov-11 12:30N 37°36' E 121°25'995188447.0
2017-Nov-11 12:29N 22°20' E 113°56'11495.7
2017-Nov-11 12:28N 22°30' E 113°51'172235.9
2017-Nov-11 12:28N 22°44' E 113°41'66621595.3
2017-Nov-11 12:26N 30°46' E 122°15'118835.7
2017-Nov-11 12:17N 31°59' E 120°26'673115447.1
2017-Nov-11 12:17N 22°41' E 113°21'6822472.4
2017-Nov-11 12:00N 31°25' E 121°31'3711335461.9
2017-Nov-11 12:00N 37°36' E 121°25'360324355.6
2017-Nov-11 12:00N 31°35' E 121°18'452232235.5
2017-Nov-11 12:00N 24°32' E 118°19'275329754.1
2017-Nov-11 12:00N 22°27' E 113°52'91921.4
2017-Nov-11 12:00N 22°20' E 113°56'6741213827.1
2017-Nov-11 12:00N 31°59' E 120°26'696278246.9
2017-Nov-11 12:00N 22°15' E 113°21'321172.5
2017-Nov-11 11:58N 22°30' E 113°51'334613.4
2017-Nov-11 11:58N 22°59' E 113°34'17178.3
2017-Nov-11 11:52N 22°44' E 113°41'19101.5
2017-Nov-11 11:41N 22°41' E 113°21'6823865.6
2017-Nov-11 11:30N 31°27' E 121°28'810178.9
2017-Nov-11 11:30N 31°33' E 121°21'363653388.2
2017-Nov-11 11:30N 37°36' E 121°25'799719466.8
2017-Nov-11 11:30N 24°32' E 118°19'274164589.9
2017-Nov-11 11:30N 22°30' E 113°51'1110009.6
2017-Nov-11 11:30N 22°20' E 113°56'92797.5
2017-Nov-11 11:30N 22°28' E 113°52'322090.1
2017-Nov-11 11:29N 22°41' E 113°21'266292.9
2017-Nov-11 11:29N 22°15' E 113°21'462589.6
2017-Nov-11 11:28N 22°59' E 113°34'17289.5
2017-Nov-11 11:24N 22°44' E 113°40'66211290.6
2017-Nov-11 11:21N 31°59' E 120°26'58173.0
2017-Nov-11 11:00N 31°29' E 121°25'6761217010.5
2017-Nov-11 11:00N 22°28' E 113°52'1933406.6
2017-Nov-11 11:00N 22°43' E 113°41'978503112.8
2017-Nov-11 11:00N 37°36' E 121°25'987592393.6
2017-Nov-11 11:00N 22°31' E 113°48'6692407962.8
2017-Nov-11 11:00N 31°59' E 120°26'67475869.0
2017-Nov-11 11:00N 22°20' E 113°56'1007402758.8
2017-Nov-11 10:59N 37°52' E 121°18'1024160249.3
2017-Nov-11 10:59N 22°15' E 113°21'46627.8
2017-Nov-11 10:55N 22°59' E 113°34'22123.8
2017-Nov-11 10:44N 22°41' E 113°21'6823019.3
2017-Nov-11 10:30N 31°31' E 121°22'6802446450.8
2017-Nov-11 10:30N 22°20' E 113°56'275988365.7
2017-Nov-11 10:30N 24°32' E 118°19'4481612457.0
2017-Nov-11 10:30N 31°28' E 121°28'676270470.1
2017-Nov-11 10:30N 22°28' E 113°52'814432.8
2017-Nov-11 10:30N 22°32' E 113°44'9881778405.6
2017-Nov-11 10:30N 37°36' E 121°25'34024032.9
2017-Nov-11 10:29N 31°59' E 120°26'673127606.9
2017-Nov-11 10:29N 22°41' E 113°21'22991.7
2017-Nov-11 10:28N 22°59' E 113°34'17609.1
2017-Nov-11 10:26N 22°43' E 113°41'5209.7
2017-Nov-11 10:25N 22°39' E 113°44'2052.0
2017-Nov-11 10:01N 22°37' E 113°23'29517111.6
2017-Nov-11 10:00N 24°32' E 118°19'276992499.3
2017-Nov-11 10:00N 22°39' E 113°44'58921.9
2017-Nov-11 10:00N 22°43' E 113°41'6692407892.7
2017-Nov-11 10:00N 31°25' E 121°31'677406413.4
2017-Nov-11 10:00N 22°33' E 113°41'988711390.9
2017-Nov-11 10:00N 37°36' E 121°25'1012607098.6
2017-Nov-11 10:00N 22°15' E 113°21'318688.5
2017-Nov-11 10:00N 22°28' E 113°52'9855.3
2017-Nov-11 09:59N 22°20' E 113°56'399424.2
2017-Nov-11 09:59N 22°41' E 113°21'221017.4
2017-Nov-11 09:58N 22°59' E 113°34'6513902.0
2017-Nov-11 09:48N 31°59' E 120°26'1 9.5
2017-Nov-11 09:43N 31°58' E 120°27'1 3.4
2017-Nov-11 09:31N 31°59' E 120°26'49175074.0
2017-Nov-11 09:30N 31°36' E 121°17'671604033.3
2017-Nov-11 09:30N 22°39' E 113°44'6712416502.4
2017-Nov-11 09:30N 31°23' E 121°35'677487109.8
2017-Nov-11 09:30N 22°28' E 113°52'989273941.3
2017-Nov-11 09:30N 37°36' E 121°25'995397828.1
2017-Nov-11 09:30N 22°20' E 113°56'2797576.5
2017-Nov-11 09:30N 22°43' E 113°41'277995626.8
2017-Nov-11 09:30N 24°32' E 118°19'2954636.3
2017-Nov-11 09:26N 22°41' E 113°21'22967.7
2017-Nov-11 09:25N 22°59' E 113°34'263555.9
2017-Nov-11 09:24N 22°34' E 113°38'2270.4
2017-Nov-11 09:05N 22°22' E 113°58'6788445.2
2017-Nov-11 09:00N 31°21' E 121°40'73262753.3
2017-Nov-11 09:00N 31°59' E 120°26'671603866.3
2017-Nov-11 09:00N 22°35' E 113°36'6791222128.3
2017-Nov-11 09:00N 31°38' E 121°14'4531630948.2
2017-Nov-11 09:00N 24°32' E 118°19'276994476.9
2017-Nov-11 09:00N 22°37' E 113°45'983221100.8
2017-Nov-11 09:00N 37°36' E 121°25'9888486.2
2017-Nov-11 08:53N 22°41' E 113°21'221004.5
2017-Nov-11 08:52N 22°59' E 113°34'43192.2
2017-Nov-11 08:38N 22°22' E 113°58'42335.2
2017-Nov-11 08:31N 23°02' E 113°42'358436.1
2017-Nov-11 08:30N 22°28' E 113°52'3128191.8
2017-Nov-11 08:30N 22°15' E 113°21'7052536930.9
2017-Nov-11 08:30N 31°19' E 121°43'681408405.2
2017-Nov-11 08:30N 22°20' E 113°56'275988365.7
2017-Nov-11 08:30N 24°32' E 118°19'453181198.0
2017-Nov-11 08:30N 31°38' E 121°14'35880464.4
2017-Nov-11 08:30N 37°36' E 121°25'986131446.4
2017-Nov-11 08:29N 22°33' E 113°46'6682404374.1
2017-Nov-11 08:29N 31°59' E 120°26'65123688.1
2017-Nov-11 08:28N 22°59' E 113°34'22778.0
2017-Nov-11 08:26N 22°41' E 113°21'28258.1
2017-Nov-11 08:20N 23°01' E 113°42'183776.4
2017-Nov-11 08:19N 22°43' E 113°41'12118.6
2017-Nov-11 08:13N 22°33' E 113°35'1254.5
2017-Nov-11 08:00N 22°43' E 113°41'199521.9
2017-Nov-11 08:00N 22°28' E 113°52'3156387.9
2017-Nov-11 08:00N 22°15' E 113°21'289101.6
2017-Nov-11 08:00N 22°30' E 113°46'989197813.3
2017-Nov-11 08:00N 37°36' E 121°25'995358039.5
2017-Nov-11 08:00N 22°20' E 113°56'681245055.7
2017-Nov-11 07:59N 31°38' E 121°14'682116987.3
2017-Nov-11 07:59N 22°41' E 113°21'22979.5
2017-Nov-11 07:58N 22°59' E 113°34'666.9
2017-Nov-11 07:53N 23°00' E 113°40'271730.3
2017-Nov-11 07:30N 24°32' E 118°19'280504523.6
2017-Nov-11 07:30N 22°26' E 113°46'1812912.8
2017-Nov-11 07:30N 22°43' E 113°41'9783521730.6
2017-Nov-11 07:30N 37°36' E 121°25'964204115.0
2017-Nov-11 07:30N 22°59' E 113°40'3460834.7
2017-Nov-11 07:30N 22°28' E 113°52'910269.8
2017-Nov-11 07:30N 22°20' E 113°56'392570.4
2017-Nov-11 07:29N 22°41' E 113°21'68233653.9
2017-Nov-11 07:28N 31°38' E 121°14'6606477.6
2017-Nov-11 07:22N 22°59' E 113°34'6613909.2
2017-Nov-11 07:12N 31°10' E 121°52'43232.2
2017-Nov-11 07:00N 31°38' E 121°14'453815391.0
2017-Nov-11 07:00N 24°32' E 118°19'2821013452.4
2017-Nov-11 07:00N 22°22' E 113°47'2590036.3
2017-Nov-11 07:00N 22°15' E 113°21'7042533353.2
2017-Nov-11 07:00N 31°09' E 121°53'6581184583.3
2017-Nov-11 07:00N 22°59' E 113°40'962865733.5
2017-Nov-11 07:00N 37°34' E 121°24'988254185.3
2017-Nov-11 07:00N 22°26' E 113°52'7258.4
2017-Nov-11 06:58N 22°20' E 113°56'443462.5
2017-Nov-11 06:58N 22°59' E 113°34'651137949.4
2017-Nov-11 06:57N 31°59' E 120°26'6735473.1
2017-Nov-11 06:50N 22°41' E 113°21'35106.2
2017-Nov-11 06:31N 22°22' E 113°52'64143.4
2017-Nov-11 06:30N 22°18' E 113°48'259002.3
2017-Nov-11 06:30N 22°15' E 113°21'10091815373.4
2017-Nov-11 06:30N 37°33' E 121°23'796409472.6
2017-Nov-11 06:30N 24°32' E 118°19'440791224.2
2017-Nov-11 06:30N 31°07' E 121°57'6592371908.0
2017-Nov-11 06:30N 22°59' E 113°40'4230408.9
2017-Nov-11 06:30N 22°20' E 113°56'68181684.6
2017-Nov-11 06:29N 31°38' E 121°14'682106814.5
2017-Nov-11 06:29N 22°41' E 113°21'67312965.6
2017-Nov-11 06:26N 31°59' E 120°26'6519196.6
2017-Nov-11 06:22N 22°59' E 113°34'43338.2
2017-Nov-11 06:14N 22°22' E 113°58'36156.4
2017-Nov-11 06:00N 22°15' E 113°21'7052536229.4
2017-Nov-11 06:00N 31°05' E 122°00'6591186319.0
2017-Nov-11 06:00N 22°59' E 113°40'272162994.0
2017-Nov-11 06:00N 24°32' E 118°19'796318478.7
2017-Nov-11 06:00N 37°33' E 121°23'10001800512.0
2017-Nov-11 06:00N 22°14' E 113°47'5963.6
2017-Nov-11 06:00N 22°19' E 113°50'63237.8
2017-Nov-11 06:00N 22°20' E 113°56'68184502.0
2017-Nov-11 05:59N 31°38' E 121°14'66027325.0
2017-Nov-11 05:58N 22°59' E 113°34'2297.3
2017-Nov-11 05:44N 22°41' E 113°21'673202047.2
2017-Nov-11 05:44N 31°59' E 120°26'4602050.3
2017-Nov-11 05:30N 24°32' E 118°19'3061101697.7
2017-Nov-11 05:30N 22°15' E 113°21'2511270.7
2017-Nov-11 05:30N 22°15' E 113°48'689165444.7
2017-Nov-11 05:30N 31°03' E 122°04'391704258.8
2017-Nov-11 05:30N 37°33' E 121°23'355638331.6
2017-Nov-11 05:30N 31°38' E 121°14'681204214.6
2017-Nov-11 05:30N 22°20' E 113°56'441306.2
2017-Nov-11 05:28N 22°59' E 113°34'65126351.1
2017-Nov-11 05:26N 31°59' E 120°26'649778239.1
2017-Nov-11 05:26N 22°59' E 113°40'25165.9
2017-Nov-11 05:17N 22°41' E 113°21'37134.2
2017-Nov-11 05:00N 22°12' E 113°46'621496.1
2017-Nov-11 05:00N 22°06' E 113°47'697358446.1
2017-Nov-11 05:00N 31°38' E 121°14'7041266548.3
2017-Nov-11 05:00N 22°15' E 113°21'306550848.8
2017-Nov-11 05:00N 24°32' E 118°19'460110445.3
2017-Nov-11 05:00N 31°59' E 120°26'337242862.4
2017-Nov-11 05:00N 37°33' E 121°23'98468152.0
2017-Nov-11 04:59N 22°41' E 113°21'22990.3
2017-Nov-11 04:58N 22°59' E 113°34'5934.8
2017-Nov-11 04:57N 22°59' E 113°40'4230380.8
2017-Nov-11 04:57N 22°20' E 113°56'68155722.9
2017-Nov-11 04:57N 31°01' E 122°08'6961603.2
2017-Nov-11 04:31N 22°10' E 113°43'2119180.5
2017-Nov-11 04:30N 22°15' E 113°21'7071271874.9
2017-Nov-11 04:30N 30°59' E 122°11'107193327.1
2017-Nov-11 04:30N 31°59' E 120°26'4641101.0
2017-Nov-11 04:30N 31°38' E 121°14'453815401.2
2017-Nov-11 04:30N 24°32' E 118°19'7961433164.7
2017-Nov-11 04:30N 37°33' E 121°23'991594774.5
2017-Nov-11 04:30N 22°20' E 113°56'402034.5
2017-Nov-11 04:29N 22°41' E 113°20'221060.1
2017-Nov-11 04:28N 22°59' E 113°34'5282.4
2017-Nov-11 04:27N 22°59' E 113°39'1644.9
2017-Nov-11 04:06N 22°43' E 113°41'34392.3
2017-Nov-11 04:00N 22°15' E 113°21'2073664.0
2017-Nov-11 04:00N 22°07' E 113°41'1319.0
2017-Nov-11 04:00N 22°08' E 113°42'6991258021.4
2017-Nov-11 04:00N 31°38' E 121°14'4531630782.1
2017-Nov-11 04:00N 24°32' E 118°19'436785129.2
2017-Nov-11 04:00N 30°57' E 122°12'680144062.8
2017-Nov-11 04:00N 22°20' E 113°56'991446080.8
2017-Nov-11 04:00N 37°33' E 121°23'984114286.0
2017-Nov-11 03:59N 22°41' E 113°23'67344860.7
2017-Nov-11 03:58N 31°59' E 120°26'65154537.7
2017-Nov-11 03:58N 22°59' E 113°34'5212.0
2017-Nov-11 03:56N 22°59' E 113°39'16127.9
2017-Nov-11 03:49N 22°43' E 113°41'9753162.1
2017-Nov-11 03:30N 37°33' E 121°23'10081813899.0
2017-Nov-11 03:30N 22°09' E 113°39'6981256290.9
2017-Nov-11 03:30N 30°55' E 122°12'6647326.7
2017-Nov-11 03:30N 31°38' E 121°14'6812450557.1
2017-Nov-11 03:30N 22°20' E 113°56'3340120.0
2017-Nov-11 03:30N 22°15' E 113°21'2119283.0
2017-Nov-11 03:30N 22°04' E 113°41'5524610.9
2017-Nov-11 03:30N 22°59' E 113°39'2215882.5
2017-Nov-11 03:30N 22°42' E 113°24'20515.7
2017-Nov-11 03:28N 22°59' E 113°34'65116174.0
2017-Nov-11 03:25N 31°59' E 120°26'66285052.8
2017-Nov-11 03:25N 22°43' E 113°41'42103.0
2017-Nov-11 03:01N 22°02' E 113°40'704845285.8
2017-Nov-11 03:00N 31°38' E 121°14'699839382.5
2017-Nov-11 03:00N 22°10' E 113°36'1554444.8
2017-Nov-11 03:00N 22°15' E 113°21'10091815383.4
2017-Nov-11 03:00N 37°33' E 121°23'991594774.5
2017-Nov-11 03:00N 22°20' E 113°56'275988387.1
2017-Nov-11 03:00N 24°32' E 118°19'27755313.6
2017-Nov-11 03:00N 22°43' E 113°41'66224551.1
2017-Nov-11 02:58N 31°59' E 120°26'6497418.5
2017-Nov-11 02:53N 22°59' E 113°39'2014486.5
2017-Nov-11 02:53N 22°43' E 113°26'18884.3
2017-Nov-11 02:52N 22°59' E 113°34'43867.9
2017-Nov-11 02:49N 22°22' E 113°58'2551141.5
2017-Nov-11 02:35N 24°26' E 118°02'2583136.8
2017-Nov-11 02:30N 22°20' E 113°56'2341468.2
2017-Nov-11 02:30N 22°11' E 113°34'6971253918.8
2017-Nov-11 02:30N 30°51' E 122°12'6571182250.2
2017-Nov-11 02:30N 22°59' E 113°39'658789739.4
2017-Nov-11 02:30N 31°39' E 121°13'3541273299.1
2017-Nov-11 02:30N 37°33' E 121°23'10153655337.3
2017-Nov-11 02:30N 22°00' E 113°40'2981072701.0
2017-Nov-11 02:30N 24°32' E 118°19'27855578.0
2017-Nov-11 02:30N 22°45' E 113°39'26129383.2
2017-Nov-11 02:29N 24°26' E 118°02'2609084.0
2017-Nov-11 02:28N 22°59' E 113°34'65145983.9
2017-Nov-11 02:27N 31°59' E 120°26'6961582.0
2017-Nov-11 02:00N 22°04' E 113°41'2239179.1
2017-Nov-11 02:00N 22°15' E 113°21'1138082.8
2017-Nov-11 02:00N 22°10' E 113°31'5089786.2
2017-Nov-11 02:00N 22°59' E 113°39'107555.6
2017-Nov-11 02:00N 22°49' E 113°36'279501812.8
2017-Nov-11 02:00N 24°32' E 118°19'796179144.3
2017-Nov-11 02:00N 37°33' E 121°23'9911189555.6
2017-Nov-11 02:00N 22°20' E 113°56'397453.8
2017-Nov-11 02:00N 22°45' E 113°24'66912803.7
2017-Nov-11 01:57N 31°59' E 120°26'39938.0
2017-Nov-11 01:54N 31°42' E 121°08'66017352.4
2017-Nov-11 01:52N 22°59' E 113°34'6527151.8
2017-Nov-11 01:46N 31°58' E 120°27'115916.7
2017-Nov-11 01:39N 30°47' E 122°12'67722367.3
2017-Nov-11 01:37N 22°32' E 113°35'24243.4
2017-Nov-11 01:31N 22°22' E 113°58'415260.0
2017-Nov-11 01:31N 22°59' E 113°39'9613460189.9
2017-Nov-11 01:31N 37°33' E 121°23'348626848.8
2017-Nov-11 01:30N 31°45' E 121°05'7002519507.5
2017-Nov-11 01:30N 22°07' E 113°41'1316091.9
2017-Nov-11 01:30N 22°10' E 113°27'303121356.7
2017-Nov-11 01:30N 24°32' E 118°19'428192442.4
2017-Nov-11 01:30N 30°47' E 122°12'662476419.0
2017-Nov-11 01:30N 22°53' E 113°34'3923560.2
2017-Nov-11 01:30N 22°20' E 113°56'4317119.5
2017-Nov-11 01:30N 22°48' E 113°21'432578.8
2017-Nov-11 01:29N 22°22' E 113°58'67211251.5
2017-Nov-11 01:25N 31°59' E 120°26'65175644.6
2017-Nov-11 01:25N 22°59' E 113°34'27138.4
2017-Nov-11 01:13N 22°32' E 113°35'22107.4
2017-Nov-11 01:00N 22°12' E 113°25'4741864.0
2017-Nov-11 01:00N 22°58' E 113°32'4431752.9
2017-Nov-11 01:00N 22°20' E 113°56'3360175.0
2017-Nov-11 01:00N 22°15' E 113°21'1009403418.5
2017-Nov-11 01:00N 37°33' E 121°23'796286630.8
2017-Nov-11 01:00N 24°32' E 118°19'272244999.7
2017-Nov-11 01:00N 22°59' E 113°39'235862.3
2017-Nov-11 01:00N 22°47' E 113°18'453347.0
2017-Nov-11 00:59N 22°22' E 113°58'67858086.4
2017-Nov-11 00:58N 31°47' E 121°00'65998902.9
2017-Nov-11 00:58N 22°59' E 113°34'49653.1
2017-Nov-11 00:53N 22°11' E 113°44'23254.9
2017-Nov-11 00:48N 22°32' E 113°35'67486647.9
2017-Nov-11 00:47N 31°59' E 120°26'6758528.1
2017-Nov-11 00:43N 22°35' E 113°28'30146.4
2017-Nov-11 00:30N 22°20' E 113°56'33120353.3
2017-Nov-11 00:30N 22°15' E 113°21'3061101707.7
2017-Nov-11 00:30N 24°32' E 118°19'460276077.6
2017-Nov-11 00:30N 31°59' E 120°26'6852466568.7
2017-Nov-11 00:30N 22°13' E 113°46'4627585.7
2017-Nov-11 00:30N 22°59' E 113°40'961266123.3
2017-Nov-11 00:30N 37°33' E 121°23'96227699.1
2017-Nov-11 00:28N 23°02' E 113°31'41436.9
2017-Nov-11 00:28N 22°59' E 113°34'43888.0
2017-Nov-11 00:25N 22°22' E 113°58'351959.1
2017-Nov-11 00:24N 22°16' E 113°21'22245.6
2017-Nov-11 00:18N 22°34' E 113°34'2375.9
2017-Nov-11 00:00N 22°15' E 113°21'4885849.7
2017-Nov-11 00:00N 23°02' E 113°31'2313643.8
2017-Nov-11 00:00N 22°46' E 113°13'48172532.5
2017-Nov-11 00:00N 22°20' E 113°56'275988397.8
2017-Nov-11 00:00N 24°32' E 118°19'306100138.7
2017-Nov-11 00:00N 22°17' E 113°20'2211408.3
2017-Nov-11 00:00N 22°35' E 113°34'985591203.1
2017-Nov-11 00:00N 37°33' E 121°23'998115856.0
2017-Nov-10 23:59N 22°16' E 113°48'452372.3
2017-Nov-10 23:58N 23°01' E 113°42'7897.7
2017-Nov-10 23:58N 22°59' E 113°34'6513275.1
2017-Nov-10 23:46N 31°59' E 120°26'3371327.3
2017-Nov-10 23:31N 37°33' E 121°23'9911189562.4
2017-Nov-10 23:30N 22°20' E 113°56'275329469.5
2017-Nov-10 23:30N 24°32' E 118°19'306110170.8
2017-Nov-10 23:30N 22°15' E 113°21'48171699.3
2017-Nov-10 23:30N 23°02' E 113°31'4627573.3
2017-Nov-10 23:30N 22°20' E 113°51'211083.8
2017-Nov-10 23:29N 22°35' E 113°36'241121.9
2017-Nov-10 23:28N 22°59' E 113°34'65125489.7
2017-Nov-10 23:26N 31°59' E 120°26'694178547.7
2017-Nov-10 23:26N 22°17' E 113°20'383634.6
2017-Nov-10 23:25N 22°21' E 114°01'6721625.3
2017-Nov-10 23:01N 31°59' E 120°26'6741213932.1
2017-Nov-10 23:00N 22°20' E 113°56'33120356.7
2017-Nov-10 23:00N 22°15' E 113°21'3061101717.7
2017-Nov-10 23:00N 24°32' E 118°19'7962866308.2
2017-Nov-10 23:00N 37°33' E 121°23'9623464484.4
2017-Nov-10 23:00N 23°01' E 113°31'4317006.4
2017-Nov-10 23:00N 22°23' E 113°52'40948.1
2017-Nov-10 22:58N 22°59' E 113°34'26332.4
2017-Nov-10 22:53N 22°34' E 113°38'25592.0
2017-Nov-10 22:51N 22°44' E 113°14'3089.4
2017-Nov-10 22:30N 22°15' E 113°21'33120350.0
2017-Nov-10 22:30N 22°20' E 113°56'712720.1
2017-Nov-10 22:30N 22°27' E 113°53'3219485.8
2017-Nov-10 22:30N 22°17' E 113°20'4512509.3
2017-Nov-10 22:30N 23°01' E 113°32'6511172422.8
2017-Nov-10 22:30N 31°59' E 120°26'65116750.9
2017-Nov-10 22:28N 22°59' E 113°34'246761.8
2017-Nov-10 22:27N 22°44' E 113°14'26187.4
2017-Nov-10 22:19N 22°33' E 113°39'6623676.4
2017-Nov-10 22:08N 30°38' E 122°03'36340.2
2017-Nov-10 22:02N 31°12' E 121°49'361423.0
2017-Nov-10 22:00N 30°38' E 122°03'6872471843.7
2017-Nov-10 22:00N 22°15' E 113°21'1009605127.8
2017-Nov-10 22:00N 37°33' E 121°23'796955436.1
2017-Nov-10 22:00N 24°32' E 118°19'27239160.7
2017-Nov-10 22:00N 22°29' E 113°55'141068.2
2017-Nov-10 21:59N 22°33' E 113°41'252303.5
2017-Nov-10 21:58N 22°17' E 113°20'3411179.7
2017-Nov-10 21:58N 22°20' E 113°56'444685.2
2017-Nov-10 21:58N 22°59' E 113°34'261288.8
2017-Nov-10 21:56N 22°44' E 113°11'67619006.3
2017-Nov-10 21:54N 31°59' E 120°26'70648.4
2017-Nov-10 21:48N 31°24' E 121°37'67918390.5
2017-Nov-10 21:46N 22°22' E 113°58'6776004.9
2017-Nov-10 21:39N 31°14' E 121°47'7045005.2
2017-Nov-10 21:30N 22°15' E 113°21'3061101707.7
2017-Nov-10 21:30N 24°32' E 118°19'3061101368.0
2017-Nov-10 21:30N 22°17' E 113°20'45162621.2
2017-Nov-10 21:30N 23°01' E 113°32'39138633.6
2017-Nov-10 21:30N 22°29' E 113°55'676243191.9
2017-Nov-10 21:30N 31°23' E 121°37'68141579.1
2017-Nov-10 21:29N 22°20' E 113°56'188110.6
2017-Nov-10 21:29N 22°33' E 113°42'281204.4
2017-Nov-10 21:28N 22°59' E 113°34'651213194.5
2017-Nov-10 21:28N 31°59' E 120°26'811136.4
2017-Nov-10 21:23N 31°15' E 121°46'6884143.3
2017-Nov-10 21:13N 22°45' E 113°07'27127.7
2017-Nov-10 21:00N 23°01' E 113°32'662596082.4
2017-Nov-10 21:00N 31°21' E 121°39'446320973.9
2017-Nov-10 21:00N 24°32' E 118°19'272108794.9
2017-Nov-10 21:00N 22°29' E 113°55'96295.7
2017-Nov-10 21:00N 22°20' E 113°56'162370.6
2017-Nov-10 21:00N 22°32' E 113°44'382732.3
2017-Nov-10 20:59N 22°46' E 113°06'291579.5
2017-Nov-10 20:58N 22°59' E 113°34'442419.3
2017-Nov-10 20:57N 22°17' E 113°20'70329097.0
2017-Nov-10 20:55N 31°17' E 121°44'782536.2
2017-Nov-10 20:53N 31°59' E 120°26'115406.0
2017-Nov-10 20:36N 30°38' E 122°03'65991272.6
2017-Nov-10 20:36N 22°22' E 113°58'46514.8
2017-Nov-10 20:30N 23°01' E 113°32'663795213.9
2017-Nov-10 20:30N 31°20' E 121°42'445229088.4
2017-Nov-10 20:30N 24°32' E 118°19'275988397.8
2017-Nov-10 20:30N 22°20' E 113°56'1410394.1
2017-Nov-10 20:30N 22°32' E 113°47'6692408173.8
2017-Nov-10 20:30N 31°59' E 120°26'337202385.4
2017-Nov-10 20:30N 37°33' E 121°23'985147766.5
2017-Nov-10 20:30N 22°47' E 113°04'689247990.2
2017-Nov-10 20:29N 31°19' E 121°42'674134869.3
2017-Nov-10 20:29N 22°29' E 113°55'348211.1
2017-Nov-10 20:29N 22°17' E 113°20'44635.4
2017-Nov-10 20:25N 22°59' E 113°34'6455707.5
2017-Nov-10 20:18N 30°38' E 122°03'6562255.0
2017-Nov-10 20:01N 22°29' E 113°55'272326384.6
2017-Nov-10 20:00N 24°32' E 118°19'3061101707.7
2017-Nov-10 20:00N 22°15' E 113°21'705845463.3
2017-Nov-10 20:00N 31°18' E 121°44'375675417.6
2017-Nov-10 20:00N 37°33' E 121°23'962865862.9
2017-Nov-10 20:00N 23°01' E 113°32'4756377.2
2017-Nov-10 20:00N 22°20' E 113°56'1211244.6
2017-Nov-10 20:00N 22°31' E 113°50'66851183.3
2017-Nov-10 19:59N 31°59' E 120°26'734181.8
2017-Nov-10 19:58N 31°21' E 121°39'703168799.6
2017-Nov-10 19:58N 22°15' E 113°22'467167.0
2017-Nov-10 19:58N 22°59' E 113°34'32858.3
2017-Nov-10 19:55N 22°49' E 113°02'6748139.2
2017-Nov-10 19:51N 30°38' E 122°03'6461928.8
2017-Nov-10 19:30N 23°01' E 113°32'278100141.5
2017-Nov-10 19:30N 24°32' E 118°19'416749035.1
2017-Nov-10 19:30N 30°38' E 122°03'686308808.8
2017-Nov-10 19:30N 22°12' E 113°24'704844864.7
2017-Nov-10 19:30N 31°16' E 121°46'1036887.1
2017-Nov-10 19:30N 31°22' E 121°37'371267025.1
2017-Nov-10 19:30N 37°33' E 121°23'99157558.8
2017-Nov-10 19:29N 22°20' E 113°56'442275.1
2017-Nov-10 19:28N 22°59' E 113°34'65128599.1
2017-Nov-10 19:26N 31°59' E 120°26'66863273.2
2017-Nov-10 19:26N 22°30' E 113°52'54159.6
2017-Nov-10 19:05N 22°50' E 112°57'41512.7
2017-Nov-10 19:00N 22°15' E 113°21'47169915.1
2017-Nov-10 19:00N 23°01' E 113°32'3919858.2
2017-Nov-10 19:00N 22°27' E 113°52'275494581.2
2017-Nov-10 19:00N 24°32' E 118°19'275494188.2
2017-Nov-10 19:00N 22°20' E 113°56'6802448462.1
2017-Nov-10 19:00N 31°29' E 121°27'364436522.7
2017-Nov-10 19:00N 37°33' E 121°23'416374214.5
2017-Nov-10 19:00N 30°38' E 122°03'378959.0
2017-Nov-10 19:00N 31°13' E 121°48'162183.8
2017-Nov-10 18:59N 31°24' E 121°33'67456416.3
2017-Nov-10 18:59N 22°30' E 113°52'668114494.3
2017-Nov-10 18:58N 31°59' E 120°26'65158628.5
2017-Nov-10 18:58N 22°59' E 113°34'36460.6
2017-Nov-10 18:53N 22°51' E 112°56'63334.2
2017-Nov-10 18:42N 22°21' E 113°57'9905343.8
2017-Nov-10 18:31N 37°33' E 121°23'9863550020.6
2017-Nov-10 18:30N 22°27' E 113°52'3137617.0
2017-Nov-10 18:30N 22°15' E 113°21'703316396.1
2017-Nov-10 18:30N 31°27' E 121°29'447805241.7
2017-Nov-10 18:30N 24°32' E 118°19'446321322.9
2017-Nov-10 18:30N 31°25' E 121°30'6601187616.3
2017-Nov-10 18:30N 23°01' E 113°32'4728182.3
2017-Nov-10 18:30N 22°20' E 113°56'2328.5
2017-Nov-10 18:30N 22°22' E 113°55'9549.8
2017-Nov-10 18:29N 22°30' E 113°52'66850090.5
2017-Nov-10 18:28N 31°59' E 120°26'651180394.0
2017-Nov-10 18:28N 22°59' E 113°34'66141049.0
2017-Nov-10 18:27N 31°11' E 121°51'2761.3
2017-Nov-10 18:01N 31°28' E 121°27'6602375128.7
2017-Nov-10 18:01N 23°01' E 113°32'5145630.0
2017-Nov-10 18:00N 22°10' E 113°32'10091210721.7
2017-Nov-10 18:00N 37°33' E 121°23'1009518678.1
2017-Nov-10 18:00N 22°15' E 113°21'3238189.4
2017-Nov-10 18:00N 22°25' E 113°53'3484.1
2017-Nov-10 18:00N 22°27' E 113°52'31069.0
2017-Nov-10 18:00N 22°30' E 113°52'11997.4
2017-Nov-10 17:59N 22°20' E 113°56'67414115.3
2017-Nov-10 17:56N 31°59' E 120°26'65125770.6
2017-Nov-10 17:55N 22°59' E 113°34'6627992.7
2017-Nov-10 17:50N 31°09' E 121°54'6622066.5
2017-Nov-10 17:31N 23°01' E 113°32'4742473.5
2017-Nov-10 17:30N 22°15' E 113°21'1348186.4
2017-Nov-10 17:30N 22°11' E 113°34'1008518246.6
2017-Nov-10 17:30N 37°33' E 121°23'385277280.2
2017-Nov-10 17:30N 31°08' E 121°55'676243318.9
2017-Nov-10 17:30N 22°28' E 113°52'274141120.6
2017-Nov-10 17:30N 24°32' E 118°19'448230600.5
2017-Nov-10 17:30N 31°30' E 121°22'674485227.7
2017-Nov-10 17:30N 22°30' E 113°51'31333.9
2017-Nov-10 17:30N 22°27' E 113°52'361134.7
2017-Nov-10 17:28N 22°59' E 113°34'445491.0
2017-Nov-10 17:27N 22°20' E 113°56'6742292.6
2017-Nov-10 17:10N 31°59' E 120°26'6684393.8
2017-Nov-10 17:00N 22°31' E 113°51'2487795.5
2017-Nov-10 17:00N 22°10' E 113°37'1657545.2
2017-Nov-10 17:00N 22°15' E 113°21'33120356.5
2017-Nov-10 17:00N 22°20' E 113°56'6802447306.8
2017-Nov-10 17:00N 31°07' E 121°57'386198720.1
2017-Nov-10 17:00N 37°33' E 121°23'986443757.6
2017-Nov-10 17:00N 22°27' E 113°52'676608345.1
2017-Nov-10 17:00N 31°33' E 121°19'660395751.7
2017-Nov-10 17:00N 23°01' E 113°32'369276.3
2017-Nov-10 17:00N 22°30' E 113°51'33991.8
2017-Nov-10 16:58N 22°59' E 113°34'65112342.7
2017-Nov-10 16:55N 31°59' E 120°26'1151583.6
2017-Nov-10 16:50N 30°38' E 122°03'6872084.2
2017-Nov-10 16:30N 22°15' E 113°21'3122134.7
2017-Nov-10 16:30N 22°32' E 113°48'3358977.1
2017-Nov-10 16:30N 23°01' E 113°32'278333804.9
2017-Nov-10 16:30N 24°32' E 118°19'275494188.2
2017-Nov-10 16:30N 22°20' E 113°56'9911784313.3
2017-Nov-10 16:30N 37°33' E 121°23'986710004.1
2017-Nov-10 16:30N 22°27' E 113°52'3402.7
2017-Nov-10 16:30N 22°30' E 113°51'66913523.0
2017-Nov-10 16:27N 31°59' E 120°26'952795.1
2017-Nov-10 16:25N 31°06' E 121°59'6622384347.5
2017-Nov-10 16:25N 22°59' E 113°34'46113.9
2017-Nov-10 16:00N 22°15' E 113°21'1969400.3
2017-Nov-10 16:00N 22°13' E 113°41'2112707.8
2017-Nov-10 16:00N 22°34' E 113°45'982252632.8
2017-Nov-10 16:00N 37°33' E 121°23'962494778.8
2017-Nov-10 16:00N 23°01' E 113°32'369274.9
2017-Nov-10 16:00N 22°30' E 113°51'11321.7
2017-Nov-10 15:58N 22°20' E 113°56'44159238.5
2017-Nov-10 15:58N 22°59' E 113°34'3 6.7
2017-Nov-10 15:30N 23°01' E 113°32'2899450.1
2017-Nov-10 15:30N 22°35' E 113°43'2791003233.3
2017-Nov-10 15:30N 24°32' E 118°19'3061101697.7
2017-Nov-10 15:30N 22°15' E 113°21'696500876.0
2017-Nov-10 15:30N 31°59' E 120°26'670160860.0
2017-Nov-10 15:30N 22°27' E 113°52'986887520.2
2017-Nov-10 15:30N 37°33' E 121°23'984221453.9
2017-Nov-10 15:30N 22°30' E 113°51'111266.2
2017-Nov-10 15:29N 22°20' E 113°56'441712.2
2017-Nov-10 15:28N 22°59' E 113°34'72551.9
2017-Nov-10 15:20N 22°30' E 114°46'6254269.1
2017-Nov-10 15:11N 30°38' E 122°03'6873868.3
2017-Nov-10 15:00N 22°15' E 113°21'2177337.4
2017-Nov-10 15:00N 22°17' E 113°44'6711207942.9
2017-Nov-10 15:00N 30°38' E 122°03'658263378.7
2017-Nov-10 15:00N 22°27' E 113°52'82998.1
2017-Nov-10 15:00N 22°20' E 113°56'991396514.1
2017-Nov-10 15:00N 37°33' E 121°23'984322116.5
2017-Nov-10 15:00N 22°30' E 113°51'3625973.6
2017-Nov-10 15:00N 23°01' E 113°32'27843539.8
2017-Nov-10 14:59N 24°32' E 118°19'279251196.7
2017-Nov-10 14:59N 22°38' E 113°41'66631567.5
2017-Nov-10 14:58N 31°59' E 120°26'651180392.7
2017-Nov-10 14:58N 22°59' E 113°34'701935.6
2017-Nov-10 14:56N 22°30' E 114°43'73174.0
2017-Nov-10 14:30N 23°01' E 113°32'3969607.6
2017-Nov-10 14:30N 22°27' E 113°52'4580520.7
2017-Nov-10 14:30N 22°29' E 114°40'235211575.7
2017-Nov-10 14:30N 24°32' E 118°19'3061101697.7
2017-Nov-10 14:30N 22°15' E 113°21'10091210249.0
2017-Nov-10 14:30N 37°33' E 121°23'991178431.3
2017-Nov-10 14:30N 22°20' E 113°56'114352.9
2017-Nov-10 14:30N 22°30' E 113°51'669109414.4
2017-Nov-10 14:29N 31°59' E 120°26'666114256.0
2017-Nov-10 14:29N 22°38' E 113°41'221024.5
2017-Nov-10 14:28N 22°59' E 113°34'401654.2
2017-Nov-10 14:26N 22°20' E 113°44'6881600.6
2017-Nov-10 14:00N 31°20' E 121°41'7426790.6
2017-Nov-10 14:00N 31°59' E 120°26'674606924.7
2017-Nov-10 14:00N 22°20' E 113°56'275141196.6
2017-Nov-10 14:00N 24°32' E 118°19'283509663.7
2017-Nov-10 14:00N 22°22' E 113°45'4116316.0
2017-Nov-10 14:00N 23°01' E 113°32'962494778.8
2017-Nov-10 14:00N 37°33' E 121°23'9841181160.9
2017-Nov-10 14:00N 22°30' E 113°51'3399.2
2017-Nov-10 13:59N 22°27' E 113°52'15758.5
2017-Nov-10 13:58N 22°38' E 113°41'521706.1
2017-Nov-10 13:56N 22°29' E 114°36'652323.1
2017-Nov-10 13:55N 22°59' E 113°34'3689.1
2017-Nov-10 13:31N 22°27' E 113°52'9861183362.4
2017-Nov-10 13:30N 37°33' E 121°23'7961433154.1
2017-Nov-10 13:30N 24°32' E 118°19'2781001414.6
2017-Nov-10 13:30N 23°01' E 113°32'3813747.4
2017-Nov-10 13:30N 22°25' E 113°45'1120673.3
2017-Nov-10 13:30N 22°20' E 113°56'236274.8
2017-Nov-10 13:30N 22°38' E 113°41'297567.7
2017-Nov-10 13:30N 22°15' E 113°21'31113378.6
2017-Nov-10 13:30N 22°30' E 113°51'33181.8
2017-Nov-10 13:19N 22°59' E 113°34'65120390.4
2017-Nov-10 13:17N 31°59' E 120°26'6512396.9
2017-Nov-10 13:01N 23°01' E 113°32'278250353.7
2017-Nov-10 13:00N 24°32' E 118°19'2791004203.9
2017-Nov-10 13:00N 22°28' E 113°46'987888673.5
2017-Nov-10 13:00N 37°33' E 121°23'980220564.8
2017-Nov-10 13:00N 22°38' E 113°41'2910599.8
2017-Nov-10 13:00N 22°15' E 113°21'3111339.9
2017-Nov-10 13:00N 22°30' E 113°51'381308.3
2017-Nov-10 12:58N 22°24' E 114°32'33704.5
2017-Nov-10 12:55N 22°20' E 113°56'445491.6
2017-Nov-10 12:55N 22°59' E 113°34'6512701.5
2017-Nov-10 12:40N 31°59' E 120°26'6704124.1
2017-Nov-10 12:31N 22°27' E 113°52'275197805.3
2017-Nov-10 12:30N 24°32' E 118°19'796286632.9
2017-Nov-10 12:30N 37°33' E 121°23'9803529036.5
2017-Nov-10 12:30N 22°38' E 113°41'121509.4
2017-Nov-10 12:30N 22°30' E 113°51'669109408.2
2017-Nov-10 12:29N 31°59' E 120°26'6515075.5
2017-Nov-10 12:22N 22°59' E 113°34'621162.0
2017-Nov-10 12:18N 22°22' E 114°28'66220.3
2017-Nov-10 12:01N 23°01' E 113°31'39141214.7
2017-Nov-10 12:01N 22°27' E 113°52'275247264.2
2017-Nov-10 12:00N 24°32' E 118°19'251451199.5
2017-Nov-10 12:00N 22°21' E 114°26'289010.5
2017-Nov-10 12:00N 22°20' E 113°56'9911784323.4
2017-Nov-10 12:00N 37°33' E 121°23'1009726153.4
2017-Nov-10 12:00N 22°15' E 113°21'298141.3
2017-Nov-10 12:00N 22°38' E 113°41'126282.7
2017-Nov-10 12:00N 22°30' E 113°51'669150443.3
2017-Nov-10 12:00N 31°59' E 120°26'6513618.7
2017-Nov-10 11:49N 22°59' E 113°34'36118.5
2017-Nov-10 11:31N 22°27' E 113°52'9863550067.1
2017-Nov-10 11:30N 37°33' E 121°23'796220485.2
2017-Nov-10 11:30N 24°32' E 118°19'27962708.6
2017-Nov-10 11:30N 23°02' E 113°31'3710299.2
2017-Nov-10 11:30N 22°30' E 113°51'113244.1
2017-Nov-10 11:30N 22°20' E 113°56'67435182.6
2017-Nov-10 11:28N 31°59' E 120°26'65110515.2
2017-Nov-10 11:25N 22°59' E 113°34'3689.0
2017-Nov-10 11:00N 22°27' E 113°52'275494528.4
2017-Nov-10 11:00N 24°32' E 118°19'274109750.9
2017-Nov-10 11:00N 22°30' E 113°51'984253050.3
2017-Nov-10 11:00N 37°33' E 121°23'962247303.7
2017-Nov-10 11:00N 23°02' E 113°31'4828809.6
2017-Nov-10 11:00N 22°20' E 113°56'333086.0
2017-Nov-10 10:59N 22°15' E 113°21'297567.7
2017-Nov-10 10:59N 22°38' E 113°41'221190.7
2017-Nov-10 10:58N 22°59' E 113°34'6513284.1
2017-Nov-10 10:46N 31°59' E 120°26'115892.4
2017-Nov-10 10:38N 30°38' E 122°03'6875397.0
2017-Nov-10 10:30N 22°15' E 113°21'3122601.8
2017-Nov-10 10:30N 22°27' E 113°52'59300.2
2017-Nov-10 10:30N 22°31' E 113°48'276994663.8
2017-Nov-10 10:30N 24°32' E 118°19'796159239.3
2017-Nov-10 10:30N 37°33' E 121°23'980106941.1
2017-Nov-10 10:29N 22°38' E 113°41'26344.4
2017-Nov-10 10:25N 23°02' E 113°31'41138.7
2017-Nov-10 10:25N 22°59' E 113°34'6513601.9
2017-Nov-10 10:14N 31°59' E 120°26'67489911.8
2017-Nov-10 10:13N 22°20' E 113°56'2751268.8
2017-Nov-10 10:00N 24°32' E 118°19'275329682.3
2017-Nov-10 10:00N 22°27' E 113°52'814709.7
2017-Nov-10 10:00N 22°32' E 113°45'670301293.4
2017-Nov-10 10:00N 31°59' E 120°26'6661199530.2
2017-Nov-10 10:00N 22°38' E 113°41'2917655.1
2017-Nov-10 10:00N 22°15' E 113°21'1009726149.4
2017-Nov-10 10:00N 37°33' E 121°23'991142746.7
2017-Nov-10 10:00N 22°20' E 113°56'4857619.3
2017-Nov-10 10:00N 23°02' E 113°31'4135.8
2017-Nov-10 09:58N 22°59' E 113°34'9632123.7
2017-Nov-10 09:31N 37°33' E 121°23'796573261.6
2017-Nov-10 09:30N 24°32' E 118°19'281505937.7
2017-Nov-10 09:30N 22°33' E 113°41'2613337.6
2017-Nov-10 09:30N 22°15' E 113°21'3114131.4
2017-Nov-10 09:30N 22°27' E 113°52'145792.6
2017-Nov-10 09:30N 22°38' E 113°41'2313598.3
2017-Nov-10 09:30N 22°20' E 113°56'487857.2
2017-Nov-10 09:30N 23°02' E 113°31'5810907.0
2017-Nov-10 09:29N 22°17' E 114°10'671804714.3
2017-Nov-10 09:29N 31°59' E 120°26'65126348.5
2017-Nov-10 09:28N 22°59' E 113°34'277609.2
2017-Nov-10 09:00N 24°32' E 118°19'284510666.6
2017-Nov-10 09:00N 22°32' E 113°38'131424.9
2017-Nov-10 09:00N 22°27' E 113°52'143257.4
2017-Nov-10 09:00N 22°38' E 113°41'233890.4
2017-Nov-10 08:59N 22°20' E 113°56'4857613.0
2017-Nov-10 08:59N 23°02' E 113°31'651130212.1
2017-Nov-10 08:59N 31°59' E 120°26'65133500.7
2017-Nov-10 08:58N 22°59' E 113°34'93219.8
2017-Nov-10 08:32N 22°30' E 115°10'64480003.6
2017-Nov-10 08:32N 31°59' E 120°49'68229588.4
2017-Nov-10 08:30N 22°23' E 113°59'272488711.2
2017-Nov-10 08:30N 24°32' E 118°19'796716571.8
2017-Nov-10 08:30N 37°33' E 121°23'337303588.7
2017-Nov-10 08:30N 31°59' E 120°26'696626095.2
2017-Nov-10 08:30N 22°15' E 113°21'213992.8
2017-Nov-10 08:30N 22°30' E 113°37'142592.4
2017-Nov-10 08:30N 22°27' E 113°52'8494.5
2017-Nov-10 08:29N 22°20' E 113°56'233553.6
2017-Nov-10 08:28N 22°38' E 113°41'657788583.6
2017-Nov-10 08:28N 30°38' E 122°03'64586031.9
2017-Nov-10 08:28N 22°59' E 113°34'92870.6
2017-Nov-10 08:21N 22°29' E 115°08'968411.9
2017-Nov-10 08:21N 23°02' E 113°31'48141.9
2017-Nov-10 08:00N 22°20' E 113°55'276496813.5
2017-Nov-10 08:00N 24°32' E 118°19'279125645.7
2017-Nov-10 08:00N 22°38' E 113°41'9801176371.1
2017-Nov-10 08:00N 37°33' E 121°23'986354994.0
2017-Nov-10 08:00N 22°27' E 113°52'815074.4
2017-Nov-10 08:00N 22°20' E 113°56'66144916.9
2017-Nov-10 07:59N 30°38' E 122°03'61645224.0
2017-Nov-10 07:58N 22°28' E 115°06'9410886.4
2017-Nov-10 07:58N 23°02' E 113°31'41644.7
2017-Nov-10 07:58N 22°59' E 113°34'65125490.3
2017-Nov-10 07:56N 31°59' E 120°26'6751577.0
2017-Nov-10 07:30N 22°20' E 113°55'6428893.1
2017-Nov-10 07:30N 22°28' E 115°04'218261416.3
2017-Nov-10 07:30N 24°32' E 118°19'275494575.8
2017-Nov-10 07:30N 22°27' E 113°52'986709992.1
2017-Nov-10 07:30N 37°33' E 121°23'1009110021.4
2017-Nov-10 07:30N 22°15' E 113°21'3360174.9
2017-Nov-10 07:30N 22°20' E 113°56'4834564.1
2017-Nov-10 07:30N 23°02' E 113°31'2618649.3
2017-Nov-10 07:29N 22°38' E 113°41'22785.6
2017-Nov-10 07:28N 22°59' E 113°34'6518199.7
2017-Nov-10 07:23N 31°59' E 120°26'6761805.4
2017-Nov-10 07:00N 22°20' E 113°55'87406.7
2017-Nov-10 07:00N 22°27' E 113°52'6476921.2
2017-Nov-10 07:00N 22°27' E 115°01'220132043.7
2017-Nov-10 07:00N 24°32' E 118°19'279251237.3
2017-Nov-10 07:00N 22°38' E 113°41'980504139.6
2017-Nov-10 07:00N 37°33' E 121°23'1009453845.9
2017-Nov-10 07:00N 22°15' E 113°21'485054.5
2017-Nov-10 06:59N 23°02' E 113°31'486172.8
2017-Nov-10 06:59N 22°20' E 113°56'442275.4
2017-Nov-10 06:58N 22°59' E 113°34'6514728.1
2017-Nov-10 06:49N 31°59' E 120°26'4601449.4
2017-Nov-10 06:30N 24°32' E 118°19'306122413.0
2017-Nov-10 06:30N 22°15' E 113°21'3114110.6
2017-Nov-10 06:30N 22°27' E 113°52'6127378.3
2017-Nov-10 06:30N 22°26' E 114°58'9661738542.0
2017-Nov-10 06:30N 37°33' E 121°23'992357288.4
2017-Nov-10 06:30N 22°20' E 113°55'673105296.0
2017-Nov-10 06:29N 30°48' E 122°08'667184687.9
2017-Nov-10 06:29N 22°38' E 113°41'234301.7
2017-Nov-10 06:29N 22°20' E 113°56'482434.4
2017-Nov-10 06:28N 23°02' E 113°31'441.1
2017-Nov-10 06:22N 22°59' E 113°34'6512695.5
2017-Nov-10 06:07N 31°59' E 120°26'4604080.4
2017-Nov-10 06:00N 24°32' E 118°19'3061101717.0
2017-Nov-10 06:00N 22°15' E 113°21'3219199.7
2017-Nov-10 06:00N 22°20' E 113°55'9921785923.6
2017-Nov-10 06:00N 37°33' E 121°23'981705988.9
2017-Nov-10 06:00N 22°37' E 113°42'68122126.3
2017-Nov-10 06:00N 22°25' E 114°54'5751471.6
2017-Nov-10 06:00N 22°27' E 113°53'413563.9
2017-Nov-10 05:59N 23°02' E 113°31'4857613.0
2017-Nov-10 05:59N 22°20' E 113°56'44566.8
2017-Nov-10 05:55N 22°59' E 113°34'513132.6
2017-Nov-10 05:54N 22°32' E 114°21'6536493.9
2017-Nov-10 05:48N 31°59' E 120°26'6742341.8
2017-Nov-10 05:30N 22°23' E 113°52'5465198.3
2017-Nov-10 05:30N 22°24' E 114°51'5293758.8
2017-Nov-10 05:30N 22°20' E 113°55'3238464.2
2017-Nov-10 05:30N 22°15' E 113°21'4857269.8
2017-Nov-10 05:30N 23°02' E 113°31'279125418.0
2017-Nov-10 05:30N 24°32' E 118°19'275329469.3
2017-Nov-10 05:30N 22°20' E 113°56'991356866.7
2017-Nov-10 05:30N 37°33' E 121°23'96327077.6
2017-Nov-10 05:28N 22°59' E 113°34'261585.5
2017-Nov-10 05:27N 22°34' E 113°43'6685418.4
2017-Nov-10 05:19N 31°59' E 120°26'6752148.1
2017-Nov-10 05:00N 22°20' E 113°55'4922108.7
2017-Nov-10 05:00N 22°23' E 114°48'8158377.2
2017-Nov-10 05:00N 22°15' E 113°21'3061101707.0
2017-Nov-10 05:00N 24°32' E 118°19'796102367.4
2017-Nov-10 05:00N 37°33' E 121°23'9623462311.5
2017-Nov-10 05:00N 23°02' E 113°31'466393.6
2017-Nov-10 04:59N 22°19' E 113°50'6791.1
2017-Nov-10 04:59N 22°20' E 113°56'171768.9
2017-Nov-10 04:58N 22°33' E 113°45'282585.0
2017-Nov-10 04:58N 22°59' E 113°34'65118761.0
2017-Nov-10 04:56N 31°59' E 120°26'6524164.6
2017-Nov-10 04:46N 22°35' E 114°17'29110.9
2017-Nov-10 04:31N 22°22' E 114°45'4655002.3
2017-Nov-10 04:30N 22°20' E 113°55'9921190046.0
2017-Nov-10 04:30N 37°33' E 121°23'998718372.8
2017-Nov-10 04:30N 22°16' E 113°48'283254857.6
2017-Nov-10 04:30N 24°32' E 118°19'3061101697.7
2017-Nov-10 04:30N 22°15' E 113°21'489040.4
2017-Nov-10 04:30N 23°02' E 113°31'4109.1
2017-Nov-10 04:28N 22°59' E 113°34'443252.4
2017-Nov-10 04:27N 22°20' E 113°56'67423802.8
2017-Nov-10 04:25N 31°59' E 120°26'6522099.0
2017-Nov-10 04:07N 22°35' E 114°17'9719369.8
2017-Nov-10 04:00N 37°33' E 121°23'9621731155.7
2017-Nov-10 04:00N 23°02' E 113°31'279501676.0
2017-Nov-10 04:00N 24°32' E 118°19'2871032087.2
2017-Nov-10 04:00N 22°13' E 113°45'1243782.1
2017-Nov-10 04:00N 22°20' E 113°56'4275542.0
2017-Nov-10 04:00N 22°21' E 114°42'4914734.7
2017-Nov-10 04:00N 22°32' E 113°50'3228579.4
2017-Nov-10 04:00N 22°15' E 113°21'69629120.9
2017-Nov-10 03:59N 31°59' E 120°26'65283887.0
2017-Nov-10 03:58N 22°35' E 114°17'65614058.0
2017-Nov-10 03:55N 31°25' E 121°30'66011147.7
2017-Nov-10 03:52N 22°59' E 113°34'64570395.6
2017-Nov-10 03:51N 30°38' E 122°03'6635723.1
2017-Nov-10 03:44N 22°26' E 113°46'12539.3
2017-Nov-10 03:43N 22°23' E 113°58'1890.3
2017-Nov-10 03:31N 22°11' E 113°43'2115313.3
2017-Nov-10 03:30N 22°15' E 113°21'2421981.0
2017-Nov-10 03:30N 22°25' E 113°45'6812453131.1
2017-Nov-10 03:30N 31°27' E 121°28'366188264.5
2017-Nov-10 03:30N 37°33' E 121°23'796477718.0
2017-Nov-10 03:30N 24°32' E 118°19'274493046.8
2017-Nov-10 03:30N 22°30' E 113°51'11763.8
2017-Nov-10 03:29N 22°20' E 113°56'4886382.0
2017-Nov-10 03:29N 23°02' E 113°31'65168939.5
2017-Nov-10 03:29N 31°59' E 120°26'65235588.4
2017-Nov-10 03:28N 22°35' E 114°17'46976.9
2017-Nov-10 03:25N 22°59' E 113°34'64515696.3
2017-Nov-10 03:22N 30°38' E 122°03'6401765.7
2017-Nov-10 03:01N 22°19' E 114°36'41147732.6
2017-Nov-10 03:01N 22°27' E 113°53'84137.6
2017-Nov-10 03:00N 22°20' E 113°56'991396514.1
2017-Nov-10 03:00N 37°33' E 121°23'796150858.3
2017-Nov-10 03:00N 24°32' E 118°19'306110169.8
2017-Nov-10 03:00N 22°15' E 113°21'2226883.5
2017-Nov-10 03:00N 22°21' E 113°44'685822343.1
2017-Nov-10 03:00N 31°29' E 121°25'660593628.1
2017-Nov-10 03:00N 23°02' E 113°31'556403.5
2017-Nov-10 02:59N 22°08' E 113°42'423811.5
2017-Nov-10 02:58N 22°35' E 114°17'46414.1
2017-Nov-10 02:52N 22°59' E 113°34'411.4
2017-Nov-10 02:30N 23°02' E 113°31'2791003359.3
2017-Nov-10 02:30N 24°32' E 118°19'275329458.8
2017-Nov-10 02:30N 22°20' E 113°56'1243425.3
2017-Nov-10 02:30N 22°17' E 113°44'1243341.1
2017-Nov-10 02:30N 22°25' E 113°53'3222919.0
2017-Nov-10 02:30N 22°15' E 113°21'6748176.7
2017-Nov-10 02:30N 22°18' E 114°33'9811177794.1
2017-Nov-10 02:30N 37°33' E 121°23'97154608.6
2017-Nov-10 02:29N 22°35' E 114°17'652111849.3
2017-Nov-10 02:29N 31°59' E 120°26'712583.8
2017-Nov-10 02:29N 32°01' E 120°34'65740778.6
2017-Nov-10 02:28N 22°59' E 113°34'563582.1
2017-Nov-10 02:27N 22°04' E 113°41'25117.3
2017-Nov-10 02:14N 22°23' E 113°59'47206.9
2017-Nov-10 02:00N 23°02' E 113°31'279501676.0
2017-Nov-10 02:00N 24°32' E 118°19'289347314.0
2017-Nov-10 02:00N 22°13' E 113°42'2014281.8
2017-Nov-10 02:00N 22°15' E 113°21'3223184.3
2017-Nov-10 02:00N 22°23' E 113°55'3312046.5
2017-Nov-10 02:00N 22°17' E 114°30'9833539489.9
2017-Nov-10 02:00N 37°33' E 121°23'101550038.8
2017-Nov-10 01:59N 22°01' E 113°40'2710624.3
2017-Nov-10 01:59N 22°22' E 113°58'2211087.3
2017-Nov-10 01:59N 22°35' E 114°17'242080.9
2017-Nov-10 01:58N 22°20' E 113°56'4417705.6
2017-Nov-10 01:58N 22°59' E 113°34'65124686.6
2017-Nov-10 01:56N 31°59' E 120°26'6717915.2
2017-Nov-10 01:51N 22°18' E 114°09'67420040.9
2017-Nov-10 01:49N 32°02' E 120°27'7022272.9
2017-Nov-10 01:30N 22°00' E 113°40'298535969.5
2017-Nov-10 01:30N 24°32' E 118°19'3061101707.7
2017-Nov-10 01:30N 22°15' E 113°21'6255532.1
2017-Nov-10 01:30N 22°16' E 114°27'45161695.1
2017-Nov-10 01:30N 22°11' E 113°39'5246498.3
2017-Nov-10 01:30N 23°02' E 113°31'483456.0
2017-Nov-10 01:29N 22°20' E 113°56'991209921.6
2017-Nov-10 01:29N 37°33' E 121°23'96339839.2
2017-Nov-10 01:28N 22°59' E 113°34'65916830.7
2017-Nov-10 01:25N 31°30' E 121°23'564675.9
2017-Nov-10 01:25N 31°59' E 120°26'19590.6
2017-Nov-10 01:23N 32°01' E 120°48'7091908.4
2017-Nov-10 01:00N 22°03' E 113°40'2219525.6
2017-Nov-10 01:00N 22°15' E 113°21'1412836.7
2017-Nov-10 01:00N 22°10' E 113°35'5246477.6
2017-Nov-10 01:00N 23°02' E 113°31'2791003351.9
2017-Nov-10 01:00N 24°32' E 118°19'796102368.2
2017-Nov-10 01:00N 37°33' E 121°23'33760714.5
2017-Nov-10 00:59N 31°59' E 120°26'6741213950.3
2017-Nov-10 00:59N 22°20' E 113°56'67843586.5
2017-Nov-10 00:59N 31°31' E 121°19'65851507.0
2017-Nov-10 00:58N 22°59' E 113°34'66337319.7
2017-Nov-10 00:57N 32°02' E 120°44'162046.2
2017-Nov-10 00:56N 31°58' E 120°26'6711723.6
2017-Nov-10 00:33N 22°22' E 113°58'22583.2
2017-Nov-10 00:31N 22°07' E 113°41'693831679.5
2017-Nov-10 00:30N 31°59' E 120°26'3371214290.7
2017-Nov-10 00:30N 37°33' E 121°23'10091210265.2
2017-Nov-10 00:30N 22°15' E 113°21'695834506.7
2017-Nov-10 00:30N 31°58' E 120°26'460275907.3
2017-Nov-10 00:30N 24°32' E 118°19'275988387.1
2017-Nov-10 00:30N 22°20' E 113°56'485958.0
2017-Nov-10 00:30N 23°02' E 113°31'685402.2
2017-Nov-10 00:29N 22°14' E 114°22'642968.9
2017-Nov-10 00:28N 22°59' E 113°34'4331026.5
2017-Nov-10 00:28N 22°22' E 113°58'67534717.6
2017-Nov-10 00:26N 31°31' E 121°19'7021621.0
2017-Nov-10 00:01N 22°09' E 113°29'1011909879.3
2017-Nov-10 00:00N 37°33' E 121°23'10093630795.7
2017-Nov-10 00:00N 22°15' E 113°21'33119621.7
2017-Nov-10 00:00N 22°20' E 113°56'674606759.3
2017-Nov-10 00:00N 31°58' E 120°26'6511171603.5
2017-Nov-10 00:00N 23°02' E 113°31'279501679.6
2017-Nov-10 00:00N 24°32' E 118°19'29174718.3
2017-Nov-10 00:00N 22°10' E 113°43'68917984.1
2017-Nov-09 23:58N 31°59' E 120°26'6511172641.2
2017-Nov-09 23:58N 22°59' E 113°34'65831590.7
2017-Nov-09 23:56N 31°31' E 121°19'6551893.6
2017-Nov-09 23:36N 22°35' E 114°17'37420.2
2017-Nov-09 23:30N 22°13' E 113°45'1323166.1
2017-Nov-09 23:30N 22°20' E 113°56'674485407.5
2017-Nov-09 23:30N 31°58' E 120°26'3381215668.8
2017-Nov-09 23:30N 37°33' E 121°23'796716577.1
2017-Nov-09 23:30N 24°32' E 118°19'460276120.2
2017-Nov-09 23:30N 31°59' E 120°26'696417388.1
2017-Nov-09 23:30N 22°15' E 113°21'70170116.0
2017-Nov-09 23:29N 31°31' E 121°19'65851504.3
2017-Nov-09 23:29N 23°02' E 113°31'4247.8
2017-Nov-09 23:28N 22°59' E 113°34'46136.0
2017-Nov-09 23:07N 22°35' E 114°17'63822520.7
2017-Nov-09 23:06N 30°38' E 122°03'6877821.5
2017-Nov-09 23:00N 22°15' E 113°21'4885977.8
2017-Nov-09 23:00N 23°02' E 113°31'6512343207.0
2017-Nov-09 23:00N 31°58' E 120°26'6972507461.8
2017-Nov-09 23:00N 22°09' E 113°29'302271966.6
2017-Nov-09 23:00N 24°32' E 118°19'7962866329.3
2017-Nov-09 23:00N 37°33' E 121°23'998718918.1
2017-Nov-09 23:00N 22°16' E 113°47'106874.6
2017-Nov-09 23:00N 22°20' E 113°56'246565.0
2017-Nov-09 23:00N 22°35' E 114°17'461266.3
2017-Nov-09 22:58N 22°59' E 113°34'6589327.6
2017-Nov-09 22:53N 31°31' E 121°19'53959.5
2017-Nov-09 22:50N 31°59' E 120°26'1151912.2
2017-Nov-09 22:47N 30°38' E 122°03'531428.5
2017-Nov-09 22:44N 31°24' E 121°32'6756092.5
2017-Nov-09 22:38N 22°23' E 113°58'32271.4
2017-Nov-09 22:31N 22°10' E 113°26'74798.9
2017-Nov-09 22:30N 22°15' E 113°21'695625875.4
2017-Nov-09 22:30N 31°58' E 120°26'651234320.7
2017-Nov-09 22:30N 23°02' E 113°31'9621731175.3
2017-Nov-09 22:30N 37°33' E 121°23'995716143.1
2017-Nov-09 22:30N 22°19' E 113°50'28056074.9
2017-Nov-09 22:30N 24°32' E 118°19'27510085.8
2017-Nov-09 22:28N 22°20' E 113°56'446925.9
2017-Nov-09 22:28N 22°59' E 113°34'65830374.4
2017-Nov-09 22:26N 31°31' E 121°19'655589817.4
2017-Nov-09 22:26N 22°35' E 114°17'6526452.4
2017-Nov-09 22:20N 31°59' E 120°26'6713098.5
2017-Nov-09 22:07N 22°23' E 113°58'33293.1
2017-Nov-09 22:01N 22°13' E 113°24'31737.9
2017-Nov-09 22:00N 22°15' E 113°21'3323924.3
2017-Nov-09 22:00N 22°20' E 113°56'674809293.9
2017-Nov-09 22:00N 31°59' E 120°26'675202403.6
2017-Nov-09 22:00N 22°22' E 113°52'674606997.4
2017-Nov-09 22:00N 31°58' E 120°26'460331088.7
2017-Nov-09 22:00N 24°32' E 118°19'796238859.0
2017-Nov-09 22:00N 37°33' E 121°23'3616625.7
2017-Nov-09 21:56N 31°32' E 121°20'6598323.0
2017-Nov-09 21:52N 22°59' E 113°34'43329.2
2017-Nov-09 21:44N 22°22' E 113°58'35157.9
2017-Nov-09 21:30N 22°15' E 113°21'6962504311.0
2017-Nov-09 21:30N 31°59' E 120°26'3371214290.7
2017-Nov-09 21:30N 37°33' E 121°23'338607834.4
2017-Nov-09 21:30N 31°58' E 120°26'671482981.8
2017-Nov-09 21:30N 22°26' E 113°53'6250.8
2017-Nov-09 21:29N 22°20' E 113°56'442413.3
2017-Nov-09 21:28N 22°59' E 113°34'65932055.4
2017-Nov-09 21:26N 31°32' E 121°20'6769045.2
2017-Nov-09 21:22N 22°22' E 113°58'36599.6
2017-Nov-09 21:18N 22°17' E 113°20'55233.3
2017-Nov-09 21:04N 22°35' E 114°17'31682.6
2017-Nov-09 21:01N 22°08' E 113°59'362297.5
2017-Nov-09 21:00N 22°15' E 113°21'695625875.4
2017-Nov-09 21:00N 31°58' E 120°26'670482574.4
2017-Nov-09 21:00N 22°26' E 113°54'27451868.4
2017-Nov-09 21:00N 24°32' E 118°19'27959055.6
2017-Nov-09 21:00N 22°08' E 113°59'315140.5
2017-Nov-09 20:59N 22°35' E 114°17'242134.4
2017-Nov-09 20:59N 22°20' E 113°56'442949.6
2017-Nov-09 20:58N 22°59' E 113°34'486.6
2017-Nov-09 20:55N 23°02' E 113°31'65927582.1
2017-Nov-09 20:53N 31°32' E 121°20'532386.2
2017-Nov-09 20:52N 31°59' E 120°26'6942484.9
2017-Nov-09 20:35N 22°17' E 113°20'330.7
2017-Nov-09 20:30N 22°15' E 113°21'695625875.4
2017-Nov-09 20:30N 31°58' E 120°26'6741213518.7
2017-Nov-09 20:30N 22°20' E 113°56'275197679.6
2017-Nov-09 20:30N 24°32' E 118°19'460331340.0
2017-Nov-09 20:30N 31°59' E 120°26'33767460.6
2017-Nov-09 20:30N 37°33' E 121°23'9871184024.2
2017-Nov-09 20:30N 22°26' E 113°54'4230076.4
2017-Nov-09 20:30N 23°02' E 113°31'659131780.0
2017-Nov-09 20:29N 31°32' E 121°20'6566710.7
2017-Nov-09 20:24N 22°35' E 114°17'55903.6
2017-Nov-09 20:20N 22°17' E 113°20'3339209.9
2017-Nov-09 20:20N 22°08' E 113°54'151767.4
2017-Nov-09 20:19N 22°22' E 113°58'434077.0
2017-Nov-09 20:19N 22°59' E 113°34'52172.5
2017-Nov-09 20:01N 22°09' E 113°51'1220888.7
2017-Nov-09 20:00N 22°20' E 113°56'3359804.0
2017-Nov-09 20:00N 22°15' E 113°21'695500587.8
2017-Nov-09 20:00N 31°58' E 120°26'670160825.4
2017-Nov-09 20:00N 22°26' E 113°54'4275200.3
2017-Nov-09 20:00N 23°02' E 113°31'962192348.4
2017-Nov-09 20:00N 37°33' E 121°23'337110394.0
2017-Nov-09 20:00N 31°59' E 120°26'5321210.8
2017-Nov-09 19:59N 31°32' E 121°20'6598352.4
2017-Nov-09 19:55N 22°59' E 113°34'465340.6
2017-Nov-09 19:54N 22°35' E 114°17'212276.9
2017-Nov-09 19:54N 22°22' E 113°58'36659.0
2017-Nov-09 19:50N 22°17' E 113°20'10073033.5
2017-Nov-09 19:30N 37°33' E 121°23'10093630733.6
2017-Nov-09 19:30N 22°15' E 113°21'2631408.9
2017-Nov-09 19:30N 22°12' E 113°49'685246443.2
2017-Nov-09 19:30N 31°59' E 120°26'460331335.8
2017-Nov-09 19:30N 24°32' E 118°19'459275648.5
2017-Nov-09 19:30N 31°58' E 120°25'6731212257.1
2017-Nov-09 19:30N 22°20' E 113°56'61261.6
2017-Nov-09 19:30N 22°26' E 113°54'675186999.8
2017-Nov-09 19:29N 31°32' E 121°20'67627339.9
2017-Nov-09 19:28N 22°22' E 113°58'4310328.4
2017-Nov-09 19:28N 22°59' E 113°34'44583.5
2017-Nov-09 19:23N 22°17' E 113°20'56431.5
2017-Nov-09 19:15N 22°35' E 114°17'63819302.4
2017-Nov-09 19:13N 30°38' E 122°03'6693099.4
2017-Nov-09 19:01N 22°16' E 113°48'2796188.4
2017-Nov-09 19:01N 22°17' E 113°20'31835.8
2017-Nov-09 19:00N 22°15' E 113°21'48171929.3
2017-Nov-09 19:00N 23°02' E 113°31'650780153.2
2017-Nov-09 19:00N 31°58' E 120°25'459275648.5
2017-Nov-09 19:00N 24°32' E 118°19'460828339.6
2017-Nov-09 19:00N 31°59' E 120°26'670201140.6
2017-Nov-09 19:00N 22°26' E 113°54'9873552032.4
2017-Nov-09 19:00N 37°33' E 121°23'991297385.6
2017-Nov-09 19:00N 22°20' E 113°56'2417038.9
2017-Nov-09 19:00N 22°35' E 114°16'461344.6
2017-Nov-09 18:58N 22°59' E 113°34'65932494.3
2017-Nov-09 18:56N 31°32' E 121°20'67683905.2
2017-Nov-09 18:56N 22°22' E 113°58'6584225.1
2017-Nov-09 18:47N 30°38' E 122°03'6872542.9
2017-Nov-09 18:30N 22°15' E 113°21'48171950.5
2017-Nov-09 18:30N 23°02' E 113°31'4275153.9
2017-Nov-09 18:30N 22°26' E 113°54'830079.6
2017-Nov-09 18:30N 22°20' E 113°48'9941789795.9
2017-Nov-09 18:30N 37°33' E 121°23'796716571.8
2017-Nov-09 18:30N 24°32' E 118°19'460828339.6
2017-Nov-09 18:30N 31°59' E 120°26'6941249856.9
2017-Nov-09 18:30N 22°17' E 113°20'5510506.1
2017-Nov-09 18:30N 22°35' E 114°16'65225493.6
2017-Nov-09 18:28N 31°58' E 120°25'67347539.1
2017-Nov-09 18:28N 22°20' E 113°56'67938183.1
2017-Nov-09 18:26N 31°32' E 121°20'6598352.4
2017-Nov-09 18:22N 22°59' E 113°34'43186.1
2017-Nov-09 18:08N 22°22' E 113°58'36297.9
2017-Nov-09 18:01N 22°17' E 113°20'33119659.6
2017-Nov-09 18:01N 22°27' E 113°54'4113380.6
2017-Nov-09 18:00N 23°02' E 113°31'962865563.0
2017-Nov-09 18:00N 37°33' E 121°23'3371214290.7
2017-Nov-09 18:00N 31°59' E 120°26'6771219290.9
2017-Nov-09 18:00N 22°23' E 113°45'283169519.4
2017-Nov-09 18:00N 24°32' E 118°19'45925842.4
2017-Nov-09 17:59N 31°58' E 120°25'65029271.5
2017-Nov-09 17:58N 22°59' E 113°34'6599338.9
2017-Nov-09 17:53N 31°32' E 121°20'67681103.7
2017-Nov-09 17:53N 22°22' E 113°58'320.3
2017-Nov-09 17:44N 22°20' E 113°56'34148.9
2017-Nov-09 17:31N 22°17' E 113°20'306275364.0
2017-Nov-09 17:30N 24°32' E 118°19'306550633.0
2017-Nov-09 17:30N 22°15' E 113°21'1009226918.4
2017-Nov-09 17:30N 37°33' E 121°23'338173826.7
2017-Nov-09 17:30N 31°58' E 120°25'11808.0
2017-Nov-09 17:30N 31°59' E 120°26'536166.6
2017-Nov-09 17:29N 31°32' E 121°20'673269084.3
2017-Nov-09 17:29N 22°29' E 113°55'361334.5
2017-Nov-09 17:28N 22°59' E 113°34'443619.1
2017-Nov-09 17:27N 22°20' E 113°56'315.8
2017-Nov-09 17:16N 22°22' E 113°58'311.2
2017-Nov-09 17:00N 22°20' E 113°56'48172839.0
2017-Nov-09 17:00N 23°02' E 113°31'279501664.6
2017-Nov-09 17:00N 24°32' E 118°19'27228799.8
2017-Nov-09 17:00N 22°29' E 113°55'9841180779.5
2017-Nov-09 17:00N 37°33' E 121°23'36156469.7
2017-Nov-09 16:59N 31°32' E 121°20'5438538.7
2017-Nov-09 16:59N 31°58' E 120°25'165.5
2017-Nov-09 16:58N 31°59' E 120°26'65110422.9
2017-Nov-09 16:55N 22°59' E 113°34'441991.1
2017-Nov-09 16:53N 22°17' E 113°20'3 6.7
2017-Nov-09 16:30N 22°15' E 113°21'3424470.9
2017-Nov-09 16:30N 22°29' E 113°55'272244788.4
2017-Nov-09 16:30N 24°32' E 118°19'30678674.8
2017-Nov-09 16:30N 22°17' E 113°20'1007604159.9
2017-Nov-09 16:30N 37°33' E 121°23'36146385.8
2017-Nov-09 16:29N 31°32' E 121°20'65987850.5
2017-Nov-09 16:29N 23°02' E 113°31'6512343887.6
2017-Nov-09 16:29N 31°59' E 120°26'65129685.5
2017-Nov-09 16:28N 22°59' E 113°34'4411374.2
2017-Nov-09 16:27N 22°20' E 113°56'67336186.5
2017-Nov-09 16:26N 31°58' E 120°25'115636.5
2017-Nov-09 16:15N 30°38' E 122°03'66114250.7
2017-Nov-09 16:13N 22°33' E 113°40'9854765.7
2017-Nov-09 16:00N 37°33' E 121°23'10091815356.8
2017-Nov-09 16:00N 22°15' E 113°21'2631208.1
2017-Nov-09 16:00N 22°33' E 113°41'67068963.3
2017-Nov-09 16:00N 31°59' E 120°26'4601656679.2
2017-Nov-09 16:00N 24°32' E 118°19'2791003329.2
2017-Nov-09 16:00N 23°02' E 113°31'659395324.8
2017-Nov-09 15:59N 31°32' E 121°20'67961091.0
2017-Nov-09 15:59N 22°20' E 113°56'67351585.0
2017-Nov-09 15:58N 31°58' E 120°25'69349925.5
2017-Nov-09 15:57N 22°17' E 113°20'441069.0
2017-Nov-09 15:55N 22°59' E 113°34'43123.4
2017-Nov-09 15:34N 22°22' E 113°58'67111718.8
2017-Nov-09 15:30N 31°58' E 120°25'45947254.6
2017-Nov-09 15:30N 24°32' E 118°19'46063719.2
2017-Nov-09 15:29N 31°59' E 120°26'668141430.2
2017-Nov-09 15:29N 22°29' E 113°55'98427674.2
2017-Nov-09 15:27N 37°33' E 121°23'99175928.2
2017-Nov-09 15:26N 22°20' E 113°56'482579.7
2017-Nov-09 15:25N 23°02' E 113°31'4828658.4
2017-Nov-09 15:25N 22°15' E 113°21'278982.8
2017-Nov-09 15:25N 22°32' E 113°44'67530777.4
2017-Nov-09 15:23N 31°32' E 121°20'701630760.7
2017-Nov-09 15:23N 22°17' E 113°20'44566.9
2017-Nov-09 15:19N 22°59' E 113°34'432539.5
2017-Nov-09 15:18N 22°22' E 113°58'9883454.8
2017-Nov-09 15:01N 37°33' E 121°23'338152098.4
2017-Nov-09 15:00N 31°58' E 120°25'6502340459.6
2017-Nov-09 15:00N 23°02' E 113°31'3329860.0
2017-Nov-09 15:00N 22°32' E 113°46'2917231.2
2017-Nov-09 15:00N 22°17' E 113°20'30632395.8
2017-Nov-09 15:00N 24°32' E 118°19'3061101266.6
2017-Nov-09 15:00N 22°15' E 113°21'702280777.6
2017-Nov-09 14:59N 31°32' E 121°20'67910717.7
2017-Nov-09 14:56N 22°20' E 113°56'442843.5
2017-Nov-09 14:55N 22°59' E 113°34'43547.7
2017-Nov-09 14:50N 22°22' E 113°58'6756186.5
2017-Nov-09 14:43N 30°52' E 122°14'6753128.6
2017-Nov-09 14:31N 22°27' E 113°53'669301205.8
2017-Nov-09 14:30N 31°58' E 120°25'695156304.3
2017-Nov-09 14:30N 22°15' E 113°21'32285.2
2017-Nov-09 14:30N 22°17' E 113°20'694277748.0
2017-Nov-09 14:30N 31°59' E 120°26'6511171971.0
2017-Nov-09 14:30N 23°02' E 113°31'47168758.7
2017-Nov-09 14:30N 22°22' E 113°58'988323496.3
2017-Nov-09 14:30N 37°33' E 121°23'361108233.6
2017-Nov-09 14:29N 31°32' E 121°20'67424500.2
2017-Nov-09 14:28N 22°31' E 113°49'3218910.8
2017-Nov-09 14:28N 22°59' E 113°34'443619.1
2017-Nov-09 14:27N 22°20' E 113°56'6617127.6
2017-Nov-09 14:21N 30°38' E 122°03'19179.6
2017-Nov-09 14:15N 30°55' E 122°13'7052883.1
2017-Nov-09 14:00N 22°15' E 113°21'1009907673.4
2017-Nov-09 14:00N 37°33' E 121°23'986507066.4
2017-Nov-09 14:00N 22°28' E 113°52'27535327.5
2017-Nov-09 14:00N 24°32' E 118°19'306367135.8
2017-Nov-09 14:00N 22°17' E 113°20'701132796.6
2017-Nov-09 13:59N 31°32' E 121°20'5464238.3
2017-Nov-09 13:59N 31°58' E 120°25'667800407.3
2017-Nov-09 13:59N 22°30' E 113°52'37133628.6
2017-Nov-09 13:59N 23°02' E 113°31'66445943.5
2017-Nov-09 13:58N 30°56' E 122°12'66354267.9
2017-Nov-09 13:58N 22°59' E 113°34'44562.7
2017-Nov-09 13:53N 22°20' E 113°56'67414714.4
2017-Nov-09 13:50N 31°59' E 120°26'6511978.0
2017-Nov-09 13:30N 23°02' E 113°31'3970928.1
2017-Nov-09 13:30N 22°28' E 113°52'670603115.7
2017-Nov-09 13:30N 31°59' E 120°26'3371214269.3
2017-Nov-09 13:30N 37°33' E 121°23'1009226917.2
2017-Nov-09 13:30N 22°15' E 113°21'30655055.5
2017-Nov-09 13:30N 24°32' E 118°19'44976973.6
2017-Nov-09 13:29N 31°32' E 121°20'5448173.4
2017-Nov-09 13:29N 31°58' E 120°25'67326642.8
2017-Nov-09 13:28N 22°20' E 113°56'4431847.7
2017-Nov-09 13:28N 22°59' E 113°34'664125851.2
2017-Nov-09 13:27N 30°59' E 122°10'67626444.1
2017-Nov-09 13:26N 22°30' E 113°52'6671567.2
2017-Nov-09 13:00N 31°58' E 120°25'3381216808.5
2017-Nov-09 13:00N 37°33' E 121°23'9621154110.2
2017-Nov-09 13:00N 23°02' E 113°31'3947293.2
2017-Nov-09 13:00N 22°28' E 113°52'678271004.2
2017-Nov-09 13:00N 31°01' E 122°07'681350051.6
2017-Nov-09 13:00N 22°20' E 113°56'3359809.1
2017-Nov-09 13:00N 22°15' E 113°21'321763.3
2017-Nov-09 12:59N 22°30' E 113°52'331796.1
2017-Nov-09 12:58N 22°59' E 113°34'43685.3
2017-Nov-09 12:54N 22°22' E 113°58'67676037.1
2017-Nov-09 12:53N 31°32' E 121°20'7015323.2
2017-Nov-09 12:46N 22°17' E 113°20'6932773.8
2017-Nov-09 12:31N 31°58' E 120°25'459275655.5
2017-Nov-09 12:30N 24°32' E 118°19'3061101149.7
2017-Nov-09 12:30N 22°15' E 113°21'3219395.8
2017-Nov-09 12:30N 22°30' E 113°52'37133113.5
2017-Nov-09 12:30N 23°02' E 113°31'962314797.2
2017-Nov-09 12:30N 37°33' E 121°23'36132470.1
2017-Nov-09 12:29N 31°32' E 121°20'70133642.7
2017-Nov-09 12:28N 22°17' E 113°20'343727.1
2017-Nov-09 12:28N 22°20' E 113°56'68021472.4
2017-Nov-09 12:26N 31°03' E 122°02'66337878.8
2017-Nov-09 12:25N 22°59' E 113°34'3 7.1
2017-Nov-09 12:00N 23°01' E 113°32'4742399.9
2017-Nov-09 12:00N 22°15' E 113°21'3222882.8
2017-Nov-09 12:00N 22°30' E 113°51'21442.6
2017-Nov-09 12:00N 22°28' E 113°52'3156650.2
2017-Nov-09 12:00N 22°17' E 113°20'306220247.9
2017-Nov-09 12:00N 24°32' E 118°19'796477721.6
2017-Nov-09 12:00N 37°33' E 121°23'36140587.6
2017-Nov-09 11:59N 31°32' E 121°20'5424088.0
2017-Nov-09 11:59N 31°58' E 120°25'954570.2
2017-Nov-09 11:58N 31°06' E 121°58'66211680.5
2017-Nov-09 11:55N 22°59' E 113°34'6522234.0
2017-Nov-09 11:37N 31°58' E 120°27'6525820.1
2017-Nov-09 11:30N 23°01' E 113°32'4784694.2
2017-Nov-09 11:30N 22°15' E 113°21'3061101149.7
2017-Nov-09 11:30N 24°32' E 118°19'275247063.4
2017-Nov-09 11:30N 22°30' E 113°51'6692407927.1
2017-Nov-09 11:30N 31°59' E 120°26'670127004.2
2017-Nov-09 11:30N 22°28' E 113°52'98668259.8
2017-Nov-09 11:29N 37°33' E 121°23'99150980.7
2017-Nov-09 11:28N 22°20' E 113°56'448382.0
2017-Nov-09 11:28N 22°59' E 113°34'65931627.2
2017-Nov-09 11:26N 31°32' E 121°20'372731.6
2017-Nov-09 11:26N 31°08' E 121°54'8910372.6
2017-Nov-09 11:25N 31°58' E 120°27'69510247.0
2017-Nov-09 11:21N 22°17' E 113°20'7022046.2
2017-Nov-09 11:00N 31°11' E 121°50'7032530596.1
2017-Nov-09 11:00N 22°15' E 113°21'44157560.9
2017-Nov-09 11:00N 22°57' E 113°32'3358642.4
2017-Nov-09 11:00N 22°30' E 113°51'275164708.9
2017-Nov-09 11:00N 24°32' E 118°19'275109819.6
2017-Nov-09 11:00N 22°20' E 113°56'991198257.0
2017-Nov-09 11:00N 37°33' E 121°23'9861774745.7
2017-Nov-09 11:00N 22°28' E 113°52'361036.6
2017-Nov-09 10:58N 22°59' E 113°34'65930805.5
2017-Nov-09 10:56N 31°32' E 121°20'7017292.1
2017-Nov-09 10:51N 22°17' E 113°20'69519687.2
2017-Nov-09 10:49N 31°58' E 120°27'3381119.8
2017-Nov-09 10:30N 37°33' E 121°23'9681161842.0
2017-Nov-09 10:30N 22°54' E 113°34'2820516.4
2017-Nov-09 10:30N 22°30' E 113°51'28554.6
2017-Nov-09 10:30N 22°28' E 113°52'275329678.4
2017-Nov-09 10:30N 24°32' E 118°19'275141198.2
2017-Nov-09 10:30N 22°20' E 113°56'67522075.2
2017-Nov-09 10:28N 31°58' E 120°27'65263397.2
2017-Nov-09 10:28N 22°59' E 113°34'65930409.6
2017-Nov-09 10:26N 31°32' E 121°20'70124496.3
2017-Nov-09 10:25N 22°17' E 113°20'36141.0
2017-Nov-09 10:09N 22°22' E 113°58'9896714.6
2017-Nov-09 10:00N 37°33' E 121°23'377678074.6
2017-Nov-09 10:00N 31°16' E 121°45'675607796.1
2017-Nov-09 10:00N 22°30' E 113°51'274141136.7
2017-Nov-09 10:00N 24°32' E 118°19'2791004006.3
2017-Nov-09 10:00N 22°50' E 113°36'2796198.4
2017-Nov-09 10:00N 22°28' E 113°52'322910.5
2017-Nov-09 10:00N 22°17' E 113°20'348199.7
2017-Nov-09 09:59N 22°20' E 113°56'332781.6
2017-Nov-09 09:59N 22°15' E 113°21'463070.2
2017-Nov-09 09:58N 22°59' E 113°34'65931627.3
2017-Nov-09 09:56N 31°32' E 121°20'67611755.5
2017-Nov-09 09:53N 22°22' E 113°58'3 7.6
2017-Nov-09 09:30N 22°20' E 113°56'275494193.6
2017-Nov-09 09:30N 24°32' E 118°19'444799812.5
2017-Nov-09 09:30N 31°19' E 121°42'676810633.1
2017-Nov-09 09:30N 22°30' E 113°51'207991.3
2017-Nov-09 09:30N 22°46' E 113°38'226184.8
2017-Nov-09 09:30N 22°28' E 113°52'67573648.3
2017-Nov-09 09:29N 31°32' E 121°20'65923255.2
2017-Nov-09 09:28N 22°59' E 113°34'442953.2
2017-Nov-09 09:27N 22°17' E 113°20'36160.9
2017-Nov-09 09:13N 22°22' E 113°58'11856.5
2017-Nov-09 09:13N 22°20' E 113°47'2821398.5
2017-Nov-09 09:00N 24°32' E 118°19'4451602456.6
2017-Nov-09 09:00N 31°21' E 121°39'6871235832.7
2017-Nov-09 09:00N 22°18' E 113°48'1242703.2
2017-Nov-09 09:00N 22°30' E 113°51'984506168.8
2017-Nov-09 09:00N 37°33' E 121°23'986126767.6
2017-Nov-09 09:00N 22°28' E 113°52'195242.0
2017-Nov-09 09:00N 22°44' E 113°41'668267121.6
2017-Nov-09 08:59N 31°32' E 121°20'701100927.2
2017-Nov-09 08:59N 22°17' E 113°20'345865.4
2017-Nov-09 08:59N 22°20' E 113°56'44672.1
2017-Nov-09 08:55N 22°59' E 113°34'64523228.6
2017-Nov-09 08:53N 30°38' E 122°03'115316.3
2017-Nov-09 08:31N 31°59' E 120°26'46036816.0
2017-Nov-09 08:30N 24°32' E 118°19'275990662.5
2017-Nov-09 08:30N 22°30' E 113°50'1628626.6
2017-Nov-09 08:30N 22°14' E 113°49'1416309.3
2017-Nov-09 08:30N 22°28' E 113°52'3128124.4
2017-Nov-09 08:30N 22°15' E 113°21'1009605125.6
2017-Nov-09 08:30N 37°33' E 121°23'991162211.2
2017-Nov-09 08:30N 22°20' E 113°56'348797.9
2017-Nov-09 08:30N 22°17' E 113°20'694178557.5
2017-Nov-09 08:29N 31°59' E 120°26'65124428.9
2017-Nov-09 08:28N 22°59' E 113°34'65930805.8
2017-Nov-09 08:26N 31°32' E 121°20'66814750.1
2017-Nov-09 08:24N 22°44' E 113°41'1948.8
2017-Nov-09 08:01N 22°28' E 113°52'3214206.9
2017-Nov-09 08:00N 22°17' E 113°20'3441056.1
2017-Nov-09 08:00N 22°20' E 113°56'679814858.7
2017-Nov-09 08:00N 31°23' E 121°33'703229975.0
2017-Nov-09 08:00N 22°15' E 113°21'10091815376.8
2017-Nov-09 08:00N 37°33' E 121°23'984506163.9
2017-Nov-09 08:00N 22°31' E 113°46'2125791.9
2017-Nov-09 08:00N 22°10' E 113°51'685411128.5
2017-Nov-09 08:00N 31°59' E 120°26'538678.6
2017-Nov-09 07:59N 31°32' E 121°20'6598441.5
2017-Nov-09 07:55N 22°59' E 113°34'2869.5
2017-Nov-09 07:30N 22°32' E 113°43'2796928.5
2017-Nov-09 07:30N 22°15' E 113°21'3460834.1
2017-Nov-09 07:30N 22°43' E 113°41'9753510549.0
2017-Nov-09 07:30N 37°33' E 121°23'10073624941.3
2017-Nov-09 07:30N 22°17' E 113°20'694312457.9
2017-Nov-09 07:30N 31°59' E 120°26'670120612.5
2017-Nov-09 07:30N 22°28' E 113°52'192319.3
2017-Nov-09 07:29N 22°09' E 113°56'12783.0
2017-Nov-09 07:29N 22°20' E 113°56'443388.1
2017-Nov-09 07:28N 22°59' E 113°34'6599338.8
2017-Nov-09 07:23N 31°32' E 121°20'6751762.3
2017-Nov-09 07:01N 22°28' E 113°52'930921.9
2017-Nov-09 07:00N 22°20' E 113°56'2071576.5
2017-Nov-09 07:00N 22°33' E 113°40'2821015826.6
2017-Nov-09 07:00N 24°32' E 118°19'3061101286.6
2017-Nov-09 07:00N 22°15' E 113°21'696834780.4
2017-Nov-09 07:00N 31°59' E 120°26'6941249902.7
2017-Nov-09 07:00N 22°17' E 113°20'1007145002.4
2017-Nov-09 07:00N 37°33' E 121°23'975175531.3
2017-Nov-09 07:00N 22°43' E 113°41'401560.6
2017-Nov-09 06:58N 22°08' E 114°01'579721.6
2017-Nov-09 06:58N 22°59' E 113°34'65931211.0
2017-Nov-09 06:56N 31°32' E 121°20'6751561.8
2017-Nov-09 06:31N 22°28' E 113°52'3118758.3
2017-Nov-09 06:30N 22°15' E 113°21'3319967.5
2017-Nov-09 06:30N 22°20' E 113°56'2749465.3
2017-Nov-09 06:30N 22°43' E 113°41'3319610.9
2017-Nov-09 06:30N 22°17' E 113°20'306220311.1
2017-Nov-09 06:30N 24°32' E 118°19'796191087.2
2017-Nov-09 06:30N 37°33' E 121°23'36151945.3
2017-Nov-09 06:29N 31°32' E 121°20'534546.2
2017-Nov-09 06:29N 31°59' E 120°26'65139748.4
2017-Nov-09 06:28N 22°59' E 113°34'4497.7
2017-Nov-09 06:01N 22°17' E 113°20'10071812600.3
2017-Nov-09 06:01N 37°33' E 121°23'1009726158.7
2017-Nov-09 06:00N 22°15' E 113°21'30664782.7
2017-Nov-09 06:00N 24°32' E 118°19'275494477.2
2017-Nov-09 06:00N 22°28' E 113°52'91145.3
2017-Nov-09 06:00N 22°20' E 113°56'273090.4
2017-Nov-09 05:59N 22°43' E 113°41'66241798.5
2017-Nov-09 05:58N 31°59' E 120°26'65186857.7
2017-Nov-09 05:58N 22°59' E 113°34'65930805.4
2017-Nov-09 05:56N 31°32' E 121°20'361831.9
2017-Nov-09 05:30N 37°33' E 121°23'796286630.8
2017-Nov-09 05:30N 24°32' E 118°19'306110136.7
2017-Nov-09 05:30N 22°15' E 113°21'3323966.6
2017-Nov-09 05:30N 22°20' E 113°56'2732964.7
2017-Nov-09 05:30N 22°43' E 113°41'1916979.5
2017-Nov-09 05:30N 22°28' E 113°52'67073102.1
2017-Nov-09 05:29N 31°59' E 120°26'65123930.2
2017-Nov-09 05:28N 22°59' E 113°34'441064.0
2017-Nov-09 05:25N 22°17' E 113°20'7018791.6
2017-Nov-09 05:20N 31°32' E 121°20'67713457.1
2017-Nov-09 05:17N 22°09' E 114°19'31109.2
2017-Nov-09 05:00N 22°28' E 113°52'275989151.2
2017-Nov-09 05:00N 24°32' E 118°19'306275359.3
2017-Nov-09 05:00N 22°17' E 113°20'10071208406.9
2017-Nov-09 05:00N 37°33' E 121°23'337134921.2
2017-Nov-09 05:00N 31°59' E 120°26'696104347.1
2017-Nov-09 05:00N 22°15' E 113°21'56101022.9
2017-Nov-09 05:00N 22°10' E 114°21'503167.7
2017-Nov-09 04:59N 22°43' E 113°41'17940.0
2017-Nov-09 04:58N 22°59' E 113°34'6453217.3
2017-Nov-09 04:46N 30°38' E 122°03'653161.5
2017-Nov-09 04:44N 31°32' E 121°20'6772920.5
2017-Nov-09 04:31N 22°24' E 113°53'276248087.2
2017-Nov-09 04:30N 24°32' E 118°19'4601656679.2
2017-Nov-09 04:30N 31°59' E 120°26'6691203440.0
2017-Nov-09 04:30N 22°12' E 114°26'989593575.8
2017-Nov-09 04:30N 37°33' E 121°23'10091210265.2
2017-Nov-09 04:30N 22°15' E 113°21'3319938.1
2017-Nov-09 04:30N 22°20' E 113°56'342562.4
2017-Nov-09 04:29N 22°17' E 113°20'70215046.0
2017-Nov-09 04:27N 31°25' E 121°32'542140.4
2017-Nov-09 04:25N 30°38' E 122°03'645116138.6
2017-Nov-09 04:25N 22°59' E 113°34'176831.8
2017-Nov-09 04:25N 22°43' E 113°41'6689816.9
2017-Nov-09 04:20N 31°32' E 121°20'7012107.9
2017-Nov-09 04:01N 22°17' E 113°20'7021263802.2
2017-Nov-09 04:00N 31°25' E 121°32'703843800.6
2017-Nov-09 04:00N 22°15' E 113°21'6962504311.0
2017-Nov-09 04:00N 31°59' E 120°26'460165670.0
2017-Nov-09 04:00N 24°32' E 118°19'251904321.7
2017-Nov-09 04:00N 22°14' E 114°31'9861775240.8
2017-Nov-09 04:00N 37°33' E 121°23'9931191198.8
2017-Nov-09 04:00N 22°21' E 113°51'2514777.6
2017-Nov-09 04:00N 22°43' E 113°41'66865007.3
2017-Nov-09 03:59N 31°32' E 121°20'65923030.0
2017-Nov-09 03:58N 22°59' E 113°34'6441961.0
2017-Nov-09 03:38N 30°37' E 122°03'116931.2
2017-Nov-09 03:31N 31°59' E 120°26'696500865.9
2017-Nov-09 03:30N 22°15' E 113°21'7032531402.7
2017-Nov-09 03:30N 31°25' E 121°32'664796307.5
2017-Nov-09 03:30N 22°15' E 114°35'983505625.0
2017-Nov-09 03:30N 37°33' E 121°23'991594774.4
2017-Nov-09 03:30N 22°20' E 113°56'813594.1
2017-Nov-09 03:30N 22°17' E 113°49'2821015456.9
2017-Nov-09 03:30N 24°32' E 118°19'30673429.1
2017-Nov-09 03:30N 22°17' E 113°20'33919.9
2017-Nov-09 03:28N 22°43' E 113°41'66832503.7
2017-Nov-09 03:26N 31°32' E 121°20'66467.3
2017-Nov-09 03:18N 30°37' E 122°03'6862339.7
2017-Nov-09 03:00N 22°15' E 113°21'73130703.9
2017-Nov-09 03:00N 22°17' E 114°39'6581184548.0
2017-Nov-09 03:00N 31°59' E 120°26'6942499866.8
2017-Nov-09 03:00N 22°17' E 113°20'2545161.5
2017-Nov-09 03:00N 22°14' E 113°47'1000720083.2
2017-Nov-09 03:00N 37°33' E 121°23'975319147.2
2017-Nov-09 03:00N 22°43' E 113°41'277142446.6
2017-Nov-09 03:00N 24°32' E 118°19'27558140.4
2017-Nov-09 03:00N 22°20' E 113°56'441373.7
2017-Nov-09 02:58N 22°59' E 113°34'65931629.3
2017-Nov-09 02:56N 31°32' E 121°20'6921597.2
2017-Nov-09 02:30N 22°12' E 113°44'2239222.5
2017-Nov-09 02:30N 22°15' E 113°21'306100103.3
2017-Nov-09 02:30N 24°32' E 118°19'7962866308.2
2017-Nov-09 02:30N 37°33' E 121°23'368101774.9
2017-Nov-09 02:30N 31°25' E 121°32'6558513.1
2017-Nov-09 02:30N 31°59' E 120°26'536173.8
2017-Nov-09 02:29N 31°32' E 121°20'70172089.2
2017-Nov-09 02:29N 22°17' E 113°20'343961.2
2017-Nov-09 02:28N 22°20' E 113°56'27833.5
2017-Nov-09 02:26N 22°43' E 113°41'17629.2
2017-Nov-09 02:25N 22°59' E 113°34'44109.4
2017-Nov-09 02:00N 22°20' E 113°56'1761734.8
2017-Nov-09 02:00N 22°09' E 113°42'2036800.9
2017-Nov-09 02:00N 22°15' E 113°21'1008363037.6
2017-Nov-09 02:00N 37°33' E 121°23'9741753016.9
2017-Nov-09 02:00N 22°21' E 114°49'6724001.1
2017-Nov-09 02:00N 22°43' E 113°41'277142442.8
2017-Nov-09 02:00N 24°32' E 118°19'44957729.8
2017-Nov-09 01:59N 31°32' E 121°20'701360443.3
2017-Nov-09 01:59N 22°17' E 113°20'69428406.4
2017-Nov-09 01:58N 31°59' E 120°26'651260587.0
2017-Nov-09 01:58N 22°59' E 113°34'46101.0
2017-Nov-09 01:30N 22°15' E 113°21'306550479.5
2017-Nov-09 01:30N 24°32' E 118°19'229823841.9
2017-Nov-09 01:30N 22°22' E 114°53'5337912.3
2017-Nov-09 01:30N 22°20' E 113°56'991594771.1
2017-Nov-09 01:30N 37°33' E 121°23'1010403831.6
2017-Nov-09 01:30N 22°06' E 113°41'69869841.0
2017-Nov-09 01:29N 31°32' E 121°20'701360445.9
2017-Nov-09 01:29N 22°17' E 113°20'441594.1
2017-Nov-09 01:28N 22°59' E 113°34'6516390.4
2017-Nov-09 01:22N 31°59' E 120°26'66214265.9
2017-Nov-09 01:19N 22°43' E 113°41'34110.2
2017-Nov-09 01:00N 22°15' E 113°21'90324840.0
2017-Nov-09 01:00N 22°24' E 114°58'7553768.7
2017-Nov-09 01:00N 22°03' E 113°41'29688762.1
2017-Nov-09 01:00N 24°32' E 118°19'277332375.3
2017-Nov-09 01:00N 22°43' E 113°41'332221.3
2017-Nov-09 00:59N 22°17' E 113°20'343967.5
2017-Nov-09 00:59N 22°20' E 113°56'680407750.8
2017-Nov-09 00:59N 31°21' E 121°38'721205.9
2017-Nov-09 00:55N 31°59' E 120°26'532080.4
2017-Nov-09 00:53N 31°32' E 121°20'65922809.8
2017-Nov-09 00:52N 22°59' E 113°34'44125.0
2017-Nov-09 00:30N 22°20' E 113°56'3329938.5
2017-Nov-09 00:30N 22°15' E 113°21'95170542.3
2017-Nov-09 00:30N 22°26' E 115°03'220112927.2
2017-Nov-09 00:30N 24°32' E 118°19'460103545.1
2017-Nov-09 00:30N 31°59' E 120°26'699104913.8
2017-Nov-09 00:30N 22°00' E 113°40'704253455.1
2017-Nov-09 00:29N 31°32' E 121°20'701504637.2
2017-Nov-09 00:29N 22°17' E 113°20'70256189.0
2017-Nov-09 00:29N 31°21' E 121°38'66145750.1
2017-Nov-09 00:28N 22°59' E 113°34'171581.0
2017-Nov-09 00:27N 22°43' E 113°41'6732842.2
2017-Nov-09 00:13N 31°59' E 120°49'7063430.6
2017-Nov-09 00:01N 22°17' E 113°20'3358779.2
2017-Nov-09 00:00N 22°43' E 113°41'4174402.9
2017-Nov-09 00:00N 22°02' E 113°40'2240084.4
2017-Nov-09 00:00N 22°15' E 113°21'99357297.0
2017-Nov-09 00:00N 22°29' E 115°07'215110491.9
2017-Nov-09 00:00N 24°32' E 118°19'27535299.5
2017-Nov-09 00:00N 22°20' E 113°56'679122185.1
2017-Nov-08 23:59N 31°32' E 121°20'534789.0
2017-Nov-08 23:59N 31°59' E 120°26'7218444.5
2017-Nov-08 23:59N 31°21' E 121°38'66144886.9
2017-Nov-08 23:58N 22°59' E 113°34'66323883.6
2017-Nov-08 23:56N 31°59' E 120°49'1961.3
2017-Nov-08 23:37N 31°58' E 120°27'6946111.4
2017-Nov-08 23:31N 22°06' E 113°41'2114899.7
2017-Nov-08 23:30N 22°15' E 113°21'21721.9
2017-Nov-08 23:30N 22°17' E 113°20'306275349.4
2017-Nov-08 23:30N 24°32' E 118°19'275123548.4
2017-Nov-08 23:30N 22°20' E 113°56'2710940.3
2017-Nov-08 23:30N 22°43' E 113°41'66872891.0
2017-Nov-08 23:29N 31°32' E 121°20'368673.2
2017-Nov-08 23:29N 31°58' E 120°51'555451.6
2017-Nov-08 23:29N 31°21' E 121°38'66146647.2
2017-Nov-08 23:28N 22°59' E 113°34'6511529.8
2017-Nov-08 23:02N 31°59' E 120°26'69623846.7
2017-Nov-08 23:00N 22°15' E 113°21'21434.9
2017-Nov-08 23:00N 22°17' E 113°20'2215902.8
2017-Nov-08 23:00N 22°09' E 113°42'701504878.5
2017-Nov-08 23:00N 31°57' E 120°52'673220320.4
2017-Nov-08 23:00N 22°43' E 113°41'277249327.0
2017-Nov-08 23:00N 24°32' E 118°19'44955739.8
2017-Nov-08 22:59N 31°32' E 121°20'679143748.2
2017-Nov-08 22:59N 22°20' E 113°56'68069900.1
2017-Nov-08 22:59N 31°21' E 121°38'725268.9
2017-Nov-08 22:58N 31°59' E 120°26'65112745.2
2017-Nov-08 22:55N 22°59' E 113°34'1742.5
2017-Nov-08 22:31N 22°43' E 113°41'3122634.3
2017-Nov-08 22:30N 22°12' E 113°45'696501289.8
2017-Nov-08 22:30N 31°54' E 120°53'705423285.5
2017-Nov-08 22:30N 22°15' E 113°21'2623.4
2017-Nov-08 22:30N 22°17' E 113°20'70172091.0
2017-Nov-08 22:29N 31°32' E 121°20'449179605.9
2017-Nov-08 22:29N 24°32' E 118°19'44536394.5
2017-Nov-08 22:29N 31°21' E 121°38'7211225.6
2017-Nov-08 22:28N 31°59' E 120°26'65111384.2
2017-Nov-08 22:25N 22°59' E 113°34'277683.4
2017-Nov-08 22:00N 24°32' E 118°19'306550568.1
2017-Nov-08 22:00N 22°15' E 113°21'3329938.5
2017-Nov-08 22:00N 22°20' E 113°56'105362.8
2017-Nov-08 22:00N 22°14' E 113°47'254166.3
2017-Nov-08 22:00N 22°17' E 113°20'702252655.8
2017-Nov-08 22:00N 31°50' E 120°54'6691204370.9
2017-Nov-08 22:00N 22°43' E 113°41'668160348.9
2017-Nov-08 21:59N 31°32' E 121°20'191312.1
2017-Nov-08 21:59N 31°21' E 121°38'66146644.1
2017-Nov-08 21:58N 22°59' E 113°34'4399.3
2017-Nov-08 21:32N 22°21' E 113°57'8425.4
2017-Nov-08 21:31N 22°18' E 113°49'2619009.7
2017-Nov-08 21:30N 22°15' E 113°21'306122328.8
2017-Nov-08 21:30N 24°32' E 118°19'27482204.3
2017-Nov-08 21:30N 22°21' E 113°56'3430808.1
2017-Nov-08 21:30N 22°17' E 113°20'335605.3
2017-Nov-08 21:30N 22°43' E 113°41'275467.3
2017-Nov-08 21:29N 22°20' E 113°56'68050968.5
2017-Nov-08 21:29N 31°21' E 121°38'66147576.9
2017-Nov-08 21:28N 22°59' E 113°34'65971889.4
2017-Nov-08 21:27N 31°32' E 121°20'24209.5
2017-Nov-08 21:20N 31°47' E 120°59'2576.8
2017-Nov-08 21:01N 31°31' E 121°22'677348207.1
2017-Nov-08 21:00N 22°24' E 113°54'59014.7
2017-Nov-08 21:00N 22°20' E 113°56'3323950.1
2017-Nov-08 21:00N 22°15' E 113°21'306550568.1
2017-Nov-08 21:00N 24°32' E 118°19'30647885.6
2017-Nov-08 21:00N 22°17' E 113°20'3053269.6
2017-Nov-08 21:00N 22°21' E 113°51'241978.1
2017-Nov-08 20:59N 22°43' E 113°41'67073045.6
2017-Nov-08 20:59N 31°21' E 121°38'726978.7
2017-Nov-08 20:58N 31°59' E 120°26'651180388.5
2017-Nov-08 20:58N 22°59' E 113°34'6611457.8
2017-Nov-08 20:31N 31°44' E 121°07'2174399.8
2017-Nov-08 20:31N 31°30' E 121°24'6751214516.4
2017-Nov-08 20:30N 22°28' E 113°52'1832663.8
2017-Nov-08 20:30N 22°43' E 113°41'27799706.4
2017-Nov-08 20:30N 24°32' E 118°19'275197677.4
2017-Nov-08 20:30N 22°20' E 113°56'59585.1
2017-Nov-08 20:30N 22°24' E 113°53'67825969.4
2017-Nov-08 20:29N 31°21' E 121°38'7027615.7
2017-Nov-08 20:23N 22°17' E 113°20'441992.6
2017-Nov-08 20:22N 22°59' E 113°34'65149896.6
2017-Nov-08 20:21N 31°59' E 120°26'6621937.0
2017-Nov-08 20:00N 22°43' E 113°41'34121339.3
2017-Nov-08 20:00N 22°15' E 113°21'3329302.5
2017-Nov-08 20:00N 22°26' E 113°54'6761216451.4
2017-Nov-08 20:00N 31°28' E 121°27'6154510.0
2017-Nov-08 20:00N 31°59' E 120°26'667240254.1
2017-Nov-08 20:00N 22°32' E 113°50'1315438.5
2017-Nov-08 20:00N 22°20' E 113°56'345856.1
2017-Nov-08 20:00N 22°17' E 113°20'70237182.4
2017-Nov-08 19:59N 31°21' E 121°38'304875.8
2017-Nov-08 19:58N 31°41' E 121°11'66184963.2
2017-Nov-08 19:58N 22°59' E 113°34'6601455.2
2017-Nov-08 19:31N 31°26' E 121°31'703843360.2
2017-Nov-08 19:30N 22°15' E 113°21'704506873.8
2017-Nov-08 19:30N 31°38' E 121°15'453233056.5
2017-Nov-08 19:30N 24°32' E 118°19'275247096.8
2017-Nov-08 19:30N 22°20' E 113°56'63774.3
2017-Nov-08 19:30N 22°26' E 113°54'3329761.7
2017-Nov-08 19:30N 22°17' E 113°20'69460970.4
2017-Nov-08 19:29N 31°59' E 120°26'725734.6
2017-Nov-08 19:29N 31°21' E 121°38'67022321.0
2017-Nov-08 19:27N 22°43' E 113°41'17486.5
2017-Nov-08 19:25N 22°59' E 113°34'44109.8
2017-Nov-08 19:01N 22°17' E 113°20'7032529304.9
2017-Nov-08 19:01N 31°24' E 121°34'704633228.0
2017-Nov-08 19:00N 22°15' E 113°21'703632887.8
2017-Nov-08 19:00N 31°35' E 121°19'6802448764.0
2017-Nov-08 19:00N 22°20' E 113°56'275247096.8
2017-Nov-08 19:00N 24°32' E 118°19'27435181.7
2017-Nov-08 19:00N 22°26' E 113°54'2125537.6
2017-Nov-08 19:00N 22°43' E 113°41'670150668.6
2017-Nov-08 19:00N 31°21' E 121°38'6618317.6
2017-Nov-08 18:55N 22°59' E 113°34'6621640.1
2017-Nov-08 18:31N 31°22' E 121°39'704507212.4
2017-Nov-08 18:30N 22°15' E 113°21'703632738.3
2017-Nov-08 18:30N 31°32' E 121°23'450404572.5
2017-Nov-08 18:30N 24°32' E 118°19'2791003012.2
2017-Nov-08 18:30N 22°38' E 113°42'2316223.0
2017-Nov-08 18:30N 22°20' E 113°56'61423.6
2017-Nov-08 18:30N 22°26' E 113°54'339140.4
2017-Nov-08 18:30N 22°17' E 113°20'70223852.6
2017-Nov-08 18:28N 31°21' E 121°38'661148678.9
2017-Nov-08 18:28N 22°59' E 113°34'6603748.0
2017-Nov-08 18:17N 31°24' E 121°33'67319.6
2017-Nov-08 18:05N 31°59' E 120°26'69410372.0
2017-Nov-08 18:01N 22°17' E 113°20'7042533318.7
2017-Nov-08 18:01N 31°19' E 121°43'6772438479.4
2017-Nov-08 18:00N 22°26' E 113°54'3358522.0
2017-Nov-08 18:00N 22°15' E 113°21'7042533100.2
2017-Nov-08 18:00N 31°23' E 121°35'98304.2
2017-Nov-08 18:00N 31°29' E 121°27'67371263.5
2017-Nov-08 18:00N 22°39' E 113°41'67321446.5
2017-Nov-08 17:58N 31°21' E 121°38'67040860.2
2017-Nov-08 17:57N 22°43' E 113°41'6627968.2
2017-Nov-08 17:52N 31°59' E 120°26'65111965.0
2017-Nov-08 17:49N 22°59' E 113°34'6602179.8
2017-Nov-08 17:31N 31°25' E 121°31'1761304.3
2017-Nov-08 17:31N 31°15' E 121°47'6771217752.5
2017-Nov-08 17:30N 22°26' E 113°54'6771219017.1
2017-Nov-08 17:30N 31°21' E 121°39'7042536152.9
2017-Nov-08 17:30N 22°15' E 113°21'30108229.3
2017-Nov-08 17:30N 22°39' E 113°41'2328185.1
2017-Nov-08 17:30N 22°20' E 113°56'342565.7
2017-Nov-08 17:30N 22°17' E 113°20'694104150.1
2017-Nov-08 17:29N 31°59' E 120°26'723686.5
2017-Nov-08 17:28N 31°21' E 121°38'670602648.5
2017-Nov-08 17:28N 22°43' E 113°41'17320.5
2017-Nov-08 17:25N 22°59' E 113°34'6611637.7
2017-Nov-08 17:01N 31°23' E 121°35'85683.3
2017-Nov-08 17:00N 31°19' E 121°43'681490105.6
2017-Nov-08 17:00N 22°20' E 113°56'3323950.1
2017-Nov-08 17:00N 22°15' E 113°21'2374.6
2017-Nov-08 17:00N 22°17' E 113°20'702229880.2
2017-Nov-08 17:00N 31°11' E 121°51'676202714.4
2017-Nov-08 16:59N 22°26' E 113°54'211446.1
2017-Nov-08 16:59N 22°43' E 113°41'67065155.4
2017-Nov-08 16:58N 31°21' E 121°38'67360586.0
2017-Nov-08 16:57N 22°39' E 113°41'66616994.9
2017-Nov-08 16:55N 31°59' E 120°26'651156342.6
2017-Nov-08 16:55N 22°59' E 113°34'6621641.5
2017-Nov-08 16:31N 31°21' E 121°40'705422736.6
2017-Nov-08 16:30N 22°15' E 113°21'34120957.4
2017-Nov-08 16:30N 22°28' E 113°55'813860.9
2017-Nov-08 16:30N 22°20' E 113°56'275141196.6
2017-Nov-08 16:30N 24°32' E 118°19'443199413.7
2017-Nov-08 16:30N 31°16' E 121°46'674142729.4
2017-Nov-08 16:30N 22°39' E 113°41'67321638.2
2017-Nov-08 16:28N 31°21' E 121°38'661216258.8
2017-Nov-08 16:28N 22°59' E 113°34'44393.1
2017-Nov-08 16:21N 22°17' E 113°20'33938.8
2017-Nov-08 16:19N 22°43' E 113°41'6624892.1
2017-Nov-08 16:11N 31°59' E 120°26'77448.1
2017-Nov-08 16:01N 31°18' E 121°43'1969803.8
2017-Nov-08 16:01N 31°06' E 122°00'671483299.0
2017-Nov-08 16:00N 22°43' E 113°41'207830.0
2017-Nov-08 16:00N 22°29' E 113°55'96257.7
2017-Nov-08 16:00N 22°20' E 113°56'6741213940.9
2017-Nov-08 16:00N 31°59' E 120°26'8425116.7
2017-Nov-08 16:00N 31°13' E 121°49'67412371.9
2017-Nov-08 15:57N 22°39' E 113°41'67323528.7
2017-Nov-08 15:55N 31°21' E 121°38'661139932.1
2017-Nov-08 15:55N 22°59' E 113°34'44221.4
2017-Nov-08 15:43N 22°17' E 113°20'0 0.0
2017-Nov-08 15:31N 22°17' E 113°20'306275349.4
2017-Nov-08 15:30N 24°32' E 118°19'277996119.4
2017-Nov-08 15:30N 22°43' E 113°41'670603078.5
2017-Nov-08 15:30N 31°15' E 121°46'64508.3
2017-Nov-08 15:30N 31°11' E 121°51'673484831.1
2017-Nov-08 15:30N 22°39' E 113°41'168285.6
2017-Nov-08 15:30N 22°29' E 113°55'67767673.9
2017-Nov-08 15:29N 31°04' E 122°06'1016493.9
2017-Nov-08 15:29N 31°59' E 120°26'726974.8
2017-Nov-08 15:28N 31°21' E 121°38'661198235.9
2017-Nov-08 15:28N 22°59' E 113°34'6611459.0
2017-Nov-08 15:01N 31°13' E 121°49'7032529531.3
2017-Nov-08 15:01N 22°17' E 113°20'3329577.4
2017-Nov-08 15:00N 22°43' E 113°41'34122209.2
2017-Nov-08 15:00N 22°15' E 113°21'306110112.6
2017-Nov-08 15:00N 24°32' E 118°19'27971688.4
2017-Nov-08 15:00N 22°39' E 113°41'169659.8
2017-Nov-08 15:00N 22°29' E 113°55'96270.3
2017-Nov-08 15:00N 22°20' E 113°56'67932610.7
2017-Nov-08 14:59N 31°09' E 121°54'181640.1
2017-Nov-08 14:58N 31°21' E 121°38'661198235.9
2017-Nov-08 14:58N 22°59' E 113°34'6516321.1
2017-Nov-08 14:52N 31°59' E 120°26'1071798.9
2017-Nov-08 14:48N 31°00' E 122°11'6772318.7
2017-Nov-08 14:30N 22°29' E 113°55'3440735.3
2017-Nov-08 14:30N 22°15' E 113°21'703844121.1
2017-Nov-08 14:30N 31°10' E 121°52'679222271.0
2017-Nov-08 14:30N 22°20' E 113°56'275247094.1
2017-Nov-08 14:30N 24°32' E 118°19'27933454.6
2017-Nov-08 14:30N 22°39' E 113°41'67693660.8
2017-Nov-08 14:29N 30°58' E 122°12'381878.2
2017-Nov-08 14:28N 31°21' E 121°38'7223460.6
2017-Nov-08 14:28N 31°59' E 120°26'651335019.9
2017-Nov-08 14:28N 22°59' E 113°34'1787.9
2017-Nov-08 14:16N 22°43' E 113°41'67057463.4
2017-Nov-08 14:15N 31°07' E 121°57'70346887.3
2017-Nov-08 14:14N 22°17' E 113°20'35148.2
2017-Nov-08 14:00N 22°28' E 113°55'6741212604.6
2017-Nov-08 14:00N 31°09' E 121°54'670804040.2
2017-Nov-08 14:00N 22°44' E 113°40'3440780.2
2017-Nov-08 14:00N 22°15' E 113°21'306122347.3
2017-Nov-08 14:00N 24°32' E 118°19'27950180.5
2017-Nov-08 14:00N 22°39' E 113°41'666239628.4
2017-Nov-08 14:00N 31°59' E 120°26'1127212.7
2017-Nov-08 13:59N 30°55' E 122°14'413337.0
2017-Nov-08 13:58N 31°21' E 121°38'70213666.7
2017-Nov-08 13:55N 22°17' E 113°20'4417689.2
2017-Nov-08 13:55N 22°59' E 113°34'65210809.7
2017-Nov-08 13:51N 31°58' E 120°27'945633.1
2017-Nov-08 13:50N 31°06' E 121°58'6702050.0
2017-Nov-08 13:30N 22°48' E 113°37'3664946.4
2017-Nov-08 13:30N 22°15' E 113°21'7042535923.2
2017-Nov-08 13:30N 31°06' E 121°59'4391580554.3
2017-Nov-08 13:30N 24°32' E 118°19'440395603.5
2017-Nov-08 13:30N 31°07' E 121°57'93111611.3
2017-Nov-08 13:30N 31°59' E 120°26'66677299.1
2017-Nov-08 13:30N 22°39' E 113°41'656393312.3
2017-Nov-08 13:30N 30°37' E 122°03'655112275.6
2017-Nov-08 13:29N 22°28' E 113°55'67428874.0
2017-Nov-08 13:28N 31°21' E 121°38'68023523.9
2017-Nov-08 13:26N 22°20' E 113°56'44592.0
2017-Nov-08 13:22N 22°59' E 113°34'44265.3
2017-Nov-08 13:12N 22°17' E 113°20'36194.6
2017-Nov-08 13:00N 22°51' E 113°35'2791005120.3
2017-Nov-08 13:00N 24°32' E 118°19'306110113.6
2017-Nov-08 13:00N 22°15' E 113°21'3323950.8
2017-Nov-08 13:00N 22°20' E 113°56'344241.0
2017-Nov-08 13:00N 22°17' E 113°20'2810234.1
2017-Nov-08 13:00N 22°38' E 113°41'162307.8
2017-Nov-08 12:59N 22°28' E 113°55'67434648.6
2017-Nov-08 12:58N 31°21' E 121°38'661169918.8
2017-Nov-08 12:58N 22°59' E 113°34'64422744.1
2017-Nov-08 12:56N 30°37' E 122°03'1161462.8
2017-Nov-08 12:51N 31°59' E 120°26'118105929.9
2017-Nov-08 12:51N 30°47' E 122°16'117503.2
2017-Nov-08 12:37N 31°58' E 120°27'4604059.5
2017-Nov-08 12:30N 24°32' E 118°19'439315801.6
2017-Nov-08 12:30N 31°04' E 122°02'675809807.5
2017-Nov-08 12:30N 22°28' E 113°55'3417580.8
2017-Nov-08 12:30N 22°17' E 113°20'2825577.5
2017-Nov-08 12:30N 22°38' E 113°41'293393.0
2017-Nov-08 12:30N 22°15' E 113°21'337983.4
2017-Nov-08 12:29N 22°20' E 113°56'402593.7
2017-Nov-08 12:28N 22°54' E 113°34'65652500.6
2017-Nov-08 12:28N 31°59' E 120°26'11920359.8
2017-Nov-08 12:27N 30°45' E 122°15'481230.2
2017-Nov-08 12:25N 31°21' E 121°38'661148677.9
2017-Nov-08 12:25N 22°59' E 113°34'65210566.2
2017-Nov-08 12:21N 31°58' E 120°27'6762576.4
2017-Nov-08 12:05N 22°29' E 113°38'6778490.1
2017-Nov-08 12:01N 30°43' E 122°15'669301209.0
2017-Nov-08 12:00N 22°27' E 113°53'6772437297.2
2017-Nov-08 12:00N 31°03' E 122°04'438112722.5
2017-Nov-08 12:00N 24°32' E 118°19'279111709.3
2017-Nov-08 12:00N 22°38' E 113°41'298766.6
2017-Nov-08 12:00N 22°15' E 113°21'444516.6
2017-Nov-08 11:59N 22°58' E 113°32'442623.2
2017-Nov-08 11:58N 22°20' E 113°56'680188190.0
2017-Nov-08 11:58N 31°21' E 121°38'68324829.6
2017-Nov-08 11:56N 22°28' E 113°39'211173.0
2017-Nov-08 11:55N 22°17' E 113°20'44211.5
2017-Nov-08 11:43N 22°59' E 113°34'65248868.7
2017-Nov-08 11:42N 31°58' E 120°27'6753565.7
2017-Nov-08 11:31N 22°20' E 113°56'910761.2
2017-Nov-08 11:30N 22°28' E 113°52'3156304.0
2017-Nov-08 11:30N 22°15' E 113°21'4728203.1
2017-Nov-08 11:30N 23°01' E 113°32'2514878.0
2017-Nov-08 11:30N 22°38' E 113°41'66768570.7
2017-Nov-08 11:30N 31°58' E 120°27'1035441.5
2017-Nov-08 11:29N 31°01' E 122°07'70584571.7
2017-Nov-08 11:28N 22°17' E 113°20'702421415.0
2017-Nov-08 11:28N 31°21' E 121°38'661198237.3
2017-Nov-08 11:28N 22°59' E 113°34'331051.0
2017-Nov-08 11:26N 22°26' E 113°40'1126.6
2017-Nov-08 11:01N 22°38' E 113°41'1450281.3
2017-Nov-08 11:01N 22°28' E 113°52'275329553.9
2017-Nov-08 11:00N 24°32' E 118°19'3061101126.1
2017-Nov-08 11:00N 22°15' E 113°21'706635519.1
2017-Nov-08 11:00N 30°60' E 122°09'665598400.9
2017-Nov-08 11:00N 23°01' E 113°32'4724063.9
2017-Nov-08 11:00N 22°20' E 113°56'342084.5
2017-Nov-08 10:59N 22°17' E 113°20'70234168.8
2017-Nov-08 10:58N 31°21' E 121°38'661216258.8
2017-Nov-08 10:58N 22°59' E 113°34'65271081.7
2017-Nov-08 10:57N 31°58' E 120°27'6752553.3
2017-Nov-08 10:41N 22°27' E 113°42'947.7
2017-Nov-08 10:31N 22°28' E 113°52'3845375.2
2017-Nov-08 10:30N 23°01' E 113°32'278333742.4
2017-Nov-08 10:30N 24°32' E 118°19'279251345.9
2017-Nov-08 10:30N 22°38' E 113°41'1138005.3
2017-Nov-08 10:30N 22°27' E 113°43'2417209.5
2017-Nov-08 10:30N 22°15' E 113°21'3329936.8
2017-Nov-08 10:30N 22°20' E 113°56'67523806.6
2017-Nov-08 10:29N 31°58' E 120°27'69531649.7
2017-Nov-08 10:27N 22°17' E 113°20'70510199.5
2017-Nov-08 10:23N 30°57' E 122°13'6659205.2
2017-Nov-08 10:19N 22°59' E 113°34'66114594.1
2017-Nov-08 10:16N 31°21' E 121°38'6762582.7
2017-Nov-08 10:00N 22°28' E 113°52'275988661.6
2017-Nov-08 10:00N 24°32' E 118°19'3061101126.1
2017-Nov-08 10:00N 22°15' E 113°21'705634644.1
2017-Nov-08 10:00N 30°55' E 122°13'664478158.7
2017-Nov-08 10:00N 23°01' E 113°32'349487.6
2017-Nov-08 10:00N 22°29' E 113°45'268574.2
2017-Nov-08 10:00N 22°17' E 113°20'34122986.9
2017-Nov-08 10:00N 22°20' E 113°56'23435.0
2017-Nov-08 09:57N 22°38' E 113°41'67425276.6
2017-Nov-08 09:55N 31°21' E 121°38'66112325.6
2017-Nov-08 09:52N 22°59' E 113°34'6523239.9
2017-Nov-08 09:40N 31°58' E 120°27'6704379.6
2017-Nov-08 09:30N 22°30' E 113°47'3461143.6
2017-Nov-08 09:30N 23°01' E 113°32'47169239.7
2017-Nov-08 09:30N 22°15' E 113°21'31112608.0
2017-Nov-08 09:30N 22°28' E 113°52'98080.4
2017-Nov-08 09:30N 22°20' E 113°56'27539535.5
2017-Nov-08 09:30N 24°32' E 118°19'306275349.4
2017-Nov-08 09:30N 22°17' E 113°20'283100.3
2017-Nov-08 09:29N 22°38' E 113°41'67430331.9
2017-Nov-08 09:28N 31°21' E 121°38'661158589.8
2017-Nov-08 09:28N 22°59' E 113°34'652137981.1
2017-Nov-08 09:27N 31°58' E 120°27'6701489.6
2017-Nov-08 09:00N 22°28' E 113°52'3868062.8
2017-Nov-08 09:00N 23°01' E 113°32'47169239.7
2017-Nov-08 09:00N 22°15' E 113°21'303779.7
2017-Nov-08 09:00N 22°31' E 113°49'131808.9
2017-Nov-08 09:00N 22°20' E 113°56'3413665.6
2017-Nov-08 08:59N 22°17' E 113°20'7029541.6
2017-Nov-08 08:55N 31°21' E 121°38'661169917.6
2017-Nov-08 08:55N 22°59' E 113°34'6572295.8
2017-Nov-08 08:38N 30°46' E 122°13'6995890.9
2017-Nov-08 08:30N 22°15' E 113°21'4728206.6
2017-Nov-08 08:30N 23°01' E 113°32'278250306.8
2017-Nov-08 08:30N 24°32' E 118°19'275329462.4
2017-Nov-08 08:30N 22°20' E 113°56'112649.9
2017-Nov-08 08:30N 22°30' E 113°51'21565.0
2017-Nov-08 08:30N 22°28' E 113°52'321267.0
2017-Nov-08 08:28N 22°17' E 113°20'70293660.0
2017-Nov-08 08:28N 31°21' E 121°38'661182988.2
2017-Nov-08 08:28N 22°59' E 113°34'3577.8
2017-Nov-08 08:01N 22°28' E 113°52'3868062.8
2017-Nov-08 08:00N 23°01' E 113°32'4742309.9
2017-Nov-08 08:00N 22°15' E 113°21'306137640.8
2017-Nov-08 08:00N 24°32' E 118°19'306183632.1
2017-Nov-08 08:00N 22°17' E 113°20'341246.4
2017-Nov-08 07:59N 22°20' E 113°56'119758.3
2017-Nov-08 07:58N 22°30' E 113°52'67480882.5
2017-Nov-08 07:58N 31°21' E 121°38'67448517.2
2017-Nov-08 07:57N 22°38' E 113°41'6664915.8
2017-Nov-08 07:49N 31°59' E 120°26'651156337.9
2017-Nov-08 07:49N 22°59' E 113°34'259880.3
2017-Nov-08 07:31N 24°27' E 118°00'28828836.5
2017-Nov-08 07:31N 22°17' E 113°20'21453.2
2017-Nov-08 07:30N 22°15' E 113°21'3156304.0
2017-Nov-08 07:30N 22°28' E 113°52'1416616.1
2017-Nov-08 07:30N 22°38' E 113°41'2529748.3
2017-Nov-08 07:30N 23°01' E 113°32'278500609.8
2017-Nov-08 07:30N 24°32' E 118°19'183750.6
2017-Nov-08 07:30N 24°27' E 118°00'25725012.8
2017-Nov-08 07:29N 22°20' E 113°56'11797.4
2017-Nov-08 07:29N 22°30' E 113°52'67467401.1
2017-Nov-08 07:28N 31°21' E 121°38'661198235.9
2017-Nov-08 07:28N 22°59' E 113°34'65117632.5
2017-Nov-08 07:26N 31°59' E 120°26'6741619.7
2017-Nov-08 07:01N 22°20' E 113°56'6742427881.8
2017-Nov-08 07:01N 31°59' E 120°26'696500805.6
2017-Nov-08 07:00N 22°15' E 113°21'3116084.3
2017-Nov-08 07:00N 22°28' E 113°52'386484.9
2017-Nov-08 07:00N 23°01' E 113°32'27845510.0
2017-Nov-08 07:00N 24°32' E 118°19'27919318.3
2017-Nov-08 06:59N 22°38' E 113°41'133757.6
2017-Nov-08 06:59N 22°30' E 113°52'67467401.1
2017-Nov-08 06:58N 31°21' E 121°38'661169916.5
2017-Nov-08 06:58N 22°59' E 113°34'50741.4
2017-Nov-08 06:54N 22°33' E 114°20'18161.8
2017-Nov-08 06:47N 22°19' E 114°09'2071.3
2017-Nov-08 06:31N 22°30' E 113°51'2522339.2
2017-Nov-08 06:30N 22°34' E 114°18'5060237.3
2017-Nov-08 06:30N 23°01' E 113°32'38136012.4
2017-Nov-08 06:30N 22°28' E 113°52'27565906.1
2017-Nov-08 06:30N 24°32' E 118°19'279200913.9
2017-Nov-08 06:30N 22°38' E 113°41'231357.3
2017-Nov-08 06:29N 22°20' E 113°56'68037638.3
2017-Nov-08 06:28N 31°21' E 121°38'661148677.9
2017-Nov-08 06:28N 22°59' E 113°34'3577.6
2017-Nov-08 06:00N 22°28' E 113°52'2443196.2
2017-Nov-08 06:00N 22°35' E 114°17'49176117.2
2017-Nov-08 06:00N 23°01' E 113°32'27855623.3
2017-Nov-08 06:00N 24°32' E 118°19'275329451.1
2017-Nov-08 06:00N 22°30' E 113°51'123973.0
2017-Nov-08 06:00N 22°38' E 113°41'231938.6
2017-Nov-08 05:59N 22°20' E 113°56'68032619.6
2017-Nov-08 05:58N 31°21' E 121°38'6616377.6
2017-Nov-08 05:52N 22°59' E 113°34'6602202.9
2017-Nov-08 05:34N 31°33' E 121°20'67612613.0
2017-Nov-08 05:31N 22°28' E 113°52'2486386.1
2017-Nov-08 05:31N 22°35' E 114°17'33118310.0
2017-Nov-08 05:30N 22°38' E 113°41'279502280.2
2017-Nov-08 05:30N 24°32' E 118°19'3061101126.1
2017-Nov-08 05:30N 22°15' E 113°21'696131790.0
2017-Nov-08 05:30N 31°59' E 120°26'669343913.6
2017-Nov-08 05:30N 22°30' E 113°51'362942.8
2017-Nov-08 05:29N 23°01' E 113°32'66129743.8
2017-Nov-08 05:28N 31°21' E 121°38'661158590.9
2017-Nov-08 05:28N 22°59' E 113°34'66019483.1
2017-Nov-08 05:26N 31°33' E 121°21'53127.5
2017-Nov-08 05:00N 31°59' E 120°26'696626002.5
2017-Nov-08 05:00N 22°15' E 113°21'3122499.6
2017-Nov-08 05:00N 22°28' E 113°52'2428795.4
2017-Nov-08 05:00N 22°35' E 114°17'4988058.6
2017-Nov-08 05:00N 23°01' E 113°32'369250.2
2017-Nov-08 05:00N 22°30' E 113°51'675486201.7
2017-Nov-08 05:00N 31°31' E 121°24'680163242.3
2017-Nov-08 05:00N 22°20' E 113°56'68023300.0
2017-Nov-08 04:58N 31°21' E 121°38'661169918.8
2017-Nov-08 04:58N 22°59' E 113°34'222186.4
2017-Nov-08 04:57N 22°38' E 113°41'6661502.2
2017-Nov-08 04:30N 31°59' E 120°26'6961252005.1
2017-Nov-08 04:30N 22°15' E 113°21'3156253.4
2017-Nov-08 04:30N 22°28' E 113°52'910856.6
2017-Nov-08 04:30N 22°20' E 113°56'2421329.7
2017-Nov-08 04:30N 22°35' E 114°17'33118298.9
2017-Nov-08 04:30N 22°38' E 113°41'2512760.8
2017-Nov-08 04:30N 23°01' E 113°32'3616185.5
2017-Nov-08 04:30N 22°30' E 113°51'67521518.3
2017-Nov-08 04:28N 31°29' E 121°27'135053.7
2017-Nov-08 04:28N 31°21' E 121°38'661132158.2
2017-Nov-08 04:28N 22°59' E 113°34'2148.3
2017-Nov-08 04:01N 22°47' E 113°15'464919.1
2017-Nov-08 04:01N 22°20' E 113°56'275247094.1
2017-Nov-08 04:00N 24°32' E 118°19'448537366.1
2017-Nov-08 04:00N 31°28' E 121°28'657337982.2
2017-Nov-08 04:00N 22°35' E 114°17'3314786.2
2017-Nov-08 04:00N 22°38' E 113°41'125439.5
2017-Nov-08 04:00N 22°30' E 113°51'369247.5
2017-Nov-08 04:00N 23°01' E 113°32'474231.5
2017-Nov-08 03:59N 22°15' E 113°21'323635.2
2017-Nov-08 03:59N 22°47' E 113°15'68164551.5
2017-Nov-08 03:58N 31°21' E 121°38'661148680.0
2017-Nov-08 03:58N 22°59' E 113°34'4497.6
2017-Nov-08 03:31N 22°20' E 113°56'6801223212.5
2017-Nov-08 03:30N 31°26' E 121°30'6571182312.4
2017-Nov-08 03:30N 22°35' E 114°17'251904134.4
2017-Nov-08 03:30N 24°32' E 118°19'278111246.6
2017-Nov-08 03:30N 23°01' E 113°32'1934508.3
2017-Nov-08 03:30N 22°47' E 113°17'369875.1
2017-Nov-08 03:30N 22°30' E 113°51'911216.0
2017-Nov-08 03:30N 22°35' E 113°43'668480618.3
2017-Nov-08 03:30N 31°59' E 120°26'534358.9
2017-Nov-08 03:29N 31°37' E 121°23'707106118.6
2017-Nov-08 03:29N 22°15' E 113°21'70349645.4
2017-Nov-08 03:28N 31°21' E 121°38'661198238.6
2017-Nov-08 03:28N 22°59' E 113°34'4497.0
2017-Nov-08 03:00N 22°20' E 113°56'2421333.0
2017-Nov-08 03:00N 22°35' E 114°17'49176105.7
2017-Nov-08 03:00N 23°01' E 113°32'2781001227.1
2017-Nov-08 03:00N 24°32' E 118°19'27598829.3
2017-Nov-08 03:00N 22°30' E 113°51'71416.7
2017-Nov-08 03:00N 22°33' E 113°45'2814322.7
2017-Nov-08 03:00N 22°48' E 113°19'337344.1
2017-Nov-08 02:59N 22°15' E 113°21'69671543.7
2017-Nov-08 02:59N 31°59' E 120°26'724962.6
2017-Nov-08 02:58N 31°21' E 121°38'661169918.9
2017-Nov-08 02:58N 22°59' E 113°34'33108.3
2017-Nov-08 02:40N 22°31' E 113°52'1277.6
2017-Nov-08 02:31N 22°20' E 113°56'3323950.8
2017-Nov-08 02:30N 22°15' E 113°21'3015673.6
2017-Nov-08 02:30N 22°33' E 113°48'2796054.2
2017-Nov-08 02:30N 22°35' E 114°17'251301378.1
2017-Nov-08 02:30N 24°32' E 118°19'278100122.0
2017-Nov-08 02:30N 23°01' E 113°32'36129427.5
2017-Nov-08 02:30N 22°30' E 113°51'2874.2
2017-Nov-08 02:30N 22°31' E 113°52'66727901.4
2017-Nov-08 02:28N 31°59' E 120°26'728063.9
2017-Nov-08 02:28N 31°21' E 121°38'6616361.0
2017-Nov-08 02:22N 22°59' E 113°34'3 7.9
2017-Nov-08 02:00N 23°01' E 113°32'4742357.7
2017-Nov-08 02:00N 22°15' E 113°21'3238332.5
2017-Nov-08 02:00N 22°31' E 113°51'2317.6
2017-Nov-08 02:00N 22°30' E 113°51'275164717.2
2017-Nov-08 02:00N 24°32' E 118°19'46078889.5
2017-Nov-08 02:00N 31°59' E 120°26'652293602.0
2017-Nov-08 01:59N 22°35' E 114°17'2412188.4
2017-Nov-08 01:59N 22°20' E 113°56'68029124.8
2017-Nov-08 01:58N 31°21' E 121°38'661198240.0
2017-Nov-08 01:58N 22°59' E 113°34'33680.5
2017-Nov-08 01:55N 22°31' E 113°52'2355.6
2017-Nov-08 01:30N 22°35' E 114°17'2428203.0
2017-Nov-08 01:30N 22°28' E 113°52'274109644.0
2017-Nov-08 01:30N 24°32' E 118°19'274123524.5
2017-Nov-08 01:30N 22°30' E 113°51'30109777.7
2017-Nov-08 01:30N 22°14' E 113°23'3228643.7
2017-Nov-08 01:30N 22°45' E 113°23'40142772.2
2017-Nov-08 01:30N 22°20' E 113°56'4784223.6
2017-Nov-08 01:30N 23°01' E 113°32'3510541.5
2017-Nov-08 01:30N 22°31' E 113°52'66732869.6
2017-Nov-08 01:29N 31°59' E 120°26'727373.0
2017-Nov-08 01:28N 31°21' E 121°38'661158599.3
2017-Nov-08 01:28N 22°59' E 113°34'44183.1
2017-Nov-08 01:13N 22°17' E 113°20'45214.0
2017-Nov-08 01:01N 23°01' E 113°32'278250353.4
2017-Nov-08 01:00N 24°32' E 118°19'3041095118.0
2017-Nov-08 01:00N 22°12' E 113°25'306293.2
2017-Nov-08 01:00N 22°26' E 113°53'54132.1
2017-Nov-08 01:00N 22°30' E 113°51'1119388.7
2017-Nov-08 01:00N 22°20' E 113°56'12946.6
2017-Nov-08 00:59N 22°31' E 113°52'667342843.0
2017-Nov-08 00:59N 31°59' E 120°26'69442372.6
2017-Nov-08 00:58N 22°17' E 113°20'287768.5
2017-Nov-08 00:58N 22°45' E 113°26'66940813.7
2017-Nov-08 00:57N 31°15' E 121°31'65217019.3
2017-Nov-08 00:55N 22°59' E 113°34'66114595.1
2017-Nov-08 00:52N 31°21' E 121°38'6751885.5
2017-Nov-08 00:30N 22°29' E 113°52'3036011.6
2017-Nov-08 00:30N 22°10' E 113°26'697627331.5
2017-Nov-08 00:30N 31°59' E 120°26'6731211493.9
2017-Nov-08 00:30N 22°23' E 113°54'275247447.1
2017-Nov-08 00:30N 24°32' E 118°19'27582368.6
2017-Nov-08 00:30N 22°30' E 113°51'1112932.1
2017-Nov-08 00:30N 22°20' E 113°56'68019729.7
2017-Nov-08 00:28N 31°21' E 121°38'661169918.9
2017-Nov-08 00:28N 22°59' E 113°34'46853.6
2017-Nov-08 00:24N 22°35' E 114°17'552294.0
2017-Nov-08 00:23N 22°17' E 113°20'9724340.7
2017-Nov-08 00:10N 37°27' E 119°54'94461776.7
2017-Nov-08 00:09N 22°44' E 113°26'2892104.2
2017-Nov-08 00:00N 24°32' E 118°19'303545229.9
2017-Nov-08 00:00N 22°09' E 113°28'297337.1
2017-Nov-08 00:00N 22°20' E 113°56'830429.1
2017-Nov-08 00:00N 22°27' E 113°52'21673.3
2017-Nov-08 00:00N 22°30' E 113°51'67519131.6
2017-Nov-07 23:58N 31°21' E 121°38'6572364323.8
2017-Nov-07 23:58N 22°35' E 114°17'4612738.7
2017-Nov-07 23:58N 22°59' E 113°34'6517374.6
2017-Nov-07 23:52N 31°59' E 120°26'67280607.3
2017-Nov-07 23:52N 22°21' E 113°60'372447.4
2017-Nov-07 23:51N 22°17' E 113°20'28246.1
2017-Nov-07 23:44N 22°45' E 113°26'37162.8
2017-Nov-07 23:31N 22°20' E 113°56'87587.2
2017-Nov-07 23:30N 22°27' E 113°52'2748483.1
2017-Nov-07 23:30N 22°10' E 113°30'5130838.0
2017-Nov-07 23:30N 23°01' E 113°32'27877017.5
2017-Nov-07 23:30N 24°32' E 118°19'275988235.7
2017-Nov-07 23:30N 22°30' E 113°51'67518834.9
2017-Nov-07 23:28N 31°21' E 121°38'661158590.9
2017-Nov-07 23:28N 22°59' E 113°34'65180865.1
2017-Nov-07 23:27N 31°59' E 120°26'6686343.4
2017-Nov-07 23:21N 22°44' E 113°26'34100.6
2017-Nov-07 23:00N 22°11' E 113°32'2511131.3
2017-Nov-07 23:00N 22°27' E 113°52'275494505.3
2017-Nov-07 23:00N 24°32' E 118°19'27582352.1
2017-Nov-07 23:00N 22°30' E 113°51'111250.9
2017-Nov-07 23:00N 22°20' E 113°56'241497.1
2017-Nov-07 22:59N 22°35' E 114°17'65762218.6
2017-Nov-07 22:58N 31°21' E 121°38'661158590.9
2017-Nov-07 22:58N 22°59' E 113°34'16243.2
2017-Nov-07 22:54N 22°44' E 113°26'28242.5
2017-Nov-07 22:47N 22°17' E 113°20'3061130.7
2017-Nov-07 22:30N 24°32' E 118°19'2971069201.5
2017-Nov-07 22:30N 22°11' E 113°34'2320260.6
2017-Nov-07 22:30N 22°20' E 113°56'112583.9
2017-Nov-07 22:30N 22°30' E 113°51'21045.8
2017-Nov-07 22:30N 22°27' E 113°52'67619951.2
2017-Nov-07 22:28N 31°21' E 121°38'661158599.3
2017-Nov-07 22:28N 22°59' E 113°34'162115.6
2017-Nov-07 22:27N 22°44' E 113°26'28234.2
2017-Nov-07 22:20N 22°17' E 113°20'6862106.3
2017-Nov-07 22:00N 30°38' E 122°03'658790032.1
2017-Nov-07 22:00N 22°27' E 113°52'27589911.0
2017-Nov-07 22:00N 24°32' E 118°19'27598842.3
2017-Nov-07 22:00N 22°30' E 113°51'111618.1
2017-Nov-07 22:00N 22°20' E 113°56'68023752.6
2017-Nov-07 21:58N 31°21' E 121°38'661182989.5
2017-Nov-07 21:58N 22°59' E 113°34'16302.7
2017-Nov-07 21:54N 22°44' E 113°26'2972.9
2017-Nov-07 21:31N 22°27' E 113°52'2014227.1
2017-Nov-07 21:30N 22°11' E 113°40'292105287.7
2017-Nov-07 21:30N 24°32' E 118°19'275247099.5
2017-Nov-07 21:30N 22°20' E 113°56'119684.8
2017-Nov-07 21:30N 22°30' E 113°51'272372.2
2017-Nov-07 21:29N 22°44' E 113°27'67727377.0
2017-Nov-07 21:28N 31°21' E 121°38'66112262.3
2017-Nov-07 21:25N 22°59' E 113°34'355.4
2017-Nov-07 21:22N 23°01' E 113°32'491707.1
2017-Nov-07 21:20N 22°35' E 114°17'6578295.4
2017-Nov-07 21:15N 31°15' E 121°46'67728995.0
2017-Nov-07 21:14N 22°23' E 113°59'2 9.9
2017-Nov-07 21:00N 22°21' E 113°57'1656250.3
2017-Nov-07 21:00N 22°13' E 113°43'153556.6
2017-Nov-07 21:00N 22°20' E 113°56'82173.5
2017-Nov-07 21:00N 22°27' E 113°52'295464.0
2017-Nov-07 21:00N 22°44' E 113°27'478449.4
2017-Nov-07 20:59N 22°35' E 114°17'65729189.0
2017-Nov-07 20:58N 31°21' E 121°38'661148679.0
2017-Nov-07 20:58N 22°59' E 113°34'662183248.9
2017-Nov-07 20:57N 31°18' E 121°43'676105750.0
2017-Nov-07 20:57N 22°30' E 113°51'361995.2
2017-Nov-07 20:56N 23°01' E 113°32'6512562.2
2017-Nov-07 20:41N 31°59' E 120°26'74429.1
2017-Nov-07 20:30N 31°20' E 121°40'4451602373.0
2017-Nov-07 20:30N 24°32' E 118°19'286514979.0
2017-Nov-07 20:30N 22°14' E 113°46'1417084.4
2017-Nov-07 20:30N 22°27' E 113°52'3845938.9
2017-Nov-07 20:30N 23°01' E 113°32'369954.9
2017-Nov-07 20:30N 22°30' E 113°51'117763.1
2017-Nov-07 20:30N 22°20' E 113°56'3718888.7
2017-Nov-07 20:30N 22°44' E 113°27'362234.3
2017-Nov-07 20:29N 22°20' E 113°56'243118.5
2017-Nov-07 20:28N 22°35' E 114°17'65773885.1
2017-Nov-07 20:28N 31°21' E 121°38'661198237.3
2017-Nov-07 20:28N 22°59' E 113°34'1636.0
2017-Nov-07 20:00N 22°44' E 113°27'3461949.5
2017-Nov-07 20:00N 22°17' E 113°49'72445.6
2017-Nov-07 20:00N 22°20' E 113°56'105275.1
2017-Nov-07 20:00N 22°30' E 113°51'675303768.2
2017-Nov-07 20:00N 31°23' E 121°36'446320798.5
2017-Nov-07 20:00N 24°32' E 118°19'27570600.6
2017-Nov-07 20:00N 22°20' E 113°56'4885880.3
2017-Nov-07 20:00N 23°02' E 113°31'397070.3
2017-Nov-07 19:59N 22°27' E 113°52'67031745.2
2017-Nov-07 19:58N 31°59' E 120°26'7228671.5
2017-Nov-07 19:58N 31°21' E 121°38'661169920.0
2017-Nov-07 19:58N 22°59' E 113°34'461335.4
2017-Nov-07 19:56N 22°35' E 114°17'2456.7
2017-Nov-07 19:31N 22°20' E 113°56'  
Track history (hours):
 
Tides and Currents Weather Stations Pressure Air Temp Water Temp Dewpoint Dewpoint Depression Visibility Wind Speed Wind Dir Waves Ship Positions

Graceful Lady

Last reported at 2017-Nov-17 19:31 UTC. Time now 2017-Nov-17 19:36 UTC.
Position N 24°23' E 118°07'.

Type: Towing. MMSI: 200009587.

Date/timePositionNaut miles runAvg speedWind from/ knotsBaromVisibWave heightAir tempDewpointWater temp
2017-Nov-17 19:31N 24°23' E 118°07'266239240.9
2017-Nov-17 19:30N 23°02' E 113°31'6273979.7
2017-Nov-17 19:30N 22°01' E 113°41'10181831943.1
2017-Nov-17 19:30N 37°36' E 121°25'365328767.1
2017-Nov-17 19:30N 31°30' E 121°23'6771219058.9
2017-Nov-17 19:30N 22°33' E 113°40'28248348.4
2017-Nov-17 19:30N 24°32' E 118°19'27531883.8
2017-Nov-17 19:29N 22°20' E 113°56'604912.3
2017-Nov-17 19:29N 21°43' E 113°06'815026.7
2017-Nov-17 19:28N 22°59' E 113°34'22295.1
2017-Nov-17 19:23N 22°41' E 113°21'68017113.1
2017-Nov-17 19:21N 31°31' E 121°19'6752383.8
2017-Nov-17 19:04N 22°22' E 113°58'2604648.0
2017-Nov-17 19:01N 24°21' E 118°10'268240938.7
2017-Nov-17 19:00N 23°02' E 113°31'658474024.9
2017-Nov-17 19:00N 31°31' E 121°19'364262179.6
2017-Nov-17 19:00N 37°36' E 121°25'1018915971.6
2017-Nov-17 19:00N 22°01' E 113°41'29762805.1
2017-Nov-17 19:00N 24°32' E 118°19'448403249.7
2017-Nov-17 19:00N 31°31' E 121°19'736441820.0
2017-Nov-17 19:00N 21°42' E 113°04'618385.8
2017-Nov-17 18:59N 22°35' E 113°37'24898.5
2017-Nov-17 18:58N 22°59' E 113°34'444305.3
2017-Nov-17 18:57N 22°20' E 113°56'392772.3
2017-Nov-17 18:56N 22°41' E 113°21'40926.9
2017-Nov-17 18:54N 22°22' E 113°58'6751751.5
2017-Nov-17 18:31N 31°31' E 121°19'36487393.2
2017-Nov-17 18:30N 37°36' E 121°25'799151450.6
2017-Nov-17 18:30N 24°32' E 118°19'448403249.7
2017-Nov-17 18:30N 31°31' E 121°19'65887704.3
2017-Nov-17 18:29N 23°02' E 113°31'62110985.9
2017-Nov-17 18:29N 22°01' E 113°41'24881.5
2017-Nov-17 18:28N 22°20' E 113°56'4431859.2
2017-Nov-17 18:28N 22°59' E 113°34'834519.7
2017-Nov-17 18:27N 21°42' E 113°02'6210574.0
2017-Nov-17 18:26N 22°41' E 113°21'38101.5
2017-Nov-17 18:04N 22°21' E 113°56'2584720.6
2017-Nov-17 18:01N 24°12' E 118°10'259310261.7
2017-Nov-17 18:00N 22°22' E 113°55'27576076.0
2017-Nov-17 18:00N 24°32' E 118°19'799575512.2
2017-Nov-17 18:00N 37°36' E 121°25'994511455.9
2017-Nov-17 18:00N 22°20' E 113°56'2428757.3
2017-Nov-17 18:00N 22°01' E 113°41'7022527870.7
2017-Nov-17 18:00N 31°31' E 121°19'6581185062.2
2017-Nov-17 18:00N 23°02' E 113°31'658338290.5
2017-Nov-17 18:00N 31°31' E 121°19'68062748.0
2017-Nov-17 17:59N 22°41' E 113°21'22296.2
2017-Nov-17 17:55N 22°59' E 113°34'3894.2
2017-Nov-17 17:31N 22°26' E 113°53'256102511.9
2017-Nov-17 17:30N 24°08' E 118°09'825185536.5
2017-Nov-17 17:30N 37°36' E 121°25'79995918.7
2017-Nov-17 17:30N 24°32' E 118°19'29732354.2
2017-Nov-17 17:29N 22°01' E 113°41'6214798.8
2017-Nov-17 17:29N 23°02' E 113°31'4857411.4
2017-Nov-17 17:29N 22°20' E 113°56'67614229.4
2017-Nov-17 17:26N 31°21' E 121°30'14167.7
2017-Nov-17 17:21N 31°31' E 121°19'68061179.3
2017-Nov-17 17:20N 22°41' E 113°21'22933.8
2017-Nov-17 17:19N 22°59' E 113°34'61411.3
2017-Nov-17 17:10N 22°15' E 114°19'6714257.3
2017-Nov-17 17:01N 31°31' E 121°19'702842774.6
2017-Nov-17 17:00N 22°01' E 113°40'3054560.6
2017-Nov-17 17:00N 22°30' E 113°52'274109582.0
2017-Nov-17 17:00N 24°32' E 118°19'275494204.3
2017-Nov-17 17:00N 22°20' E 113°56'994275399.3
2017-Nov-17 17:00N 37°36' E 121°25'96557902.3
2017-Nov-17 16:59N 23°02' E 113°31'4181.2
2017-Nov-17 16:58N 22°59' E 113°34'65846425.7
2017-Nov-17 16:57N 31°31' E 121°19'4803665.4
2017-Nov-17 16:49N 24°02' E 118°08'2336762.4
2017-Nov-17 16:47N 22°18' E 114°22'6672436.3
2017-Nov-17 16:31N 31°32' E 121°19'699628660.9
2017-Nov-17 16:30N 22°05' E 113°41'2812572.5
2017-Nov-17 16:30N 22°32' E 113°49'275329895.5
2017-Nov-17 16:30N 24°32' E 118°19'799143878.1
2017-Nov-17 16:30N 37°36' E 121°25'364262290.0
2017-Nov-17 16:30N 31°31' E 121°19'67890351.8
2017-Nov-17 16:29N 22°20' E 113°56'487490.1
2017-Nov-17 16:29N 23°02' E 113°31'659742.6
2017-Nov-17 16:29N 22°19' E 114°24'61950.5
2017-Nov-17 16:25N 22°59' E 113°34'4 9.8
2017-Nov-17 16:01N 23°02' E 113°31'5347968.6
2017-Nov-17 16:00N 22°09' E 113°42'4415829.8
2017-Nov-17 16:00N 22°22' E 114°28'9823536617.9
2017-Nov-17 16:00N 37°36' E 121°25'985443474.7
2017-Nov-17 16:00N 22°34' E 113°46'672151223.8
2017-Nov-17 16:00N 31°31' E 121°19'67815440.0
2017-Nov-17 15:57N 22°20' E 113°56'441062.0
2017-Nov-17 15:55N 22°59' E 113°34'657131358.4
2017-Nov-17 15:54N 31°21' E 121°30'6795643.9
2017-Nov-17 15:47N 22°41' E 113°21'6802444.5
2017-Nov-17 15:31N 31°32' E 121°19'691207202.5
2017-Nov-17 15:30N 22°12' E 113°45'237688.0
2017-Nov-17 15:30N 22°36' E 113°43'2814425.2
2017-Nov-17 15:30N 23°02' E 113°31'965347415.7
2017-Nov-17 15:30N 37°36' E 121°25'3641311298.8
2017-Nov-17 15:30N 31°31' E 121°19'148459.5
2017-Nov-17 15:30N 31°21' E 121°30'67660830.7
2017-Nov-17 15:29N 22°20' E 113°56'441942.6
2017-Nov-17 15:28N 22°59' E 113°34'22176.8
2017-Nov-17 15:20N 22°41' E 113°21'6802072.2
2017-Nov-17 15:01N 31°32' E 121°19'68766817.8
2017-Nov-17 15:00N 22°16' E 113°47'1034583.0
2017-Nov-17 15:00N 22°20' E 113°56'2313603.9
2017-Nov-17 15:00N 22°38' E 113°41'9833540555.1
2017-Nov-17 15:00N 37°36' E 121°25'37453891.3
2017-Nov-17 14:59N 31°21' E 121°30'679349118.7
2017-Nov-17 14:59N 22°41' E 113°21'22881.9
2017-Nov-17 14:58N 22°59' E 113°34'65844676.2
2017-Nov-17 14:57N 31°31' E 121°19'8116.2
2017-Nov-17 14:53N 31°39' E 121°14'661113255.8
2017-Nov-17 14:52N 23°02' E 113°31'0 0.0
2017-Nov-17 14:30N 23°02' E 113°31'9653474157.3
2017-Nov-17 14:30N 37°36' E 121°25'998598994.0
2017-Nov-17 14:30N 22°18' E 113°50'214417.2
2017-Nov-17 14:30N 22°38' E 113°41'671219740.2
2017-Nov-17 14:30N 31°31' E 121°19'12485.5
2017-Nov-17 14:30N 31°32' E 121°19'65818660.8
2017-Nov-17 14:28N 22°59' E 113°34'65765679.2
2017-Nov-17 14:27N 31°21' E 121°30'676486641.8
2017-Nov-17 14:27N 22°20' E 113°56'392718.7
2017-Nov-17 14:26N 22°41' E 113°21'6801590.5
2017-Nov-17 14:01N 31°32' E 121°19'364145624.4
2017-Nov-17 14:00N 37°36' E 121°25'9831180185.0
2017-Nov-17 14:00N 22°38' E 113°41'1933480.3
2017-Nov-17 14:00N 22°22' E 113°51'4414461.6
2017-Nov-17 14:00N 23°02' E 113°31'658169150.9
2017-Nov-17 14:00N 31°31' E 121°19'67831683.4
2017-Nov-17 13:59N 22°20' E 113°56'443063.0
2017-Nov-17 13:58N 22°59' E 113°34'657788150.6
2017-Nov-17 13:58N 31°21' E 121°30'6793897.7
2017-Nov-17 13:47N 22°41' E 113°21'34123.1
2017-Nov-17 13:30N 22°24' E 113°53'54787.8
2017-Nov-17 13:30N 22°20' E 113°56'678488306.4
2017-Nov-17 13:30N 31°31' E 121°19'658592530.3
2017-Nov-17 13:30N 23°02' E 113°31'65894723.8
2017-Nov-17 13:30N 31°31' E 121°19'68069923.0
2017-Nov-17 13:29N 22°41' E 113°21'194594.2
2017-Nov-17 13:29N 22°38' E 113°41'6776789.3
2017-Nov-17 13:23N 31°18' E 121°47'14391.6
2017-Nov-17 13:21N 31°21' E 121°30'65718329.1
2017-Nov-17 13:19N 22°59' E 113°34'6582170.2
2017-Nov-17 13:01N 31°31' E 121°19'674606322.0
2017-Nov-17 13:00N 22°27' E 113°55'989356018.1
2017-Nov-17 13:00N 37°36' E 121°25'37474849.1
2017-Nov-17 13:00N 31°21' E 121°30'1410151.4
2017-Nov-17 13:00N 31°31' E 121°19'68059690.4
2017-Nov-17 12:59N 22°41' E 113°21'3917671.9
2017-Nov-17 12:59N 22°20' E 113°56'2327202.1
2017-Nov-17 12:59N 22°38' E 113°41'221012.1
2017-Nov-17 12:58N 22°59' E 113°34'42386.5
2017-Nov-17 12:58N 23°02' E 113°31'1126.5
2017-Nov-17 12:33N 23°02' E 113°42'65215238.0
2017-Nov-17 12:31N 31°31' E 121°19'658395017.3
2017-Nov-17 12:30N 23°02' E 113°31'965248155.5
2017-Nov-17 12:30N 37°36' E 121°25'987592313.5
2017-Nov-17 12:30N 22°29' E 113°55'151294.0
2017-Nov-17 12:29N 22°38' E 113°41'670482461.0
2017-Nov-17 12:29N 31°21' E 121°30'679814615.6
2017-Nov-17 12:29N 22°41' E 113°21'22891.8
2017-Nov-17 12:28N 22°59' E 113°34'65843051.6
2017-Nov-17 12:27N 31°31' E 121°19'65297752.9
2017-Nov-17 12:26N 23°01' E 113°42'4352175.4
2017-Nov-17 12:26N 22°20' E 113°56'138340.2
2017-Nov-17 12:02N 21°03' E 111°54'80830286.8
2017-Nov-17 12:01N 31°31' E 121°19'678406919.0
2017-Nov-17 12:00N 22°20' E 113°56'4317167.8
2017-Nov-17 12:00N 23°00' E 113°40'3430890.5
2017-Nov-17 12:00N 22°29' E 113°55'987592306.8
2017-Nov-17 12:00N 37°36' E 121°25'364100869.1
2017-Nov-17 12:00N 31°31' E 121°19'1412689.3
2017-Nov-17 12:00N 31°21' E 121°30'67967884.6
2017-Nov-17 11:59N 22°41' E 113°21'231209.7
2017-Nov-17 11:58N 23°02' E 113°31'4572.8
2017-Nov-17 11:58N 22°59' E 113°34'1485563.2
2017-Nov-17 11:56N 21°03' E 111°55'137164006.2
2017-Nov-17 11:56N 22°38' E 113°41'6721580.0
2017-Nov-17 11:31N 31°31' E 121°19'658395023.0
2017-Nov-17 11:30N 23°02' E 113°31'4047564.9
2017-Nov-17 11:30N 22°29' E 113°55'6702411825.9
2017-Nov-17 11:30N 31°21' E 121°30'37467364.2
2017-Nov-17 11:30N 37°36' E 121°25'9831180178.4
2017-Nov-17 11:30N 22°38' E 113°41'2316321.3
2017-Nov-17 11:30N 22°20' E 113°56'678813200.4
2017-Nov-17 11:30N 31°31' E 121°19'65498168.8
2017-Nov-17 11:29N 22°60' E 113°40'257057.6
2017-Nov-17 11:29N 22°41' E 113°21'22933.8
2017-Nov-17 11:28N 22°59' E 113°34'1455668.0
2017-Nov-17 11:26N 21°05' E 111°58'137318.2
2017-Nov-17 11:01N 22°29' E 113°55'672268841.8
2017-Nov-17 11:00N 31°31' E 121°19'65894806.2
2017-Nov-17 11:00N 23°02' E 113°31'231975.9
2017-Nov-17 10:59N 22°41' E 113°21'192022.0
2017-Nov-17 10:59N 22°38' E 113°41'13031088.0
2017-Nov-17 10:58N 21°07' E 112°02'130233236.3
2017-Nov-17 10:58N 22°20' E 113°56'676347598.8
2017-Nov-17 10:58N 31°21' E 121°30'65765679.2
2017-Nov-17 10:58N 22°59' E 113°34'65846428.2
2017-Nov-17 10:57N 31°31' E 121°19'65411493.0
2017-Nov-17 10:53N 22°60' E 113°40'142369.3
2017-Nov-17 10:30N 21°09' E 112°05'795572637.4
2017-Nov-17 10:30N 31°21' E 121°30'374336820.8
2017-Nov-17 10:30N 37°36' E 121°25'9943580130.7
2017-Nov-17 10:30N 22°20' E 113°56'678110890.1
2017-Nov-17 10:30N 31°31' E 121°19'68058269.2
2017-Nov-17 10:29N 22°41' E 113°21'191041.3
2017-Nov-17 10:28N 22°38' E 113°41'22143.5
2017-Nov-17 10:19N 22°59' E 113°34'2771149.5
2017-Nov-17 10:04N 24°32' E 118°19'3966204.4
2017-Nov-17 10:00N 21°11' E 112°08'119107549.8
2017-Nov-17 10:00N 22°22' E 113°52'192705.2
2017-Nov-17 10:00N 22°38' E 113°41'984708146.3
2017-Nov-17 10:00N 37°36' E 121°25'3641311277.2
2017-Nov-17 10:00N 31°31' E 121°19'65527749.2
2017-Nov-17 09:58N 22°59' E 113°39'272108917.1
2017-Nov-17 09:58N 24°32' E 118°19'27582364.7
2017-Nov-17 09:58N 22°20' E 113°56'447582.8
2017-Nov-17 09:58N 22°59' E 113°34'47134.0
2017-Nov-17 09:58N 23°02' E 113°31'22181.1
2017-Nov-17 09:50N 22°41' E 113°21'6807952.3
2017-Nov-17 09:45N 31°31' E 121°19'3641498.1
2017-Nov-17 09:31N 37°36' E 121°25'9991797314.2
2017-Nov-17 09:30N 22°18' E 113°50'28172227.0
2017-Nov-17 09:30N 24°32' E 118°19'27966891.4
2017-Nov-17 09:30N 23°02' E 113°31'658263129.3
2017-Nov-17 09:30N 31°31' E 121°19'671402885.2
2017-Nov-17 09:30N 22°38' E 113°41'21769.5
2017-Nov-17 09:28N 22°59' E 113°39'5697.6
2017-Nov-17 09:28N 22°59' E 113°34'441007.8
2017-Nov-17 09:25N 22°20' E 113°56'1171286.2
2017-Nov-17 09:20N 21°13' E 112°13'1082694.9
2017-Nov-17 09:17N 22°41' E 113°21'68019594.6
2017-Nov-17 09:15N 31°31' E 121°19'141173.6
2017-Nov-17 09:14N 31°21' E 121°30'6734701.2
2017-Nov-17 09:06N 22°23' E 113°59'99111013.8
2017-Nov-17 09:00N 37°36' E 121°25'965579042.8
2017-Nov-17 09:00N 23°02' E 113°31'4943888.0
2017-Nov-17 09:00N 22°15' E 113°48'687247152.4
2017-Nov-17 09:00N 31°31' E 121°19'1412323.1
2017-Nov-17 09:00N 31°21' E 121°30'443227633.2
2017-Nov-17 09:00N 24°32' E 118°19'448322627.9
2017-Nov-17 09:00N 31°31' E 121°19'671185945.7
2017-Nov-17 09:00N 22°38' E 113°41'193124.6
2017-Nov-17 08:59N 22°41' E 113°21'251514.7
2017-Nov-17 08:58N 22°59' E 113°39'4212599.3
2017-Nov-17 08:58N 22°20' E 113°56'447238.1
2017-Nov-17 08:58N 22°59' E 113°34'1272581.4
2017-Nov-17 08:55N 21°15' E 112°16'117771.2
2017-Nov-17 08:46N 22°23' E 113°58'47183.7
2017-Nov-17 08:30N 23°02' E 113°31'965868564.2
2017-Nov-17 08:30N 37°36' E 121°25'799575512.2
2017-Nov-17 08:30N 24°32' E 118°19'275988376.4
2017-Nov-17 08:30N 22°20' E 113°56'2327454.0
2017-Nov-17 08:30N 22°38' E 113°41'672483499.5
2017-Nov-17 08:30N 31°31' E 121°19'690414160.3
2017-Nov-17 08:30N 22°13' E 113°45'690275892.9
2017-Nov-17 08:30N 31°31' E 121°19'65327034.8
2017-Nov-17 08:28N 23°00' E 113°41'6522.4
2017-Nov-17 08:28N 22°59' E 113°34'22881.9
2017-Nov-17 08:26N 22°41' E 113°21'1011466.6
2017-Nov-17 08:22N 21°17' E 112°20'112679.9
2017-Nov-17 08:12N 22°23' E 113°58'23116.6
2017-Nov-17 08:01N 22°39' E 113°41'2912908.7
2017-Nov-17 08:00N 22°10' E 113°43'5331714.9
2017-Nov-17 08:00N 23°02' E 113°31'9653474256.7
2017-Nov-17 08:00N 37°36' E 121°25'994275396.2
2017-Nov-17 08:00N 22°20' E 113°56'275141198.2
2017-Nov-17 08:00N 24°32' E 118°19'448403289.9
2017-Nov-17 08:00N 31°31' E 121°19'65818498.8
2017-Nov-17 07:58N 22°59' E 113°34'65860765.5
2017-Nov-17 07:57N 31°31' E 121°19'6805930.5
2017-Nov-17 07:50N 22°41' E 113°21'972796.2
2017-Nov-17 07:48N 21°19' E 112°24'119406.6
2017-Nov-17 07:31N 23°02' E 113°31'5620076.8
2017-Nov-17 07:30N 22°07' E 113°41'1012910914.8
2017-Nov-17 07:30N 37°36' E 121°25'7992877540.0
2017-Nov-17 07:30N 24°32' E 118°19'448201811.1
2017-Nov-17 07:30N 31°31' E 121°19'7751395483.6
2017-Nov-17 07:30N 21°21' E 112°26'1172946.2
2017-Nov-17 07:28N 22°59' E 113°34'65847356.8
2017-Nov-17 07:27N 31°31' E 121°19'68062751.4
2017-Nov-17 07:26N 22°41' E 113°21'4299.0
2017-Nov-17 07:01N 22°03' E 113°41'5911220.8
2017-Nov-17 07:00N 23°02' E 113°31'27966891.4
2017-Nov-17 07:00N 24°32' E 118°19'448268856.5
2017-Nov-17 07:00N 31°31' E 121°19'771213517.5
2017-Nov-17 07:00N 21°23' E 112°30'1133553.0
2017-Nov-17 06:58N 22°59' E 113°34'65860763.3
2017-Nov-17 06:57N 31°32' E 121°19'68049984.3
2017-Nov-17 06:56N 22°41' E 113°21'67918237.7
2017-Nov-17 06:54N 31°21' E 121°30'6571678.6
2017-Nov-17 06:31N 23°02' E 113°31'6220182.9
2017-Nov-17 06:30N 22°01' E 113°40'1019261905.3
2017-Nov-17 06:30N 37°36' E 121°25'364436909.2
2017-Nov-17 06:30N 31°32' E 121°19'1204.1
2017-Nov-17 06:30N 31°31' E 121°19'448115225.7
2017-Nov-17 06:30N 24°32' E 118°19'36818424.1
2017-Nov-17 06:28N 21°25' E 112°34'11010114.6
2017-Nov-17 06:28N 22°59' E 113°34'511293.9
2017-Nov-17 06:25N 22°32' E 114°21'56414.9
2017-Nov-17 06:17N 22°41' E 113°21'9883544.8
2017-Nov-17 06:01N 37°36' E 121°25'975233915.1
2017-Nov-17 06:00N 22°34' E 114°18'4921931.7
2017-Nov-17 06:00N 22°00' E 113°40'29889397.5
2017-Nov-17 06:00N 24°32' E 118°19'279200671.3
2017-Nov-17 06:00N 23°02' E 113°31'222188.5
2017-Nov-17 05:59N 22°41' E 113°21'8410410.3
2017-Nov-17 05:59N 21°27' E 112°38'1065950.7
2017-Nov-17 05:58N 22°59' E 113°34'65865830.1
2017-Nov-17 05:57N 31°32' E 121°19'6677507.9
2017-Nov-17 05:52N 22°17' E 114°22'66710303.2
2017-Nov-17 05:48N 31°31' E 121°19'3641258.4
2017-Nov-17 05:31N 37°36' E 121°25'799191836.0
2017-Nov-17 05:30N 24°32' E 118°19'449161468.2
2017-Nov-17 05:30N 31°32' E 121°19'6562360298.8
2017-Nov-17 05:30N 22°35' E 114°17'4929108.7
2017-Nov-17 05:30N 22°01' E 113°40'703505954.9
2017-Nov-17 05:30N 31°31' E 121°19'759390461.0
2017-Nov-17 05:30N 21°29' E 112°42'1038617.7
2017-Nov-17 05:29N 23°02' E 113°31'4176.5
2017-Nov-17 05:28N 22°59' E 113°34'22177.1
2017-Nov-17 05:20N 22°41' E 113°21'9883002.9
2017-Nov-17 05:01N 37°36' E 121°25'975702241.3
2017-Nov-17 05:00N 22°34' E 114°15'4916159.3
2017-Nov-17 05:00N 23°02' E 113°31'10044875.4
2017-Nov-17 05:00N 21°31' E 112°45'5811027.8
2017-Nov-17 05:00N 22°00' E 113°40'29834605.8
2017-Nov-17 04:59N 24°32' E 118°19'295353915.0
2017-Nov-17 04:59N 22°41' E 113°21'22862.7
2017-Nov-17 04:58N 22°59' E 113°34'6584258.6
2017-Nov-17 04:48N 31°31' E 121°19'3641218.7
2017-Nov-17 04:30N 37°36' E 121°25'975877746.3
2017-Nov-17 04:30N 22°34' E 114°15'4756257.2
2017-Nov-17 04:30N 22°01' E 113°40'5412140.1
2017-Nov-17 04:30N 21°33' E 112°49'96115542.9
2017-Nov-17 04:30N 23°02' E 113°31'27914754.9
2017-Nov-17 04:29N 24°32' E 118°19'44832917.3
2017-Nov-17 04:28N 31°31' E 121°19'65898663.0
2017-Nov-17 04:28N 22°59' E 113°34'65864053.1
2017-Nov-17 04:27N 31°32' E 121°19'6805974.3
2017-Nov-17 04:20N 22°41' E 113°21'42127.2
2017-Nov-17 04:00N 22°04' E 113°41'10153654626.1
2017-Nov-17 04:00N 37°36' E 121°25'9751755492.5
2017-Nov-17 04:00N 22°34' E 114°15'253101133.1
2017-Nov-17 04:00N 24°32' E 118°19'348113892.3
2017-Nov-17 04:00N 21°35' E 112°53'74822632.6
2017-Nov-17 03:58N 31°31' E 121°19'658102951.0
2017-Nov-17 03:58N 22°59' E 113°34'65862367.5
2017-Nov-17 03:57N 31°32' E 121°19'6805988.8
2017-Nov-17 03:50N 22°41' E 113°21'39119.3
2017-Nov-17 03:31N 22°07' E 113°42'1012728514.3
2017-Nov-17 03:30N 37°36' E 121°25'9753510965.3
2017-Nov-17 03:30N 22°34' E 114°15'9241462.5
2017-Nov-17 03:30N 21°37' E 112°56'3441239052.2
2017-Nov-17 03:30N 24°32' E 118°19'279143333.5
2017-Nov-17 03:30N 23°02' E 113°31'658790075.9
2017-Nov-17 03:30N 31°32' E 121°19'118.1
2017-Nov-17 03:28N 31°31' E 121°19'65811722.2
2017-Nov-17 03:25N 22°59' E 113°34'22882.1
2017-Nov-17 03:23N 22°41' E 113°21'3798.2
2017-Nov-17 03:00N 22°10' E 113°43'10091210210.6
2017-Nov-17 03:00N 37°36' E 121°25'9753510965.3
2017-Nov-17 03:00N 22°34' E 114°15'253113774.7
2017-Nov-17 03:00N 24°32' E 118°19'449146792.9
2017-Nov-17 03:00N 31°32' E 121°19'658131679.3
2017-Nov-17 03:00N 23°02' E 113°31'232190.6
2017-Nov-17 02:59N 22°41' E 113°21'22892.0
2017-Nov-17 02:58N 22°59' E 113°34'856685.4
2017-Nov-17 02:57N 21°40' E 113°01'74024456.8
2017-Nov-17 02:55N 31°31' E 121°19'67814102.0
2017-Nov-17 02:52N 22°20' E 113°56'6762855.9
2017-Nov-17 02:38N 31°21' E 121°30'3742948.1
2017-Nov-17 02:30N 37°36' E 121°25'9751755482.7
2017-Nov-17 02:30N 22°34' E 114°15'4935440.7
2017-Nov-17 02:30N 23°02' E 113°31'279501667.2
2017-Nov-17 02:30N 24°32' E 118°19'27919670.6
2017-Nov-17 02:29N 22°09' E 113°59'684351806.7
2017-Nov-17 02:29N 31°21' E 121°30'14716.0
2017-Nov-17 02:28N 31°31' E 121°19'736120492.7
2017-Nov-17 02:28N 21°42' E 113°04'82147236.7
2017-Nov-17 02:28N 22°59' E 113°34'65865832.3
2017-Nov-17 02:27N 31°32' E 121°19'68043740.1
2017-Nov-17 02:26N 22°41' E 113°21'9882298.3
2017-Nov-17 02:00N 37°36' E 121°25'975351096.5
2017-Nov-17 02:00N 22°34' E 114°15'657394257.9
2017-Nov-17 02:00N 31°32' E 121°19'44948931.0
2017-Nov-17 02:00N 24°32' E 118°19'443265572.1
2017-Nov-17 02:00N 31°21' E 121°30'657788338.1
2017-Nov-17 01:59N 23°02' E 113°31'236754.3
2017-Nov-17 01:59N 22°41' E 113°21'29315301.7
2017-Nov-17 01:58N 24°15' E 118°23'27639692.6
2017-Nov-17 01:58N 22°59' E 113°34'7817505.6
2017-Nov-17 01:57N 21°46' E 113°07'48228.1
2017-Nov-17 01:45N 22°07' E 113°54'1285.3
2017-Nov-17 01:36N 22°17' E 113°48'45454.0
2017-Nov-17 01:30N 21°48' E 113°10'75271289.4
2017-Nov-17 01:30N 22°34' E 114°15'4929533.9
2017-Nov-17 01:30N 23°02' E 113°31'658197519.0
2017-Nov-17 01:30N 31°32' E 121°19'684246379.1
2017-Nov-17 01:30N 22°18' E 113°49'2821015679.8
2017-Nov-17 01:30N 24°32' E 118°19'28554044.4
2017-Nov-17 01:30N 22°06' E 113°52'457770.5
2017-Nov-17 01:29N 22°41' E 113°21'68035990.5
2017-Nov-17 01:28N 31°31' E 121°19'14589.3
2017-Nov-17 01:27N 31°21' E 121°30'46246161.5
2017-Nov-17 01:26N 24°12' E 118°19'27111620.5
2017-Nov-17 01:25N 22°59' E 113°34'54134.1
2017-Nov-17 01:00N 22°07' E 113°48'37132713.5
2017-Nov-17 01:00N 22°34' E 114°15'657124496.1
2017-Nov-17 01:00N 31°32' E 121°19'47277209.7
2017-Nov-17 01:00N 24°08' E 118°16'26734338.5
2017-Nov-17 00:59N 22°20' E 113°51'68135521.3
2017-Nov-17 00:58N 31°31' E 121°19'14686.2
2017-Nov-17 00:57N 31°21' E 121°30'65717912.4
2017-Nov-17 00:55N 22°59' E 113°34'45112.8
2017-Nov-17 00:31N 22°34' E 114°15'4035585.3
2017-Nov-17 00:30N 22°06' E 113°45'10111213763.1
2017-Nov-17 00:30N 37°36' E 121°25'36448543.9
2017-Nov-17 00:30N 31°32' E 121°19'119.5
2017-Nov-17 00:28N 31°31' E 121°19'658112769.0
2017-Nov-17 00:28N 23°02' E 113°31'42386.5
2017-Nov-17 00:28N 22°59' E 113°34'22944.9
2017-Nov-17 00:26N 22°41' E 113°21'68218449.1
2017-Nov-17 00:24N 31°25' E 121°31'6571666.0
2017-Nov-17 00:00N 22°34' E 114°16'42151723.2
2017-Nov-17 00:00N 22°07' E 113°42'10121214368.8
2017-Nov-17 00:00N 37°36' E 121°25'965694835.4
2017-Nov-17 00:00N 23°02' E 113°31'2791003334.5
2017-Nov-17 00:00N 24°32' E 118°19'446535707.4
2017-Nov-17 00:00N 31°26' E 121°29'68241586.3
2017-Nov-16 23:59N 22°41' E 113°21'68017371.0
2017-Nov-16 23:57N 31°32' E 121°19'6587644.7
2017-Nov-16 23:52N 22°59' E 113°34'65815276.7
2017-Nov-16 23:49N 31°31' E 121°19'7122284.4
2017-Nov-16 23:30N 21°57' E 113°27'59211201.9
2017-Nov-16 23:30N 22°34' E 114°16'975877248.5
2017-Nov-16 23:30N 37°36' E 121°25'799575512.2
2017-Nov-16 23:30N 24°32' E 118°19'44870199.2
2017-Nov-16 23:30N 31°32' E 121°19'658182319.1
2017-Nov-16 23:30N 23°02' E 113°31'4122.2
2017-Nov-16 23:28N 22°59' E 113°34'22872.2
2017-Nov-16 23:26N 22°41' E 113°21'68038846.9
2017-Nov-16 23:25N 31°31' E 121°19'6731931.9
2017-Nov-16 23:04N 22°29' E 113°52'38611.2
2017-Nov-16 23:01N 23°02' E 113°31'5246787.3
2017-Nov-16 23:00N 22°10' E 113°37'1241860.3
2017-Nov-16 23:00N 21°60' E 113°31'1022736034.5
2017-Nov-16 23:00N 37°36' E 121°25'799125112.3
2017-Nov-16 23:00N 24°32' E 118°19'4481614581.7
2017-Nov-16 23:00N 31°32' E 121°19'119.4
2017-Nov-16 22:58N 31°31' E 121°19'65894715.6
2017-Nov-16 22:58N 22°59' E 113°34'6575117.9
2017-Nov-16 22:50N 31°21' E 121°30'6792294.7
2017-Nov-16 22:32N 22°41' E 113°21'98833861.5
2017-Nov-16 22:31N 37°36' E 121°25'1011727862.7
2017-Nov-16 22:30N 22°11' E 113°34'45163434.9
2017-Nov-16 22:30N 22°34' E 114°16'5036079.3
2017-Nov-16 22:30N 23°02' E 113°31'5970690.1
2017-Nov-16 22:30N 22°03' E 113°31'706121013.7
2017-Nov-16 22:30N 31°32' E 121°19'4481614581.7
2017-Nov-16 22:30N 24°32' E 118°19'5889415701.9
2017-Nov-16 22:29N 49°18' W 122°54'5397334974.0
2017-Nov-16 22:28N 31°31' E 121°19'65894715.6
2017-Nov-16 22:28N 22°59' E 113°34'22126.4
2017-Nov-16 22:17N 22°41' E 113°21'6832452.3
2017-Nov-16 22:01N 31°25' E 121°32'658473508.2
2017-Nov-16 22:00N 22°34' E 114°16'5036079.3
2017-Nov-16 22:00N 23°02' E 113°31'27938583.7
2017-Nov-16 22:00N 24°32' E 118°19'5890261756.8
2017-Nov-16 21:59N 49°18' W 122°53'5397777197.8
2017-Nov-16 21:58N 31°31' E 121°19'65884567.5
2017-Nov-16 21:58N 22°59' E 113°34'65850422.3
2017-Nov-16 21:57N 31°32' E 121°19'68056960.8
2017-Nov-16 21:56N 22°41' E 113°21'6793658.4
2017-Nov-16 21:45N 31°21' E 121°30'7042892.9
2017-Nov-16 21:30N 22°03' E 113°30'623078.9
2017-Nov-16 21:30N 22°09' E 113°29'5247216.6
2017-Nov-16 21:30N 23°02' E 113°31'9651737098.4
2017-Nov-16 21:30N 37°36' E 121°25'3741347304.7
2017-Nov-16 21:30N 31°21' E 121°30'142064.3
2017-Nov-16 21:30N 31°32' E 121°19'44884978.0
2017-Nov-16 21:30N 24°32' E 118°19'44818123.4
2017-Nov-16 21:28N 31°31' E 121°19'68021851.4
2017-Nov-16 21:26N 22°41' E 113°21'22844.4
2017-Nov-16 21:25N 22°59' E 113°34'618773261.5
2017-Nov-16 21:20N 49°18' W 122°58'623819512.2
2017-Nov-16 21:00N 22°03' E 113°31'53189348.1
2017-Nov-16 21:00N 22°34' E 114°16'5022655.2
2017-Nov-16 21:00N 23°02' E 113°31'2791003177.1
2017-Nov-16 21:00N 24°32' E 118°19'799137027.7
2017-Nov-16 21:00N 37°36' E 121°25'364655342.2
2017-Nov-16 21:00N 31°32' E 121°19'68061232.8
2017-Nov-16 20:59N 22°41' E 113°21'62133727785.0
2017-Nov-16 20:59N 49°18' W 122°58'539380894.9
2017-Nov-16 20:55N 31°31' E 121°19'658102951.8
2017-Nov-16 20:55N 22°59' E 113°34'65747289.4
2017-Nov-16 20:54N 31°21' E 121°30'7041799.9
2017-Nov-16 20:30N 22°03' E 113°31'5395875.3
2017-Nov-16 20:30N 22°35' E 114°17'251113027.0
2017-Nov-16 20:30N 24°32' E 118°19'3041095144.8
2017-Nov-16 20:30N 22°13' E 113°24'4919767.4
2017-Nov-16 20:30N 23°02' E 113°31'658263340.1
2017-Nov-16 20:30N 31°32' E 121°19'68055666.2
2017-Nov-16 20:29N 22°41' E 113°21'62153196305.9
2017-Nov-16 20:29N 49°18' W 122°56'5395451651.7
2017-Nov-16 20:28N 31°21' E 121°30'142946.6
2017-Nov-16 20:28N 31°31' E 121°19'658112756.7
2017-Nov-16 20:28N 22°59' E 113°34'46101.0
2017-Nov-16 20:00N 22°35' E 114°17'53191591.1
2017-Nov-16 20:00N 22°03' E 113°31'1020244680.4
2017-Nov-16 20:00N 37°36' E 121°25'965694835.5
2017-Nov-16 20:00N 23°02' E 113°31'279100317.7
2017-Nov-16 20:00N 24°32' E 118°19'44326557.2
2017-Nov-16 19:59N 31°21' E 121°30'65733302.1
2017-Nov-16 19:58N 22°59' E 113°34'65850422.3
2017-Nov-16 19:57N 31°32' E 121°19'68055666.2
2017-Nov-16 19:56N 22°41' E 113°21'68038239.9
2017-Nov-16 19:55N 31°31' E 121°19'539571930.7
2017-Nov-16 19:51N 49°18' W 122°56'623736037.6
2017-Nov-16 19:40N 22°17' E 113°20'17106.4
2017-Nov-16 19:30N 22°03' E 113°31'53191591.1
2017-Nov-16 19:30N 22°35' E 114°17'25190421.6
2017-Nov-16 19:30N 24°32' E 118°19'279111464.1
2017-Nov-16 19:30N 23°02' E 113°31'9653474177.6
2017-Nov-16 19:30N 37°36' E 121°25'364131066.3
2017-Nov-16 19:30N 31°32' E 121°19'119.2
2017-Nov-16 19:28N 31°31' E 121°19'658102951.8
2017-Nov-16 19:28N 22°59' E 113°34'6189655277.1
2017-Nov-16 19:27N 49°18' W 122°56'6237510282.0
2017-Nov-16 19:26N 22°17' E 113°20'24157.7
2017-Nov-16 19:17N 22°41' E 113°21'67916401.5
2017-Nov-16 19:15N 31°21' E 121°30'6572759.6
2017-Nov-16 19:00N 23°02' E 113°31'59211745.6
2017-Nov-16 19:00N 22°03' E 113°31'1020141161.8
2017-Nov-16 19:00N 37°36' E 121°25'364262132.6
2017-Nov-16 19:00N 31°32' E 121°19'143303.0
2017-Nov-16 19:00N 31°21' E 121°30'443531144.2
2017-Nov-16 19:00N 24°32' E 118°19'25129168.3
2017-Nov-16 18:59N 22°35' E 114°17'461948.4
2017-Nov-16 18:58N 22°59' E 113°34'6189365229.2
2017-Nov-16 18:57N 49°18' W 122°56'6215107052.9
2017-Nov-16 18:53N 22°41' E 113°21'68038846.9
2017-Nov-16 18:52N 31°31' E 121°19'70039984.2
2017-Nov-16 18:51N 22°17' E 113°20'1750.5
2017-Nov-16 18:30N 22°03' E 113°31'304109422.9
2017-Nov-16 18:30N 24°32' E 118°19'3061101160.7
2017-Nov-16 18:30N 22°17' E 113°20'698628616.3
2017-Nov-16 18:30N 31°21' E 121°30'143097.5
2017-Nov-16 18:30N 31°32' E 121°19'3641310641.2
2017-Nov-16 18:30N 37°36' E 121°25'50871308016.7
2017-Nov-16 18:30N 49°18' W 122°56'61891392579.5
2017-Nov-16 18:29N 23°02' E 113°31'502997.5
2017-Nov-16 18:28N 22°35' E 114°17'655138715.4
2017-Nov-16 18:28N 31°31' E 121°19'65811664.5
2017-Nov-16 18:25N 22°59' E 113°34'22853.5
2017-Nov-16 18:23N 22°41' E 113°21'39104.0
2017-Nov-16 18:00N 22°03' E 113°31'5942357.7
2017-Nov-16 18:00N 23°02' E 113°31'965579039.5
2017-Nov-16 18:00N 37°36' E 121°25'79936424.8
2017-Nov-16 17:59N 24°32' E 118°19'44832918.4
2017-Nov-16 17:58N 31°31' E 121°19'65891073.3
2017-Nov-16 17:58N 22°59' E 113°34'65852664.8
2017-Nov-16 17:57N 31°32' E 121°19'65632778.3
2017-Nov-16 17:56N 22°35' E 114°17'6177717295.6
2017-Nov-16 17:55N 49°18' W 122°56'621546515.8
2017-Nov-16 17:47N 22°41' E 113°21'39141.2
2017-Nov-16 17:30N 22°03' E 113°30'304121621.8
2017-Nov-16 17:30N 24°32' E 118°19'27938590.4
2017-Nov-16 17:30N 23°02' E 113°31'9653474216.9
2017-Nov-16 17:30N 37°36' E 121°25'36412986.9
2017-Nov-16 17:28N 31°31' E 121°19'5395809244.0
2017-Nov-16 17:28N 49°18' W 122°56'5394396313.0
2017-Nov-16 17:27N 31°32' E 121°19'68059741.0
2017-Nov-16 17:26N 22°41' E 113°21'22862.7
2017-Nov-16 17:25N 22°59' E 113°34'65784444.7
2017-Nov-16 17:24N 31°21' E 121°30'65313745.8
2017-Nov-16 17:21N 22°33' E 114°19'9752797.8
2017-Nov-16 17:01N 37°36' E 121°25'10191222945.6
2017-Nov-16 17:00N 22°04' E 113°29'70677038.0
2017-Nov-16 17:00N 31°32' E 121°19'53942157733.8
2017-Nov-16 17:00N 49°18' W 122°56'53951618437.6
2017-Nov-16 17:00N 31°21' E 121°30'44393731.3
2017-Nov-16 16:59N 24°32' E 118°19'2796044.3
2017-Nov-16 16:57N 23°02' E 113°31'234500.7
2017-Nov-16 16:56N 22°41' E 113°21'22891.8
2017-Nov-16 16:55N 22°59' E 113°34'65815276.6
2017-Nov-16 16:52N 31°31' E 121°19'7031944.4
2017-Nov-16 16:30N 22°08' E 113°26'10163657156.5
2017-Nov-16 16:30N 37°36' E 121°25'965231613.1
2017-Nov-16 16:30N 23°02' E 113°31'27971667.3
2017-Nov-16 16:30N 24°32' E 118°19'44814663.5
2017-Nov-16 16:28N 31°31' E 121°19'658102951.8
2017-Nov-16 16:28N 22°59' E 113°34'65849373.9
2017-Nov-16 16:27N 31°32' E 121°19'6445201.6
2017-Nov-16 16:19N 22°31' E 114°46'802107.8
2017-Nov-16 16:17N 22°41' E 113°21'9883509.8
2017-Nov-16 16:00N 37°36' E 121°25'1013729312.9
2017-Nov-16 16:00N 22°12' E 113°25'30454761.6
2017-Nov-16 16:00N 24°32' E 118°19'4491614702.3
2017-Nov-16 16:00N 31°32' E 121°19'68061235.3
2017-Nov-16 15:59N 22°41' E 113°21'68035990.5
2017-Nov-16 15:58N 31°31' E 121°19'65867661.4
2017-Nov-16 15:58N 23°02' E 113°31'484.2
2017-Nov-16 15:55N 22°59' E 113°34'46114.4
2017-Nov-16 15:30N 22°15' E 113°22'4857432.0
2017-Nov-16 15:30N 23°02' E 113°31'965496305.4
2017-Nov-16 15:30N 37°36' E 121°25'36462405.3
2017-Nov-16 15:30N 31°32' E 121°19'120.3
2017-Nov-16 15:28N 31°31' E 121°19'65811439.2
2017-Nov-16 15:25N 22°59' E 113°34'675024.3
2017-Nov-16 15:24N 22°29' E 114°39'736292.8
2017-Nov-16 15:23N 22°41' E 113°21'2669.1
2017-Nov-16 15:00N 22°15' E 113°21'1012303516.9
2017-Nov-16 15:00N 37°36' E 121°25'974318729.7
2017-Nov-16 15:00N 22°28' E 114°36'6910836.9
2017-Nov-16 15:00N 23°02' E 113°31'65824927.3
2017-Nov-16 14:58N 31°31' E 121°19'658102953.2
2017-Nov-16 14:58N 22°59' E 113°34'65850425.1
2017-Nov-16 14:57N 31°32' E 121°19'68061236.1
2017-Nov-16 14:56N 22°41' E 113°21'29553086.9
2017-Nov-16 14:56N 24°32' E 118°19'306848.3
2017-Nov-16 14:34N 22°17' E 113°20'101014723.8
2017-Nov-16 14:30N 37°36' E 121°25'98861300.6
2017-Nov-16 14:29N 22°41' E 113°21'68038847.7
2017-Nov-16 14:28N 31°31' E 121°19'129.8
2017-Nov-16 14:27N 31°32' E 121°19'70178910.4
2017-Nov-16 14:26N 22°15' E 113°21'486117.6
2017-Nov-16 14:26N 23°02' E 113°31'2795511.9
2017-Nov-16 14:23N 24°32' E 118°19'27713636.3
2017-Nov-16 14:22N 22°59' E 113°34'9662681.1
2017-Nov-16 14:00N 37°36' E 121°25'364145610.0
2017-Nov-16 14:00N 31°32' E 121°19'65869710.0
2017-Nov-16 13:59N 23°02' E 113°31'238111.5
2017-Nov-16 13:59N 22°41' E 113°21'265895.6
2017-Nov-16 13:59N 22°15' E 113°21'70151492.3
2017-Nov-16 13:58N 31°31' E 121°19'65894718.2
2017-Nov-16 13:58N 22°59' E 113°34'642668.5
2017-Nov-16 13:56N 22°25' E 114°32'244877148.3
2017-Nov-16 13:56N 24°32' E 118°19'3051045.1
2017-Nov-16 13:39N 22°14' E 113°23'62440.7
2017-Nov-16 13:30N 22°23' E 114°30'981207699.5
2017-Nov-16 13:30N 37°36' E 121°25'364262106.6
2017-Nov-16 13:30N 31°32' E 121°19'701132899.9
2017-Nov-16 13:30N 22°15' E 113°21'4834262.8
2017-Nov-16 13:30N 23°02' E 113°31'235069.7
2017-Nov-16 13:29N 22°41' E 113°21'68036528.7
2017-Nov-16 13:28N 31°31' E 121°19'65894718.2
2017-Nov-16 13:28N 22°59' E 113°34'49135.8
2017-Nov-16 13:06N 22°11' E 113°25'7026850.1
2017-Nov-16 13:00N 31°32' E 121°19'7022528208.4
2017-Nov-16 13:00N 22°11' E 113°26'5720648.3
2017-Nov-16 13:00N 22°21' E 114°27'669859.7
2017-Nov-16 12:59N 23°02' E 113°31'65832001.5
2017-Nov-16 12:58N 31°31' E 121°19'65894717.6
2017-Nov-16 12:58N 22°59' E 113°34'22912.5
2017-Nov-16 12:56N 22°41' E 113°21'26377.2
2017-Nov-16 12:52N 22°15' E 113°21'3062164.4
2017-Nov-16 12:44N 24°32' E 118°19'2703344.9
2017-Nov-16 12:39N 23°06' E 113°38'1 6.4
2017-Nov-16 12:30N 23°06' E 113°37'65112874.0
2017-Nov-16 12:27N 31°32' E 121°19'70132793.5
2017-Nov-16 12:26N 22°15' E 113°21'1012607050.0
2017-Nov-16 12:26N 37°36' E 121°25'36462457.9
2017-Nov-16 12:25N 31°31' E 121°19'448115218.6
2017-Nov-16 12:25N 24°32' E 118°19'27776573.1
2017-Nov-16 12:25N 22°59' E 113°34'41284.9
2017-Nov-16 12:25N 23°02' E 113°31'23101.6
2017-Nov-16 12:11N 22°41' E 113°21'33178.2
2017-Nov-16 12:00N 22°10' E 113°31'5137041.4
2017-Nov-16 12:00N 23°02' E 113°31'52920.9
2017-Nov-16 12:00N 23°05' E 113°34'653213863.8
2017-Nov-16 12:00N 31°32' E 121°19'364327671.1
2017-Nov-16 12:00N 37°36' E 121°25'98898762.6
2017-Nov-16 11:59N 22°41' E 113°21'68037652.6
2017-Nov-16 11:58N 31°31' E 121°19'65811551.0
2017-Nov-16 11:55N 22°59' E 113°34'46346.2
2017-Nov-16 11:47N 22°15' E 113°21'30622487.4
2017-Nov-16 11:46N 24°32' E 118°19'7993107.5
2017-Nov-16 11:31N 37°36' E 121°25'799191837.4
2017-Nov-16 11:30N 24°32' E 118°19'29753462.2
2017-Nov-16 11:30N 22°11' E 113°34'332836.4
2017-Nov-16 11:29N 22°41' E 113°21'2712023.1
2017-Nov-16 11:29N 23°05' E 113°34'4274.7
2017-Nov-16 11:28N 23°02' E 113°31'4589.4
2017-Nov-16 11:28N 22°59' E 113°34'65815179.2
2017-Nov-16 11:25N 31°31' E 121°19'70114670.2
2017-Nov-16 11:22N 22°15' E 113°21'1644.5
2017-Nov-16 11:00N 22°10' E 113°37'10103636965.3
2017-Nov-16 11:00N 37°36' E 121°25'799287756.1
2017-Nov-16 11:00N 24°32' E 118°19'27959010.0
2017-Nov-16 11:00N 23°02' E 113°31'658474008.7
2017-Nov-16 11:00N 31°32' E 121°19'70170143.1
2017-Nov-16 10:59N 22°15' E 113°21'2618874.2
2017-Nov-16 10:59N 22°41' E 113°21'68038847.9
2017-Nov-16 10:58N 31°31' E 121°19'65887702.1
2017-Nov-16 10:58N 22°59' E 113°34'645.5
2017-Nov-16 10:50N 23°05' E 113°34'413.0
2017-Nov-16 10:30N 23°02' E 113°31'5145988.5
2017-Nov-16 10:30N 22°11' E 113°40'1008726048.1
2017-Nov-16 10:30N 37°36' E 121°25'799959187.1
2017-Nov-16 10:30N 24°32' E 118°19'44873390.1
2017-Nov-16 10:30N 31°32' E 121°19'70125767.0
2017-Nov-16 10:28N 22°15' E 113°21'701252329.3
2017-Nov-16 10:28N 31°31' E 121°19'67322432.3
2017-Nov-16 10:26N 22°17' E 114°10'542007.2
2017-Nov-16 10:25N 22°59' E 113°34'66135506.4
2017-Nov-16 10:24N 31°43' E 121°07'683117068.9
2017-Nov-16 10:23N 22°41' E 113°21'2713743.4
2017-Nov-16 10:23N 23°05' E 113°34'53139.0
2017-Nov-16 10:00N 22°13' E 113°42'1006329305.4
2017-Nov-16 10:00N 37°36' E 121°25'965496296.9
2017-Nov-16 10:00N 23°02' E 113°31'4813184.0
2017-Nov-16 10:00N 22°15' E 113°21'7012525150.2
2017-Nov-16 10:00N 31°32' E 121°19'119.4
2017-Nov-16 09:58N 31°31' E 121°19'65894718.2
2017-Nov-16 09:58N 22°59' E 113°34'6213.6
2017-Nov-16 09:56N 23°05' E 113°34'65721300.3
2017-Nov-16 09:54N 31°43' E 121°09'68310162.6
2017-Nov-16 09:50N 22°41' E 113°21'6815497.3
2017-Nov-16 09:43N 31°24' E 121°31'6824343.9
2017-Nov-16 09:33N 22°20' E 113°51'6126.6
2017-Nov-16 09:31N 22°20' E 113°56'4810116.5
2017-Nov-16 09:30N 23°02' E 113°31'4633152.8
2017-Nov-16 09:30N 22°19' E 113°50'683491669.2
2017-Nov-16 09:30N 31°25' E 121°31'446802584.5
2017-Nov-16 09:30N 24°32' E 118°19'7992877561.2
2017-Nov-16 09:30N 37°36' E 121°25'3531271541.9
2017-Nov-16 09:30N 31°43' E 121°09'6822454417.9
2017-Nov-16 09:30N 22°20' E 113°56'678143617.9
2017-Nov-16 09:30N 31°32' E 121°19'701252515.0
2017-Nov-16 09:30N 22°15' E 113°21'21924.6
2017-Nov-16 09:28N 22°15' E 113°43'689137807.0
2017-Nov-16 09:28N 31°31' E 121°19'65898664.8
2017-Nov-16 09:28N 22°59' E 113°34'22872.2
2017-Nov-16 09:26N 22°41' E 113°21'27697.8
2017-Nov-16 09:24N 23°05' E 113°34'49125.2
2017-Nov-16 09:00N 22°17' E 113°44'42751.9
2017-Nov-16 09:00N 22°16' E 113°48'6871236698.2
2017-Nov-16 09:00N 31°27' E 121°28'447804421.3